<?xml version="1.0" encoding="UTF-8" standalone="no" ?>
<gpx xmlns="http://www.topografix.com/GPX/1/1" xmlns:xsi="http://www.w3.org/2001/XMLSchema-instance" xsi:schemaLocation="http://www.topografix.com/GPX/1/1 http://www.topografix.com/GPX/1/1/gpx.xsd" version="1.1" creator="VisuGPX - https://www.visugpx.com">
  <metadata>
    <name>trip 11/****SityTrail - VTT ransart terril 1/fleurus</name>
  </metadata>
  <trk>
    <name><![CDATA[SityTrail - VTT ransart terril 1]]></name>
    <extensions>
      <line xmlns="http://www.topografix.com/GPX/gpx_style/0/2">
        <color>0000FF</color>
        <width>4</width>
      </line>
    </extensions>
    <trkseg>
      <trkpt lat="50.4619" lon="4.48255">
        <ele>174</ele>
        <time>2021-11-11T08:11:00Z</time>
      </trkpt>
      <trkpt lat="50.46198" lon="4.48248">
        <ele>174</ele>
        <time>2021-11-11T08:11:02Z</time>
      </trkpt>
      <trkpt lat="50.46207" lon="4.48245">
        <ele>174</ele>
        <time>2021-11-11T08:11:04Z</time>
      </trkpt>
      <trkpt lat="50.46215" lon="4.48244">
        <ele>175</ele>
        <time>2021-11-11T08:11:06Z</time>
      </trkpt>
      <trkpt lat="50.46224" lon="4.48245">
        <ele>175</ele>
        <time>2021-11-11T08:11:08Z</time>
      </trkpt>
      <trkpt lat="50.46233" lon="4.48247">
        <ele>175</ele>
        <time>2021-11-11T08:11:10Z</time>
      </trkpt>
      <trkpt lat="50.46243" lon="4.48249">
        <ele>176</ele>
        <time>2021-11-11T08:11:12Z</time>
      </trkpt>
      <trkpt lat="50.46252" lon="4.48251">
        <ele>176</ele>
        <time>2021-11-11T08:11:14Z</time>
      </trkpt>
      <trkpt lat="50.46261" lon="4.48253">
        <ele>176</ele>
        <time>2021-11-11T08:11:16Z</time>
      </trkpt>
      <trkpt lat="50.4627" lon="4.48257">
        <ele>177</ele>
        <time>2021-11-11T08:11:18Z</time>
      </trkpt>
      <trkpt lat="50.4628" lon="4.48259">
        <ele>177</ele>
        <time>2021-11-11T08:11:20Z</time>
      </trkpt>
      <trkpt lat="50.4629" lon="4.48261">
        <ele>177</ele>
        <time>2021-11-11T08:11:22Z</time>
      </trkpt>
      <trkpt lat="50.46299" lon="4.48263">
        <ele>178</ele>
        <time>2021-11-11T08:11:24Z</time>
      </trkpt>
      <trkpt lat="50.46309" lon="4.48264">
        <ele>178</ele>
        <time>2021-11-11T08:11:26Z</time>
      </trkpt>
      <trkpt lat="50.46318" lon="4.48264">
        <ele>178</ele>
        <time>2021-11-11T08:11:28Z</time>
      </trkpt>
      <trkpt lat="50.46328" lon="4.48264">
        <ele>178</ele>
        <time>2021-11-11T08:11:30Z</time>
      </trkpt>
      <trkpt lat="50.46337" lon="4.48265">
        <ele>178</ele>
        <time>2021-11-11T08:11:32Z</time>
      </trkpt>
      <trkpt lat="50.46346" lon="4.48265">
        <ele>178</ele>
        <time>2021-11-11T08:11:34Z</time>
      </trkpt>
      <trkpt lat="50.46355" lon="4.48265">
        <ele>178</ele>
        <time>2021-11-11T08:11:36Z</time>
      </trkpt>
      <trkpt lat="50.46363" lon="4.48265">
        <ele>178</ele>
        <time>2021-11-11T08:11:38Z</time>
      </trkpt>
      <trkpt lat="50.46372" lon="4.48267">
        <ele>178</ele>
        <time>2021-11-11T08:11:40Z</time>
      </trkpt>
      <trkpt lat="50.46379" lon="4.48272">
        <ele>178</ele>
        <time>2021-11-11T08:11:42Z</time>
      </trkpt>
      <trkpt lat="50.46385" lon="4.48281">
        <ele>178</ele>
        <time>2021-11-11T08:11:44Z</time>
      </trkpt>
      <trkpt lat="50.46393" lon="4.48288">
        <ele>178</ele>
        <time>2021-11-11T08:11:46Z</time>
      </trkpt>
      <trkpt lat="50.46402" lon="4.48289">
        <ele>178</ele>
        <time>2021-11-11T08:11:48Z</time>
      </trkpt>
      <trkpt lat="50.46412" lon="4.48291">
        <ele>176</ele>
        <time>2021-11-11T08:11:50Z</time>
      </trkpt>
      <trkpt lat="50.46422" lon="4.48292">
        <ele>176</ele>
        <time>2021-11-11T08:11:52Z</time>
      </trkpt>
      <trkpt lat="50.46431" lon="4.48293">
        <ele>177</ele>
        <time>2021-11-11T08:11:54Z</time>
      </trkpt>
      <trkpt lat="50.46443" lon="4.48292">
        <ele>177</ele>
        <time>2021-11-11T08:11:56Z</time>
      </trkpt>
      <trkpt lat="50.46454" lon="4.48293">
        <ele>177</ele>
        <time>2021-11-11T08:11:58Z</time>
      </trkpt>
      <trkpt lat="50.46465" lon="4.48293">
        <ele>177</ele>
        <time>2021-11-11T08:12:00Z</time>
      </trkpt>
      <trkpt lat="50.46476" lon="4.48293">
        <ele>177</ele>
        <time>2021-11-11T08:12:02Z</time>
      </trkpt>
      <trkpt lat="50.46486" lon="4.48295">
        <ele>178</ele>
        <time>2021-11-11T08:12:04Z</time>
      </trkpt>
      <trkpt lat="50.46497" lon="4.48298">
        <ele>178</ele>
        <time>2021-11-11T08:12:06Z</time>
      </trkpt>
      <trkpt lat="50.46508" lon="4.48302">
        <ele>178</ele>
        <time>2021-11-11T08:12:08Z</time>
      </trkpt>
      <trkpt lat="50.46519" lon="4.48307">
        <ele>178</ele>
        <time>2021-11-11T08:12:10Z</time>
      </trkpt>
      <trkpt lat="50.4653" lon="4.48311">
        <ele>178</ele>
        <time>2021-11-11T08:12:12Z</time>
      </trkpt>
      <trkpt lat="50.46541" lon="4.48309">
        <ele>178</ele>
        <time>2021-11-11T08:12:14Z</time>
      </trkpt>
      <trkpt lat="50.46551" lon="4.48302">
        <ele>178</ele>
        <time>2021-11-11T08:12:16Z</time>
      </trkpt>
      <trkpt lat="50.46561" lon="4.48296">
        <ele>178</ele>
        <time>2021-11-11T08:12:18Z</time>
      </trkpt>
      <trkpt lat="50.46573" lon="4.48294">
        <ele>177</ele>
        <time>2021-11-11T08:12:20Z</time>
      </trkpt>
      <trkpt lat="50.46584" lon="4.48297">
        <ele>177</ele>
        <time>2021-11-11T08:12:22Z</time>
      </trkpt>
      <trkpt lat="50.46595" lon="4.48304">
        <ele>177</ele>
        <time>2021-11-11T08:12:24Z</time>
      </trkpt>
      <trkpt lat="50.46604" lon="4.48315">
        <ele>175</ele>
        <time>2021-11-11T08:12:26Z</time>
      </trkpt>
      <trkpt lat="50.46613" lon="4.48328">
        <ele>176</ele>
        <time>2021-11-11T08:12:28Z</time>
      </trkpt>
      <trkpt lat="50.46622" lon="4.48341">
        <ele>176</ele>
        <time>2021-11-11T08:12:30Z</time>
      </trkpt>
      <trkpt lat="50.46632" lon="4.48352">
        <ele>173</ele>
        <time>2021-11-11T08:12:32Z</time>
      </trkpt>
      <trkpt lat="50.46643" lon="4.48357">
        <ele>173</ele>
        <time>2021-11-11T08:12:34Z</time>
      </trkpt>
      <trkpt lat="50.46655" lon="4.48361">
        <ele>171</ele>
        <time>2021-11-11T08:12:36Z</time>
      </trkpt>
      <trkpt lat="50.46667" lon="4.48365">
        <ele>171</ele>
        <time>2021-11-11T08:12:38Z</time>
      </trkpt>
      <trkpt lat="50.46679" lon="4.48369">
        <ele>171</ele>
        <time>2021-11-11T08:12:40Z</time>
      </trkpt>
      <trkpt lat="50.46691" lon="4.48374">
        <ele>170</ele>
        <time>2021-11-11T08:12:42Z</time>
      </trkpt>
      <trkpt lat="50.46704" lon="4.48379">
        <ele>168</ele>
        <time>2021-11-11T08:12:44Z</time>
      </trkpt>
      <trkpt lat="50.46716" lon="4.48383">
        <ele>168</ele>
        <time>2021-11-11T08:12:46Z</time>
      </trkpt>
      <trkpt lat="50.46729" lon="4.48387">
        <ele>168</ele>
        <time>2021-11-11T08:12:48Z</time>
      </trkpt>
      <trkpt lat="50.46742" lon="4.48392">
        <ele>169</ele>
        <time>2021-11-11T08:12:50Z</time>
      </trkpt>
      <trkpt lat="50.46754" lon="4.48396">
        <ele>169</ele>
        <time>2021-11-11T08:12:52Z</time>
      </trkpt>
      <trkpt lat="50.46767" lon="4.48401">
        <ele>170</ele>
        <time>2021-11-11T08:12:54Z</time>
      </trkpt>
      <trkpt lat="50.46779" lon="4.48405">
        <ele>169</ele>
        <time>2021-11-11T08:12:56Z</time>
      </trkpt>
      <trkpt lat="50.46792" lon="4.4841">
        <ele>168</ele>
        <time>2021-11-11T08:12:58Z</time>
      </trkpt>
      <trkpt lat="50.46804" lon="4.48414">
        <ele>168</ele>
        <time>2021-11-11T08:13:00Z</time>
      </trkpt>
      <trkpt lat="50.46822" lon="4.4842">
        <ele>168</ele>
        <time>2021-11-11T08:13:02Z</time>
      </trkpt>
      <trkpt lat="50.46837" lon="4.48425">
        <ele>168</ele>
        <time>2021-11-11T08:13:04Z</time>
      </trkpt>
      <trkpt lat="50.4685" lon="4.48429">
        <ele>168</ele>
        <time>2021-11-11T08:13:06Z</time>
      </trkpt>
      <trkpt lat="50.46862" lon="4.48434">
        <ele>169</ele>
        <time>2021-11-11T08:13:08Z</time>
      </trkpt>
      <trkpt lat="50.46874" lon="4.48438">
        <ele>169</ele>
        <time>2021-11-11T08:13:10Z</time>
      </trkpt>
      <trkpt lat="50.46886" lon="4.48443">
        <ele>170</ele>
        <time>2021-11-11T08:13:12Z</time>
      </trkpt>
      <trkpt lat="50.46898" lon="4.48447">
        <ele>170</ele>
        <time>2021-11-11T08:13:14Z</time>
      </trkpt>
      <trkpt lat="50.46909" lon="4.48452">
        <ele>170</ele>
        <time>2021-11-11T08:13:16Z</time>
      </trkpt>
      <trkpt lat="50.4692" lon="4.48457">
        <ele>170</ele>
        <time>2021-11-11T08:13:18Z</time>
      </trkpt>
      <trkpt lat="50.46931" lon="4.48463">
        <ele>171</ele>
        <time>2021-11-11T08:13:20Z</time>
      </trkpt>
      <trkpt lat="50.46942" lon="4.48469">
        <ele>171</ele>
        <time>2021-11-11T08:13:22Z</time>
      </trkpt>
      <trkpt lat="50.46953" lon="4.48475">
        <ele>171</ele>
        <time>2021-11-11T08:13:24Z</time>
      </trkpt>
      <trkpt lat="50.46964" lon="4.48481">
        <ele>171</ele>
        <time>2021-11-11T08:13:26Z</time>
      </trkpt>
      <trkpt lat="50.46975" lon="4.48488">
        <ele>172</ele>
        <time>2021-11-11T08:13:28Z</time>
      </trkpt>
      <trkpt lat="50.46986" lon="4.48494">
        <ele>172</ele>
        <time>2021-11-11T08:13:30Z</time>
      </trkpt>
      <trkpt lat="50.46997" lon="4.48501">
        <ele>171</ele>
        <time>2021-11-11T08:13:32Z</time>
      </trkpt>
      <trkpt lat="50.47007" lon="4.48507">
        <ele>171</ele>
        <time>2021-11-11T08:13:34Z</time>
      </trkpt>
      <trkpt lat="50.47018" lon="4.48513">
        <ele>171</ele>
        <time>2021-11-11T08:13:36Z</time>
      </trkpt>
      <trkpt lat="50.47029" lon="4.48521">
        <ele>170</ele>
        <time>2021-11-11T08:13:38Z</time>
      </trkpt>
      <trkpt lat="50.47038" lon="4.48532">
        <ele>170</ele>
        <time>2021-11-11T08:13:40Z</time>
      </trkpt>
      <trkpt lat="50.47044" lon="4.48547">
        <ele>170</ele>
        <time>2021-11-11T08:13:42Z</time>
      </trkpt>
      <trkpt lat="50.47051" lon="4.4856">
        <ele>170</ele>
        <time>2021-11-11T08:13:44Z</time>
      </trkpt>
      <trkpt lat="50.47062" lon="4.48566">
        <ele>170</ele>
        <time>2021-11-11T08:13:46Z</time>
      </trkpt>
      <trkpt lat="50.47074" lon="4.48564">
        <ele>171</ele>
        <time>2021-11-11T08:13:48Z</time>
      </trkpt>
      <trkpt lat="50.47085" lon="4.48558">
        <ele>171</ele>
        <time>2021-11-11T08:13:50Z</time>
      </trkpt>
      <trkpt lat="50.47096" lon="4.48557">
        <ele>171</ele>
        <time>2021-11-11T08:13:52Z</time>
      </trkpt>
      <trkpt lat="50.47107" lon="4.48561">
        <ele>170</ele>
        <time>2021-11-11T08:13:54Z</time>
      </trkpt>
      <trkpt lat="50.47118" lon="4.48567">
        <ele>170</ele>
        <time>2021-11-11T08:13:56Z</time>
      </trkpt>
      <trkpt lat="50.47128" lon="4.48573">
        <ele>171</ele>
        <time>2021-11-11T08:13:58Z</time>
      </trkpt>
      <trkpt lat="50.47138" lon="4.48579">
        <ele>171</ele>
        <time>2021-11-11T08:14:00Z</time>
      </trkpt>
      <trkpt lat="50.47148" lon="4.48585">
        <ele>171</ele>
        <time>2021-11-11T08:14:02Z</time>
      </trkpt>
      <trkpt lat="50.47158" lon="4.48591">
        <ele>171</ele>
        <time>2021-11-11T08:14:04Z</time>
      </trkpt>
      <trkpt lat="50.47169" lon="4.48598">
        <ele>172</ele>
        <time>2021-11-11T08:14:06Z</time>
      </trkpt>
      <trkpt lat="50.4718" lon="4.48604">
        <ele>172</ele>
        <time>2021-11-11T08:14:08Z</time>
      </trkpt>
      <trkpt lat="50.47191" lon="4.4861">
        <ele>173</ele>
        <time>2021-11-11T08:14:10Z</time>
      </trkpt>
      <trkpt lat="50.47201" lon="4.48616">
        <ele>173</ele>
        <time>2021-11-11T08:14:12Z</time>
      </trkpt>
      <trkpt lat="50.47212" lon="4.48623">
        <ele>172</ele>
        <time>2021-11-11T08:14:14Z</time>
      </trkpt>
      <trkpt lat="50.47222" lon="4.4863">
        <ele>172</ele>
        <time>2021-11-11T08:14:16Z</time>
      </trkpt>
      <trkpt lat="50.47233" lon="4.48636">
        <ele>172</ele>
        <time>2021-11-11T08:14:18Z</time>
      </trkpt>
      <trkpt lat="50.47245" lon="4.48642">
        <ele>172</ele>
        <time>2021-11-11T08:14:20Z</time>
      </trkpt>
      <trkpt lat="50.47255" lon="4.48649">
        <ele>172</ele>
        <time>2021-11-11T08:14:22Z</time>
      </trkpt>
      <trkpt lat="50.47266" lon="4.48655">
        <ele>172</ele>
        <time>2021-11-11T08:14:24Z</time>
      </trkpt>
      <trkpt lat="50.47278" lon="4.48662">
        <ele>172</ele>
        <time>2021-11-11T08:14:26Z</time>
      </trkpt>
      <trkpt lat="50.47289" lon="4.48668">
        <ele>172</ele>
        <time>2021-11-11T08:14:28Z</time>
      </trkpt>
      <trkpt lat="50.473" lon="4.48674">
        <ele>172</ele>
        <time>2021-11-11T08:14:30Z</time>
      </trkpt>
      <trkpt lat="50.47311" lon="4.48681">
        <ele>172</ele>
        <time>2021-11-11T08:14:32Z</time>
      </trkpt>
      <trkpt lat="50.47319" lon="4.48692">
        <ele>173</ele>
        <time>2021-11-11T08:14:34Z</time>
      </trkpt>
      <trkpt lat="50.47322" lon="4.48709">
        <ele>172</ele>
        <time>2021-11-11T08:14:36Z</time>
      </trkpt>
      <trkpt lat="50.47323" lon="4.48727">
        <ele>172</ele>
        <time>2021-11-11T08:14:38Z</time>
      </trkpt>
      <trkpt lat="50.47328" lon="4.48742">
        <ele>171</ele>
        <time>2021-11-11T08:14:40Z</time>
      </trkpt>
      <trkpt lat="50.47336" lon="4.48753">
        <ele>171</ele>
        <time>2021-11-11T08:14:42Z</time>
      </trkpt>
      <trkpt lat="50.47347" lon="4.48759">
        <ele>171</ele>
        <time>2021-11-11T08:14:44Z</time>
      </trkpt>
      <trkpt lat="50.47358" lon="4.48759">
        <ele>170</ele>
        <time>2021-11-11T08:14:46Z</time>
      </trkpt>
      <trkpt lat="50.4737" lon="4.48764">
        <ele>168</ele>
        <time>2021-11-11T08:14:48Z</time>
      </trkpt>
      <trkpt lat="50.47379" lon="4.48776">
        <ele>167</ele>
        <time>2021-11-11T08:14:50Z</time>
      </trkpt>
      <trkpt lat="50.47387" lon="4.48789">
        <ele>167</ele>
        <time>2021-11-11T08:14:52Z</time>
      </trkpt>
      <trkpt lat="50.47395" lon="4.48802">
        <ele>165</ele>
        <time>2021-11-11T08:14:54Z</time>
      </trkpt>
      <trkpt lat="50.47403" lon="4.48815">
        <ele>165</ele>
        <time>2021-11-11T08:14:56Z</time>
      </trkpt>
      <trkpt lat="50.47411" lon="4.48829">
        <ele>163</ele>
        <time>2021-11-11T08:14:58Z</time>
      </trkpt>
      <trkpt lat="50.4742" lon="4.48842">
        <ele>163</ele>
        <time>2021-11-11T08:15:00Z</time>
      </trkpt>
      <trkpt lat="50.47429" lon="4.48856">
        <ele>164</ele>
        <time>2021-11-11T08:15:02Z</time>
      </trkpt>
      <trkpt lat="50.47437" lon="4.48869">
        <ele>166</ele>
        <time>2021-11-11T08:15:04Z</time>
      </trkpt>
      <trkpt lat="50.47446" lon="4.48882">
        <ele>168</ele>
        <time>2021-11-11T08:15:06Z</time>
      </trkpt>
      <trkpt lat="50.47455" lon="4.48895">
        <ele>168</ele>
        <time>2021-11-11T08:15:08Z</time>
      </trkpt>
      <trkpt lat="50.47463" lon="4.48909">
        <ele>169</ele>
        <time>2021-11-11T08:15:10Z</time>
      </trkpt>
      <trkpt lat="50.47467" lon="4.48926">
        <ele>169</ele>
        <time>2021-11-11T08:15:12Z</time>
      </trkpt>
      <trkpt lat="50.47474" lon="4.4894">
        <ele>170</ele>
        <time>2021-11-11T08:15:14Z</time>
      </trkpt>
      <trkpt lat="50.47483" lon="4.48948">
        <ele>170</ele>
        <time>2021-11-11T08:15:16Z</time>
      </trkpt>
      <trkpt lat="50.47493" lon="4.48957">
        <ele>169</ele>
        <time>2021-11-11T08:15:18Z</time>
      </trkpt>
      <trkpt lat="50.47501" lon="4.48969">
        <ele>170</ele>
        <time>2021-11-11T08:15:20Z</time>
      </trkpt>
      <trkpt lat="50.4751" lon="4.48981">
        <ele>170</ele>
        <time>2021-11-11T08:15:22Z</time>
      </trkpt>
      <trkpt lat="50.47518" lon="4.48994">
        <ele>170</ele>
        <time>2021-11-11T08:15:24Z</time>
      </trkpt>
      <trkpt lat="50.47526" lon="4.49008">
        <ele>170</ele>
        <time>2021-11-11T08:15:26Z</time>
      </trkpt>
      <trkpt lat="50.47534" lon="4.49021">
        <ele>169</ele>
        <time>2021-11-11T08:15:28Z</time>
      </trkpt>
      <trkpt lat="50.47541" lon="4.49035">
        <ele>169</ele>
        <time>2021-11-11T08:15:30Z</time>
      </trkpt>
      <trkpt lat="50.47546" lon="4.49049">
        <ele>169</ele>
        <time>2021-11-11T08:15:32Z</time>
      </trkpt>
      <trkpt lat="50.47552" lon="4.49064">
        <ele>169</ele>
        <time>2021-11-11T08:15:34Z</time>
      </trkpt>
      <trkpt lat="50.47557" lon="4.49079">
        <ele>169</ele>
        <time>2021-11-11T08:15:36Z</time>
      </trkpt>
      <trkpt lat="50.47562" lon="4.49095">
        <ele>169</ele>
        <time>2021-11-11T08:15:38Z</time>
      </trkpt>
      <trkpt lat="50.47567" lon="4.4911">
        <ele>170</ele>
        <time>2021-11-11T08:15:40Z</time>
      </trkpt>
      <trkpt lat="50.47571" lon="4.49125">
        <ele>170</ele>
        <time>2021-11-11T08:15:42Z</time>
      </trkpt>
      <trkpt lat="50.47577" lon="4.49138">
        <ele>170</ele>
        <time>2021-11-11T08:15:44Z</time>
      </trkpt>
      <trkpt lat="50.47582" lon="4.49149">
        <ele>170</ele>
        <time>2021-11-11T08:15:46Z</time>
      </trkpt>
      <trkpt lat="50.4759" lon="4.49154">
        <ele>172</ele>
        <time>2021-11-11T08:15:48Z</time>
      </trkpt>
      <trkpt lat="50.476" lon="4.49155">
        <ele>171</ele>
        <time>2021-11-11T08:15:50Z</time>
      </trkpt>
      <trkpt lat="50.4761" lon="4.49156">
        <ele>171</ele>
        <time>2021-11-11T08:15:52Z</time>
      </trkpt>
      <trkpt lat="50.4762" lon="4.49157">
        <ele>171</ele>
        <time>2021-11-11T08:15:54Z</time>
      </trkpt>
      <trkpt lat="50.47629" lon="4.49158">
        <ele>169</ele>
        <time>2021-11-11T08:15:56Z</time>
      </trkpt>
      <trkpt lat="50.47639" lon="4.49158">
        <ele>169</ele>
        <time>2021-11-11T08:15:58Z</time>
      </trkpt>
      <trkpt lat="50.47648" lon="4.49159">
        <ele>169</ele>
        <time>2021-11-11T08:16:00Z</time>
      </trkpt>
      <trkpt lat="50.47657" lon="4.4916">
        <ele>169</ele>
        <time>2021-11-11T08:16:02Z</time>
      </trkpt>
      <trkpt lat="50.47666" lon="4.49161">
        <ele>169</ele>
        <time>2021-11-11T08:16:04Z</time>
      </trkpt>
      <trkpt lat="50.47675" lon="4.49161">
        <ele>169</ele>
        <time>2021-11-11T08:16:06Z</time>
      </trkpt>
      <trkpt lat="50.47684" lon="4.49162">
        <ele>169</ele>
        <time>2021-11-11T08:16:08Z</time>
      </trkpt>
      <trkpt lat="50.47693" lon="4.49162">
        <ele>169</ele>
        <time>2021-11-11T08:16:10Z</time>
      </trkpt>
      <trkpt lat="50.47702" lon="4.49164">
        <ele>169</ele>
        <time>2021-11-11T08:16:12Z</time>
      </trkpt>
      <trkpt lat="50.4771" lon="4.49165">
        <ele>169</ele>
        <time>2021-11-11T08:16:14Z</time>
      </trkpt>
      <trkpt lat="50.47719" lon="4.49166">
        <ele>169</ele>
        <time>2021-11-11T08:16:16Z</time>
      </trkpt>
      <trkpt lat="50.47728" lon="4.49167">
        <ele>169</ele>
        <time>2021-11-11T08:16:18Z</time>
      </trkpt>
      <trkpt lat="50.47738" lon="4.49168">
        <ele>171</ele>
        <time>2021-11-11T08:16:20Z</time>
      </trkpt>
      <trkpt lat="50.47746" lon="4.49168">
        <ele>171</ele>
        <time>2021-11-11T08:16:22Z</time>
      </trkpt>
      <trkpt lat="50.47755" lon="4.49167">
        <ele>171</ele>
        <time>2021-11-11T08:16:24Z</time>
      </trkpt>
      <trkpt lat="50.47764" lon="4.49167">
        <ele>171</ele>
        <time>2021-11-11T08:16:26Z</time>
      </trkpt>
      <trkpt lat="50.47773" lon="4.49168">
        <ele>171</ele>
        <time>2021-11-11T08:16:28Z</time>
      </trkpt>
      <trkpt lat="50.47783" lon="4.49168">
        <ele>171</ele>
        <time>2021-11-11T08:16:30Z</time>
      </trkpt>
      <trkpt lat="50.47793" lon="4.49169">
        <ele>171</ele>
        <time>2021-11-11T08:16:32Z</time>
      </trkpt>
      <trkpt lat="50.47802" lon="4.49169">
        <ele>171</ele>
        <time>2021-11-11T08:16:34Z</time>
      </trkpt>
      <trkpt lat="50.47812" lon="4.49168">
        <ele>171</ele>
        <time>2021-11-11T08:16:36Z</time>
      </trkpt>
      <trkpt lat="50.47821" lon="4.49168">
        <ele>171</ele>
        <time>2021-11-11T08:16:38Z</time>
      </trkpt>
      <trkpt lat="50.47829" lon="4.49168">
        <ele>171</ele>
        <time>2021-11-11T08:16:40Z</time>
      </trkpt>
      <trkpt lat="50.47837" lon="4.49168">
        <ele>171</ele>
        <time>2021-11-11T08:16:42Z</time>
      </trkpt>
      <trkpt lat="50.47847" lon="4.49168">
        <ele>171</ele>
        <time>2021-11-11T08:16:44Z</time>
      </trkpt>
      <trkpt lat="50.47854" lon="4.49168">
        <ele>170</ele>
        <time>2021-11-11T08:16:46Z</time>
      </trkpt>
      <trkpt lat="50.47867" lon="4.4917">
        <ele>170</ele>
        <time>2021-11-11T08:16:49Z</time>
      </trkpt>
      <trkpt lat="50.47873" lon="4.49172">
        <ele>170</ele>
        <time>2021-11-11T08:16:51Z</time>
      </trkpt>
      <trkpt lat="50.47878" lon="4.49175">
        <ele>170</ele>
        <time>2021-11-11T08:16:53Z</time>
      </trkpt>
      <trkpt lat="50.47883" lon="4.49178">
        <ele>170</ele>
        <time>2021-11-11T08:16:55Z</time>
      </trkpt>
      <trkpt lat="50.47888" lon="4.49181">
        <ele>171</ele>
        <time>2021-11-11T08:16:57Z</time>
      </trkpt>
      <trkpt lat="50.47893" lon="4.49184">
        <ele>171</ele>
        <time>2021-11-11T08:16:59Z</time>
      </trkpt>
      <trkpt lat="50.47899" lon="4.49189">
        <ele>171</ele>
        <time>2021-11-11T08:17:01Z</time>
      </trkpt>
      <trkpt lat="50.47904" lon="4.49197">
        <ele>171</ele>
        <time>2021-11-11T08:17:03Z</time>
      </trkpt>
      <trkpt lat="50.47905" lon="4.49208">
        <ele>171</ele>
        <time>2021-11-11T08:17:05Z</time>
      </trkpt>
      <trkpt lat="50.47907" lon="4.4922">
        <ele>172</ele>
        <time>2021-11-11T08:17:07Z</time>
      </trkpt>
      <trkpt lat="50.47909" lon="4.49232">
        <ele>172</ele>
        <time>2021-11-11T08:17:09Z</time>
      </trkpt>
      <trkpt lat="50.4791" lon="4.49243">
        <ele>172</ele>
        <time>2021-11-11T08:17:11Z</time>
      </trkpt>
      <trkpt lat="50.47911" lon="4.49252">
        <ele>172</ele>
        <time>2021-11-11T08:17:13Z</time>
      </trkpt>
      <trkpt lat="50.47912" lon="4.49259">
        <ele>172</ele>
        <time>2021-11-11T08:17:15Z</time>
      </trkpt>
      <trkpt lat="50.47917" lon="4.49264">
        <ele>172</ele>
        <time>2021-11-11T08:17:17Z</time>
      </trkpt>
      <trkpt lat="50.47924" lon="4.49264">
        <ele>172</ele>
        <time>2021-11-11T08:17:19Z</time>
      </trkpt>
      <trkpt lat="50.47932" lon="4.49262">
        <ele>172</ele>
        <time>2021-11-11T08:17:21Z</time>
      </trkpt>
      <trkpt lat="50.4794" lon="4.4926">
        <ele>172</ele>
        <time>2021-11-11T08:17:23Z</time>
      </trkpt>
      <trkpt lat="50.47948" lon="4.49258">
        <ele>172</ele>
        <time>2021-11-11T08:17:25Z</time>
      </trkpt>
      <trkpt lat="50.47957" lon="4.49256">
        <ele>172</ele>
        <time>2021-11-11T08:17:27Z</time>
      </trkpt>
      <trkpt lat="50.47966" lon="4.49254">
        <ele>171</ele>
        <time>2021-11-11T08:17:29Z</time>
      </trkpt>
      <trkpt lat="50.47974" lon="4.49251">
        <ele>171</ele>
        <time>2021-11-11T08:17:31Z</time>
      </trkpt>
      <trkpt lat="50.47983" lon="4.49249">
        <ele>171</ele>
        <time>2021-11-11T08:17:33Z</time>
      </trkpt>
      <trkpt lat="50.47992" lon="4.49248">
        <ele>171</ele>
        <time>2021-11-11T08:17:35Z</time>
      </trkpt>
      <trkpt lat="50.48003" lon="4.49255">
        <ele>171</ele>
        <time>2021-11-11T08:17:37Z</time>
      </trkpt>
      <trkpt lat="50.48011" lon="4.49267">
        <ele>172</ele>
        <time>2021-11-11T08:17:39Z</time>
      </trkpt>
      <trkpt lat="50.48019" lon="4.49277">
        <ele>173</ele>
        <time>2021-11-11T08:17:41Z</time>
      </trkpt>
      <trkpt lat="50.48027" lon="4.49286">
        <ele>173</ele>
        <time>2021-11-11T08:17:43Z</time>
      </trkpt>
      <trkpt lat="50.48036" lon="4.49297">
        <ele>173</ele>
        <time>2021-11-11T08:17:45Z</time>
      </trkpt>
      <trkpt lat="50.48043" lon="4.49307">
        <ele>173</ele>
        <time>2021-11-11T08:17:47Z</time>
      </trkpt>
      <trkpt lat="50.48052" lon="4.49318">
        <ele>173</ele>
        <time>2021-11-11T08:17:49Z</time>
      </trkpt>
      <trkpt lat="50.48059" lon="4.49328">
        <ele>173</ele>
        <time>2021-11-11T08:17:51Z</time>
      </trkpt>
      <trkpt lat="50.48066" lon="4.49338">
        <ele>173</ele>
        <time>2021-11-11T08:17:53Z</time>
      </trkpt>
      <trkpt lat="50.48074" lon="4.49347">
        <ele>173</ele>
        <time>2021-11-11T08:17:55Z</time>
      </trkpt>
      <trkpt lat="50.48085" lon="4.49358">
        <ele>173</ele>
        <time>2021-11-11T08:17:57Z</time>
      </trkpt>
      <trkpt lat="50.48094" lon="4.49368">
        <ele>173</ele>
        <time>2021-11-11T08:17:59Z</time>
      </trkpt>
      <trkpt lat="50.48103" lon="4.49376">
        <ele>173</ele>
        <time>2021-11-11T08:18:01Z</time>
      </trkpt>
      <trkpt lat="50.4811" lon="4.49384">
        <ele>173</ele>
        <time>2021-11-11T08:18:03Z</time>
      </trkpt>
      <trkpt lat="50.48118" lon="4.4939">
        <ele>173</ele>
        <time>2021-11-11T08:18:05Z</time>
      </trkpt>
      <trkpt lat="50.48127" lon="4.49394">
        <ele>172</ele>
        <time>2021-11-11T08:18:07Z</time>
      </trkpt>
      <trkpt lat="50.48134" lon="4.49399">
        <ele>172</ele>
        <time>2021-11-11T08:18:09Z</time>
      </trkpt>
      <trkpt lat="50.48143" lon="4.49404">
        <ele>173</ele>
        <time>2021-11-11T08:18:11Z</time>
      </trkpt>
      <trkpt lat="50.48153" lon="4.49408">
        <ele>173</ele>
        <time>2021-11-11T08:18:13Z</time>
      </trkpt>
      <trkpt lat="50.48164" lon="4.49413">
        <ele>173</ele>
        <time>2021-11-11T08:18:15Z</time>
      </trkpt>
      <trkpt lat="50.48174" lon="4.49417">
        <ele>173</ele>
        <time>2021-11-11T08:18:17Z</time>
      </trkpt>
      <trkpt lat="50.48185" lon="4.49424">
        <ele>173</ele>
        <time>2021-11-11T08:18:19Z</time>
      </trkpt>
      <trkpt lat="50.48194" lon="4.49429">
        <ele>173</ele>
        <time>2021-11-11T08:18:21Z</time>
      </trkpt>
      <trkpt lat="50.48203" lon="4.49431">
        <ele>173</ele>
        <time>2021-11-11T08:18:23Z</time>
      </trkpt>
      <trkpt lat="50.48212" lon="4.49437">
        <ele>173</ele>
        <time>2021-11-11T08:18:25Z</time>
      </trkpt>
      <trkpt lat="50.48223" lon="4.49442">
        <ele>173</ele>
        <time>2021-11-11T08:18:27Z</time>
      </trkpt>
      <trkpt lat="50.48233" lon="4.49446">
        <ele>173</ele>
        <time>2021-11-11T08:18:29Z</time>
      </trkpt>
      <trkpt lat="50.48243" lon="4.49452">
        <ele>174</ele>
        <time>2021-11-11T08:18:31Z</time>
      </trkpt>
      <trkpt lat="50.48254" lon="4.49458">
        <ele>174</ele>
        <time>2021-11-11T08:18:33Z</time>
      </trkpt>
      <trkpt lat="50.48264" lon="4.49463">
        <ele>173</ele>
        <time>2021-11-11T08:18:35Z</time>
      </trkpt>
      <trkpt lat="50.48275" lon="4.49468">
        <ele>173</ele>
        <time>2021-11-11T08:18:37Z</time>
      </trkpt>
      <trkpt lat="50.48286" lon="4.49475">
        <ele>173</ele>
        <time>2021-11-11T08:18:39Z</time>
      </trkpt>
      <trkpt lat="50.48296" lon="4.49482">
        <ele>172</ele>
        <time>2021-11-11T08:18:41Z</time>
      </trkpt>
      <trkpt lat="50.48307" lon="4.49487">
        <ele>173</ele>
        <time>2021-11-11T08:18:43Z</time>
      </trkpt>
      <trkpt lat="50.48317" lon="4.49493">
        <ele>173</ele>
        <time>2021-11-11T08:18:45Z</time>
      </trkpt>
      <trkpt lat="50.48328" lon="4.49499">
        <ele>172</ele>
        <time>2021-11-11T08:18:47Z</time>
      </trkpt>
      <trkpt lat="50.4834" lon="4.49506">
        <ele>172</ele>
        <time>2021-11-11T08:18:49Z</time>
      </trkpt>
      <trkpt lat="50.48351" lon="4.49513">
        <ele>170</ele>
        <time>2021-11-11T08:18:51Z</time>
      </trkpt>
      <trkpt lat="50.48365" lon="4.4952">
        <ele>171</ele>
        <time>2021-11-11T08:18:53Z</time>
      </trkpt>
      <trkpt lat="50.48379" lon="4.49526">
        <ele>170</ele>
        <time>2021-11-11T08:18:55Z</time>
      </trkpt>
      <trkpt lat="50.48394" lon="4.49534">
        <ele>170</ele>
        <time>2021-11-11T08:18:57Z</time>
      </trkpt>
      <trkpt lat="50.4841" lon="4.49543">
        <ele>170</ele>
        <time>2021-11-11T08:18:59Z</time>
      </trkpt>
      <trkpt lat="50.48425" lon="4.49557">
        <ele>170</ele>
        <time>2021-11-11T08:19:01Z</time>
      </trkpt>
      <trkpt lat="50.48436" lon="4.49577">
        <ele>169</ele>
        <time>2021-11-11T08:19:03Z</time>
      </trkpt>
      <trkpt lat="50.48445" lon="4.49601">
        <ele>168</ele>
        <time>2021-11-11T08:19:05Z</time>
      </trkpt>
      <trkpt lat="50.48452" lon="4.49626">
        <ele>169</ele>
        <time>2021-11-11T08:19:07Z</time>
      </trkpt>
      <trkpt lat="50.4846" lon="4.4965">
        <ele>167</ele>
        <time>2021-11-11T08:19:09Z</time>
      </trkpt>
      <trkpt lat="50.48468" lon="4.49675">
        <ele>166</ele>
        <time>2021-11-11T08:19:11Z</time>
      </trkpt>
      <trkpt lat="50.48478" lon="4.49698">
        <ele>166</ele>
        <time>2021-11-11T08:19:13Z</time>
      </trkpt>
      <trkpt lat="50.4849" lon="4.4972">
        <ele>162</ele>
        <time>2021-11-11T08:19:15Z</time>
      </trkpt>
      <trkpt lat="50.48501" lon="4.49742">
        <ele>162</ele>
        <time>2021-11-11T08:19:17Z</time>
      </trkpt>
      <trkpt lat="50.48512" lon="4.49764">
        <ele>161</ele>
        <time>2021-11-11T08:19:19Z</time>
      </trkpt>
      <trkpt lat="50.48525" lon="4.49785">
        <ele>162</ele>
        <time>2021-11-11T08:19:21Z</time>
      </trkpt>
      <trkpt lat="50.48537" lon="4.49805">
        <ele>161</ele>
        <time>2021-11-11T08:19:23Z</time>
      </trkpt>
      <trkpt lat="50.48551" lon="4.49824">
        <ele>163</ele>
        <time>2021-11-11T08:19:25Z</time>
      </trkpt>
      <trkpt lat="50.48564" lon="4.49843">
        <ele>163</ele>
        <time>2021-11-11T08:19:27Z</time>
      </trkpt>
      <trkpt lat="50.48578" lon="4.49863">
        <ele>160</ele>
        <time>2021-11-11T08:19:29Z</time>
      </trkpt>
      <trkpt lat="50.48591" lon="4.49882">
        <ele>157</ele>
        <time>2021-11-11T08:19:31Z</time>
      </trkpt>
      <trkpt lat="50.48604" lon="4.49901">
        <ele>156</ele>
        <time>2021-11-11T08:19:33Z</time>
      </trkpt>
      <trkpt lat="50.48618" lon="4.4992">
        <ele>154</ele>
        <time>2021-11-11T08:19:35Z</time>
      </trkpt>
      <trkpt lat="50.48632" lon="4.49939">
        <ele>153</ele>
        <time>2021-11-11T08:19:37Z</time>
      </trkpt>
      <trkpt lat="50.48645" lon="4.49958">
        <ele>153</ele>
        <time>2021-11-11T08:19:39Z</time>
      </trkpt>
      <trkpt lat="50.48658" lon="4.49977">
        <ele>153</ele>
        <time>2021-11-11T08:19:41Z</time>
      </trkpt>
      <trkpt lat="50.48672" lon="4.49994">
        <ele>153</ele>
        <time>2021-11-11T08:19:43Z</time>
      </trkpt>
      <trkpt lat="50.48685" lon="4.50013">
        <ele>152</ele>
        <time>2021-11-11T08:19:45Z</time>
      </trkpt>
      <trkpt lat="50.48698" lon="4.50031">
        <ele>154</ele>
        <time>2021-11-11T08:19:47Z</time>
      </trkpt>
      <trkpt lat="50.48711" lon="4.50049">
        <ele>153</ele>
        <time>2021-11-11T08:19:49Z</time>
      </trkpt>
      <trkpt lat="50.48721" lon="4.50071">
        <ele>153</ele>
        <time>2021-11-11T08:19:51Z</time>
      </trkpt>
      <trkpt lat="50.48723" lon="4.50098">
        <ele>152</ele>
        <time>2021-11-11T08:19:53Z</time>
      </trkpt>
      <trkpt lat="50.48724" lon="4.50123">
        <ele>152</ele>
        <time>2021-11-11T08:19:55Z</time>
      </trkpt>
      <trkpt lat="50.48726" lon="4.50148">
        <ele>151</ele>
        <time>2021-11-11T08:19:57Z</time>
      </trkpt>
      <trkpt lat="50.48728" lon="4.50172">
        <ele>151</ele>
        <time>2021-11-11T08:19:59Z</time>
      </trkpt>
      <trkpt lat="50.48731" lon="4.50195">
        <ele>150</ele>
        <time>2021-11-11T08:20:01Z</time>
      </trkpt>
      <trkpt lat="50.48735" lon="4.50216">
        <ele>151</ele>
        <time>2021-11-11T08:20:03Z</time>
      </trkpt>
      <trkpt lat="50.4874" lon="4.50236">
        <ele>150</ele>
        <time>2021-11-11T08:20:05Z</time>
      </trkpt>
      <trkpt lat="50.48744" lon="4.50255">
        <ele>150</ele>
        <time>2021-11-11T08:20:07Z</time>
      </trkpt>
      <trkpt lat="50.48749" lon="4.50275">
        <ele>149</ele>
        <time>2021-11-11T08:20:09Z</time>
      </trkpt>
      <trkpt lat="50.48754" lon="4.50294">
        <ele>150</ele>
        <time>2021-11-11T08:20:11Z</time>
      </trkpt>
      <trkpt lat="50.48758" lon="4.50312">
        <ele>150</ele>
        <time>2021-11-11T08:20:13Z</time>
      </trkpt>
      <trkpt lat="50.48763" lon="4.50331">
        <ele>150</ele>
        <time>2021-11-11T08:20:15Z</time>
      </trkpt>
      <trkpt lat="50.48769" lon="4.5035">
        <ele>150</ele>
        <time>2021-11-11T08:20:17Z</time>
      </trkpt>
      <trkpt lat="50.48776" lon="4.50367">
        <ele>150</ele>
        <time>2021-11-11T08:20:19Z</time>
      </trkpt>
      <trkpt lat="50.48784" lon="4.50383">
        <ele>148</ele>
        <time>2021-11-11T08:20:21Z</time>
      </trkpt>
      <trkpt lat="50.48793" lon="4.50399">
        <ele>149</ele>
        <time>2021-11-11T08:20:23Z</time>
      </trkpt>
      <trkpt lat="50.48801" lon="4.50415">
        <ele>150</ele>
        <time>2021-11-11T08:20:25Z</time>
      </trkpt>
      <trkpt lat="50.4881" lon="4.50431">
        <ele>150</ele>
        <time>2021-11-11T08:20:27Z</time>
      </trkpt>
      <trkpt lat="50.48819" lon="4.50446">
        <ele>150</ele>
        <time>2021-11-11T08:20:29Z</time>
      </trkpt>
      <trkpt lat="50.48827" lon="4.50462">
        <ele>149</ele>
        <time>2021-11-11T08:20:31Z</time>
      </trkpt>
      <trkpt lat="50.48835" lon="4.50478">
        <ele>149</ele>
        <time>2021-11-11T08:20:33Z</time>
      </trkpt>
      <trkpt lat="50.48843" lon="4.50494">
        <ele>149</ele>
        <time>2021-11-11T08:20:35Z</time>
      </trkpt>
      <trkpt lat="50.48851" lon="4.5051">
        <ele>149</ele>
        <time>2021-11-11T08:20:37Z</time>
      </trkpt>
      <trkpt lat="50.48858" lon="4.50526">
        <ele>149</ele>
        <time>2021-11-11T08:20:39Z</time>
      </trkpt>
      <trkpt lat="50.48866" lon="4.50543">
        <ele>148</ele>
        <time>2021-11-11T08:20:41Z</time>
      </trkpt>
      <trkpt lat="50.48873" lon="4.50559">
        <ele>148</ele>
        <time>2021-11-11T08:20:43Z</time>
      </trkpt>
      <trkpt lat="50.4888" lon="4.50575">
        <ele>148</ele>
        <time>2021-11-11T08:20:45Z</time>
      </trkpt>
      <trkpt lat="50.48888" lon="4.50592">
        <ele>148</ele>
        <time>2021-11-11T08:20:47Z</time>
      </trkpt>
      <trkpt lat="50.48895" lon="4.50608">
        <ele>148</ele>
        <time>2021-11-11T08:20:49Z</time>
      </trkpt>
      <trkpt lat="50.48901" lon="4.50625">
        <ele>148</ele>
        <time>2021-11-11T08:20:51Z</time>
      </trkpt>
      <trkpt lat="50.48909" lon="4.50641">
        <ele>148</ele>
        <time>2021-11-11T08:20:53Z</time>
      </trkpt>
      <trkpt lat="50.48916" lon="4.50658">
        <ele>147</ele>
        <time>2021-11-11T08:20:55Z</time>
      </trkpt>
      <trkpt lat="50.48923" lon="4.50674">
        <ele>147</ele>
        <time>2021-11-11T08:20:57Z</time>
      </trkpt>
      <trkpt lat="50.4893" lon="4.5069">
        <ele>146</ele>
        <time>2021-11-11T08:20:59Z</time>
      </trkpt>
      <trkpt lat="50.48937" lon="4.50706">
        <ele>146</ele>
        <time>2021-11-11T08:21:01Z</time>
      </trkpt>
      <trkpt lat="50.48943" lon="4.50722">
        <ele>144</ele>
        <time>2021-11-11T08:21:03Z</time>
      </trkpt>
      <trkpt lat="50.48949" lon="4.50739">
        <ele>144</ele>
        <time>2021-11-11T08:21:05Z</time>
      </trkpt>
      <trkpt lat="50.48956" lon="4.50755">
        <ele>144</ele>
        <time>2021-11-11T08:21:07Z</time>
      </trkpt>
      <trkpt lat="50.48963" lon="4.50771">
        <ele>144</ele>
        <time>2021-11-11T08:21:09Z</time>
      </trkpt>
      <trkpt lat="50.48969" lon="4.50787">
        <ele>144</ele>
        <time>2021-11-11T08:21:11Z</time>
      </trkpt>
      <trkpt lat="50.48975" lon="4.50803">
        <ele>144</ele>
        <time>2021-11-11T08:21:13Z</time>
      </trkpt>
      <trkpt lat="50.48981" lon="4.50819">
        <ele>144</ele>
        <time>2021-11-11T08:21:15Z</time>
      </trkpt>
      <trkpt lat="50.48986" lon="4.50836">
        <ele>145</ele>
        <time>2021-11-11T08:21:17Z</time>
      </trkpt>
      <trkpt lat="50.48992" lon="4.50852">
        <ele>145</ele>
        <time>2021-11-11T08:21:19Z</time>
      </trkpt>
      <trkpt lat="50.48998" lon="4.50869">
        <ele>145</ele>
        <time>2021-11-11T08:21:21Z</time>
      </trkpt>
      <trkpt lat="50.49003" lon="4.50886">
        <ele>144</ele>
        <time>2021-11-11T08:21:23Z</time>
      </trkpt>
      <trkpt lat="50.49009" lon="4.50902">
        <ele>144</ele>
        <time>2021-11-11T08:21:25Z</time>
      </trkpt>
      <trkpt lat="50.49014" lon="4.50919">
        <ele>144</ele>
        <time>2021-11-11T08:21:27Z</time>
      </trkpt>
      <trkpt lat="50.4902" lon="4.50936">
        <ele>145</ele>
        <time>2021-11-11T08:21:29Z</time>
      </trkpt>
      <trkpt lat="50.49025" lon="4.50952">
        <ele>145</ele>
        <time>2021-11-11T08:21:31Z</time>
      </trkpt>
      <trkpt lat="50.49031" lon="4.50969">
        <ele>145</ele>
        <time>2021-11-11T08:21:33Z</time>
      </trkpt>
      <trkpt lat="50.49036" lon="4.50984">
        <ele>145</ele>
        <time>2021-11-11T08:21:35Z</time>
      </trkpt>
      <trkpt lat="50.49043" lon="4.51001">
        <ele>146</ele>
        <time>2021-11-11T08:21:37Z</time>
      </trkpt>
      <trkpt lat="50.49049" lon="4.51016">
        <ele>146</ele>
        <time>2021-11-11T08:21:39Z</time>
      </trkpt>
      <trkpt lat="50.49056" lon="4.51031">
        <ele>146</ele>
        <time>2021-11-11T08:21:41Z</time>
      </trkpt>
      <trkpt lat="50.49063" lon="4.51046">
        <ele>146</ele>
        <time>2021-11-11T08:21:43Z</time>
      </trkpt>
      <trkpt lat="50.49071" lon="4.5106">
        <ele>147</ele>
        <time>2021-11-11T08:21:45Z</time>
      </trkpt>
      <trkpt lat="50.49079" lon="4.51074">
        <ele>146</ele>
        <time>2021-11-11T08:21:47Z</time>
      </trkpt>
      <trkpt lat="50.49087" lon="4.51087">
        <ele>146</ele>
        <time>2021-11-11T08:21:49Z</time>
      </trkpt>
      <trkpt lat="50.49096" lon="4.511">
        <ele>145</ele>
        <time>2021-11-11T08:21:51Z</time>
      </trkpt>
      <trkpt lat="50.49105" lon="4.51112">
        <ele>147</ele>
        <time>2021-11-11T08:21:53Z</time>
      </trkpt>
      <trkpt lat="50.49114" lon="4.51124">
        <ele>147</ele>
        <time>2021-11-11T08:21:55Z</time>
      </trkpt>
      <trkpt lat="50.49123" lon="4.51136">
        <ele>146</ele>
        <time>2021-11-11T08:21:57Z</time>
      </trkpt>
      <trkpt lat="50.49132" lon="4.51149">
        <ele>146</ele>
        <time>2021-11-11T08:21:59Z</time>
      </trkpt>
      <trkpt lat="50.49141" lon="4.51161">
        <ele>146</ele>
        <time>2021-11-11T08:22:01Z</time>
      </trkpt>
      <trkpt lat="50.4915" lon="4.51173">
        <ele>146</ele>
        <time>2021-11-11T08:22:03Z</time>
      </trkpt>
      <trkpt lat="50.49159" lon="4.51185">
        <ele>146</ele>
        <time>2021-11-11T08:22:05Z</time>
      </trkpt>
      <trkpt lat="50.49167" lon="4.51196">
        <ele>146</ele>
        <time>2021-11-11T08:22:07Z</time>
      </trkpt>
      <trkpt lat="50.49175" lon="4.51207">
        <ele>146</ele>
        <time>2021-11-11T08:22:09Z</time>
      </trkpt>
      <trkpt lat="50.49183" lon="4.51218">
        <ele>145</ele>
        <time>2021-11-11T08:22:11Z</time>
      </trkpt>
      <trkpt lat="50.49191" lon="4.51229">
        <ele>145</ele>
        <time>2021-11-11T08:22:13Z</time>
      </trkpt>
      <trkpt lat="50.49198" lon="4.51238">
        <ele>144</ele>
        <time>2021-11-11T08:22:15Z</time>
      </trkpt>
      <trkpt lat="50.49204" lon="4.51247">
        <ele>144</ele>
        <time>2021-11-11T08:22:17Z</time>
      </trkpt>
      <trkpt lat="50.4921" lon="4.51255">
        <ele>144</ele>
        <time>2021-11-11T08:22:19Z</time>
      </trkpt>
      <trkpt lat="50.49216" lon="4.51264">
        <ele>144</ele>
        <time>2021-11-11T08:22:21Z</time>
      </trkpt>
      <trkpt lat="50.4922" lon="4.51271">
        <ele>143</ele>
        <time>2021-11-11T08:22:23Z</time>
      </trkpt>
      <trkpt lat="50.49224" lon="4.51278">
        <ele>143</ele>
        <time>2021-11-11T08:22:25Z</time>
      </trkpt>
      <trkpt lat="50.49227" lon="4.51284">
        <ele>143</ele>
        <time>2021-11-11T08:22:27Z</time>
      </trkpt>
      <trkpt lat="50.4923" lon="4.51292">
        <ele>143</ele>
        <time>2021-11-11T08:22:29Z</time>
      </trkpt>
      <trkpt lat="50.49234" lon="4.51301">
        <ele>143</ele>
        <time>2021-11-11T08:22:31Z</time>
      </trkpt>
      <trkpt lat="50.49238" lon="4.51312">
        <ele>144</ele>
        <time>2021-11-11T08:22:33Z</time>
      </trkpt>
      <trkpt lat="50.49242" lon="4.51323">
        <ele>144</ele>
        <time>2021-11-11T08:22:35Z</time>
      </trkpt>
      <trkpt lat="50.49246" lon="4.51335">
        <ele>144</ele>
        <time>2021-11-11T08:22:37Z</time>
      </trkpt>
      <trkpt lat="50.4925" lon="4.51348">
        <ele>144</ele>
        <time>2021-11-11T08:22:39Z</time>
      </trkpt>
      <trkpt lat="50.49254" lon="4.51362">
        <ele>144</ele>
        <time>2021-11-11T08:22:41Z</time>
      </trkpt>
      <trkpt lat="50.49258" lon="4.51376">
        <ele>145</ele>
        <time>2021-11-11T08:22:43Z</time>
      </trkpt>
      <trkpt lat="50.49262" lon="4.5139">
        <ele>145</ele>
        <time>2021-11-11T08:22:45Z</time>
      </trkpt>
      <trkpt lat="50.49265" lon="4.51405">
        <ele>144</ele>
        <time>2021-11-11T08:22:47Z</time>
      </trkpt>
      <trkpt lat="50.49269" lon="4.5142">
        <ele>144</ele>
        <time>2021-11-11T08:22:49Z</time>
      </trkpt>
      <trkpt lat="50.49273" lon="4.51435">
        <ele>143</ele>
        <time>2021-11-11T08:22:51Z</time>
      </trkpt>
      <trkpt lat="50.49276" lon="4.51451">
        <ele>143</ele>
        <time>2021-11-11T08:22:53Z</time>
      </trkpt>
      <trkpt lat="50.49281" lon="4.51467">
        <ele>143</ele>
        <time>2021-11-11T08:22:55Z</time>
      </trkpt>
      <trkpt lat="50.49285" lon="4.51483">
        <ele>143</ele>
        <time>2021-11-11T08:22:57Z</time>
      </trkpt>
      <trkpt lat="50.49289" lon="4.515">
        <ele>143</ele>
        <time>2021-11-11T08:22:59Z</time>
      </trkpt>
      <trkpt lat="50.49294" lon="4.51517">
        <ele>143</ele>
        <time>2021-11-11T08:23:01Z</time>
      </trkpt>
      <trkpt lat="50.49298" lon="4.51533">
        <ele>143</ele>
        <time>2021-11-11T08:23:03Z</time>
      </trkpt>
      <trkpt lat="50.49302" lon="4.5155">
        <ele>144</ele>
        <time>2021-11-11T08:23:05Z</time>
      </trkpt>
      <trkpt lat="50.49305" lon="4.51567">
        <ele>144</ele>
        <time>2021-11-11T08:23:07Z</time>
      </trkpt>
      <trkpt lat="50.49309" lon="4.51584">
        <ele>143</ele>
        <time>2021-11-11T08:23:09Z</time>
      </trkpt>
      <trkpt lat="50.49312" lon="4.516">
        <ele>144</ele>
        <time>2021-11-11T08:23:11Z</time>
      </trkpt>
      <trkpt lat="50.49315" lon="4.51617">
        <ele>144</ele>
        <time>2021-11-11T08:23:13Z</time>
      </trkpt>
      <trkpt lat="50.49319" lon="4.51633">
        <ele>144</ele>
        <time>2021-11-11T08:23:15Z</time>
      </trkpt>
      <trkpt lat="50.49323" lon="4.5165">
        <ele>145</ele>
        <time>2021-11-11T08:23:17Z</time>
      </trkpt>
      <trkpt lat="50.49327" lon="4.51667">
        <ele>145</ele>
        <time>2021-11-11T08:23:19Z</time>
      </trkpt>
      <trkpt lat="50.49332" lon="4.51684">
        <ele>144</ele>
        <time>2021-11-11T08:23:21Z</time>
      </trkpt>
      <trkpt lat="50.49336" lon="4.51702">
        <ele>144</ele>
        <time>2021-11-11T08:23:23Z</time>
      </trkpt>
      <trkpt lat="50.4934" lon="4.51719">
        <ele>144</ele>
        <time>2021-11-11T08:23:25Z</time>
      </trkpt>
      <trkpt lat="50.49344" lon="4.51736">
        <ele>144</ele>
        <time>2021-11-11T08:23:27Z</time>
      </trkpt>
      <trkpt lat="50.49348" lon="4.51752">
        <ele>144</ele>
        <time>2021-11-11T08:23:29Z</time>
      </trkpt>
      <trkpt lat="50.49351" lon="4.51768">
        <ele>144</ele>
        <time>2021-11-11T08:23:31Z</time>
      </trkpt>
      <trkpt lat="50.49355" lon="4.51783">
        <ele>144</ele>
        <time>2021-11-11T08:23:33Z</time>
      </trkpt>
      <trkpt lat="50.49359" lon="4.51797">
        <ele>143</ele>
        <time>2021-11-11T08:23:35Z</time>
      </trkpt>
      <trkpt lat="50.49363" lon="4.5181">
        <ele>143</ele>
        <time>2021-11-11T08:23:37Z</time>
      </trkpt>
      <trkpt lat="50.49365" lon="4.51822">
        <ele>143</ele>
        <time>2021-11-11T08:23:39Z</time>
      </trkpt>
      <trkpt lat="50.49368" lon="4.51833">
        <ele>143</ele>
        <time>2021-11-11T08:23:41Z</time>
      </trkpt>
      <trkpt lat="50.49371" lon="4.51846">
        <ele>143</ele>
        <time>2021-11-11T08:23:43Z</time>
      </trkpt>
      <trkpt lat="50.49374" lon="4.51859">
        <ele>143</ele>
        <time>2021-11-11T08:23:45Z</time>
      </trkpt>
      <trkpt lat="50.49378" lon="4.51873">
        <ele>144</ele>
        <time>2021-11-11T08:23:47Z</time>
      </trkpt>
      <trkpt lat="50.49381" lon="4.51887">
        <ele>144</ele>
        <time>2021-11-11T08:23:49Z</time>
      </trkpt>
      <trkpt lat="50.49385" lon="4.51901">
        <ele>144</ele>
        <time>2021-11-11T08:23:51Z</time>
      </trkpt>
      <trkpt lat="50.49388" lon="4.51915">
        <ele>144</ele>
        <time>2021-11-11T08:23:53Z</time>
      </trkpt>
      <trkpt lat="50.49391" lon="4.51929">
        <ele>144</ele>
        <time>2021-11-11T08:23:55Z</time>
      </trkpt>
      <trkpt lat="50.49395" lon="4.51944">
        <ele>145</ele>
        <time>2021-11-11T08:23:57Z</time>
      </trkpt>
      <trkpt lat="50.49398" lon="4.51958">
        <ele>145</ele>
        <time>2021-11-11T08:23:59Z</time>
      </trkpt>
      <trkpt lat="50.49402" lon="4.51973">
        <ele>145</ele>
        <time>2021-11-11T08:24:01Z</time>
      </trkpt>
      <trkpt lat="50.49406" lon="4.51988">
        <ele>146</ele>
        <time>2021-11-11T08:24:03Z</time>
      </trkpt>
      <trkpt lat="50.49409" lon="4.52003">
        <ele>146</ele>
        <time>2021-11-11T08:24:05Z</time>
      </trkpt>
      <trkpt lat="50.49413" lon="4.52018">
        <ele>146</ele>
        <time>2021-11-11T08:24:07Z</time>
      </trkpt>
      <trkpt lat="50.49417" lon="4.52034">
        <ele>146</ele>
        <time>2021-11-11T08:24:09Z</time>
      </trkpt>
      <trkpt lat="50.49421" lon="4.5205">
        <ele>146</ele>
        <time>2021-11-11T08:24:11Z</time>
      </trkpt>
      <trkpt lat="50.49424" lon="4.52065">
        <ele>146</ele>
        <time>2021-11-11T08:24:13Z</time>
      </trkpt>
      <trkpt lat="50.49428" lon="4.52081">
        <ele>146</ele>
        <time>2021-11-11T08:24:15Z</time>
      </trkpt>
      <trkpt lat="50.49432" lon="4.52096">
        <ele>146</ele>
        <time>2021-11-11T08:24:17Z</time>
      </trkpt>
      <trkpt lat="50.49436" lon="4.52112">
        <ele>147</ele>
        <time>2021-11-11T08:24:19Z</time>
      </trkpt>
      <trkpt lat="50.4944" lon="4.52128">
        <ele>146</ele>
        <time>2021-11-11T08:24:21Z</time>
      </trkpt>
      <trkpt lat="50.49445" lon="4.52144">
        <ele>146</ele>
        <time>2021-11-11T08:24:23Z</time>
      </trkpt>
      <trkpt lat="50.49449" lon="4.5216">
        <ele>148</ele>
        <time>2021-11-11T08:24:25Z</time>
      </trkpt>
      <trkpt lat="50.49453" lon="4.52176">
        <ele>148</ele>
        <time>2021-11-11T08:24:27Z</time>
      </trkpt>
      <trkpt lat="50.49458" lon="4.52193">
        <ele>147</ele>
        <time>2021-11-11T08:24:29Z</time>
      </trkpt>
      <trkpt lat="50.49462" lon="4.52209">
        <ele>148</ele>
        <time>2021-11-11T08:24:31Z</time>
      </trkpt>
      <trkpt lat="50.49466" lon="4.52225">
        <ele>148</ele>
        <time>2021-11-11T08:24:33Z</time>
      </trkpt>
      <trkpt lat="50.49471" lon="4.52241">
        <ele>148</ele>
        <time>2021-11-11T08:24:35Z</time>
      </trkpt>
      <trkpt lat="50.49474" lon="4.52256">
        <ele>148</ele>
        <time>2021-11-11T08:24:37Z</time>
      </trkpt>
      <trkpt lat="50.49479" lon="4.52271">
        <ele>149</ele>
        <time>2021-11-11T08:24:39Z</time>
      </trkpt>
      <trkpt lat="50.49483" lon="4.52287">
        <ele>149</ele>
        <time>2021-11-11T08:24:41Z</time>
      </trkpt>
      <trkpt lat="50.49487" lon="4.52302">
        <ele>149</ele>
        <time>2021-11-11T08:24:43Z</time>
      </trkpt>
      <trkpt lat="50.49492" lon="4.52318">
        <ele>149</ele>
        <time>2021-11-11T08:24:45Z</time>
      </trkpt>
      <trkpt lat="50.49496" lon="4.52333">
        <ele>149</ele>
        <time>2021-11-11T08:24:47Z</time>
      </trkpt>
      <trkpt lat="50.49501" lon="4.52347">
        <ele>149</ele>
        <time>2021-11-11T08:24:49Z</time>
      </trkpt>
      <trkpt lat="50.49505" lon="4.52361">
        <ele>149</ele>
        <time>2021-11-11T08:24:51Z</time>
      </trkpt>
      <trkpt lat="50.4951" lon="4.52375">
        <ele>149</ele>
        <time>2021-11-11T08:24:53Z</time>
      </trkpt>
      <trkpt lat="50.49514" lon="4.52389">
        <ele>150</ele>
        <time>2021-11-11T08:24:55Z</time>
      </trkpt>
      <trkpt lat="50.49518" lon="4.52402">
        <ele>150</ele>
        <time>2021-11-11T08:24:57Z</time>
      </trkpt>
      <trkpt lat="50.49522" lon="4.52415">
        <ele>150</ele>
        <time>2021-11-11T08:24:59Z</time>
      </trkpt>
      <trkpt lat="50.49527" lon="4.52428">
        <ele>150</ele>
        <time>2021-11-11T08:25:01Z</time>
      </trkpt>
      <trkpt lat="50.49531" lon="4.52442">
        <ele>149</ele>
        <time>2021-11-11T08:25:03Z</time>
      </trkpt>
      <trkpt lat="50.49535" lon="4.52456">
        <ele>149</ele>
        <time>2021-11-11T08:25:05Z</time>
      </trkpt>
      <trkpt lat="50.49538" lon="4.5247">
        <ele>149</ele>
        <time>2021-11-11T08:25:07Z</time>
      </trkpt>
      <trkpt lat="50.49542" lon="4.52484">
        <ele>150</ele>
        <time>2021-11-11T08:25:09Z</time>
      </trkpt>
      <trkpt lat="50.49546" lon="4.52498">
        <ele>150</ele>
        <time>2021-11-11T08:25:11Z</time>
      </trkpt>
      <trkpt lat="50.49549" lon="4.52514">
        <ele>150</ele>
        <time>2021-11-11T08:25:13Z</time>
      </trkpt>
      <trkpt lat="50.49553" lon="4.52528">
        <ele>150</ele>
        <time>2021-11-11T08:25:15Z</time>
      </trkpt>
      <trkpt lat="50.49556" lon="4.52543">
        <ele>150</ele>
        <time>2021-11-11T08:25:17Z</time>
      </trkpt>
      <trkpt lat="50.49561" lon="4.52556">
        <ele>150</ele>
        <time>2021-11-11T08:25:19Z</time>
      </trkpt>
      <trkpt lat="50.49565" lon="4.5257">
        <ele>149</ele>
        <time>2021-11-11T08:25:21Z</time>
      </trkpt>
      <trkpt lat="50.4957" lon="4.52582">
        <ele>150</ele>
        <time>2021-11-11T08:25:23Z</time>
      </trkpt>
      <trkpt lat="50.49574" lon="4.52595">
        <ele>150</ele>
        <time>2021-11-11T08:25:25Z</time>
      </trkpt>
      <trkpt lat="50.49577" lon="4.52609">
        <ele>150</ele>
        <time>2021-11-11T08:25:27Z</time>
      </trkpt>
      <trkpt lat="50.4958" lon="4.52623">
        <ele>150</ele>
        <time>2021-11-11T08:25:29Z</time>
      </trkpt>
      <trkpt lat="50.49583" lon="4.52636">
        <ele>149</ele>
        <time>2021-11-11T08:25:31Z</time>
      </trkpt>
      <trkpt lat="50.49587" lon="4.5265">
        <ele>149</ele>
        <time>2021-11-11T08:25:33Z</time>
      </trkpt>
      <trkpt lat="50.4959" lon="4.52663">
        <ele>150</ele>
        <time>2021-11-11T08:25:35Z</time>
      </trkpt>
      <trkpt lat="50.49593" lon="4.52677">
        <ele>150</ele>
        <time>2021-11-11T08:25:37Z</time>
      </trkpt>
      <trkpt lat="50.49596" lon="4.52691">
        <ele>149</ele>
        <time>2021-11-11T08:25:39Z</time>
      </trkpt>
      <trkpt lat="50.49599" lon="4.52706">
        <ele>150</ele>
        <time>2021-11-11T08:25:41Z</time>
      </trkpt>
      <trkpt lat="50.49601" lon="4.52721">
        <ele>149</ele>
        <time>2021-11-11T08:25:43Z</time>
      </trkpt>
      <trkpt lat="50.49603" lon="4.52736">
        <ele>149</ele>
        <time>2021-11-11T08:25:45Z</time>
      </trkpt>
      <trkpt lat="50.49605" lon="4.52751">
        <ele>149</ele>
        <time>2021-11-11T08:25:47Z</time>
      </trkpt>
      <trkpt lat="50.49607" lon="4.52767">
        <ele>149</ele>
        <time>2021-11-11T08:25:49Z</time>
      </trkpt>
      <trkpt lat="50.49609" lon="4.52782">
        <ele>149</ele>
        <time>2021-11-11T08:25:51Z</time>
      </trkpt>
      <trkpt lat="50.49612" lon="4.52798">
        <ele>148</ele>
        <time>2021-11-11T08:25:53Z</time>
      </trkpt>
      <trkpt lat="50.49615" lon="4.52813">
        <ele>148</ele>
        <time>2021-11-11T08:25:55Z</time>
      </trkpt>
      <trkpt lat="50.49619" lon="4.52829">
        <ele>148</ele>
        <time>2021-11-11T08:25:57Z</time>
      </trkpt>
      <trkpt lat="50.49622" lon="4.52844">
        <ele>148</ele>
        <time>2021-11-11T08:25:59Z</time>
      </trkpt>
      <trkpt lat="50.49626" lon="4.5286">
        <ele>148</ele>
        <time>2021-11-11T08:26:01Z</time>
      </trkpt>
      <trkpt lat="50.4963" lon="4.52877">
        <ele>149</ele>
        <time>2021-11-11T08:26:03Z</time>
      </trkpt>
      <trkpt lat="50.49633" lon="4.52893">
        <ele>149</ele>
        <time>2021-11-11T08:26:05Z</time>
      </trkpt>
      <trkpt lat="50.49637" lon="4.52909">
        <ele>148</ele>
        <time>2021-11-11T08:26:07Z</time>
      </trkpt>
      <trkpt lat="50.49641" lon="4.52926">
        <ele>148</ele>
        <time>2021-11-11T08:26:09Z</time>
      </trkpt>
      <trkpt lat="50.49646" lon="4.52943">
        <ele>147</ele>
        <time>2021-11-11T08:26:11Z</time>
      </trkpt>
      <trkpt lat="50.49652" lon="4.52961">
        <ele>146</ele>
        <time>2021-11-11T08:26:13Z</time>
      </trkpt>
      <trkpt lat="50.49657" lon="4.5298">
        <ele>146</ele>
        <time>2021-11-11T08:26:15Z</time>
      </trkpt>
      <trkpt lat="50.49662" lon="4.52998">
        <ele>144</ele>
        <time>2021-11-11T08:26:17Z</time>
      </trkpt>
      <trkpt lat="50.49668" lon="4.53015">
        <ele>144</ele>
        <time>2021-11-11T08:26:19Z</time>
      </trkpt>
      <trkpt lat="50.49674" lon="4.53033">
        <ele>144</ele>
        <time>2021-11-11T08:26:21Z</time>
      </trkpt>
      <trkpt lat="50.49678" lon="4.53051">
        <ele>143</ele>
        <time>2021-11-11T08:26:23Z</time>
      </trkpt>
      <trkpt lat="50.49684" lon="4.53069">
        <ele>141</ele>
        <time>2021-11-11T08:26:25Z</time>
      </trkpt>
      <trkpt lat="50.49689" lon="4.53085">
        <ele>142</ele>
        <time>2021-11-11T08:26:27Z</time>
      </trkpt>
      <trkpt lat="50.49693" lon="4.53102">
        <ele>141</ele>
        <time>2021-11-11T08:26:29Z</time>
      </trkpt>
      <trkpt lat="50.49698" lon="4.53119">
        <ele>141</ele>
        <time>2021-11-11T08:26:31Z</time>
      </trkpt>
      <trkpt lat="50.49702" lon="4.53135">
        <ele>141</ele>
        <time>2021-11-11T08:26:33Z</time>
      </trkpt>
      <trkpt lat="50.49707" lon="4.53151">
        <ele>141</ele>
        <time>2021-11-11T08:26:35Z</time>
      </trkpt>
      <trkpt lat="50.49711" lon="4.53168">
        <ele>141</ele>
        <time>2021-11-11T08:26:37Z</time>
      </trkpt>
      <trkpt lat="50.49715" lon="4.53184">
        <ele>140</ele>
        <time>2021-11-11T08:26:39Z</time>
      </trkpt>
      <trkpt lat="50.4972" lon="4.532">
        <ele>140</ele>
        <time>2021-11-11T08:26:41Z</time>
      </trkpt>
      <trkpt lat="50.49725" lon="4.53216">
        <ele>139</ele>
        <time>2021-11-11T08:26:43Z</time>
      </trkpt>
      <trkpt lat="50.49729" lon="4.53233">
        <ele>139</ele>
        <time>2021-11-11T08:26:45Z</time>
      </trkpt>
      <trkpt lat="50.49733" lon="4.53248">
        <ele>139</ele>
        <time>2021-11-11T08:26:47Z</time>
      </trkpt>
      <trkpt lat="50.49738" lon="4.53263">
        <ele>139</ele>
        <time>2021-11-11T08:26:49Z</time>
      </trkpt>
      <trkpt lat="50.49743" lon="4.53279">
        <ele>139</ele>
        <time>2021-11-11T08:26:51Z</time>
      </trkpt>
      <trkpt lat="50.49748" lon="4.53294">
        <ele>140</ele>
        <time>2021-11-11T08:26:53Z</time>
      </trkpt>
      <trkpt lat="50.49752" lon="4.5331">
        <ele>140</ele>
        <time>2021-11-11T08:26:55Z</time>
      </trkpt>
      <trkpt lat="50.49756" lon="4.53326">
        <ele>140</ele>
        <time>2021-11-11T08:26:57Z</time>
      </trkpt>
      <trkpt lat="50.4976" lon="4.53342">
        <ele>140</ele>
        <time>2021-11-11T08:26:59Z</time>
      </trkpt>
      <trkpt lat="50.49765" lon="4.53357">
        <ele>141</ele>
        <time>2021-11-11T08:27:01Z</time>
      </trkpt>
      <trkpt lat="50.49769" lon="4.53372">
        <ele>141</ele>
        <time>2021-11-11T08:27:03Z</time>
      </trkpt>
      <trkpt lat="50.49774" lon="4.53388">
        <ele>141</ele>
        <time>2021-11-11T08:27:05Z</time>
      </trkpt>
      <trkpt lat="50.49778" lon="4.53403">
        <ele>141</ele>
        <time>2021-11-11T08:27:07Z</time>
      </trkpt>
      <trkpt lat="50.49783" lon="4.53417">
        <ele>141</ele>
        <time>2021-11-11T08:27:09Z</time>
      </trkpt>
      <trkpt lat="50.49788" lon="4.53432">
        <ele>141</ele>
        <time>2021-11-11T08:27:11Z</time>
      </trkpt>
      <trkpt lat="50.49793" lon="4.53445">
        <ele>142</ele>
        <time>2021-11-11T08:27:13Z</time>
      </trkpt>
      <trkpt lat="50.49798" lon="4.53459">
        <ele>142</ele>
        <time>2021-11-11T08:27:15Z</time>
      </trkpt>
      <trkpt lat="50.49802" lon="4.53471">
        <ele>142</ele>
        <time>2021-11-11T08:27:17Z</time>
      </trkpt>
      <trkpt lat="50.49806" lon="4.53482">
        <ele>142</ele>
        <time>2021-11-11T08:27:19Z</time>
      </trkpt>
      <trkpt lat="50.4981" lon="4.53491">
        <ele>142</ele>
        <time>2021-11-11T08:27:21Z</time>
      </trkpt>
      <trkpt lat="50.49815" lon="4.53494">
        <ele>142</ele>
        <time>2021-11-11T08:27:23Z</time>
      </trkpt>
      <trkpt lat="50.4982" lon="4.5349">
        <ele>142</ele>
        <time>2021-11-11T08:27:25Z</time>
      </trkpt>
      <trkpt lat="50.49826" lon="4.53485">
        <ele>142</ele>
        <time>2021-11-11T08:27:27Z</time>
      </trkpt>
      <trkpt lat="50.49832" lon="4.53479">
        <ele>142</ele>
        <time>2021-11-11T08:27:29Z</time>
      </trkpt>
      <trkpt lat="50.49839" lon="4.53473">
        <ele>142</ele>
        <time>2021-11-11T08:27:31Z</time>
      </trkpt>
      <trkpt lat="50.49845" lon="4.53466">
        <ele>142</ele>
        <time>2021-11-11T08:27:33Z</time>
      </trkpt>
      <trkpt lat="50.49852" lon="4.53459">
        <ele>142</ele>
        <time>2021-11-11T08:27:35Z</time>
      </trkpt>
      <trkpt lat="50.49859" lon="4.53452">
        <ele>143</ele>
        <time>2021-11-11T08:27:37Z</time>
      </trkpt>
      <trkpt lat="50.49866" lon="4.53445">
        <ele>143</ele>
        <time>2021-11-11T08:27:39Z</time>
      </trkpt>
      <trkpt lat="50.49873" lon="4.53438">
        <ele>143</ele>
        <time>2021-11-11T08:27:41Z</time>
      </trkpt>
      <trkpt lat="50.4988" lon="4.5343">
        <ele>143</ele>
        <time>2021-11-11T08:27:43Z</time>
      </trkpt>
      <trkpt lat="50.49886" lon="4.53422">
        <ele>143</ele>
        <time>2021-11-11T08:27:45Z</time>
      </trkpt>
      <trkpt lat="50.49893" lon="4.53415">
        <ele>143</ele>
        <time>2021-11-11T08:27:47Z</time>
      </trkpt>
      <trkpt lat="50.49901" lon="4.53408">
        <ele>143</ele>
        <time>2021-11-11T08:27:49Z</time>
      </trkpt>
      <trkpt lat="50.49908" lon="4.534">
        <ele>143</ele>
        <time>2021-11-11T08:27:51Z</time>
      </trkpt>
      <trkpt lat="50.49916" lon="4.53392">
        <ele>143</ele>
        <time>2021-11-11T08:27:53Z</time>
      </trkpt>
      <trkpt lat="50.49923" lon="4.53385">
        <ele>143</ele>
        <time>2021-11-11T08:27:55Z</time>
      </trkpt>
      <trkpt lat="50.4993" lon="4.53376">
        <ele>143</ele>
        <time>2021-11-11T08:27:57Z</time>
      </trkpt>
      <trkpt lat="50.49937" lon="4.53368">
        <ele>145</ele>
        <time>2021-11-11T08:27:59Z</time>
      </trkpt>
      <trkpt lat="50.49943" lon="4.53359">
        <ele>145</ele>
        <time>2021-11-11T08:28:01Z</time>
      </trkpt>
      <trkpt lat="50.49949" lon="4.53349">
        <ele>145</ele>
        <time>2021-11-11T08:28:03Z</time>
      </trkpt>
      <trkpt lat="50.49956" lon="4.53341">
        <ele>144</ele>
        <time>2021-11-11T08:28:05Z</time>
      </trkpt>
      <trkpt lat="50.49962" lon="4.53332">
        <ele>146</ele>
        <time>2021-11-11T08:28:07Z</time>
      </trkpt>
      <trkpt lat="50.49969" lon="4.53323">
        <ele>146</ele>
        <time>2021-11-11T08:28:09Z</time>
      </trkpt>
      <trkpt lat="50.49975" lon="4.53314">
        <ele>146</ele>
        <time>2021-11-11T08:28:11Z</time>
      </trkpt>
      <trkpt lat="50.49981" lon="4.53305">
        <ele>146</ele>
        <time>2021-11-11T08:28:13Z</time>
      </trkpt>
      <trkpt lat="50.49987" lon="4.53295">
        <ele>147</ele>
        <time>2021-11-11T08:28:15Z</time>
      </trkpt>
      <trkpt lat="50.49994" lon="4.53286">
        <ele>147</ele>
        <time>2021-11-11T08:28:17Z</time>
      </trkpt>
      <trkpt lat="50.5" lon="4.53276">
        <ele>147</ele>
        <time>2021-11-11T08:28:19Z</time>
      </trkpt>
      <trkpt lat="50.50007" lon="4.53266">
        <ele>147</ele>
        <time>2021-11-11T08:28:21Z</time>
      </trkpt>
      <trkpt lat="50.50013" lon="4.53257">
        <ele>147</ele>
        <time>2021-11-11T08:28:23Z</time>
      </trkpt>
      <trkpt lat="50.5002" lon="4.53248">
        <ele>148</ele>
        <time>2021-11-11T08:28:25Z</time>
      </trkpt>
      <trkpt lat="50.50027" lon="4.5324">
        <ele>148</ele>
        <time>2021-11-11T08:28:27Z</time>
      </trkpt>
      <trkpt lat="50.50034" lon="4.53232">
        <ele>148</ele>
        <time>2021-11-11T08:28:29Z</time>
      </trkpt>
      <trkpt lat="50.50041" lon="4.53224">
        <ele>148</ele>
        <time>2021-11-11T08:28:31Z</time>
      </trkpt>
      <trkpt lat="50.50048" lon="4.53217">
        <ele>149</ele>
        <time>2021-11-11T08:28:33Z</time>
      </trkpt>
      <trkpt lat="50.50055" lon="4.53211">
        <ele>149</ele>
        <time>2021-11-11T08:28:35Z</time>
      </trkpt>
      <trkpt lat="50.50063" lon="4.53205">
        <ele>148</ele>
        <time>2021-11-11T08:28:37Z</time>
      </trkpt>
      <trkpt lat="50.50071" lon="4.53199">
        <ele>149</ele>
        <time>2021-11-11T08:28:39Z</time>
      </trkpt>
      <trkpt lat="50.50079" lon="4.53193">
        <ele>149</ele>
        <time>2021-11-11T08:28:41Z</time>
      </trkpt>
      <trkpt lat="50.50087" lon="4.53186">
        <ele>149</ele>
        <time>2021-11-11T08:28:43Z</time>
      </trkpt>
      <trkpt lat="50.50095" lon="4.5318">
        <ele>149</ele>
        <time>2021-11-11T08:28:45Z</time>
      </trkpt>
      <trkpt lat="50.50102" lon="4.53174">
        <ele>149</ele>
        <time>2021-11-11T08:28:47Z</time>
      </trkpt>
      <trkpt lat="50.5011" lon="4.53167">
        <ele>149</ele>
        <time>2021-11-11T08:28:49Z</time>
      </trkpt>
      <trkpt lat="50.50116" lon="4.53159">
        <ele>149</ele>
        <time>2021-11-11T08:28:51Z</time>
      </trkpt>
      <trkpt lat="50.50123" lon="4.5315">
        <ele>149</ele>
        <time>2021-11-11T08:28:53Z</time>
      </trkpt>
      <trkpt lat="50.50128" lon="4.53139">
        <ele>149</ele>
        <time>2021-11-11T08:28:55Z</time>
      </trkpt>
      <trkpt lat="50.50132" lon="4.53127">
        <ele>149</ele>
        <time>2021-11-11T08:28:57Z</time>
      </trkpt>
      <trkpt lat="50.50135" lon="4.53114">
        <ele>149</ele>
        <time>2021-11-11T08:28:59Z</time>
      </trkpt>
      <trkpt lat="50.50137" lon="4.531">
        <ele>149</ele>
        <time>2021-11-11T08:29:01Z</time>
      </trkpt>
      <trkpt lat="50.5014" lon="4.53088">
        <ele>148</ele>
        <time>2021-11-11T08:29:03Z</time>
      </trkpt>
      <trkpt lat="50.50142" lon="4.53075">
        <ele>148</ele>
        <time>2021-11-11T08:29:05Z</time>
      </trkpt>
      <trkpt lat="50.50145" lon="4.53062">
        <ele>148</ele>
        <time>2021-11-11T08:29:07Z</time>
      </trkpt>
      <trkpt lat="50.50148" lon="4.53049">
        <ele>148</ele>
        <time>2021-11-11T08:29:09Z</time>
      </trkpt>
      <trkpt lat="50.50152" lon="4.53037">
        <ele>149</ele>
        <time>2021-11-11T08:29:11Z</time>
      </trkpt>
      <trkpt lat="50.50155" lon="4.53024">
        <ele>150</ele>
        <time>2021-11-11T08:29:13Z</time>
      </trkpt>
      <trkpt lat="50.50159" lon="4.53012">
        <ele>150</ele>
        <time>2021-11-11T08:29:15Z</time>
      </trkpt>
      <trkpt lat="50.50163" lon="4.53001">
        <ele>150</ele>
        <time>2021-11-11T08:29:17Z</time>
      </trkpt>
      <trkpt lat="50.50168" lon="4.5299">
        <ele>150</ele>
        <time>2021-11-11T08:29:19Z</time>
      </trkpt>
      <trkpt lat="50.50173" lon="4.52979">
        <ele>150</ele>
        <time>2021-11-11T08:29:21Z</time>
      </trkpt>
      <trkpt lat="50.50179" lon="4.52969">
        <ele>150</ele>
        <time>2021-11-11T08:29:23Z</time>
      </trkpt>
      <trkpt lat="50.50184" lon="4.52958">
        <ele>150</ele>
        <time>2021-11-11T08:29:25Z</time>
      </trkpt>
      <trkpt lat="50.5019" lon="4.52948">
        <ele>150</ele>
        <time>2021-11-11T08:29:27Z</time>
      </trkpt>
      <trkpt lat="50.50195" lon="4.52938">
        <ele>150</ele>
        <time>2021-11-11T08:29:29Z</time>
      </trkpt>
      <trkpt lat="50.502" lon="4.52928">
        <ele>151</ele>
        <time>2021-11-11T08:29:31Z</time>
      </trkpt>
      <trkpt lat="50.50205" lon="4.52918">
        <ele>151</ele>
        <time>2021-11-11T08:29:33Z</time>
      </trkpt>
      <trkpt lat="50.5021" lon="4.52907">
        <ele>151</ele>
        <time>2021-11-11T08:29:35Z</time>
      </trkpt>
      <trkpt lat="50.50214" lon="4.52896">
        <ele>151</ele>
        <time>2021-11-11T08:29:37Z</time>
      </trkpt>
      <trkpt lat="50.50219" lon="4.52884">
        <ele>151</ele>
        <time>2021-11-11T08:29:39Z</time>
      </trkpt>
      <trkpt lat="50.50224" lon="4.52872">
        <ele>151</ele>
        <time>2021-11-11T08:29:41Z</time>
      </trkpt>
      <trkpt lat="50.5023" lon="4.52859">
        <ele>151</ele>
        <time>2021-11-11T08:29:43Z</time>
      </trkpt>
      <trkpt lat="50.50235" lon="4.52846">
        <ele>150</ele>
        <time>2021-11-11T08:29:45Z</time>
      </trkpt>
      <trkpt lat="50.50241" lon="4.52833">
        <ele>150</ele>
        <time>2021-11-11T08:29:47Z</time>
      </trkpt>
      <trkpt lat="50.50246" lon="4.5282">
        <ele>150</ele>
        <time>2021-11-11T08:29:49Z</time>
      </trkpt>
      <trkpt lat="50.50253" lon="4.52807">
        <ele>150</ele>
        <time>2021-11-11T08:29:51Z</time>
      </trkpt>
      <trkpt lat="50.50259" lon="4.52794">
        <ele>150</ele>
        <time>2021-11-11T08:29:53Z</time>
      </trkpt>
      <trkpt lat="50.50265" lon="4.52781">
        <ele>149</ele>
        <time>2021-11-11T08:29:55Z</time>
      </trkpt>
      <trkpt lat="50.50271" lon="4.52768">
        <ele>149</ele>
        <time>2021-11-11T08:29:57Z</time>
      </trkpt>
      <trkpt lat="50.50277" lon="4.52754">
        <ele>148</ele>
        <time>2021-11-11T08:29:59Z</time>
      </trkpt>
      <trkpt lat="50.50282" lon="4.52741">
        <ele>148</ele>
        <time>2021-11-11T08:30:01Z</time>
      </trkpt>
      <trkpt lat="50.50287" lon="4.52727">
        <ele>149</ele>
        <time>2021-11-11T08:30:03Z</time>
      </trkpt>
      <trkpt lat="50.50291" lon="4.52712">
        <ele>149</ele>
        <time>2021-11-11T08:30:05Z</time>
      </trkpt>
      <trkpt lat="50.50296" lon="4.52697">
        <ele>148</ele>
        <time>2021-11-11T08:30:07Z</time>
      </trkpt>
      <trkpt lat="50.503" lon="4.52682">
        <ele>148</ele>
        <time>2021-11-11T08:30:09Z</time>
      </trkpt>
      <trkpt lat="50.50304" lon="4.52667">
        <ele>150</ele>
        <time>2021-11-11T08:30:11Z</time>
      </trkpt>
      <trkpt lat="50.50308" lon="4.52653">
        <ele>148</ele>
        <time>2021-11-11T08:30:13Z</time>
      </trkpt>
      <trkpt lat="50.50312" lon="4.52638">
        <ele>148</ele>
        <time>2021-11-11T08:30:15Z</time>
      </trkpt>
      <trkpt lat="50.50316" lon="4.52623">
        <ele>149</ele>
        <time>2021-11-11T08:30:17Z</time>
      </trkpt>
      <trkpt lat="50.50319" lon="4.52607">
        <ele>149</ele>
        <time>2021-11-11T08:30:19Z</time>
      </trkpt>
      <trkpt lat="50.50323" lon="4.52592">
        <ele>147</ele>
        <time>2021-11-11T08:30:21Z</time>
      </trkpt>
      <trkpt lat="50.50326" lon="4.52577">
        <ele>147</ele>
        <time>2021-11-11T08:30:23Z</time>
      </trkpt>
      <trkpt lat="50.5033" lon="4.52561">
        <ele>146</ele>
        <time>2021-11-11T08:30:25Z</time>
      </trkpt>
      <trkpt lat="50.50333" lon="4.52546">
        <ele>146</ele>
        <time>2021-11-11T08:30:27Z</time>
      </trkpt>
      <trkpt lat="50.50337" lon="4.52531">
        <ele>146</ele>
        <time>2021-11-11T08:30:29Z</time>
      </trkpt>
      <trkpt lat="50.50341" lon="4.52516">
        <ele>146</ele>
        <time>2021-11-11T08:30:31Z</time>
      </trkpt>
      <trkpt lat="50.50345" lon="4.52502">
        <ele>145</ele>
        <time>2021-11-11T08:30:33Z</time>
      </trkpt>
      <trkpt lat="50.50348" lon="4.52487">
        <ele>144</ele>
        <time>2021-11-11T08:30:35Z</time>
      </trkpt>
      <trkpt lat="50.50352" lon="4.52472">
        <ele>145</ele>
        <time>2021-11-11T08:30:37Z</time>
      </trkpt>
      <trkpt lat="50.50356" lon="4.52457">
        <ele>145</ele>
        <time>2021-11-11T08:30:39Z</time>
      </trkpt>
      <trkpt lat="50.5036" lon="4.52442">
        <ele>145</ele>
        <time>2021-11-11T08:30:41Z</time>
      </trkpt>
      <trkpt lat="50.50364" lon="4.52428">
        <ele>145</ele>
        <time>2021-11-11T08:30:43Z</time>
      </trkpt>
      <trkpt lat="50.50369" lon="4.52414">
        <ele>145</ele>
        <time>2021-11-11T08:30:45Z</time>
      </trkpt>
      <trkpt lat="50.50374" lon="4.52401">
        <ele>145</ele>
        <time>2021-11-11T08:30:47Z</time>
      </trkpt>
      <trkpt lat="50.5038" lon="4.52388">
        <ele>145</ele>
        <time>2021-11-11T08:30:49Z</time>
      </trkpt>
      <trkpt lat="50.50385" lon="4.52375">
        <ele>145</ele>
        <time>2021-11-11T08:30:51Z</time>
      </trkpt>
      <trkpt lat="50.50391" lon="4.52361">
        <ele>145</ele>
        <time>2021-11-11T08:30:53Z</time>
      </trkpt>
      <trkpt lat="50.50396" lon="4.52347">
        <ele>145</ele>
        <time>2021-11-11T08:30:55Z</time>
      </trkpt>
      <trkpt lat="50.50403" lon="4.52331">
        <ele>145</ele>
        <time>2021-11-11T08:30:57Z</time>
      </trkpt>
      <trkpt lat="50.50409" lon="4.52316">
        <ele>144</ele>
        <time>2021-11-11T08:30:59Z</time>
      </trkpt>
      <trkpt lat="50.50416" lon="4.523">
        <ele>144</ele>
        <time>2021-11-11T08:31:01Z</time>
      </trkpt>
      <trkpt lat="50.50423" lon="4.52284">
        <ele>144</ele>
        <time>2021-11-11T08:31:03Z</time>
      </trkpt>
      <trkpt lat="50.50431" lon="4.5227">
        <ele>144</ele>
        <time>2021-11-11T08:31:05Z</time>
      </trkpt>
      <trkpt lat="50.5044" lon="4.52257">
        <ele>143</ele>
        <time>2021-11-11T08:31:07Z</time>
      </trkpt>
      <trkpt lat="50.50447" lon="4.52244">
        <ele>143</ele>
        <time>2021-11-11T08:31:09Z</time>
      </trkpt>
      <trkpt lat="50.50455" lon="4.52231">
        <ele>144</ele>
        <time>2021-11-11T08:31:11Z</time>
      </trkpt>
      <trkpt lat="50.50462" lon="4.5222">
        <ele>144</ele>
        <time>2021-11-11T08:31:13Z</time>
      </trkpt>
      <trkpt lat="50.50469" lon="4.52208">
        <ele>144</ele>
        <time>2021-11-11T08:31:15Z</time>
      </trkpt>
      <trkpt lat="50.50477" lon="4.52196">
        <ele>144</ele>
        <time>2021-11-11T08:31:17Z</time>
      </trkpt>
      <trkpt lat="50.50483" lon="4.52185">
        <ele>144</ele>
        <time>2021-11-11T08:31:19Z</time>
      </trkpt>
      <trkpt lat="50.5049" lon="4.52175">
        <ele>144</ele>
        <time>2021-11-11T08:31:21Z</time>
      </trkpt>
      <trkpt lat="50.50496" lon="4.52164">
        <ele>144</ele>
        <time>2021-11-11T08:31:23Z</time>
      </trkpt>
      <trkpt lat="50.50502" lon="4.52154">
        <ele>144</ele>
        <time>2021-11-11T08:31:25Z</time>
      </trkpt>
      <trkpt lat="50.50508" lon="4.52144">
        <ele>145</ele>
        <time>2021-11-11T08:31:27Z</time>
      </trkpt>
      <trkpt lat="50.50513" lon="4.52137">
        <ele>145</ele>
        <time>2021-11-11T08:31:29Z</time>
      </trkpt>
      <trkpt lat="50.50516" lon="4.52131">
        <ele>145</ele>
        <time>2021-11-11T08:31:31Z</time>
      </trkpt>
      <trkpt lat="50.5052" lon="4.52125">
        <ele>145</ele>
        <time>2021-11-11T08:31:33Z</time>
      </trkpt>
      <trkpt lat="50.50524" lon="4.52118">
        <ele>146</ele>
        <time>2021-11-11T08:31:35Z</time>
      </trkpt>
      <trkpt lat="50.50529" lon="4.52112">
        <ele>146</ele>
        <time>2021-11-11T08:31:37Z</time>
      </trkpt>
      <trkpt lat="50.50533" lon="4.52105">
        <ele>146</ele>
        <time>2021-11-11T08:31:39Z</time>
      </trkpt>
      <trkpt lat="50.50536" lon="4.52098">
        <ele>146</ele>
        <time>2021-11-11T08:31:41Z</time>
      </trkpt>
      <trkpt lat="50.5054" lon="4.52092">
        <ele>146</ele>
        <time>2021-11-11T08:31:43Z</time>
      </trkpt>
      <trkpt lat="50.50544" lon="4.52087">
        <ele>146</ele>
        <time>2021-11-11T08:31:45Z</time>
      </trkpt>
      <trkpt lat="50.50548" lon="4.5208">
        <ele>146</ele>
        <time>2021-11-11T08:31:47Z</time>
      </trkpt>
      <trkpt lat="50.50552" lon="4.52074">
        <ele>146</ele>
        <time>2021-11-11T08:31:49Z</time>
      </trkpt>
      <trkpt lat="50.50557" lon="4.52067">
        <ele>147</ele>
        <time>2021-11-11T08:31:51Z</time>
      </trkpt>
      <trkpt lat="50.50562" lon="4.52061">
        <ele>147</ele>
        <time>2021-11-11T08:31:53Z</time>
      </trkpt>
      <trkpt lat="50.50567" lon="4.52056">
        <ele>147</ele>
        <time>2021-11-11T08:31:55Z</time>
      </trkpt>
      <trkpt lat="50.50573" lon="4.5205">
        <ele>146</ele>
        <time>2021-11-11T08:31:57Z</time>
      </trkpt>
      <trkpt lat="50.50578" lon="4.52046">
        <ele>146</ele>
        <time>2021-11-11T08:31:59Z</time>
      </trkpt>
      <trkpt lat="50.50584" lon="4.5204">
        <ele>147</ele>
        <time>2021-11-11T08:32:01Z</time>
      </trkpt>
      <trkpt lat="50.50589" lon="4.52034">
        <ele>147</ele>
        <time>2021-11-11T08:32:03Z</time>
      </trkpt>
      <trkpt lat="50.50596" lon="4.52029">
        <ele>147</ele>
        <time>2021-11-11T08:32:05Z</time>
      </trkpt>
      <trkpt lat="50.50602" lon="4.52023">
        <ele>146</ele>
        <time>2021-11-11T08:32:07Z</time>
      </trkpt>
      <trkpt lat="50.50607" lon="4.52017">
        <ele>146</ele>
        <time>2021-11-11T08:32:09Z</time>
      </trkpt>
      <trkpt lat="50.50613" lon="4.5201">
        <ele>146</ele>
        <time>2021-11-11T08:32:11Z</time>
      </trkpt>
      <trkpt lat="50.50619" lon="4.52004">
        <ele>146</ele>
        <time>2021-11-11T08:32:13Z</time>
      </trkpt>
      <trkpt lat="50.50625" lon="4.51997">
        <ele>146</ele>
        <time>2021-11-11T08:32:15Z</time>
      </trkpt>
      <trkpt lat="50.50631" lon="4.51989">
        <ele>145</ele>
        <time>2021-11-11T08:32:17Z</time>
      </trkpt>
      <trkpt lat="50.50638" lon="4.51981">
        <ele>145</ele>
        <time>2021-11-11T08:32:19Z</time>
      </trkpt>
      <trkpt lat="50.50644" lon="4.51974">
        <ele>145</ele>
        <time>2021-11-11T08:32:21Z</time>
      </trkpt>
      <trkpt lat="50.5065" lon="4.51966">
        <ele>145</ele>
        <time>2021-11-11T08:32:23Z</time>
      </trkpt>
      <trkpt lat="50.50656" lon="4.51958">
        <ele>143</ele>
        <time>2021-11-11T08:32:25Z</time>
      </trkpt>
      <trkpt lat="50.50661" lon="4.5195">
        <ele>143</ele>
        <time>2021-11-11T08:32:27Z</time>
      </trkpt>
      <trkpt lat="50.50667" lon="4.51943">
        <ele>143</ele>
        <time>2021-11-11T08:32:29Z</time>
      </trkpt>
      <trkpt lat="50.50673" lon="4.51935">
        <ele>143</ele>
        <time>2021-11-11T08:32:31Z</time>
      </trkpt>
      <trkpt lat="50.50679" lon="4.51926">
        <ele>145</ele>
        <time>2021-11-11T08:32:33Z</time>
      </trkpt>
      <trkpt lat="50.50684" lon="4.51917">
        <ele>145</ele>
        <time>2021-11-11T08:32:35Z</time>
      </trkpt>
      <trkpt lat="50.5069" lon="4.51908">
        <ele>145</ele>
        <time>2021-11-11T08:32:37Z</time>
      </trkpt>
      <trkpt lat="50.50695" lon="4.519">
        <ele>145</ele>
        <time>2021-11-11T08:32:39Z</time>
      </trkpt>
      <trkpt lat="50.50701" lon="4.51892">
        <ele>145</ele>
        <time>2021-11-11T08:32:41Z</time>
      </trkpt>
      <trkpt lat="50.50706" lon="4.51883">
        <ele>145</ele>
        <time>2021-11-11T08:32:43Z</time>
      </trkpt>
      <trkpt lat="50.50711" lon="4.51874">
        <ele>147</ele>
        <time>2021-11-11T08:32:45Z</time>
      </trkpt>
      <trkpt lat="50.50717" lon="4.51865">
        <ele>147</ele>
        <time>2021-11-11T08:32:47Z</time>
      </trkpt>
      <trkpt lat="50.50723" lon="4.51857">
        <ele>147</ele>
        <time>2021-11-11T08:32:49Z</time>
      </trkpt>
      <trkpt lat="50.50728" lon="4.51848">
        <ele>147</ele>
        <time>2021-11-11T08:32:51Z</time>
      </trkpt>
      <trkpt lat="50.50733" lon="4.5184">
        <ele>148</ele>
        <time>2021-11-11T08:32:53Z</time>
      </trkpt>
      <trkpt lat="50.50737" lon="4.51832">
        <ele>148</ele>
        <time>2021-11-11T08:32:55Z</time>
      </trkpt>
      <trkpt lat="50.50742" lon="4.51824">
        <ele>148</ele>
        <time>2021-11-11T08:32:57Z</time>
      </trkpt>
      <trkpt lat="50.50748" lon="4.51816">
        <ele>148</ele>
        <time>2021-11-11T08:32:59Z</time>
      </trkpt>
      <trkpt lat="50.50753" lon="4.51808">
        <ele>148</ele>
        <time>2021-11-11T08:33:01Z</time>
      </trkpt>
      <trkpt lat="50.50758" lon="4.518">
        <ele>148</ele>
        <time>2021-11-11T08:33:03Z</time>
      </trkpt>
      <trkpt lat="50.50763" lon="4.51792">
        <ele>148</ele>
        <time>2021-11-11T08:33:05Z</time>
      </trkpt>
      <trkpt lat="50.50769" lon="4.51784">
        <ele>148</ele>
        <time>2021-11-11T08:33:07Z</time>
      </trkpt>
      <trkpt lat="50.50774" lon="4.51777">
        <ele>148</ele>
        <time>2021-11-11T08:33:09Z</time>
      </trkpt>
      <trkpt lat="50.50779" lon="4.51769">
        <ele>148</ele>
        <time>2021-11-11T08:33:11Z</time>
      </trkpt>
      <trkpt lat="50.50783" lon="4.51761">
        <ele>149</ele>
        <time>2021-11-11T08:33:13Z</time>
      </trkpt>
      <trkpt lat="50.50788" lon="4.51753">
        <ele>149</ele>
        <time>2021-11-11T08:33:15Z</time>
      </trkpt>
      <trkpt lat="50.50794" lon="4.51744">
        <ele>149</ele>
        <time>2021-11-11T08:33:17Z</time>
      </trkpt>
      <trkpt lat="50.50799" lon="4.51734">
        <ele>148</ele>
        <time>2021-11-11T08:33:19Z</time>
      </trkpt>
      <trkpt lat="50.50805" lon="4.51725">
        <ele>148</ele>
        <time>2021-11-11T08:33:21Z</time>
      </trkpt>
      <trkpt lat="50.50812" lon="4.51714">
        <ele>148</ele>
        <time>2021-11-11T08:33:23Z</time>
      </trkpt>
      <trkpt lat="50.50819" lon="4.51703">
        <ele>147</ele>
        <time>2021-11-11T08:33:25Z</time>
      </trkpt>
      <trkpt lat="50.50825" lon="4.51692">
        <ele>146</ele>
        <time>2021-11-11T08:33:27Z</time>
      </trkpt>
      <trkpt lat="50.50832" lon="4.51681">
        <ele>146</ele>
        <time>2021-11-11T08:33:29Z</time>
      </trkpt>
      <trkpt lat="50.50838" lon="4.5167">
        <ele>145</ele>
        <time>2021-11-11T08:33:31Z</time>
      </trkpt>
      <trkpt lat="50.50844" lon="4.51658">
        <ele>145</ele>
        <time>2021-11-11T08:33:33Z</time>
      </trkpt>
      <trkpt lat="50.5085" lon="4.51646">
        <ele>144</ele>
        <time>2021-11-11T08:33:35Z</time>
      </trkpt>
      <trkpt lat="50.50857" lon="4.51635">
        <ele>144</ele>
        <time>2021-11-11T08:33:37Z</time>
      </trkpt>
      <trkpt lat="50.50863" lon="4.51624">
        <ele>143</ele>
        <time>2021-11-11T08:33:39Z</time>
      </trkpt>
      <trkpt lat="50.5087" lon="4.51613">
        <ele>143</ele>
        <time>2021-11-11T08:33:41Z</time>
      </trkpt>
      <trkpt lat="50.50876" lon="4.51603">
        <ele>141</ele>
        <time>2021-11-11T08:33:43Z</time>
      </trkpt>
      <trkpt lat="50.50881" lon="4.51594">
        <ele>144</ele>
        <time>2021-11-11T08:33:45Z</time>
      </trkpt>
      <trkpt lat="50.50886" lon="4.51585">
        <ele>144</ele>
        <time>2021-11-11T08:33:47Z</time>
      </trkpt>
      <trkpt lat="50.50892" lon="4.51575">
        <ele>144</ele>
        <time>2021-11-11T08:33:49Z</time>
      </trkpt>
      <trkpt lat="50.50898" lon="4.51565">
        <ele>144</ele>
        <time>2021-11-11T08:33:51Z</time>
      </trkpt>
      <trkpt lat="50.50905" lon="4.51554">
        <ele>144</ele>
        <time>2021-11-11T08:33:53Z</time>
      </trkpt>
      <trkpt lat="50.50911" lon="4.51543">
        <ele>144</ele>
        <time>2021-11-11T08:33:55Z</time>
      </trkpt>
      <trkpt lat="50.50917" lon="4.51533">
        <ele>146</ele>
        <time>2021-11-11T08:33:57Z</time>
      </trkpt>
      <trkpt lat="50.50923" lon="4.51523">
        <ele>146</ele>
        <time>2021-11-11T08:33:59Z</time>
      </trkpt>
      <trkpt lat="50.5093" lon="4.51513">
        <ele>147</ele>
        <time>2021-11-11T08:34:01Z</time>
      </trkpt>
      <trkpt lat="50.50937" lon="4.51503">
        <ele>147</ele>
        <time>2021-11-11T08:34:03Z</time>
      </trkpt>
      <trkpt lat="50.50944" lon="4.51494">
        <ele>147</ele>
        <time>2021-11-11T08:34:05Z</time>
      </trkpt>
      <trkpt lat="50.50951" lon="4.51485">
        <ele>147</ele>
        <time>2021-11-11T08:34:07Z</time>
      </trkpt>
      <trkpt lat="50.50958" lon="4.51477">
        <ele>147</ele>
        <time>2021-11-11T08:34:09Z</time>
      </trkpt>
      <trkpt lat="50.50965" lon="4.51469">
        <ele>145</ele>
        <time>2021-11-11T08:34:11Z</time>
      </trkpt>
      <trkpt lat="50.50972" lon="4.5146">
        <ele>145</ele>
        <time>2021-11-11T08:34:13Z</time>
      </trkpt>
      <trkpt lat="50.5098" lon="4.51453">
        <ele>147</ele>
        <time>2021-11-11T08:34:15Z</time>
      </trkpt>
      <trkpt lat="50.50987" lon="4.51446">
        <ele>145</ele>
        <time>2021-11-11T08:34:17Z</time>
      </trkpt>
      <trkpt lat="50.50995" lon="4.51438">
        <ele>145</ele>
        <time>2021-11-11T08:34:19Z</time>
      </trkpt>
      <trkpt lat="50.51003" lon="4.51431">
        <ele>145</ele>
        <time>2021-11-11T08:34:21Z</time>
      </trkpt>
      <trkpt lat="50.51009" lon="4.51424">
        <ele>147</ele>
        <time>2021-11-11T08:34:23Z</time>
      </trkpt>
      <trkpt lat="50.51016" lon="4.51418">
        <ele>146</ele>
        <time>2021-11-11T08:34:25Z</time>
      </trkpt>
      <trkpt lat="50.51023" lon="4.5141">
        <ele>146</ele>
        <time>2021-11-11T08:34:27Z</time>
      </trkpt>
      <trkpt lat="50.5103" lon="4.51403">
        <ele>146</ele>
        <time>2021-11-11T08:34:29Z</time>
      </trkpt>
      <trkpt lat="50.51037" lon="4.51397">
        <ele>147</ele>
        <time>2021-11-11T08:34:31Z</time>
      </trkpt>
      <trkpt lat="50.51044" lon="4.5139">
        <ele>146</ele>
        <time>2021-11-11T08:34:33Z</time>
      </trkpt>
      <trkpt lat="50.51051" lon="4.51383">
        <ele>146</ele>
        <time>2021-11-11T08:34:35Z</time>
      </trkpt>
      <trkpt lat="50.51058" lon="4.51376">
        <ele>146</ele>
        <time>2021-11-11T08:34:37Z</time>
      </trkpt>
      <trkpt lat="50.51065" lon="4.51368">
        <ele>147</ele>
        <time>2021-11-11T08:34:39Z</time>
      </trkpt>
      <trkpt lat="50.51072" lon="4.5136">
        <ele>146</ele>
        <time>2021-11-11T08:34:41Z</time>
      </trkpt>
      <trkpt lat="50.5108" lon="4.51352">
        <ele>146</ele>
        <time>2021-11-11T08:34:43Z</time>
      </trkpt>
      <trkpt lat="50.51086" lon="4.51344">
        <ele>148</ele>
        <time>2021-11-11T08:34:45Z</time>
      </trkpt>
      <trkpt lat="50.51094" lon="4.51336">
        <ele>148</ele>
        <time>2021-11-11T08:34:47Z</time>
      </trkpt>
      <trkpt lat="50.51101" lon="4.51328">
        <ele>147</ele>
        <time>2021-11-11T08:34:49Z</time>
      </trkpt>
      <trkpt lat="50.51107" lon="4.51319">
        <ele>147</ele>
        <time>2021-11-11T08:34:51Z</time>
      </trkpt>
      <trkpt lat="50.51114" lon="4.5131">
        <ele>147</ele>
        <time>2021-11-11T08:34:53Z</time>
      </trkpt>
      <trkpt lat="50.5112" lon="4.513">
        <ele>147</ele>
        <time>2021-11-11T08:34:55Z</time>
      </trkpt>
      <trkpt lat="50.51127" lon="4.51291">
        <ele>146</ele>
        <time>2021-11-11T08:34:57Z</time>
      </trkpt>
      <trkpt lat="50.51133" lon="4.51282">
        <ele>146</ele>
        <time>2021-11-11T08:34:59Z</time>
      </trkpt>
      <trkpt lat="50.5114" lon="4.51273">
        <ele>146</ele>
        <time>2021-11-11T08:35:01Z</time>
      </trkpt>
      <trkpt lat="50.51146" lon="4.51264">
        <ele>146</ele>
        <time>2021-11-11T08:35:03Z</time>
      </trkpt>
      <trkpt lat="50.51153" lon="4.51256">
        <ele>146</ele>
        <time>2021-11-11T08:35:05Z</time>
      </trkpt>
      <trkpt lat="50.5116" lon="4.51249">
        <ele>146</ele>
        <time>2021-11-11T08:35:07Z</time>
      </trkpt>
      <trkpt lat="50.51167" lon="4.51242">
        <ele>146</ele>
        <time>2021-11-11T08:35:09Z</time>
      </trkpt>
      <trkpt lat="50.51174" lon="4.51235">
        <ele>146</ele>
        <time>2021-11-11T08:35:11Z</time>
      </trkpt>
      <trkpt lat="50.51181" lon="4.51228">
        <ele>147</ele>
        <time>2021-11-11T08:35:13Z</time>
      </trkpt>
      <trkpt lat="50.51189" lon="4.51222">
        <ele>147</ele>
        <time>2021-11-11T08:35:15Z</time>
      </trkpt>
      <trkpt lat="50.51197" lon="4.51216">
        <ele>147</ele>
        <time>2021-11-11T08:35:17Z</time>
      </trkpt>
      <trkpt lat="50.51204" lon="4.51209">
        <ele>147</ele>
        <time>2021-11-11T08:35:19Z</time>
      </trkpt>
      <trkpt lat="50.51211" lon="4.51201">
        <ele>147</ele>
        <time>2021-11-11T08:35:21Z</time>
      </trkpt>
      <trkpt lat="50.51219" lon="4.51194">
        <ele>147</ele>
        <time>2021-11-11T08:35:23Z</time>
      </trkpt>
      <trkpt lat="50.51227" lon="4.51187">
        <ele>147</ele>
        <time>2021-11-11T08:35:25Z</time>
      </trkpt>
      <trkpt lat="50.51234" lon="4.51179">
        <ele>148</ele>
        <time>2021-11-11T08:35:27Z</time>
      </trkpt>
      <trkpt lat="50.51242" lon="4.51171">
        <ele>148</ele>
        <time>2021-11-11T08:35:29Z</time>
      </trkpt>
      <trkpt lat="50.5125" lon="4.51163">
        <ele>148</ele>
        <time>2021-11-11T08:35:31Z</time>
      </trkpt>
      <trkpt lat="50.51258" lon="4.51156">
        <ele>148</ele>
        <time>2021-11-11T08:35:33Z</time>
      </trkpt>
      <trkpt lat="50.51265" lon="4.51148">
        <ele>150</ele>
        <time>2021-11-11T08:35:35Z</time>
      </trkpt>
      <trkpt lat="50.51273" lon="4.51139">
        <ele>150</ele>
        <time>2021-11-11T08:35:37Z</time>
      </trkpt>
      <trkpt lat="50.51281" lon="4.51131">
        <ele>150</ele>
        <time>2021-11-11T08:35:39Z</time>
      </trkpt>
      <trkpt lat="50.51289" lon="4.51122">
        <ele>148</ele>
        <time>2021-11-11T08:35:41Z</time>
      </trkpt>
      <trkpt lat="50.51296" lon="4.51114">
        <ele>151</ele>
        <time>2021-11-11T08:35:43Z</time>
      </trkpt>
      <trkpt lat="50.51304" lon="4.51106">
        <ele>151</ele>
        <time>2021-11-11T08:35:45Z</time>
      </trkpt>
      <trkpt lat="50.51311" lon="4.51097">
        <ele>152</ele>
        <time>2021-11-11T08:35:47Z</time>
      </trkpt>
      <trkpt lat="50.51318" lon="4.51089">
        <ele>152</ele>
        <time>2021-11-11T08:35:49Z</time>
      </trkpt>
      <trkpt lat="50.51325" lon="4.5108">
        <ele>153</ele>
        <time>2021-11-11T08:35:51Z</time>
      </trkpt>
      <trkpt lat="50.51331" lon="4.51071">
        <ele>153</ele>
        <time>2021-11-11T08:35:53Z</time>
      </trkpt>
      <trkpt lat="50.51338" lon="4.51062">
        <ele>154</ele>
        <time>2021-11-11T08:35:55Z</time>
      </trkpt>
      <trkpt lat="50.51344" lon="4.51052">
        <ele>154</ele>
        <time>2021-11-11T08:35:57Z</time>
      </trkpt>
      <trkpt lat="50.5135" lon="4.51043">
        <ele>154</ele>
        <time>2021-11-11T08:35:59Z</time>
      </trkpt>
      <trkpt lat="50.51357" lon="4.51034">
        <ele>153</ele>
        <time>2021-11-11T08:36:01Z</time>
      </trkpt>
      <trkpt lat="50.51364" lon="4.51026">
        <ele>153</ele>
        <time>2021-11-11T08:36:03Z</time>
      </trkpt>
      <trkpt lat="50.51371" lon="4.51017">
        <ele>153</ele>
        <time>2021-11-11T08:36:05Z</time>
      </trkpt>
      <trkpt lat="50.51378" lon="4.51007">
        <ele>153</ele>
        <time>2021-11-11T08:36:07Z</time>
      </trkpt>
      <trkpt lat="50.51385" lon="4.50997">
        <ele>153</ele>
        <time>2021-11-11T08:36:09Z</time>
      </trkpt>
      <trkpt lat="50.51392" lon="4.50987">
        <ele>153</ele>
        <time>2021-11-11T08:36:11Z</time>
      </trkpt>
      <trkpt lat="50.514" lon="4.50976">
        <ele>151</ele>
        <time>2021-11-11T08:36:13Z</time>
      </trkpt>
      <trkpt lat="50.51408" lon="4.50966">
        <ele>150</ele>
        <time>2021-11-11T08:36:15Z</time>
      </trkpt>
      <trkpt lat="50.51415" lon="4.50957">
        <ele>149</ele>
        <time>2021-11-11T08:36:17Z</time>
      </trkpt>
      <trkpt lat="50.51423" lon="4.50947">
        <ele>149</ele>
        <time>2021-11-11T08:36:19Z</time>
      </trkpt>
      <trkpt lat="50.51431" lon="4.50937">
        <ele>147</ele>
        <time>2021-11-11T08:36:21Z</time>
      </trkpt>
      <trkpt lat="50.51439" lon="4.50928">
        <ele>150</ele>
        <time>2021-11-11T08:36:23Z</time>
      </trkpt>
      <trkpt lat="50.51447" lon="4.50919">
        <ele>150</ele>
        <time>2021-11-11T08:36:25Z</time>
      </trkpt>
      <trkpt lat="50.51454" lon="4.5091">
        <ele>150</ele>
        <time>2021-11-11T08:36:27Z</time>
      </trkpt>
      <trkpt lat="50.51461" lon="4.50901">
        <ele>150</ele>
        <time>2021-11-11T08:36:29Z</time>
      </trkpt>
      <trkpt lat="50.51469" lon="4.50892">
        <ele>150</ele>
        <time>2021-11-11T08:36:31Z</time>
      </trkpt>
      <trkpt lat="50.51475" lon="4.50884">
        <ele>150</ele>
        <time>2021-11-11T08:36:33Z</time>
      </trkpt>
      <trkpt lat="50.51482" lon="4.50876">
        <ele>150</ele>
        <time>2021-11-11T08:36:35Z</time>
      </trkpt>
      <trkpt lat="50.51487" lon="4.50869">
        <ele>150</ele>
        <time>2021-11-11T08:36:37Z</time>
      </trkpt>
      <trkpt lat="50.51492" lon="4.50868">
        <ele>150</ele>
        <time>2021-11-11T08:36:39Z</time>
      </trkpt>
      <trkpt lat="50.51497" lon="4.50874">
        <ele>150</ele>
        <time>2021-11-11T08:36:41Z</time>
      </trkpt>
      <trkpt lat="50.51502" lon="4.50884">
        <ele>151</ele>
        <time>2021-11-11T08:36:43Z</time>
      </trkpt>
      <trkpt lat="50.51506" lon="4.50893">
        <ele>151</ele>
        <time>2021-11-11T08:36:45Z</time>
      </trkpt>
      <trkpt lat="50.51512" lon="4.50902">
        <ele>151</ele>
        <time>2021-11-11T08:36:47Z</time>
      </trkpt>
      <trkpt lat="50.51517" lon="4.50912">
        <ele>152</ele>
        <time>2021-11-11T08:36:49Z</time>
      </trkpt>
      <trkpt lat="50.51522" lon="4.50921">
        <ele>152</ele>
        <time>2021-11-11T08:36:51Z</time>
      </trkpt>
      <trkpt lat="50.51527" lon="4.50931">
        <ele>153</ele>
        <time>2021-11-11T08:36:53Z</time>
      </trkpt>
      <trkpt lat="50.51533" lon="4.50943">
        <ele>153</ele>
        <time>2021-11-11T08:36:55Z</time>
      </trkpt>
      <trkpt lat="50.51539" lon="4.50954">
        <ele>153</ele>
        <time>2021-11-11T08:36:57Z</time>
      </trkpt>
      <trkpt lat="50.51545" lon="4.50965">
        <ele>153</ele>
        <time>2021-11-11T08:36:59Z</time>
      </trkpt>
      <trkpt lat="50.5155" lon="4.50976">
        <ele>153</ele>
        <time>2021-11-11T08:37:01Z</time>
      </trkpt>
      <trkpt lat="50.51556" lon="4.50986">
        <ele>153</ele>
        <time>2021-11-11T08:37:03Z</time>
      </trkpt>
      <trkpt lat="50.51561" lon="4.50996">
        <ele>153</ele>
        <time>2021-11-11T08:37:05Z</time>
      </trkpt>
      <trkpt lat="50.51567" lon="4.51005">
        <ele>153</ele>
        <time>2021-11-11T08:37:07Z</time>
      </trkpt>
      <trkpt lat="50.51572" lon="4.51016">
        <ele>153</ele>
        <time>2021-11-11T08:37:09Z</time>
      </trkpt>
      <trkpt lat="50.51578" lon="4.51026">
        <ele>153</ele>
        <time>2021-11-11T08:37:11Z</time>
      </trkpt>
      <trkpt lat="50.51583" lon="4.51036">
        <ele>153</ele>
        <time>2021-11-11T08:37:13Z</time>
      </trkpt>
      <trkpt lat="50.51589" lon="4.51046">
        <ele>152</ele>
        <time>2021-11-11T08:37:15Z</time>
      </trkpt>
      <trkpt lat="50.51594" lon="4.51056">
        <ele>152</ele>
        <time>2021-11-11T08:37:17Z</time>
      </trkpt>
      <trkpt lat="50.516" lon="4.51066">
        <ele>153</ele>
        <time>2021-11-11T08:37:19Z</time>
      </trkpt>
      <trkpt lat="50.51605" lon="4.51077">
        <ele>153</ele>
        <time>2021-11-11T08:37:21Z</time>
      </trkpt>
      <trkpt lat="50.51611" lon="4.51087">
        <ele>153</ele>
        <time>2021-11-11T08:37:23Z</time>
      </trkpt>
      <trkpt lat="50.51616" lon="4.51097">
        <ele>153</ele>
        <time>2021-11-11T08:37:25Z</time>
      </trkpt>
      <trkpt lat="50.51622" lon="4.51107">
        <ele>153</ele>
        <time>2021-11-11T08:37:27Z</time>
      </trkpt>
      <trkpt lat="50.51627" lon="4.51118">
        <ele>153</ele>
        <time>2021-11-11T08:37:29Z</time>
      </trkpt>
      <trkpt lat="50.51634" lon="4.51129">
        <ele>153</ele>
        <time>2021-11-11T08:37:31Z</time>
      </trkpt>
      <trkpt lat="50.5164" lon="4.5114">
        <ele>153</ele>
        <time>2021-11-11T08:37:33Z</time>
      </trkpt>
      <trkpt lat="50.51646" lon="4.51151">
        <ele>153</ele>
        <time>2021-11-11T08:37:35Z</time>
      </trkpt>
      <trkpt lat="50.51652" lon="4.51162">
        <ele>155</ele>
        <time>2021-11-11T08:37:37Z</time>
      </trkpt>
      <trkpt lat="50.51658" lon="4.51173">
        <ele>155</ele>
        <time>2021-11-11T08:37:39Z</time>
      </trkpt>
      <trkpt lat="50.51664" lon="4.51184">
        <ele>154</ele>
        <time>2021-11-11T08:37:41Z</time>
      </trkpt>
      <trkpt lat="50.5167" lon="4.51195">
        <ele>154</ele>
        <time>2021-11-11T08:37:43Z</time>
      </trkpt>
      <trkpt lat="50.51676" lon="4.51205">
        <ele>154</ele>
        <time>2021-11-11T08:37:45Z</time>
      </trkpt>
      <trkpt lat="50.51682" lon="4.51216">
        <ele>154</ele>
        <time>2021-11-11T08:37:47Z</time>
      </trkpt>
      <trkpt lat="50.51688" lon="4.51227">
        <ele>154</ele>
        <time>2021-11-11T08:37:49Z</time>
      </trkpt>
      <trkpt lat="50.51694" lon="4.51238">
        <ele>153</ele>
        <time>2021-11-11T08:37:51Z</time>
      </trkpt>
      <trkpt lat="50.517" lon="4.51249">
        <ele>153</ele>
        <time>2021-11-11T08:37:53Z</time>
      </trkpt>
      <trkpt lat="50.51706" lon="4.5126">
        <ele>153</ele>
        <time>2021-11-11T08:37:55Z</time>
      </trkpt>
      <trkpt lat="50.51712" lon="4.51271">
        <ele>151</ele>
        <time>2021-11-11T08:37:57Z</time>
      </trkpt>
      <trkpt lat="50.51719" lon="4.51283">
        <ele>151</ele>
        <time>2021-11-11T08:37:59Z</time>
      </trkpt>
      <trkpt lat="50.51725" lon="4.51294">
        <ele>152</ele>
        <time>2021-11-11T08:38:01Z</time>
      </trkpt>
      <trkpt lat="50.51732" lon="4.51306">
        <ele>152</ele>
        <time>2021-11-11T08:38:03Z</time>
      </trkpt>
      <trkpt lat="50.51739" lon="4.51318">
        <ele>151</ele>
        <time>2021-11-11T08:38:05Z</time>
      </trkpt>
      <trkpt lat="50.51745" lon="4.5133">
        <ele>149</ele>
        <time>2021-11-11T08:38:07Z</time>
      </trkpt>
      <trkpt lat="50.51751" lon="4.51342">
        <ele>149</ele>
        <time>2021-11-11T08:38:09Z</time>
      </trkpt>
      <trkpt lat="50.51758" lon="4.51353">
        <ele>149</ele>
        <time>2021-11-11T08:38:11Z</time>
      </trkpt>
      <trkpt lat="50.51765" lon="4.51365">
        <ele>149</ele>
        <time>2021-11-11T08:38:13Z</time>
      </trkpt>
      <trkpt lat="50.51771" lon="4.51377">
        <ele>148</ele>
        <time>2021-11-11T08:38:15Z</time>
      </trkpt>
      <trkpt lat="50.51777" lon="4.51388">
        <ele>148</ele>
        <time>2021-11-11T08:38:17Z</time>
      </trkpt>
      <trkpt lat="50.51784" lon="4.51399">
        <ele>148</ele>
        <time>2021-11-11T08:38:19Z</time>
      </trkpt>
      <trkpt lat="50.5179" lon="4.51409">
        <ele>149</ele>
        <time>2021-11-11T08:38:21Z</time>
      </trkpt>
      <trkpt lat="50.51796" lon="4.51419">
        <ele>148</ele>
        <time>2021-11-11T08:38:23Z</time>
      </trkpt>
      <trkpt lat="50.51803" lon="4.51429">
        <ele>148</ele>
        <time>2021-11-11T08:38:25Z</time>
      </trkpt>
      <trkpt lat="50.51809" lon="4.5144">
        <ele>148</ele>
        <time>2021-11-11T08:38:27Z</time>
      </trkpt>
      <trkpt lat="50.51815" lon="4.5145">
        <ele>148</ele>
        <time>2021-11-11T08:38:29Z</time>
      </trkpt>
      <trkpt lat="50.51822" lon="4.51461">
        <ele>147</ele>
        <time>2021-11-11T08:38:31Z</time>
      </trkpt>
      <trkpt lat="50.51829" lon="4.51472">
        <ele>147</ele>
        <time>2021-11-11T08:38:33Z</time>
      </trkpt>
      <trkpt lat="50.51835" lon="4.51483">
        <ele>147</ele>
        <time>2021-11-11T08:38:35Z</time>
      </trkpt>
      <trkpt lat="50.51842" lon="4.51494">
        <ele>147</ele>
        <time>2021-11-11T08:38:37Z</time>
      </trkpt>
      <trkpt lat="50.51848" lon="4.51505">
        <ele>146</ele>
        <time>2021-11-11T08:38:39Z</time>
      </trkpt>
      <trkpt lat="50.51854" lon="4.51516">
        <ele>146</ele>
        <time>2021-11-11T08:38:41Z</time>
      </trkpt>
      <trkpt lat="50.51861" lon="4.51527">
        <ele>146</ele>
        <time>2021-11-11T08:38:43Z</time>
      </trkpt>
      <trkpt lat="50.51868" lon="4.51538">
        <ele>146</ele>
        <time>2021-11-11T08:38:45Z</time>
      </trkpt>
      <trkpt lat="50.51874" lon="4.5155">
        <ele>148</ele>
        <time>2021-11-11T08:38:47Z</time>
      </trkpt>
      <trkpt lat="50.51881" lon="4.51561">
        <ele>146</ele>
        <time>2021-11-11T08:38:49Z</time>
      </trkpt>
      <trkpt lat="50.51888" lon="4.51574">
        <ele>146</ele>
        <time>2021-11-11T08:38:51Z</time>
      </trkpt>
      <trkpt lat="50.51896" lon="4.51586">
        <ele>146</ele>
        <time>2021-11-11T08:38:53Z</time>
      </trkpt>
      <trkpt lat="50.51902" lon="4.51599">
        <ele>146</ele>
        <time>2021-11-11T08:38:55Z</time>
      </trkpt>
      <trkpt lat="50.51909" lon="4.51611">
        <ele>146</ele>
        <time>2021-11-11T08:38:57Z</time>
      </trkpt>
      <trkpt lat="50.51917" lon="4.51624">
        <ele>146</ele>
        <time>2021-11-11T08:38:59Z</time>
      </trkpt>
      <trkpt lat="50.51923" lon="4.51636">
        <ele>146</ele>
        <time>2021-11-11T08:39:01Z</time>
      </trkpt>
      <trkpt lat="50.51931" lon="4.51649">
        <ele>145</ele>
        <time>2021-11-11T08:39:03Z</time>
      </trkpt>
      <trkpt lat="50.51938" lon="4.51661">
        <ele>143</ele>
        <time>2021-11-11T08:39:05Z</time>
      </trkpt>
      <trkpt lat="50.51944" lon="4.51674">
        <ele>143</ele>
        <time>2021-11-11T08:39:07Z</time>
      </trkpt>
      <trkpt lat="50.51951" lon="4.51686">
        <ele>144</ele>
        <time>2021-11-11T08:39:09Z</time>
      </trkpt>
      <trkpt lat="50.51957" lon="4.51698">
        <ele>144</ele>
        <time>2021-11-11T08:39:11Z</time>
      </trkpt>
      <trkpt lat="50.51964" lon="4.51711">
        <ele>143</ele>
        <time>2021-11-11T08:39:13Z</time>
      </trkpt>
      <trkpt lat="50.51971" lon="4.51723">
        <ele>143</ele>
        <time>2021-11-11T08:39:15Z</time>
      </trkpt>
      <trkpt lat="50.51979" lon="4.51734">
        <ele>143</ele>
        <time>2021-11-11T08:39:17Z</time>
      </trkpt>
      <trkpt lat="50.51986" lon="4.51746">
        <ele>144</ele>
        <time>2021-11-11T08:39:19Z</time>
      </trkpt>
      <trkpt lat="50.51993" lon="4.51758">
        <ele>144</ele>
        <time>2021-11-11T08:39:21Z</time>
      </trkpt>
      <trkpt lat="50.52" lon="4.51768">
        <ele>143</ele>
        <time>2021-11-11T08:39:23Z</time>
      </trkpt>
      <trkpt lat="50.52008" lon="4.51778">
        <ele>143</ele>
        <time>2021-11-11T08:39:25Z</time>
      </trkpt>
      <trkpt lat="50.52017" lon="4.51788">
        <ele>143</ele>
        <time>2021-11-11T08:39:27Z</time>
      </trkpt>
      <trkpt lat="50.52026" lon="4.51797">
        <ele>143</ele>
        <time>2021-11-11T08:39:29Z</time>
      </trkpt>
      <trkpt lat="50.52034" lon="4.51807">
        <ele>143</ele>
        <time>2021-11-11T08:39:31Z</time>
      </trkpt>
      <trkpt lat="50.52043" lon="4.51815">
        <ele>142</ele>
        <time>2021-11-11T08:39:33Z</time>
      </trkpt>
      <trkpt lat="50.52052" lon="4.51824">
        <ele>141</ele>
        <time>2021-11-11T08:39:35Z</time>
      </trkpt>
      <trkpt lat="50.52061" lon="4.51833">
        <ele>141</ele>
        <time>2021-11-11T08:39:37Z</time>
      </trkpt>
      <trkpt lat="50.5207" lon="4.5184">
        <ele>141</ele>
        <time>2021-11-11T08:39:39Z</time>
      </trkpt>
      <trkpt lat="50.52078" lon="4.51847">
        <ele>141</ele>
        <time>2021-11-11T08:39:41Z</time>
      </trkpt>
      <trkpt lat="50.52087" lon="4.51853">
        <ele>141</ele>
        <time>2021-11-11T08:39:43Z</time>
      </trkpt>
      <trkpt lat="50.52095" lon="4.51858">
        <ele>141</ele>
        <time>2021-11-11T08:39:45Z</time>
      </trkpt>
      <trkpt lat="50.52103" lon="4.51861">
        <ele>141</ele>
        <time>2021-11-11T08:39:47Z</time>
      </trkpt>
      <trkpt lat="50.52111" lon="4.51864">
        <ele>141</ele>
        <time>2021-11-11T08:39:49Z</time>
      </trkpt>
      <trkpt lat="50.5212" lon="4.51866">
        <ele>141</ele>
        <time>2021-11-11T08:39:51Z</time>
      </trkpt>
      <trkpt lat="50.52129" lon="4.51868">
        <ele>141</ele>
        <time>2021-11-11T08:39:53Z</time>
      </trkpt>
      <trkpt lat="50.52137" lon="4.51869">
        <ele>141</ele>
        <time>2021-11-11T08:39:55Z</time>
      </trkpt>
      <trkpt lat="50.52146" lon="4.51871">
        <ele>141</ele>
        <time>2021-11-11T08:39:57Z</time>
      </trkpt>
      <trkpt lat="50.52155" lon="4.51873">
        <ele>141</ele>
        <time>2021-11-11T08:39:59Z</time>
      </trkpt>
      <trkpt lat="50.52162" lon="4.51875">
        <ele>141</ele>
        <time>2021-11-11T08:40:01Z</time>
      </trkpt>
      <trkpt lat="50.52167" lon="4.51878">
        <ele>142</ele>
        <time>2021-11-11T08:40:03Z</time>
      </trkpt>
      <trkpt lat="50.52168" lon="4.51884">
        <ele>142</ele>
        <time>2021-11-11T08:40:05Z</time>
      </trkpt>
      <trkpt lat="50.52169" lon="4.51893">
        <ele>142</ele>
        <time>2021-11-11T08:40:07Z</time>
      </trkpt>
      <trkpt lat="50.5217" lon="4.51902">
        <ele>142</ele>
        <time>2021-11-11T08:40:09Z</time>
      </trkpt>
      <trkpt lat="50.5217" lon="4.51913">
        <ele>142</ele>
        <time>2021-11-11T08:40:11Z</time>
      </trkpt>
      <trkpt lat="50.52171" lon="4.51922">
        <ele>142</ele>
        <time>2021-11-11T08:40:13Z</time>
      </trkpt>
      <trkpt lat="50.52171" lon="4.5193">
        <ele>142</ele>
        <time>2021-11-11T08:40:15Z</time>
      </trkpt>
      <trkpt lat="50.52171" lon="4.51938">
        <ele>141</ele>
        <time>2021-11-11T08:40:17Z</time>
      </trkpt>
      <trkpt lat="50.5217" lon="4.51943">
        <ele>141</ele>
        <time>2021-11-11T08:40:19Z</time>
      </trkpt>
      <trkpt lat="50.5217" lon="4.51946">
        <ele>141</ele>
        <time>2021-11-11T08:40:21Z</time>
      </trkpt>
      <trkpt lat="50.5217" lon="4.5195">
        <ele>141</ele>
        <time>2021-11-11T08:40:23Z</time>
      </trkpt>
      <trkpt lat="50.5217" lon="4.51953">
        <ele>141</ele>
        <time>2021-11-11T08:40:25Z</time>
      </trkpt>
      <trkpt lat="50.5217" lon="4.51957">
        <ele>141</ele>
        <time>2021-11-11T08:40:27Z</time>
      </trkpt>
      <trkpt lat="50.5217" lon="4.51961">
        <ele>141</ele>
        <time>2021-11-11T08:40:29Z</time>
      </trkpt>
      <trkpt lat="50.5217" lon="4.51964">
        <ele>141</ele>
        <time>2021-11-11T08:40:31Z</time>
      </trkpt>
      <trkpt lat="50.5217" lon="4.51968">
        <ele>141</ele>
        <time>2021-11-11T08:40:33Z</time>
      </trkpt>
      <trkpt lat="50.5217" lon="4.51971">
        <ele>141</ele>
        <time>2021-11-11T08:40:35Z</time>
      </trkpt>
      <trkpt lat="50.5217" lon="4.51974">
        <ele>141</ele>
        <time>2021-11-11T08:40:37Z</time>
      </trkpt>
      <trkpt lat="50.5217" lon="4.51976">
        <ele>141</ele>
        <time>2021-11-11T08:40:39Z</time>
      </trkpt>
      <trkpt lat="50.5217" lon="4.51979">
        <ele>141</ele>
        <time>2021-11-11T08:40:41Z</time>
      </trkpt>
      <trkpt lat="50.5217" lon="4.51982">
        <ele>141</ele>
        <time>2021-11-11T08:40:43Z</time>
      </trkpt>
      <trkpt lat="50.52169" lon="4.51991">
        <ele>139</ele>
        <time>2021-11-11T08:40:57Z</time>
      </trkpt>
      <trkpt lat="50.52169" lon="4.51994">
        <ele>139</ele>
        <time>2021-11-11T08:40:59Z</time>
      </trkpt>
      <trkpt lat="50.52169" lon="4.51998">
        <ele>139</ele>
        <time>2021-11-11T08:41:01Z</time>
      </trkpt>
      <trkpt lat="50.52168" lon="4.52003">
        <ele>139</ele>
        <time>2021-11-11T08:41:03Z</time>
      </trkpt>
      <trkpt lat="50.52168" lon="4.52011">
        <ele>139</ele>
        <time>2021-11-11T08:41:05Z</time>
      </trkpt>
      <trkpt lat="50.52167" lon="4.52019">
        <ele>139</ele>
        <time>2021-11-11T08:41:07Z</time>
      </trkpt>
      <trkpt lat="50.52166" lon="4.52028">
        <ele>139</ele>
        <time>2021-11-11T08:41:09Z</time>
      </trkpt>
      <trkpt lat="50.52166" lon="4.52037">
        <ele>139</ele>
        <time>2021-11-11T08:41:11Z</time>
      </trkpt>
      <trkpt lat="50.52166" lon="4.52047">
        <ele>139</ele>
        <time>2021-11-11T08:41:13Z</time>
      </trkpt>
      <trkpt lat="50.52166" lon="4.52058">
        <ele>139</ele>
        <time>2021-11-11T08:41:15Z</time>
      </trkpt>
      <trkpt lat="50.52166" lon="4.52069">
        <ele>139</ele>
        <time>2021-11-11T08:41:17Z</time>
      </trkpt>
      <trkpt lat="50.52166" lon="4.5208">
        <ele>139</ele>
        <time>2021-11-11T08:41:19Z</time>
      </trkpt>
      <trkpt lat="50.52166" lon="4.5209">
        <ele>139</ele>
        <time>2021-11-11T08:41:21Z</time>
      </trkpt>
      <trkpt lat="50.52167" lon="4.52101">
        <ele>139</ele>
        <time>2021-11-11T08:41:23Z</time>
      </trkpt>
      <trkpt lat="50.52167" lon="4.52112">
        <ele>139</ele>
        <time>2021-11-11T08:41:25Z</time>
      </trkpt>
      <trkpt lat="50.52167" lon="4.52124">
        <ele>139</ele>
        <time>2021-11-11T08:41:27Z</time>
      </trkpt>
      <trkpt lat="50.52167" lon="4.52136">
        <ele>139</ele>
        <time>2021-11-11T08:41:29Z</time>
      </trkpt>
      <trkpt lat="50.52168" lon="4.52147">
        <ele>139</ele>
        <time>2021-11-11T08:41:31Z</time>
      </trkpt>
      <trkpt lat="50.52168" lon="4.52158">
        <ele>139</ele>
        <time>2021-11-11T08:41:33Z</time>
      </trkpt>
      <trkpt lat="50.52168" lon="4.5217">
        <ele>139</ele>
        <time>2021-11-11T08:41:35Z</time>
      </trkpt>
      <trkpt lat="50.52168" lon="4.52181">
        <ele>139</ele>
        <time>2021-11-11T08:41:37Z</time>
      </trkpt>
      <trkpt lat="50.52168" lon="4.52192">
        <ele>139</ele>
        <time>2021-11-11T08:41:39Z</time>
      </trkpt>
      <trkpt lat="50.52169" lon="4.52204">
        <ele>139</ele>
        <time>2021-11-11T08:41:41Z</time>
      </trkpt>
      <trkpt lat="50.52169" lon="4.52214">
        <ele>139</ele>
        <time>2021-11-11T08:41:43Z</time>
      </trkpt>
      <trkpt lat="50.52169" lon="4.52224">
        <ele>139</ele>
        <time>2021-11-11T08:41:45Z</time>
      </trkpt>
      <trkpt lat="50.52169" lon="4.52233">
        <ele>139</ele>
        <time>2021-11-11T08:41:47Z</time>
      </trkpt>
      <trkpt lat="50.52169" lon="4.52242">
        <ele>139</ele>
        <time>2021-11-11T08:41:49Z</time>
      </trkpt>
      <trkpt lat="50.52169" lon="4.5225">
        <ele>139</ele>
        <time>2021-11-11T08:41:51Z</time>
      </trkpt>
      <trkpt lat="50.52169" lon="4.52257">
        <ele>139</ele>
        <time>2021-11-11T08:41:53Z</time>
      </trkpt>
      <trkpt lat="50.52171" lon="4.52265">
        <ele>137</ele>
        <time>2021-11-11T08:41:55Z</time>
      </trkpt>
      <trkpt lat="50.52172" lon="4.52273">
        <ele>137</ele>
        <time>2021-11-11T08:41:57Z</time>
      </trkpt>
      <trkpt lat="50.52174" lon="4.52283">
        <ele>137</ele>
        <time>2021-11-11T08:41:59Z</time>
      </trkpt>
      <trkpt lat="50.52175" lon="4.52294">
        <ele>137</ele>
        <time>2021-11-11T08:42:01Z</time>
      </trkpt>
      <trkpt lat="50.52177" lon="4.52305">
        <ele>137</ele>
        <time>2021-11-11T08:42:03Z</time>
      </trkpt>
      <trkpt lat="50.52179" lon="4.52316">
        <ele>137</ele>
        <time>2021-11-11T08:42:05Z</time>
      </trkpt>
      <trkpt lat="50.5218" lon="4.52327">
        <ele>136</ele>
        <time>2021-11-11T08:42:07Z</time>
      </trkpt>
      <trkpt lat="50.52181" lon="4.5234">
        <ele>136</ele>
        <time>2021-11-11T08:42:09Z</time>
      </trkpt>
      <trkpt lat="50.5218" lon="4.52352">
        <ele>138</ele>
        <time>2021-11-11T08:42:11Z</time>
      </trkpt>
      <trkpt lat="50.52178" lon="4.52365">
        <ele>138</ele>
        <time>2021-11-11T08:42:13Z</time>
      </trkpt>
      <trkpt lat="50.52175" lon="4.52377">
        <ele>139</ele>
        <time>2021-11-11T08:42:15Z</time>
      </trkpt>
      <trkpt lat="50.52173" lon="4.52389">
        <ele>139</ele>
        <time>2021-11-11T08:42:17Z</time>
      </trkpt>
      <trkpt lat="50.5217" lon="4.524">
        <ele>139</ele>
        <time>2021-11-11T08:42:19Z</time>
      </trkpt>
      <trkpt lat="50.52168" lon="4.52412">
        <ele>140</ele>
        <time>2021-11-11T08:42:21Z</time>
      </trkpt>
      <trkpt lat="50.52166" lon="4.52425">
        <ele>140</ele>
        <time>2021-11-11T08:42:23Z</time>
      </trkpt>
      <trkpt lat="50.52163" lon="4.52438">
        <ele>141</ele>
        <time>2021-11-11T08:42:25Z</time>
      </trkpt>
      <trkpt lat="50.52161" lon="4.52451">
        <ele>141</ele>
        <time>2021-11-11T08:42:27Z</time>
      </trkpt>
      <trkpt lat="50.5216" lon="4.52464">
        <ele>141</ele>
        <time>2021-11-11T08:42:29Z</time>
      </trkpt>
      <trkpt lat="50.52158" lon="4.52476">
        <ele>141</ele>
        <time>2021-11-11T08:42:31Z</time>
      </trkpt>
      <trkpt lat="50.52156" lon="4.52489">
        <ele>142</ele>
        <time>2021-11-11T08:42:33Z</time>
      </trkpt>
      <trkpt lat="50.52154" lon="4.52503">
        <ele>142</ele>
        <time>2021-11-11T08:42:35Z</time>
      </trkpt>
      <trkpt lat="50.52153" lon="4.52516">
        <ele>141</ele>
        <time>2021-11-11T08:42:37Z</time>
      </trkpt>
      <trkpt lat="50.52152" lon="4.5253">
        <ele>141</ele>
        <time>2021-11-11T08:42:39Z</time>
      </trkpt>
      <trkpt lat="50.52152" lon="4.52543">
        <ele>141</ele>
        <time>2021-11-11T08:42:41Z</time>
      </trkpt>
      <trkpt lat="50.52151" lon="4.52556">
        <ele>141</ele>
        <time>2021-11-11T08:42:43Z</time>
      </trkpt>
      <trkpt lat="50.52151" lon="4.52569">
        <ele>141</ele>
        <time>2021-11-11T08:42:45Z</time>
      </trkpt>
      <trkpt lat="50.5215" lon="4.52582">
        <ele>142</ele>
        <time>2021-11-11T08:42:47Z</time>
      </trkpt>
      <trkpt lat="50.52151" lon="4.52595">
        <ele>142</ele>
        <time>2021-11-11T08:42:49Z</time>
      </trkpt>
      <trkpt lat="50.5215" lon="4.52608">
        <ele>143</ele>
        <time>2021-11-11T08:42:51Z</time>
      </trkpt>
      <trkpt lat="50.52151" lon="4.52621">
        <ele>143</ele>
        <time>2021-11-11T08:42:53Z</time>
      </trkpt>
      <trkpt lat="50.5215" lon="4.52633">
        <ele>142</ele>
        <time>2021-11-11T08:42:55Z</time>
      </trkpt>
      <trkpt lat="50.52151" lon="4.52645">
        <ele>142</ele>
        <time>2021-11-11T08:42:57Z</time>
      </trkpt>
      <trkpt lat="50.5215" lon="4.52657">
        <ele>145</ele>
        <time>2021-11-11T08:42:59Z</time>
      </trkpt>
      <trkpt lat="50.5215" lon="4.5267">
        <ele>145</ele>
        <time>2021-11-11T08:43:01Z</time>
      </trkpt>
      <trkpt lat="50.5215" lon="4.52683">
        <ele>142</ele>
        <time>2021-11-11T08:43:03Z</time>
      </trkpt>
      <trkpt lat="50.5215" lon="4.52696">
        <ele>142</ele>
        <time>2021-11-11T08:43:05Z</time>
      </trkpt>
      <trkpt lat="50.52149" lon="4.52708">
        <ele>142</ele>
        <time>2021-11-11T08:43:07Z</time>
      </trkpt>
      <trkpt lat="50.52148" lon="4.52721">
        <ele>143</ele>
        <time>2021-11-11T08:43:09Z</time>
      </trkpt>
      <trkpt lat="50.52148" lon="4.52734">
        <ele>143</ele>
        <time>2021-11-11T08:43:11Z</time>
      </trkpt>
      <trkpt lat="50.52147" lon="4.52746">
        <ele>142</ele>
        <time>2021-11-11T08:43:13Z</time>
      </trkpt>
      <trkpt lat="50.52146" lon="4.52759">
        <ele>142</ele>
        <time>2021-11-11T08:43:15Z</time>
      </trkpt>
      <trkpt lat="50.52146" lon="4.52771">
        <ele>141</ele>
        <time>2021-11-11T08:43:17Z</time>
      </trkpt>
      <trkpt lat="50.52145" lon="4.52784">
        <ele>141</ele>
        <time>2021-11-11T08:43:19Z</time>
      </trkpt>
      <trkpt lat="50.52144" lon="4.52797">
        <ele>141</ele>
        <time>2021-11-11T08:43:21Z</time>
      </trkpt>
      <trkpt lat="50.52143" lon="4.52809">
        <ele>141</ele>
        <time>2021-11-11T08:43:23Z</time>
      </trkpt>
      <trkpt lat="50.52141" lon="4.52822">
        <ele>141</ele>
        <time>2021-11-11T08:43:25Z</time>
      </trkpt>
      <trkpt lat="50.5214" lon="4.52834">
        <ele>141</ele>
        <time>2021-11-11T08:43:27Z</time>
      </trkpt>
      <trkpt lat="50.52139" lon="4.52847">
        <ele>141</ele>
        <time>2021-11-11T08:43:29Z</time>
      </trkpt>
      <trkpt lat="50.52137" lon="4.52859">
        <ele>141</ele>
        <time>2021-11-11T08:43:31Z</time>
      </trkpt>
      <trkpt lat="50.52134" lon="4.52872">
        <ele>141</ele>
        <time>2021-11-11T08:43:33Z</time>
      </trkpt>
      <trkpt lat="50.52132" lon="4.52884">
        <ele>142</ele>
        <time>2021-11-11T08:43:35Z</time>
      </trkpt>
      <trkpt lat="50.52131" lon="4.52895">
        <ele>142</ele>
        <time>2021-11-11T08:43:37Z</time>
      </trkpt>
      <trkpt lat="50.52129" lon="4.52905">
        <ele>142</ele>
        <time>2021-11-11T08:43:39Z</time>
      </trkpt>
      <trkpt lat="50.52128" lon="4.52915">
        <ele>142</ele>
        <time>2021-11-11T08:43:41Z</time>
      </trkpt>
      <trkpt lat="50.52126" lon="4.52925">
        <ele>142</ele>
        <time>2021-11-11T08:43:43Z</time>
      </trkpt>
      <trkpt lat="50.52124" lon="4.52935">
        <ele>144</ele>
        <time>2021-11-11T08:43:45Z</time>
      </trkpt>
      <trkpt lat="50.52121" lon="4.52946">
        <ele>144</ele>
        <time>2021-11-11T08:43:47Z</time>
      </trkpt>
      <trkpt lat="50.52118" lon="4.52956">
        <ele>144</ele>
        <time>2021-11-11T08:43:49Z</time>
      </trkpt>
      <trkpt lat="50.52117" lon="4.52965">
        <ele>142</ele>
        <time>2021-11-11T08:43:51Z</time>
      </trkpt>
      <trkpt lat="50.52115" lon="4.52974">
        <ele>142</ele>
        <time>2021-11-11T08:43:53Z</time>
      </trkpt>
      <trkpt lat="50.52114" lon="4.52983">
        <ele>142</ele>
        <time>2021-11-11T08:43:55Z</time>
      </trkpt>
      <trkpt lat="50.52112" lon="4.52992">
        <ele>142</ele>
        <time>2021-11-11T08:43:57Z</time>
      </trkpt>
      <trkpt lat="50.52109" lon="4.53">
        <ele>142</ele>
        <time>2021-11-11T08:43:59Z</time>
      </trkpt>
      <trkpt lat="50.52107" lon="4.53006">
        <ele>142</ele>
        <time>2021-11-11T08:44:01Z</time>
      </trkpt>
      <trkpt lat="50.52105" lon="4.53013">
        <ele>142</ele>
        <time>2021-11-11T08:44:03Z</time>
      </trkpt>
      <trkpt lat="50.52103" lon="4.53021">
        <ele>142</ele>
        <time>2021-11-11T08:44:05Z</time>
      </trkpt>
      <trkpt lat="50.521" lon="4.53029">
        <ele>142</ele>
        <time>2021-11-11T08:44:07Z</time>
      </trkpt>
      <trkpt lat="50.52098" lon="4.53038">
        <ele>142</ele>
        <time>2021-11-11T08:44:09Z</time>
      </trkpt>
      <trkpt lat="50.52095" lon="4.53046">
        <ele>142</ele>
        <time>2021-11-11T08:44:11Z</time>
      </trkpt>
      <trkpt lat="50.52091" lon="4.53055">
        <ele>142</ele>
        <time>2021-11-11T08:44:13Z</time>
      </trkpt>
      <trkpt lat="50.52089" lon="4.53063">
        <ele>142</ele>
        <time>2021-11-11T08:44:15Z</time>
      </trkpt>
      <trkpt lat="50.52087" lon="4.53071">
        <ele>141</ele>
        <time>2021-11-11T08:44:17Z</time>
      </trkpt>
      <trkpt lat="50.52087" lon="4.5308">
        <ele>141</ele>
        <time>2021-11-11T08:44:19Z</time>
      </trkpt>
      <trkpt lat="50.52089" lon="4.53089">
        <ele>141</ele>
        <time>2021-11-11T08:44:21Z</time>
      </trkpt>
      <trkpt lat="50.52094" lon="4.53096">
        <ele>141</ele>
        <time>2021-11-11T08:44:23Z</time>
      </trkpt>
      <trkpt lat="50.52099" lon="4.53104">
        <ele>141</ele>
        <time>2021-11-11T08:44:25Z</time>
      </trkpt>
      <trkpt lat="50.52104" lon="4.53111">
        <ele>141</ele>
        <time>2021-11-11T08:44:27Z</time>
      </trkpt>
      <trkpt lat="50.5211" lon="4.5312">
        <ele>141</ele>
        <time>2021-11-11T08:44:29Z</time>
      </trkpt>
      <trkpt lat="50.52116" lon="4.53129">
        <ele>140</ele>
        <time>2021-11-11T08:44:31Z</time>
      </trkpt>
      <trkpt lat="50.52123" lon="4.53138">
        <ele>140</ele>
        <time>2021-11-11T08:44:33Z</time>
      </trkpt>
      <trkpt lat="50.5213" lon="4.53146">
        <ele>140</ele>
        <time>2021-11-11T08:44:35Z</time>
      </trkpt>
      <trkpt lat="50.52138" lon="4.53153">
        <ele>140</ele>
        <time>2021-11-11T08:44:37Z</time>
      </trkpt>
      <trkpt lat="50.52147" lon="4.53158">
        <ele>140</ele>
        <time>2021-11-11T08:44:39Z</time>
      </trkpt>
      <trkpt lat="50.52156" lon="4.53163">
        <ele>140</ele>
        <time>2021-11-11T08:44:41Z</time>
      </trkpt>
      <trkpt lat="50.52165" lon="4.53168">
        <ele>140</ele>
        <time>2021-11-11T08:44:43Z</time>
      </trkpt>
      <trkpt lat="50.52174" lon="4.53173">
        <ele>140</ele>
        <time>2021-11-11T08:44:45Z</time>
      </trkpt>
      <trkpt lat="50.52183" lon="4.53178">
        <ele>141</ele>
        <time>2021-11-11T08:44:47Z</time>
      </trkpt>
      <trkpt lat="50.52192" lon="4.53183">
        <ele>141</ele>
        <time>2021-11-11T08:44:49Z</time>
      </trkpt>
      <trkpt lat="50.522" lon="4.53189">
        <ele>141</ele>
        <time>2021-11-11T08:44:51Z</time>
      </trkpt>
      <trkpt lat="50.52209" lon="4.53196">
        <ele>141</ele>
        <time>2021-11-11T08:44:53Z</time>
      </trkpt>
      <trkpt lat="50.52217" lon="4.53203">
        <ele>141</ele>
        <time>2021-11-11T08:44:55Z</time>
      </trkpt>
      <trkpt lat="50.52226" lon="4.5321">
        <ele>141</ele>
        <time>2021-11-11T08:44:57Z</time>
      </trkpt>
      <trkpt lat="50.52235" lon="4.53217">
        <ele>141</ele>
        <time>2021-11-11T08:44:59Z</time>
      </trkpt>
      <trkpt lat="50.52243" lon="4.53225">
        <ele>141</ele>
        <time>2021-11-11T08:45:01Z</time>
      </trkpt>
      <trkpt lat="50.52252" lon="4.53234">
        <ele>141</ele>
        <time>2021-11-11T08:45:03Z</time>
      </trkpt>
      <trkpt lat="50.5226" lon="4.53241">
        <ele>141</ele>
        <time>2021-11-11T08:45:05Z</time>
      </trkpt>
      <trkpt lat="50.52269" lon="4.53249">
        <ele>141</ele>
        <time>2021-11-11T08:45:07Z</time>
      </trkpt>
      <trkpt lat="50.52277" lon="4.53256">
        <ele>141</ele>
        <time>2021-11-11T08:45:09Z</time>
      </trkpt>
      <trkpt lat="50.52285" lon="4.53264">
        <ele>141</ele>
        <time>2021-11-11T08:45:11Z</time>
      </trkpt>
      <trkpt lat="50.52293" lon="4.53269">
        <ele>140</ele>
        <time>2021-11-11T08:45:13Z</time>
      </trkpt>
      <trkpt lat="50.52302" lon="4.53267">
        <ele>140</ele>
        <time>2021-11-11T08:45:15Z</time>
      </trkpt>
      <trkpt lat="50.5231" lon="4.53261">
        <ele>141</ele>
        <time>2021-11-11T08:45:17Z</time>
      </trkpt>
      <trkpt lat="50.52319" lon="4.53253">
        <ele>141</ele>
        <time>2021-11-11T08:45:19Z</time>
      </trkpt>
      <trkpt lat="50.52327" lon="4.53245">
        <ele>141</ele>
        <time>2021-11-11T08:45:21Z</time>
      </trkpt>
      <trkpt lat="50.52335" lon="4.53238">
        <ele>141</ele>
        <time>2021-11-11T08:45:23Z</time>
      </trkpt>
      <trkpt lat="50.52345" lon="4.53233">
        <ele>141</ele>
        <time>2021-11-11T08:45:25Z</time>
      </trkpt>
      <trkpt lat="50.52354" lon="4.53229">
        <ele>142</ele>
        <time>2021-11-11T08:45:27Z</time>
      </trkpt>
      <trkpt lat="50.52364" lon="4.53229">
        <ele>142</ele>
        <time>2021-11-11T08:45:29Z</time>
      </trkpt>
      <trkpt lat="50.52374" lon="4.53229">
        <ele>142</ele>
        <time>2021-11-11T08:45:31Z</time>
      </trkpt>
      <trkpt lat="50.52384" lon="4.53229">
        <ele>144</ele>
        <time>2021-11-11T08:45:33Z</time>
      </trkpt>
      <trkpt lat="50.52393" lon="4.53229">
        <ele>144</ele>
        <time>2021-11-11T08:45:35Z</time>
      </trkpt>
      <trkpt lat="50.52403" lon="4.53229">
        <ele>144</ele>
        <time>2021-11-11T08:45:37Z</time>
      </trkpt>
      <trkpt lat="50.52413" lon="4.53229">
        <ele>144</ele>
        <time>2021-11-11T08:45:39Z</time>
      </trkpt>
      <trkpt lat="50.52423" lon="4.5323">
        <ele>144</ele>
        <time>2021-11-11T08:45:41Z</time>
      </trkpt>
      <trkpt lat="50.52433" lon="4.5323">
        <ele>145</ele>
        <time>2021-11-11T08:45:43Z</time>
      </trkpt>
      <trkpt lat="50.52442" lon="4.53232">
        <ele>145</ele>
        <time>2021-11-11T08:45:45Z</time>
      </trkpt>
      <trkpt lat="50.5245" lon="4.53238">
        <ele>146</ele>
        <time>2021-11-11T08:45:47Z</time>
      </trkpt>
      <trkpt lat="50.52457" lon="4.53246">
        <ele>146</ele>
        <time>2021-11-11T08:45:49Z</time>
      </trkpt>
      <trkpt lat="50.52463" lon="4.53254">
        <ele>146</ele>
        <time>2021-11-11T08:45:51Z</time>
      </trkpt>
      <trkpt lat="50.5247" lon="4.53262">
        <ele>146</ele>
        <time>2021-11-11T08:45:53Z</time>
      </trkpt>
      <trkpt lat="50.52476" lon="4.53267">
        <ele>147</ele>
        <time>2021-11-11T08:45:55Z</time>
      </trkpt>
      <trkpt lat="50.52481" lon="4.53273">
        <ele>147</ele>
        <time>2021-11-11T08:45:57Z</time>
      </trkpt>
      <trkpt lat="50.52489" lon="4.5328">
        <ele>147</ele>
        <time>2021-11-11T08:45:59Z</time>
      </trkpt>
      <trkpt lat="50.52496" lon="4.53287">
        <ele>147</ele>
        <time>2021-11-11T08:46:01Z</time>
      </trkpt>
      <trkpt lat="50.52505" lon="4.53295">
        <ele>148</ele>
        <time>2021-11-11T08:46:03Z</time>
      </trkpt>
      <trkpt lat="50.52513" lon="4.533">
        <ele>148</ele>
        <time>2021-11-11T08:46:05Z</time>
      </trkpt>
      <trkpt lat="50.52522" lon="4.53299">
        <ele>148</ele>
        <time>2021-11-11T08:46:07Z</time>
      </trkpt>
      <trkpt lat="50.52531" lon="4.53294">
        <ele>148</ele>
        <time>2021-11-11T08:46:09Z</time>
      </trkpt>
      <trkpt lat="50.5254" lon="4.53287">
        <ele>147</ele>
        <time>2021-11-11T08:46:11Z</time>
      </trkpt>
      <trkpt lat="50.52548" lon="4.53282">
        <ele>148</ele>
        <time>2021-11-11T08:46:13Z</time>
      </trkpt>
      <trkpt lat="50.52556" lon="4.53277">
        <ele>148</ele>
        <time>2021-11-11T08:46:15Z</time>
      </trkpt>
      <trkpt lat="50.52562" lon="4.53271">
        <ele>148</ele>
        <time>2021-11-11T08:46:17Z</time>
      </trkpt>
      <trkpt lat="50.5257" lon="4.53265">
        <ele>149</ele>
        <time>2021-11-11T08:46:19Z</time>
      </trkpt>
      <trkpt lat="50.52576" lon="4.53261">
        <ele>150</ele>
        <time>2021-11-11T08:46:21Z</time>
      </trkpt>
      <trkpt lat="50.52581" lon="4.53255">
        <ele>150</ele>
        <time>2021-11-11T08:46:23Z</time>
      </trkpt>
      <trkpt lat="50.52589" lon="4.53244">
        <ele>150</ele>
        <time>2021-11-11T08:46:25Z</time>
      </trkpt>
      <trkpt lat="50.526" lon="4.53231">
        <ele>150</ele>
        <time>2021-11-11T08:46:27Z</time>
      </trkpt>
      <trkpt lat="50.5261" lon="4.53221">
        <ele>150</ele>
        <time>2021-11-11T08:46:29Z</time>
      </trkpt>
      <trkpt lat="50.52618" lon="4.53211">
        <ele>150</ele>
        <time>2021-11-11T08:46:31Z</time>
      </trkpt>
      <trkpt lat="50.52626" lon="4.53201">
        <ele>153</ele>
        <time>2021-11-11T08:46:33Z</time>
      </trkpt>
      <trkpt lat="50.52635" lon="4.5319">
        <ele>153</ele>
        <time>2021-11-11T08:46:35Z</time>
      </trkpt>
      <trkpt lat="50.52642" lon="4.5318">
        <ele>151</ele>
        <time>2021-11-11T08:46:37Z</time>
      </trkpt>
      <trkpt lat="50.52651" lon="4.5317">
        <ele>151</ele>
        <time>2021-11-11T08:46:39Z</time>
      </trkpt>
      <trkpt lat="50.52658" lon="4.5316">
        <ele>153</ele>
        <time>2021-11-11T08:46:41Z</time>
      </trkpt>
      <trkpt lat="50.52664" lon="4.5315">
        <ele>153</ele>
        <time>2021-11-11T08:46:43Z</time>
      </trkpt>
      <trkpt lat="50.52671" lon="4.53141">
        <ele>153</ele>
        <time>2021-11-11T08:46:45Z</time>
      </trkpt>
      <trkpt lat="50.52679" lon="4.53133">
        <ele>153</ele>
        <time>2021-11-11T08:46:47Z</time>
      </trkpt>
      <trkpt lat="50.52686" lon="4.53123">
        <ele>154</ele>
        <time>2021-11-11T08:46:49Z</time>
      </trkpt>
      <trkpt lat="50.52694" lon="4.53114">
        <ele>154</ele>
        <time>2021-11-11T08:46:51Z</time>
      </trkpt>
      <trkpt lat="50.52704" lon="4.53102">
        <ele>154</ele>
        <time>2021-11-11T08:46:53Z</time>
      </trkpt>
      <trkpt lat="50.52713" lon="4.5309">
        <ele>153</ele>
        <time>2021-11-11T08:46:55Z</time>
      </trkpt>
      <trkpt lat="50.52722" lon="4.53079">
        <ele>153</ele>
        <time>2021-11-11T08:46:57Z</time>
      </trkpt>
      <trkpt lat="50.52732" lon="4.53067">
        <ele>153</ele>
        <time>2021-11-11T08:46:59Z</time>
      </trkpt>
      <trkpt lat="50.52741" lon="4.53054">
        <ele>152</ele>
        <time>2021-11-11T08:47:01Z</time>
      </trkpt>
      <trkpt lat="50.52751" lon="4.53046">
        <ele>152</ele>
        <time>2021-11-11T08:47:03Z</time>
      </trkpt>
      <trkpt lat="50.5276" lon="4.53036">
        <ele>152</ele>
        <time>2021-11-11T08:47:05Z</time>
      </trkpt>
      <trkpt lat="50.52769" lon="4.53029">
        <ele>151</ele>
        <time>2021-11-11T08:47:07Z</time>
      </trkpt>
      <trkpt lat="50.52778" lon="4.53023">
        <ele>151</ele>
        <time>2021-11-11T08:47:09Z</time>
      </trkpt>
      <trkpt lat="50.52784" lon="4.53017">
        <ele>151</ele>
        <time>2021-11-11T08:47:11Z</time>
      </trkpt>
      <trkpt lat="50.52791" lon="4.53009">
        <ele>150</ele>
        <time>2021-11-11T08:47:13Z</time>
      </trkpt>
      <trkpt lat="50.52799" lon="4.53003">
        <ele>148</ele>
        <time>2021-11-11T08:47:15Z</time>
      </trkpt>
      <trkpt lat="50.52808" lon="4.52995">
        <ele>148</ele>
        <time>2021-11-11T08:47:17Z</time>
      </trkpt>
      <trkpt lat="50.52818" lon="4.52988">
        <ele>148</ele>
        <time>2021-11-11T08:47:19Z</time>
      </trkpt>
      <trkpt lat="50.5283" lon="4.5298">
        <ele>147</ele>
        <time>2021-11-11T08:47:21Z</time>
      </trkpt>
      <trkpt lat="50.5284" lon="4.52974">
        <ele>147</ele>
        <time>2021-11-11T08:47:23Z</time>
      </trkpt>
      <trkpt lat="50.5285" lon="4.52968">
        <ele>147</ele>
        <time>2021-11-11T08:47:25Z</time>
      </trkpt>
      <trkpt lat="50.52861" lon="4.52964">
        <ele>147</ele>
        <time>2021-11-11T08:47:27Z</time>
      </trkpt>
      <trkpt lat="50.52872" lon="4.5296">
        <ele>147</ele>
        <time>2021-11-11T08:47:29Z</time>
      </trkpt>
      <trkpt lat="50.52882" lon="4.52956">
        <ele>145</ele>
        <time>2021-11-11T08:47:31Z</time>
      </trkpt>
      <trkpt lat="50.52892" lon="4.52952">
        <ele>145</ele>
        <time>2021-11-11T08:47:33Z</time>
      </trkpt>
      <trkpt lat="50.52903" lon="4.52948">
        <ele>145</ele>
        <time>2021-11-11T08:47:35Z</time>
      </trkpt>
      <trkpt lat="50.52913" lon="4.52943">
        <ele>145</ele>
        <time>2021-11-11T08:47:37Z</time>
      </trkpt>
      <trkpt lat="50.52923" lon="4.52939">
        <ele>145</ele>
        <time>2021-11-11T08:47:39Z</time>
      </trkpt>
      <trkpt lat="50.52933" lon="4.52935">
        <ele>145</ele>
        <time>2021-11-11T08:47:41Z</time>
      </trkpt>
      <trkpt lat="50.52942" lon="4.52929">
        <ele>144</ele>
        <time>2021-11-11T08:47:43Z</time>
      </trkpt>
      <trkpt lat="50.52949" lon="4.52918">
        <ele>144</ele>
        <time>2021-11-11T08:47:45Z</time>
      </trkpt>
      <trkpt lat="50.52954" lon="4.52905">
        <ele>144</ele>
        <time>2021-11-11T08:47:47Z</time>
      </trkpt>
      <trkpt lat="50.52959" lon="4.52893">
        <ele>144</ele>
        <time>2021-11-11T08:47:49Z</time>
      </trkpt>
      <trkpt lat="50.52964" lon="4.52883">
        <ele>144</ele>
        <time>2021-11-11T08:47:51Z</time>
      </trkpt>
      <trkpt lat="50.52971" lon="4.52875">
        <ele>144</ele>
        <time>2021-11-11T08:47:53Z</time>
      </trkpt>
      <trkpt lat="50.52977" lon="4.52866">
        <ele>144</ele>
        <time>2021-11-11T08:47:55Z</time>
      </trkpt>
      <trkpt lat="50.52982" lon="4.52857">
        <ele>144</ele>
        <time>2021-11-11T08:47:57Z</time>
      </trkpt>
      <trkpt lat="50.52989" lon="4.52852">
        <ele>144</ele>
        <time>2021-11-11T08:47:59Z</time>
      </trkpt>
      <trkpt lat="50.52996" lon="4.52847">
        <ele>146</ele>
        <time>2021-11-11T08:48:01Z</time>
      </trkpt>
      <trkpt lat="50.53003" lon="4.52845">
        <ele>146</ele>
        <time>2021-11-11T08:48:03Z</time>
      </trkpt>
      <trkpt lat="50.53011" lon="4.52846">
        <ele>146</ele>
        <time>2021-11-11T08:48:05Z</time>
      </trkpt>
      <trkpt lat="50.53019" lon="4.52849">
        <ele>145</ele>
        <time>2021-11-11T08:48:07Z</time>
      </trkpt>
      <trkpt lat="50.53028" lon="4.52851">
        <ele>145</ele>
        <time>2021-11-11T08:48:09Z</time>
      </trkpt>
      <trkpt lat="50.53037" lon="4.52854">
        <ele>145</ele>
        <time>2021-11-11T08:48:11Z</time>
      </trkpt>
      <trkpt lat="50.53045" lon="4.52857">
        <ele>145</ele>
        <time>2021-11-11T08:48:13Z</time>
      </trkpt>
      <trkpt lat="50.53054" lon="4.5286">
        <ele>145</ele>
        <time>2021-11-11T08:48:15Z</time>
      </trkpt>
      <trkpt lat="50.53061" lon="4.52862">
        <ele>145</ele>
        <time>2021-11-11T08:48:17Z</time>
      </trkpt>
      <trkpt lat="50.53069" lon="4.52864">
        <ele>145</ele>
        <time>2021-11-11T08:48:19Z</time>
      </trkpt>
      <trkpt lat="50.53077" lon="4.52865">
        <ele>145</ele>
        <time>2021-11-11T08:48:21Z</time>
      </trkpt>
      <trkpt lat="50.53085" lon="4.52864">
        <ele>145</ele>
        <time>2021-11-11T08:48:23Z</time>
      </trkpt>
      <trkpt lat="50.53093" lon="4.52864">
        <ele>145</ele>
        <time>2021-11-11T08:48:25Z</time>
      </trkpt>
      <trkpt lat="50.53101" lon="4.52864">
        <ele>146</ele>
        <time>2021-11-11T08:48:27Z</time>
      </trkpt>
      <trkpt lat="50.53108" lon="4.52864">
        <ele>146</ele>
        <time>2021-11-11T08:48:29Z</time>
      </trkpt>
      <trkpt lat="50.53116" lon="4.52863">
        <ele>146</ele>
        <time>2021-11-11T08:48:31Z</time>
      </trkpt>
      <trkpt lat="50.53124" lon="4.52862">
        <ele>146</ele>
        <time>2021-11-11T08:48:33Z</time>
      </trkpt>
      <trkpt lat="50.53132" lon="4.52861">
        <ele>146</ele>
        <time>2021-11-11T08:48:35Z</time>
      </trkpt>
      <trkpt lat="50.5314" lon="4.5286">
        <ele>146</ele>
        <time>2021-11-11T08:48:37Z</time>
      </trkpt>
      <trkpt lat="50.53147" lon="4.52858">
        <ele>146</ele>
        <time>2021-11-11T08:48:39Z</time>
      </trkpt>
      <trkpt lat="50.53154" lon="4.52855">
        <ele>147</ele>
        <time>2021-11-11T08:48:41Z</time>
      </trkpt>
      <trkpt lat="50.53161" lon="4.52853">
        <ele>147</ele>
        <time>2021-11-11T08:48:43Z</time>
      </trkpt>
      <trkpt lat="50.53169" lon="4.52851">
        <ele>147</ele>
        <time>2021-11-11T08:48:45Z</time>
      </trkpt>
      <trkpt lat="50.53175" lon="4.52849">
        <ele>147</ele>
        <time>2021-11-11T08:48:47Z</time>
      </trkpt>
      <trkpt lat="50.53182" lon="4.52847">
        <ele>147</ele>
        <time>2021-11-11T08:48:49Z</time>
      </trkpt>
      <trkpt lat="50.5319" lon="4.52845">
        <ele>147</ele>
        <time>2021-11-11T08:48:51Z</time>
      </trkpt>
      <trkpt lat="50.53198" lon="4.52842">
        <ele>147</ele>
        <time>2021-11-11T08:48:53Z</time>
      </trkpt>
      <trkpt lat="50.53205" lon="4.52839">
        <ele>147</ele>
        <time>2021-11-11T08:48:55Z</time>
      </trkpt>
      <trkpt lat="50.53212" lon="4.52836">
        <ele>148</ele>
        <time>2021-11-11T08:48:57Z</time>
      </trkpt>
      <trkpt lat="50.5322" lon="4.52833">
        <ele>148</ele>
        <time>2021-11-11T08:48:59Z</time>
      </trkpt>
      <trkpt lat="50.53227" lon="4.52831">
        <ele>148</ele>
        <time>2021-11-11T08:49:01Z</time>
      </trkpt>
      <trkpt lat="50.53234" lon="4.52828">
        <ele>148</ele>
        <time>2021-11-11T08:49:03Z</time>
      </trkpt>
      <trkpt lat="50.53241" lon="4.52824">
        <ele>149</ele>
        <time>2021-11-11T08:49:05Z</time>
      </trkpt>
      <trkpt lat="50.5325" lon="4.5282">
        <ele>149</ele>
        <time>2021-11-11T08:49:07Z</time>
      </trkpt>
      <trkpt lat="50.53257" lon="4.52816">
        <ele>150</ele>
        <time>2021-11-11T08:49:09Z</time>
      </trkpt>
      <trkpt lat="50.53264" lon="4.52813">
        <ele>151</ele>
        <time>2021-11-11T08:49:11Z</time>
      </trkpt>
      <trkpt lat="50.53271" lon="4.5281">
        <ele>151</ele>
        <time>2021-11-11T08:49:13Z</time>
      </trkpt>
      <trkpt lat="50.53279" lon="4.52807">
        <ele>151</ele>
        <time>2021-11-11T08:49:15Z</time>
      </trkpt>
      <trkpt lat="50.53287" lon="4.52803">
        <ele>151</ele>
        <time>2021-11-11T08:49:17Z</time>
      </trkpt>
      <trkpt lat="50.53294" lon="4.528">
        <ele>151</ele>
        <time>2021-11-11T08:49:19Z</time>
      </trkpt>
      <trkpt lat="50.53301" lon="4.52796">
        <ele>151</ele>
        <time>2021-11-11T08:49:21Z</time>
      </trkpt>
      <trkpt lat="50.53309" lon="4.52791">
        <ele>154</ele>
        <time>2021-11-11T08:49:23Z</time>
      </trkpt>
      <trkpt lat="50.53317" lon="4.52787">
        <ele>154</ele>
        <time>2021-11-11T08:49:25Z</time>
      </trkpt>
      <trkpt lat="50.53324" lon="4.52783">
        <ele>154</ele>
        <time>2021-11-11T08:49:27Z</time>
      </trkpt>
      <trkpt lat="50.53331" lon="4.52779">
        <ele>154</ele>
        <time>2021-11-11T08:49:29Z</time>
      </trkpt>
      <trkpt lat="50.53339" lon="4.52774">
        <ele>154</ele>
        <time>2021-11-11T08:49:31Z</time>
      </trkpt>
      <trkpt lat="50.53347" lon="4.52771">
        <ele>154</ele>
        <time>2021-11-11T08:49:33Z</time>
      </trkpt>
      <trkpt lat="50.53354" lon="4.52768">
        <ele>151</ele>
        <time>2021-11-11T08:49:35Z</time>
      </trkpt>
      <trkpt lat="50.53362" lon="4.52764">
        <ele>151</ele>
        <time>2021-11-11T08:49:37Z</time>
      </trkpt>
      <trkpt lat="50.53369" lon="4.52762">
        <ele>152</ele>
        <time>2021-11-11T08:49:39Z</time>
      </trkpt>
      <trkpt lat="50.53376" lon="4.52758">
        <ele>151</ele>
        <time>2021-11-11T08:49:41Z</time>
      </trkpt>
      <trkpt lat="50.53384" lon="4.52754">
        <ele>151</ele>
        <time>2021-11-11T08:49:43Z</time>
      </trkpt>
      <trkpt lat="50.53391" lon="4.52749">
        <ele>151</ele>
        <time>2021-11-11T08:49:45Z</time>
      </trkpt>
      <trkpt lat="50.53397" lon="4.52744">
        <ele>151</ele>
        <time>2021-11-11T08:49:47Z</time>
      </trkpt>
      <trkpt lat="50.53403" lon="4.5274">
        <ele>150</ele>
        <time>2021-11-11T08:49:49Z</time>
      </trkpt>
      <trkpt lat="50.53409" lon="4.52735">
        <ele>150</ele>
        <time>2021-11-11T08:49:51Z</time>
      </trkpt>
      <trkpt lat="50.53413" lon="4.52731">
        <ele>150</ele>
        <time>2021-11-11T08:49:53Z</time>
      </trkpt>
      <trkpt lat="50.53415" lon="4.52729">
        <ele>150</ele>
        <time>2021-11-11T08:49:55Z</time>
      </trkpt>
      <trkpt lat="50.53418" lon="4.52728">
        <ele>150</ele>
        <time>2021-11-11T08:51:31Z</time>
      </trkpt>
      <trkpt lat="50.53423" lon="4.52723">
        <ele>150</ele>
        <time>2021-11-11T08:51:33Z</time>
      </trkpt>
      <trkpt lat="50.53429" lon="4.52717">
        <ele>150</ele>
        <time>2021-11-11T08:51:35Z</time>
      </trkpt>
      <trkpt lat="50.53434" lon="4.52713">
        <ele>152</ele>
        <time>2021-11-11T08:51:37Z</time>
      </trkpt>
      <trkpt lat="50.53438" lon="4.52708">
        <ele>153</ele>
        <time>2021-11-11T08:51:39Z</time>
      </trkpt>
      <trkpt lat="50.53444" lon="4.52703">
        <ele>153</ele>
        <time>2021-11-11T08:51:41Z</time>
      </trkpt>
      <trkpt lat="50.53449" lon="4.52697">
        <ele>153</ele>
        <time>2021-11-11T08:51:43Z</time>
      </trkpt>
      <trkpt lat="50.53454" lon="4.52691">
        <ele>153</ele>
        <time>2021-11-11T08:51:45Z</time>
      </trkpt>
      <trkpt lat="50.5346" lon="4.52683">
        <ele>154</ele>
        <time>2021-11-11T08:51:47Z</time>
      </trkpt>
      <trkpt lat="50.53465" lon="4.52676">
        <ele>154</ele>
        <time>2021-11-11T08:51:49Z</time>
      </trkpt>
      <trkpt lat="50.53471" lon="4.52668">
        <ele>154</ele>
        <time>2021-11-11T08:51:51Z</time>
      </trkpt>
      <trkpt lat="50.53477" lon="4.52661">
        <ele>154</ele>
        <time>2021-11-11T08:51:53Z</time>
      </trkpt>
      <trkpt lat="50.53483" lon="4.52653">
        <ele>154</ele>
        <time>2021-11-11T08:51:55Z</time>
      </trkpt>
      <trkpt lat="50.53489" lon="4.52646">
        <ele>152</ele>
        <time>2021-11-11T08:51:57Z</time>
      </trkpt>
      <trkpt lat="50.53495" lon="4.52638">
        <ele>152</ele>
        <time>2021-11-11T08:51:59Z</time>
      </trkpt>
      <trkpt lat="50.53505" lon="4.52626">
        <ele>152</ele>
        <time>2021-11-11T08:52:02Z</time>
      </trkpt>
      <trkpt lat="50.53513" lon="4.52618">
        <ele>151</ele>
        <time>2021-11-11T08:52:04Z</time>
      </trkpt>
      <trkpt lat="50.53521" lon="4.52609">
        <ele>149</ele>
        <time>2021-11-11T08:52:06Z</time>
      </trkpt>
      <trkpt lat="50.5353" lon="4.526">
        <ele>149</ele>
        <time>2021-11-11T08:52:08Z</time>
      </trkpt>
      <trkpt lat="50.53539" lon="4.52591">
        <ele>150</ele>
        <time>2021-11-11T08:52:10Z</time>
      </trkpt>
      <trkpt lat="50.5355" lon="4.52584">
        <ele>150</ele>
        <time>2021-11-11T08:52:12Z</time>
      </trkpt>
      <trkpt lat="50.5356" lon="4.5258">
        <ele>150</ele>
        <time>2021-11-11T08:52:14Z</time>
      </trkpt>
      <trkpt lat="50.53571" lon="4.52576">
        <ele>150</ele>
        <time>2021-11-11T08:52:16Z</time>
      </trkpt>
      <trkpt lat="50.53582" lon="4.52573">
        <ele>150</ele>
        <time>2021-11-11T08:52:18Z</time>
      </trkpt>
      <trkpt lat="50.53593" lon="4.5257">
        <ele>150</ele>
        <time>2021-11-11T08:52:20Z</time>
      </trkpt>
      <trkpt lat="50.53604" lon="4.52567">
        <ele>151</ele>
        <time>2021-11-11T08:52:22Z</time>
      </trkpt>
      <trkpt lat="50.53614" lon="4.52565">
        <ele>151</ele>
        <time>2021-11-11T08:52:24Z</time>
      </trkpt>
      <trkpt lat="50.53624" lon="4.52563">
        <ele>151</ele>
        <time>2021-11-11T08:52:26Z</time>
      </trkpt>
      <trkpt lat="50.53635" lon="4.52561">
        <ele>151</ele>
        <time>2021-11-11T08:52:28Z</time>
      </trkpt>
      <trkpt lat="50.53645" lon="4.5256">
        <ele>151</ele>
        <time>2021-11-11T08:52:30Z</time>
      </trkpt>
      <trkpt lat="50.53656" lon="4.52559">
        <ele>150</ele>
        <time>2021-11-11T08:52:32Z</time>
      </trkpt>
      <trkpt lat="50.53666" lon="4.52559">
        <ele>150</ele>
        <time>2021-11-11T08:52:34Z</time>
      </trkpt>
      <trkpt lat="50.53676" lon="4.5256">
        <ele>150</ele>
        <time>2021-11-11T08:52:36Z</time>
      </trkpt>
      <trkpt lat="50.53686" lon="4.52561">
        <ele>149</ele>
        <time>2021-11-11T08:52:38Z</time>
      </trkpt>
      <trkpt lat="50.53695" lon="4.52561">
        <ele>149</ele>
        <time>2021-11-11T08:52:40Z</time>
      </trkpt>
      <trkpt lat="50.53705" lon="4.52563">
        <ele>149</ele>
        <time>2021-11-11T08:52:42Z</time>
      </trkpt>
      <trkpt lat="50.53714" lon="4.52564">
        <ele>150</ele>
        <time>2021-11-11T08:52:44Z</time>
      </trkpt>
      <trkpt lat="50.53723" lon="4.52565">
        <ele>150</ele>
        <time>2021-11-11T08:52:46Z</time>
      </trkpt>
      <trkpt lat="50.53733" lon="4.52565">
        <ele>150</ele>
        <time>2021-11-11T08:52:48Z</time>
      </trkpt>
      <trkpt lat="50.53742" lon="4.52565">
        <ele>151</ele>
        <time>2021-11-11T08:52:50Z</time>
      </trkpt>
      <trkpt lat="50.53752" lon="4.52564">
        <ele>151</ele>
        <time>2021-11-11T08:52:52Z</time>
      </trkpt>
      <trkpt lat="50.53761" lon="4.52562">
        <ele>151</ele>
        <time>2021-11-11T08:52:54Z</time>
      </trkpt>
      <trkpt lat="50.5377" lon="4.52559">
        <ele>151</ele>
        <time>2021-11-11T08:52:56Z</time>
      </trkpt>
      <trkpt lat="50.53779" lon="4.52555">
        <ele>151</ele>
        <time>2021-11-11T08:52:58Z</time>
      </trkpt>
      <trkpt lat="50.53789" lon="4.52551">
        <ele>151</ele>
        <time>2021-11-11T08:53:00Z</time>
      </trkpt>
      <trkpt lat="50.53798" lon="4.52548">
        <ele>152</ele>
        <time>2021-11-11T08:53:02Z</time>
      </trkpt>
      <trkpt lat="50.53807" lon="4.52545">
        <ele>152</ele>
        <time>2021-11-11T08:53:04Z</time>
      </trkpt>
      <trkpt lat="50.53817" lon="4.52543">
        <ele>152</ele>
        <time>2021-11-11T08:53:06Z</time>
      </trkpt>
      <trkpt lat="50.53827" lon="4.52541">
        <ele>153</ele>
        <time>2021-11-11T08:53:08Z</time>
      </trkpt>
      <trkpt lat="50.53835" lon="4.52538">
        <ele>153</ele>
        <time>2021-11-11T08:53:10Z</time>
      </trkpt>
      <trkpt lat="50.53845" lon="4.52536">
        <ele>153</ele>
        <time>2021-11-11T08:53:12Z</time>
      </trkpt>
      <trkpt lat="50.53854" lon="4.52534">
        <ele>154</ele>
        <time>2021-11-11T08:53:14Z</time>
      </trkpt>
      <trkpt lat="50.53862" lon="4.52532">
        <ele>154</ele>
        <time>2021-11-11T08:53:16Z</time>
      </trkpt>
      <trkpt lat="50.53871" lon="4.5253">
        <ele>154</ele>
        <time>2021-11-11T08:53:18Z</time>
      </trkpt>
      <trkpt lat="50.5388" lon="4.52528">
        <ele>154</ele>
        <time>2021-11-11T08:53:20Z</time>
      </trkpt>
      <trkpt lat="50.5389" lon="4.52527">
        <ele>154</ele>
        <time>2021-11-11T08:53:22Z</time>
      </trkpt>
      <trkpt lat="50.53899" lon="4.52526">
        <ele>154</ele>
        <time>2021-11-11T08:53:24Z</time>
      </trkpt>
      <trkpt lat="50.53907" lon="4.52525">
        <ele>154</ele>
        <time>2021-11-11T08:53:26Z</time>
      </trkpt>
      <trkpt lat="50.53917" lon="4.52525">
        <ele>154</ele>
        <time>2021-11-11T08:53:28Z</time>
      </trkpt>
      <trkpt lat="50.53926" lon="4.52524">
        <ele>154</ele>
        <time>2021-11-11T08:53:30Z</time>
      </trkpt>
      <trkpt lat="50.53935" lon="4.52523">
        <ele>153</ele>
        <time>2021-11-11T08:53:32Z</time>
      </trkpt>
      <trkpt lat="50.53944" lon="4.52523">
        <ele>153</ele>
        <time>2021-11-11T08:53:34Z</time>
      </trkpt>
      <trkpt lat="50.53952" lon="4.52522">
        <ele>153</ele>
        <time>2021-11-11T08:53:36Z</time>
      </trkpt>
      <trkpt lat="50.53959" lon="4.52523">
        <ele>151</ele>
        <time>2021-11-11T08:53:38Z</time>
      </trkpt>
      <trkpt lat="50.53966" lon="4.52527">
        <ele>151</ele>
        <time>2021-11-11T08:53:40Z</time>
      </trkpt>
      <trkpt lat="50.53974" lon="4.52532">
        <ele>151</ele>
        <time>2021-11-11T08:53:42Z</time>
      </trkpt>
      <trkpt lat="50.53981" lon="4.52537">
        <ele>151</ele>
        <time>2021-11-11T08:53:44Z</time>
      </trkpt>
      <trkpt lat="50.53989" lon="4.52542">
        <ele>149</ele>
        <time>2021-11-11T08:53:46Z</time>
      </trkpt>
      <trkpt lat="50.53997" lon="4.52548">
        <ele>149</ele>
        <time>2021-11-11T08:53:48Z</time>
      </trkpt>
      <trkpt lat="50.54005" lon="4.52553">
        <ele>149</ele>
        <time>2021-11-11T08:53:50Z</time>
      </trkpt>
      <trkpt lat="50.54012" lon="4.52558">
        <ele>149</ele>
        <time>2021-11-11T08:53:52Z</time>
      </trkpt>
      <trkpt lat="50.5402" lon="4.52563">
        <ele>149</ele>
        <time>2021-11-11T08:53:54Z</time>
      </trkpt>
      <trkpt lat="50.54027" lon="4.52569">
        <ele>149</ele>
        <time>2021-11-11T08:53:56Z</time>
      </trkpt>
      <trkpt lat="50.54035" lon="4.52575">
        <ele>149</ele>
        <time>2021-11-11T08:53:58Z</time>
      </trkpt>
      <trkpt lat="50.54044" lon="4.52582">
        <ele>149</ele>
        <time>2021-11-11T08:54:00Z</time>
      </trkpt>
      <trkpt lat="50.54052" lon="4.52587">
        <ele>149</ele>
        <time>2021-11-11T08:54:02Z</time>
      </trkpt>
      <trkpt lat="50.5406" lon="4.52594">
        <ele>149</ele>
        <time>2021-11-11T08:54:04Z</time>
      </trkpt>
      <trkpt lat="50.54068" lon="4.526">
        <ele>150</ele>
        <time>2021-11-11T08:54:06Z</time>
      </trkpt>
      <trkpt lat="50.54075" lon="4.52605">
        <ele>150</ele>
        <time>2021-11-11T08:54:08Z</time>
      </trkpt>
      <trkpt lat="50.54081" lon="4.52609">
        <ele>150</ele>
        <time>2021-11-11T08:54:10Z</time>
      </trkpt>
      <trkpt lat="50.54088" lon="4.52613">
        <ele>150</ele>
        <time>2021-11-11T08:54:12Z</time>
      </trkpt>
      <trkpt lat="50.54096" lon="4.52617">
        <ele>150</ele>
        <time>2021-11-11T08:54:14Z</time>
      </trkpt>
      <trkpt lat="50.54103" lon="4.52624">
        <ele>149</ele>
        <time>2021-11-11T08:54:16Z</time>
      </trkpt>
      <trkpt lat="50.5411" lon="4.52631">
        <ele>149</ele>
        <time>2021-11-11T08:54:18Z</time>
      </trkpt>
      <trkpt lat="50.54117" lon="4.52638">
        <ele>149</ele>
        <time>2021-11-11T08:54:20Z</time>
      </trkpt>
      <trkpt lat="50.54124" lon="4.52645">
        <ele>149</ele>
        <time>2021-11-11T08:54:22Z</time>
      </trkpt>
      <trkpt lat="50.5413" lon="4.5265">
        <ele>148</ele>
        <time>2021-11-11T08:54:24Z</time>
      </trkpt>
      <trkpt lat="50.54138" lon="4.52652">
        <ele>148</ele>
        <time>2021-11-11T08:54:26Z</time>
      </trkpt>
      <trkpt lat="50.54146" lon="4.52649">
        <ele>148</ele>
        <time>2021-11-11T08:54:28Z</time>
      </trkpt>
      <trkpt lat="50.54153" lon="4.52645">
        <ele>148</ele>
        <time>2021-11-11T08:54:30Z</time>
      </trkpt>
      <trkpt lat="50.54161" lon="4.52638">
        <ele>148</ele>
        <time>2021-11-11T08:54:32Z</time>
      </trkpt>
      <trkpt lat="50.54167" lon="4.52632">
        <ele>148</ele>
        <time>2021-11-11T08:54:34Z</time>
      </trkpt>
      <trkpt lat="50.54174" lon="4.52627">
        <ele>148</ele>
        <time>2021-11-11T08:54:36Z</time>
      </trkpt>
      <trkpt lat="50.54182" lon="4.52621">
        <ele>147</ele>
        <time>2021-11-11T08:54:38Z</time>
      </trkpt>
      <trkpt lat="50.54189" lon="4.52615">
        <ele>147</ele>
        <time>2021-11-11T08:54:40Z</time>
      </trkpt>
      <trkpt lat="50.54196" lon="4.52608">
        <ele>147</ele>
        <time>2021-11-11T08:54:42Z</time>
      </trkpt>
      <trkpt lat="50.54204" lon="4.52602">
        <ele>147</ele>
        <time>2021-11-11T08:54:44Z</time>
      </trkpt>
      <trkpt lat="50.5421" lon="4.52594">
        <ele>149</ele>
        <time>2021-11-11T08:54:46Z</time>
      </trkpt>
      <trkpt lat="50.54217" lon="4.52586">
        <ele>149</ele>
        <time>2021-11-11T08:54:48Z</time>
      </trkpt>
      <trkpt lat="50.54224" lon="4.52579">
        <ele>149</ele>
        <time>2021-11-11T08:54:50Z</time>
      </trkpt>
      <trkpt lat="50.54232" lon="4.52575">
        <ele>149</ele>
        <time>2021-11-11T08:54:52Z</time>
      </trkpt>
      <trkpt lat="50.54239" lon="4.52579">
        <ele>149</ele>
        <time>2021-11-11T08:54:54Z</time>
      </trkpt>
      <trkpt lat="50.54244" lon="4.52588">
        <ele>149</ele>
        <time>2021-11-11T08:54:56Z</time>
      </trkpt>
      <trkpt lat="50.54249" lon="4.52598">
        <ele>149</ele>
        <time>2021-11-11T08:54:58Z</time>
      </trkpt>
      <trkpt lat="50.54253" lon="4.52608">
        <ele>149</ele>
        <time>2021-11-11T08:55:00Z</time>
      </trkpt>
      <trkpt lat="50.54257" lon="4.52617">
        <ele>149</ele>
        <time>2021-11-11T08:55:02Z</time>
      </trkpt>
      <trkpt lat="50.5426" lon="4.52624">
        <ele>149</ele>
        <time>2021-11-11T08:55:04Z</time>
      </trkpt>
      <trkpt lat="50.54261" lon="4.52627">
        <ele>150</ele>
        <time>2021-11-11T08:55:06Z</time>
      </trkpt>
      <trkpt lat="50.54263" lon="4.52633">
        <ele>150</ele>
        <time>2021-11-11T08:55:24Z</time>
      </trkpt>
      <trkpt lat="50.54265" lon="4.52638">
        <ele>150</ele>
        <time>2021-11-11T08:55:26Z</time>
      </trkpt>
      <trkpt lat="50.54269" lon="4.52645">
        <ele>150</ele>
        <time>2021-11-11T08:55:28Z</time>
      </trkpt>
      <trkpt lat="50.54274" lon="4.52653">
        <ele>150</ele>
        <time>2021-11-11T08:55:30Z</time>
      </trkpt>
      <trkpt lat="50.54279" lon="4.52661">
        <ele>149</ele>
        <time>2021-11-11T08:55:32Z</time>
      </trkpt>
      <trkpt lat="50.54285" lon="4.52671">
        <ele>149</ele>
        <time>2021-11-11T08:55:34Z</time>
      </trkpt>
      <trkpt lat="50.5429" lon="4.52682">
        <ele>150</ele>
        <time>2021-11-11T08:55:36Z</time>
      </trkpt>
      <trkpt lat="50.54297" lon="4.52693">
        <ele>149</ele>
        <time>2021-11-11T08:55:38Z</time>
      </trkpt>
      <trkpt lat="50.54303" lon="4.52704">
        <ele>149</ele>
        <time>2021-11-11T08:55:40Z</time>
      </trkpt>
      <trkpt lat="50.5431" lon="4.52716">
        <ele>148</ele>
        <time>2021-11-11T08:55:42Z</time>
      </trkpt>
      <trkpt lat="50.54317" lon="4.52726">
        <ele>148</ele>
        <time>2021-11-11T08:55:44Z</time>
      </trkpt>
      <trkpt lat="50.54324" lon="4.52738">
        <ele>148</ele>
        <time>2021-11-11T08:55:46Z</time>
      </trkpt>
      <trkpt lat="50.5433" lon="4.52749">
        <ele>148</ele>
        <time>2021-11-11T08:55:48Z</time>
      </trkpt>
      <trkpt lat="50.54336" lon="4.52761">
        <ele>148</ele>
        <time>2021-11-11T08:55:50Z</time>
      </trkpt>
      <trkpt lat="50.54342" lon="4.52772">
        <ele>148</ele>
        <time>2021-11-11T08:55:52Z</time>
      </trkpt>
      <trkpt lat="50.54348" lon="4.52784">
        <ele>148</ele>
        <time>2021-11-11T08:55:54Z</time>
      </trkpt>
      <trkpt lat="50.54352" lon="4.52796">
        <ele>147</ele>
        <time>2021-11-11T08:55:56Z</time>
      </trkpt>
      <trkpt lat="50.54353" lon="4.5281">
        <ele>147</ele>
        <time>2021-11-11T08:55:58Z</time>
      </trkpt>
      <trkpt lat="50.54352" lon="4.52822">
        <ele>148</ele>
        <time>2021-11-11T08:56:00Z</time>
      </trkpt>
      <trkpt lat="50.54347" lon="4.52831">
        <ele>148</ele>
        <time>2021-11-11T08:56:02Z</time>
      </trkpt>
      <trkpt lat="50.5434" lon="4.52843">
        <ele>148</ele>
        <time>2021-11-11T08:56:04Z</time>
      </trkpt>
      <trkpt lat="50.54335" lon="4.52857">
        <ele>146</ele>
        <time>2021-11-11T08:56:06Z</time>
      </trkpt>
      <trkpt lat="50.5433" lon="4.52872">
        <ele>146</ele>
        <time>2021-11-11T08:56:08Z</time>
      </trkpt>
      <trkpt lat="50.5433" lon="4.52889">
        <ele>146</ele>
        <time>2021-11-11T08:56:10Z</time>
      </trkpt>
      <trkpt lat="50.5433" lon="4.52906">
        <ele>145</ele>
        <time>2021-11-11T08:56:12Z</time>
      </trkpt>
      <trkpt lat="50.54332" lon="4.52923">
        <ele>145</ele>
        <time>2021-11-11T08:56:14Z</time>
      </trkpt>
      <trkpt lat="50.54335" lon="4.5294">
        <ele>143</ele>
        <time>2021-11-11T08:56:16Z</time>
      </trkpt>
      <trkpt lat="50.54339" lon="4.52957">
        <ele>143</ele>
        <time>2021-11-11T08:56:18Z</time>
      </trkpt>
      <trkpt lat="50.54343" lon="4.52973">
        <ele>143</ele>
        <time>2021-11-11T08:56:20Z</time>
      </trkpt>
      <trkpt lat="50.54348" lon="4.52988">
        <ele>143</ele>
        <time>2021-11-11T08:56:22Z</time>
      </trkpt>
      <trkpt lat="50.54353" lon="4.53002">
        <ele>143</ele>
        <time>2021-11-11T08:56:24Z</time>
      </trkpt>
      <trkpt lat="50.54359" lon="4.53013">
        <ele>143</ele>
        <time>2021-11-11T08:56:26Z</time>
      </trkpt>
      <trkpt lat="50.54366" lon="4.53023">
        <ele>142</ele>
        <time>2021-11-11T08:56:28Z</time>
      </trkpt>
      <trkpt lat="50.54373" lon="4.53033">
        <ele>142</ele>
        <time>2021-11-11T08:56:30Z</time>
      </trkpt>
      <trkpt lat="50.5438" lon="4.53042">
        <ele>142</ele>
        <time>2021-11-11T08:56:32Z</time>
      </trkpt>
      <trkpt lat="50.54386" lon="4.53049">
        <ele>143</ele>
        <time>2021-11-11T08:56:34Z</time>
      </trkpt>
      <trkpt lat="50.54387" lon="4.53056">
        <ele>143</ele>
        <time>2021-11-11T08:56:36Z</time>
      </trkpt>
      <trkpt lat="50.54387" lon="4.53064">
        <ele>143</ele>
        <time>2021-11-11T08:56:38Z</time>
      </trkpt>
      <trkpt lat="50.54386" lon="4.53073">
        <ele>141</ele>
        <time>2021-11-11T08:56:40Z</time>
      </trkpt>
      <trkpt lat="50.54385" lon="4.53083">
        <ele>141</ele>
        <time>2021-11-11T08:56:42Z</time>
      </trkpt>
      <trkpt lat="50.54386" lon="4.53094">
        <ele>141</ele>
        <time>2021-11-11T08:56:44Z</time>
      </trkpt>
      <trkpt lat="50.54386" lon="4.53102">
        <ele>142</ele>
        <time>2021-11-11T08:56:46Z</time>
      </trkpt>
      <trkpt lat="50.54386" lon="4.53112">
        <ele>142</ele>
        <time>2021-11-11T08:56:48Z</time>
      </trkpt>
      <trkpt lat="50.54386" lon="4.53121">
        <ele>142</ele>
        <time>2021-11-11T08:56:50Z</time>
      </trkpt>
      <trkpt lat="50.54387" lon="4.53133">
        <ele>141</ele>
        <time>2021-11-11T08:56:52Z</time>
      </trkpt>
      <trkpt lat="50.54387" lon="4.53144">
        <ele>141</ele>
        <time>2021-11-11T08:56:54Z</time>
      </trkpt>
      <trkpt lat="50.54388" lon="4.53157">
        <ele>141</ele>
        <time>2021-11-11T08:56:56Z</time>
      </trkpt>
      <trkpt lat="50.54387" lon="4.53169">
        <ele>141</ele>
        <time>2021-11-11T08:56:58Z</time>
      </trkpt>
      <trkpt lat="50.54387" lon="4.53181">
        <ele>142</ele>
        <time>2021-11-11T08:57:00Z</time>
      </trkpt>
      <trkpt lat="50.54388" lon="4.53193">
        <ele>142</ele>
        <time>2021-11-11T08:57:02Z</time>
      </trkpt>
      <trkpt lat="50.54388" lon="4.53204">
        <ele>142</ele>
        <time>2021-11-11T08:57:04Z</time>
      </trkpt>
      <trkpt lat="50.54385" lon="4.53215">
        <ele>141</ele>
        <time>2021-11-11T08:57:06Z</time>
      </trkpt>
      <trkpt lat="50.54387" lon="4.53226">
        <ele>141</ele>
        <time>2021-11-11T08:57:08Z</time>
      </trkpt>
      <trkpt lat="50.54389" lon="4.53236">
        <ele>141</ele>
        <time>2021-11-11T08:57:10Z</time>
      </trkpt>
      <trkpt lat="50.54393" lon="4.53245">
        <ele>146</ele>
        <time>2021-11-11T08:57:12Z</time>
      </trkpt>
      <trkpt lat="50.54396" lon="4.53252">
        <ele>146</ele>
        <time>2021-11-11T08:57:14Z</time>
      </trkpt>
      <trkpt lat="50.54399" lon="4.53261">
        <ele>146</ele>
        <time>2021-11-11T08:57:16Z</time>
      </trkpt>
      <trkpt lat="50.54402" lon="4.5327">
        <ele>146</ele>
        <time>2021-11-11T08:57:18Z</time>
      </trkpt>
      <trkpt lat="50.54406" lon="4.53277">
        <ele>149</ele>
        <time>2021-11-11T08:57:20Z</time>
      </trkpt>
      <trkpt lat="50.54411" lon="4.53285">
        <ele>149</ele>
        <time>2021-11-11T08:57:22Z</time>
      </trkpt>
      <trkpt lat="50.54415" lon="4.53293">
        <ele>150</ele>
        <time>2021-11-11T08:57:24Z</time>
      </trkpt>
      <trkpt lat="50.54422" lon="4.53301">
        <ele>150</ele>
        <time>2021-11-11T08:57:26Z</time>
      </trkpt>
      <trkpt lat="50.54429" lon="4.53311">
        <ele>150</ele>
        <time>2021-11-11T08:57:28Z</time>
      </trkpt>
      <trkpt lat="50.54435" lon="4.53317">
        <ele>151</ele>
        <time>2021-11-11T08:57:30Z</time>
      </trkpt>
      <trkpt lat="50.5444" lon="4.53323">
        <ele>152</ele>
        <time>2021-11-11T08:57:32Z</time>
      </trkpt>
      <trkpt lat="50.54443" lon="4.53326">
        <ele>152</ele>
        <time>2021-11-11T08:57:34Z</time>
      </trkpt>
      <trkpt lat="50.54447" lon="4.53324">
        <ele>152</ele>
        <time>2021-11-11T08:57:36Z</time>
      </trkpt>
      <trkpt lat="50.5445" lon="4.53321">
        <ele>152</ele>
        <time>2021-11-11T08:57:38Z</time>
      </trkpt>
      <trkpt lat="50.54453" lon="4.53318">
        <ele>151</ele>
        <time>2021-11-11T08:57:40Z</time>
      </trkpt>
      <trkpt lat="50.54457" lon="4.53312">
        <ele>151</ele>
        <time>2021-11-11T08:57:42Z</time>
      </trkpt>
      <trkpt lat="50.54461" lon="4.5331">
        <ele>151</ele>
        <time>2021-11-11T08:57:44Z</time>
      </trkpt>
      <trkpt lat="50.54465" lon="4.53308">
        <ele>151</ele>
        <time>2021-11-11T08:57:46Z</time>
      </trkpt>
      <trkpt lat="50.54469" lon="4.53304">
        <ele>151</ele>
        <time>2021-11-11T08:57:48Z</time>
      </trkpt>
      <trkpt lat="50.54472" lon="4.53301">
        <ele>151</ele>
        <time>2021-11-11T08:57:50Z</time>
      </trkpt>
      <trkpt lat="50.54476" lon="4.53295">
        <ele>151</ele>
        <time>2021-11-11T08:57:52Z</time>
      </trkpt>
      <trkpt lat="50.5448" lon="4.53291">
        <ele>157</ele>
        <time>2021-11-11T08:57:54Z</time>
      </trkpt>
      <trkpt lat="50.54483" lon="4.53284">
        <ele>157</ele>
        <time>2021-11-11T08:57:56Z</time>
      </trkpt>
      <trkpt lat="50.54487" lon="4.53279">
        <ele>151</ele>
        <time>2021-11-11T08:57:58Z</time>
      </trkpt>
      <trkpt lat="50.54491" lon="4.53276">
        <ele>151</ele>
        <time>2021-11-11T08:58:00Z</time>
      </trkpt>
      <trkpt lat="50.54496" lon="4.53272">
        <ele>151</ele>
        <time>2021-11-11T08:58:02Z</time>
      </trkpt>
      <trkpt lat="50.54499" lon="4.53265">
        <ele>151</ele>
        <time>2021-11-11T08:58:04Z</time>
      </trkpt>
      <trkpt lat="50.54504" lon="4.53261">
        <ele>151</ele>
        <time>2021-11-11T08:58:06Z</time>
      </trkpt>
      <trkpt lat="50.54506" lon="4.53258">
        <ele>151</ele>
        <time>2021-11-11T08:58:08Z</time>
      </trkpt>
      <trkpt lat="50.54507" lon="4.53254">
        <ele>151</ele>
        <time>2021-11-11T08:58:10Z</time>
      </trkpt>
      <trkpt lat="50.54506" lon="4.53247">
        <ele>151</ele>
        <time>2021-11-11T08:58:12Z</time>
      </trkpt>
      <trkpt lat="50.54503" lon="4.53241">
        <ele>151</ele>
        <time>2021-11-11T08:58:14Z</time>
      </trkpt>
      <trkpt lat="50.54498" lon="4.53234">
        <ele>149</ele>
        <time>2021-11-11T08:58:16Z</time>
      </trkpt>
      <trkpt lat="50.54493" lon="4.53226">
        <ele>149</ele>
        <time>2021-11-11T08:58:18Z</time>
      </trkpt>
      <trkpt lat="50.54488" lon="4.53216">
        <ele>149</ele>
        <time>2021-11-11T08:58:20Z</time>
      </trkpt>
      <trkpt lat="50.54483" lon="4.53204">
        <ele>147</ele>
        <time>2021-11-11T08:58:22Z</time>
      </trkpt>
      <trkpt lat="50.54478" lon="4.53192">
        <ele>147</ele>
        <time>2021-11-11T08:58:24Z</time>
      </trkpt>
      <trkpt lat="50.54479" lon="4.53179">
        <ele>144</ele>
        <time>2021-11-11T08:58:26Z</time>
      </trkpt>
      <trkpt lat="50.54482" lon="4.53168">
        <ele>144</ele>
        <time>2021-11-11T08:58:28Z</time>
      </trkpt>
      <trkpt lat="50.54487" lon="4.53159">
        <ele>146</ele>
        <time>2021-11-11T08:58:30Z</time>
      </trkpt>
      <trkpt lat="50.54492" lon="4.53152">
        <ele>144</ele>
        <time>2021-11-11T08:58:32Z</time>
      </trkpt>
      <trkpt lat="50.54499" lon="4.53146">
        <ele>144</ele>
        <time>2021-11-11T08:58:34Z</time>
      </trkpt>
      <trkpt lat="50.54504" lon="4.5314">
        <ele>144</ele>
        <time>2021-11-11T08:58:36Z</time>
      </trkpt>
      <trkpt lat="50.5451" lon="4.53138">
        <ele>144</ele>
        <time>2021-11-11T08:58:38Z</time>
      </trkpt>
      <trkpt lat="50.54516" lon="4.53143">
        <ele>145</ele>
        <time>2021-11-11T08:58:40Z</time>
      </trkpt>
      <trkpt lat="50.54521" lon="4.53149">
        <ele>145</ele>
        <time>2021-11-11T08:58:42Z</time>
      </trkpt>
      <trkpt lat="50.54527" lon="4.53153">
        <ele>145</ele>
        <time>2021-11-11T08:58:44Z</time>
      </trkpt>
      <trkpt lat="50.54529" lon="4.53157">
        <ele>147</ele>
        <time>2021-11-11T08:58:46Z</time>
      </trkpt>
      <trkpt lat="50.54529" lon="4.53161">
        <ele>147</ele>
        <time>2021-11-11T08:58:48Z</time>
      </trkpt>
      <trkpt lat="50.5453" lon="4.53163">
        <ele>147</ele>
        <time>2021-11-11T08:58:50Z</time>
      </trkpt>
      <trkpt lat="50.54531" lon="4.53157">
        <ele>147</ele>
        <time>2021-11-11T08:58:52Z</time>
      </trkpt>
      <trkpt lat="50.54529" lon="4.53151">
        <ele>145</ele>
        <time>2021-11-11T08:58:54Z</time>
      </trkpt>
      <trkpt lat="50.54524" lon="4.53146">
        <ele>145</ele>
        <time>2021-11-11T08:58:56Z</time>
      </trkpt>
      <trkpt lat="50.54519" lon="4.5314">
        <ele>145</ele>
        <time>2021-11-11T08:58:58Z</time>
      </trkpt>
      <trkpt lat="50.54514" lon="4.53132">
        <ele>145</ele>
        <time>2021-11-11T08:59:00Z</time>
      </trkpt>
      <trkpt lat="50.54513" lon="4.53124">
        <ele>143</ele>
        <time>2021-11-11T08:59:02Z</time>
      </trkpt>
      <trkpt lat="50.54517" lon="4.53115">
        <ele>144</ele>
        <time>2021-11-11T08:59:04Z</time>
      </trkpt>
      <trkpt lat="50.54521" lon="4.53106">
        <ele>144</ele>
        <time>2021-11-11T08:59:06Z</time>
      </trkpt>
      <trkpt lat="50.54526" lon="4.53097">
        <ele>144</ele>
        <time>2021-11-11T08:59:08Z</time>
      </trkpt>
      <trkpt lat="50.54533" lon="4.53093">
        <ele>144</ele>
        <time>2021-11-11T08:59:10Z</time>
      </trkpt>
      <trkpt lat="50.5454" lon="4.53094">
        <ele>144</ele>
        <time>2021-11-11T08:59:12Z</time>
      </trkpt>
      <trkpt lat="50.54548" lon="4.53097">
        <ele>145</ele>
        <time>2021-11-11T08:59:14Z</time>
      </trkpt>
      <trkpt lat="50.54555" lon="4.53099">
        <ele>145</ele>
        <time>2021-11-11T08:59:16Z</time>
      </trkpt>
      <trkpt lat="50.54561" lon="4.53102">
        <ele>145</ele>
        <time>2021-11-11T08:59:18Z</time>
      </trkpt>
      <trkpt lat="50.54568" lon="4.53106">
        <ele>145</ele>
        <time>2021-11-11T08:59:20Z</time>
      </trkpt>
      <trkpt lat="50.54576" lon="4.5311">
        <ele>146</ele>
        <time>2021-11-11T08:59:22Z</time>
      </trkpt>
      <trkpt lat="50.54583" lon="4.53113">
        <ele>146</ele>
        <time>2021-11-11T08:59:24Z</time>
      </trkpt>
      <trkpt lat="50.54591" lon="4.53117">
        <ele>146</ele>
        <time>2021-11-11T08:59:26Z</time>
      </trkpt>
      <trkpt lat="50.54598" lon="4.53121">
        <ele>148</ele>
        <time>2021-11-11T08:59:28Z</time>
      </trkpt>
      <trkpt lat="50.54605" lon="4.53125">
        <ele>148</ele>
        <time>2021-11-11T08:59:30Z</time>
      </trkpt>
      <trkpt lat="50.54612" lon="4.53129">
        <ele>148</ele>
        <time>2021-11-11T08:59:32Z</time>
      </trkpt>
      <trkpt lat="50.54619" lon="4.53132">
        <ele>148</ele>
        <time>2021-11-11T08:59:34Z</time>
      </trkpt>
      <trkpt lat="50.54623" lon="4.53131">
        <ele>148</ele>
        <time>2021-11-11T08:59:36Z</time>
      </trkpt>
      <trkpt lat="50.54627" lon="4.53123">
        <ele>148</ele>
        <time>2021-11-11T08:59:38Z</time>
      </trkpt>
      <trkpt lat="50.54629" lon="4.53112">
        <ele>148</ele>
        <time>2021-11-11T08:59:40Z</time>
      </trkpt>
      <trkpt lat="50.5463" lon="4.53099">
        <ele>148</ele>
        <time>2021-11-11T08:59:42Z</time>
      </trkpt>
      <trkpt lat="50.5463" lon="4.53085">
        <ele>147</ele>
        <time>2021-11-11T08:59:44Z</time>
      </trkpt>
      <trkpt lat="50.54631" lon="4.53071">
        <ele>147</ele>
        <time>2021-11-11T08:59:46Z</time>
      </trkpt>
      <trkpt lat="50.54632" lon="4.53056">
        <ele>148</ele>
        <time>2021-11-11T08:59:48Z</time>
      </trkpt>
      <trkpt lat="50.54633" lon="4.5304">
        <ele>147</ele>
        <time>2021-11-11T08:59:50Z</time>
      </trkpt>
      <trkpt lat="50.54634" lon="4.53026">
        <ele>147</ele>
        <time>2021-11-11T08:59:52Z</time>
      </trkpt>
      <trkpt lat="50.54635" lon="4.53012">
        <ele>147</ele>
        <time>2021-11-11T08:59:54Z</time>
      </trkpt>
      <trkpt lat="50.54635" lon="4.52997">
        <ele>147</ele>
        <time>2021-11-11T08:59:56Z</time>
      </trkpt>
      <trkpt lat="50.54635" lon="4.52983">
        <ele>147</ele>
        <time>2021-11-11T08:59:58Z</time>
      </trkpt>
      <trkpt lat="50.54635" lon="4.52968">
        <ele>147</ele>
        <time>2021-11-11T09:00:00Z</time>
      </trkpt>
      <trkpt lat="50.54635" lon="4.52954">
        <ele>148</ele>
        <time>2021-11-11T09:00:02Z</time>
      </trkpt>
      <trkpt lat="50.54636" lon="4.5294">
        <ele>148</ele>
        <time>2021-11-11T09:00:04Z</time>
      </trkpt>
      <trkpt lat="50.54641" lon="4.52929">
        <ele>147</ele>
        <time>2021-11-11T09:00:06Z</time>
      </trkpt>
      <trkpt lat="50.54649" lon="4.52923">
        <ele>147</ele>
        <time>2021-11-11T09:00:08Z</time>
      </trkpt>
      <trkpt lat="50.54657" lon="4.5292">
        <ele>147</ele>
        <time>2021-11-11T09:00:10Z</time>
      </trkpt>
      <trkpt lat="50.54666" lon="4.52917">
        <ele>147</ele>
        <time>2021-11-11T09:00:12Z</time>
      </trkpt>
      <trkpt lat="50.54674" lon="4.52913">
        <ele>147</ele>
        <time>2021-11-11T09:00:14Z</time>
      </trkpt>
      <trkpt lat="50.54683" lon="4.5291">
        <ele>148</ele>
        <time>2021-11-11T09:00:16Z</time>
      </trkpt>
      <trkpt lat="50.54691" lon="4.52907">
        <ele>148</ele>
        <time>2021-11-11T09:00:18Z</time>
      </trkpt>
      <trkpt lat="50.54699" lon="4.52904">
        <ele>148</ele>
        <time>2021-11-11T09:00:20Z</time>
      </trkpt>
      <trkpt lat="50.54707" lon="4.52901">
        <ele>147</ele>
        <time>2021-11-11T09:00:22Z</time>
      </trkpt>
      <trkpt lat="50.54715" lon="4.52898">
        <ele>147</ele>
        <time>2021-11-11T09:00:24Z</time>
      </trkpt>
      <trkpt lat="50.54724" lon="4.52894">
        <ele>147</ele>
        <time>2021-11-11T09:00:26Z</time>
      </trkpt>
      <trkpt lat="50.54733" lon="4.5289">
        <ele>147</ele>
        <time>2021-11-11T09:00:28Z</time>
      </trkpt>
      <trkpt lat="50.54742" lon="4.52885">
        <ele>151</ele>
        <time>2021-11-11T09:00:30Z</time>
      </trkpt>
      <trkpt lat="50.54751" lon="4.52881">
        <ele>151</ele>
        <time>2021-11-11T09:00:32Z</time>
      </trkpt>
      <trkpt lat="50.5476" lon="4.52877">
        <ele>151</ele>
        <time>2021-11-11T09:00:34Z</time>
      </trkpt>
      <trkpt lat="50.54768" lon="4.52871">
        <ele>154</ele>
        <time>2021-11-11T09:00:36Z</time>
      </trkpt>
      <trkpt lat="50.54776" lon="4.52866">
        <ele>154</ele>
        <time>2021-11-11T09:00:38Z</time>
      </trkpt>
      <trkpt lat="50.54786" lon="4.52861">
        <ele>154</ele>
        <time>2021-11-11T09:00:40Z</time>
      </trkpt>
      <trkpt lat="50.54794" lon="4.52857">
        <ele>155</ele>
        <time>2021-11-11T09:00:42Z</time>
      </trkpt>
      <trkpt lat="50.54803" lon="4.52852">
        <ele>155</ele>
        <time>2021-11-11T09:00:44Z</time>
      </trkpt>
      <trkpt lat="50.54812" lon="4.52848">
        <ele>155</ele>
        <time>2021-11-11T09:00:46Z</time>
      </trkpt>
      <trkpt lat="50.5482" lon="4.52843">
        <ele>156</ele>
        <time>2021-11-11T09:00:48Z</time>
      </trkpt>
      <trkpt lat="50.54829" lon="4.52837">
        <ele>156</ele>
        <time>2021-11-11T09:00:50Z</time>
      </trkpt>
      <trkpt lat="50.54837" lon="4.52832">
        <ele>156</ele>
        <time>2021-11-11T09:00:52Z</time>
      </trkpt>
      <trkpt lat="50.54846" lon="4.52825">
        <ele>156</ele>
        <time>2021-11-11T09:00:54Z</time>
      </trkpt>
      <trkpt lat="50.54854" lon="4.52818">
        <ele>156</ele>
        <time>2021-11-11T09:00:56Z</time>
      </trkpt>
      <trkpt lat="50.54862" lon="4.52812">
        <ele>156</ele>
        <time>2021-11-11T09:00:58Z</time>
      </trkpt>
      <trkpt lat="50.5487" lon="4.52804">
        <ele>156</ele>
        <time>2021-11-11T09:01:00Z</time>
      </trkpt>
      <trkpt lat="50.54878" lon="4.52796">
        <ele>156</ele>
        <time>2021-11-11T09:01:02Z</time>
      </trkpt>
      <trkpt lat="50.54887" lon="4.52789">
        <ele>156</ele>
        <time>2021-11-11T09:01:04Z</time>
      </trkpt>
      <trkpt lat="50.54896" lon="4.52782">
        <ele>156</ele>
        <time>2021-11-11T09:01:06Z</time>
      </trkpt>
      <trkpt lat="50.54905" lon="4.52775">
        <ele>158</ele>
        <time>2021-11-11T09:01:08Z</time>
      </trkpt>
      <trkpt lat="50.54913" lon="4.52767">
        <ele>158</ele>
        <time>2021-11-11T09:01:10Z</time>
      </trkpt>
      <trkpt lat="50.54921" lon="4.5276">
        <ele>158</ele>
        <time>2021-11-11T09:01:12Z</time>
      </trkpt>
      <trkpt lat="50.5493" lon="4.52753">
        <ele>158</ele>
        <time>2021-11-11T09:01:14Z</time>
      </trkpt>
      <trkpt lat="50.54939" lon="4.52746">
        <ele>159</ele>
        <time>2021-11-11T09:01:16Z</time>
      </trkpt>
      <trkpt lat="50.54947" lon="4.52738">
        <ele>159</ele>
        <time>2021-11-11T09:01:18Z</time>
      </trkpt>
      <trkpt lat="50.54955" lon="4.5273">
        <ele>160</ele>
        <time>2021-11-11T09:01:20Z</time>
      </trkpt>
      <trkpt lat="50.54962" lon="4.52721">
        <ele>159</ele>
        <time>2021-11-11T09:01:22Z</time>
      </trkpt>
      <trkpt lat="50.5497" lon="4.52713">
        <ele>159</ele>
        <time>2021-11-11T09:01:24Z</time>
      </trkpt>
      <trkpt lat="50.54978" lon="4.52703">
        <ele>159</ele>
        <time>2021-11-11T09:01:26Z</time>
      </trkpt>
      <trkpt lat="50.54987" lon="4.52694">
        <ele>159</ele>
        <time>2021-11-11T09:01:28Z</time>
      </trkpt>
      <trkpt lat="50.54994" lon="4.52685">
        <ele>159</ele>
        <time>2021-11-11T09:01:30Z</time>
      </trkpt>
      <trkpt lat="50.55002" lon="4.52675">
        <ele>159</ele>
        <time>2021-11-11T09:01:32Z</time>
      </trkpt>
      <trkpt lat="50.5501" lon="4.52665">
        <ele>159</ele>
        <time>2021-11-11T09:01:34Z</time>
      </trkpt>
      <trkpt lat="50.55019" lon="4.52655">
        <ele>158</ele>
        <time>2021-11-11T09:01:36Z</time>
      </trkpt>
      <trkpt lat="50.55027" lon="4.52644">
        <ele>158</ele>
        <time>2021-11-11T09:01:38Z</time>
      </trkpt>
      <trkpt lat="50.55035" lon="4.52634">
        <ele>158</ele>
        <time>2021-11-11T09:01:40Z</time>
      </trkpt>
      <trkpt lat="50.55043" lon="4.52624">
        <ele>158</ele>
        <time>2021-11-11T09:01:42Z</time>
      </trkpt>
      <trkpt lat="50.55051" lon="4.52614">
        <ele>158</ele>
        <time>2021-11-11T09:01:44Z</time>
      </trkpt>
      <trkpt lat="50.55059" lon="4.52605">
        <ele>158</ele>
        <time>2021-11-11T09:01:46Z</time>
      </trkpt>
      <trkpt lat="50.55066" lon="4.52597">
        <ele>157</ele>
        <time>2021-11-11T09:01:48Z</time>
      </trkpt>
      <trkpt lat="50.55072" lon="4.52591">
        <ele>157</ele>
        <time>2021-11-11T09:01:50Z</time>
      </trkpt>
      <trkpt lat="50.55079" lon="4.5259">
        <ele>157</ele>
        <time>2021-11-11T09:01:52Z</time>
      </trkpt>
      <trkpt lat="50.55083" lon="4.52598">
        <ele>157</ele>
        <time>2021-11-11T09:01:54Z</time>
      </trkpt>
      <trkpt lat="50.55085" lon="4.52609">
        <ele>157</ele>
        <time>2021-11-11T09:01:56Z</time>
      </trkpt>
      <trkpt lat="50.55085" lon="4.52619">
        <ele>157</ele>
        <time>2021-11-11T09:01:58Z</time>
      </trkpt>
      <trkpt lat="50.55087" lon="4.52631">
        <ele>157</ele>
        <time>2021-11-11T09:02:00Z</time>
      </trkpt>
      <trkpt lat="50.55087" lon="4.52642">
        <ele>157</ele>
        <time>2021-11-11T09:02:02Z</time>
      </trkpt>
      <trkpt lat="50.55088" lon="4.52654">
        <ele>157</ele>
        <time>2021-11-11T09:02:04Z</time>
      </trkpt>
      <trkpt lat="50.55088" lon="4.52666">
        <ele>157</ele>
        <time>2021-11-11T09:02:06Z</time>
      </trkpt>
      <trkpt lat="50.55088" lon="4.5268">
        <ele>157</ele>
        <time>2021-11-11T09:02:08Z</time>
      </trkpt>
      <trkpt lat="50.55088" lon="4.52693">
        <ele>157</ele>
        <time>2021-11-11T09:02:10Z</time>
      </trkpt>
      <trkpt lat="50.55087" lon="4.52707">
        <ele>157</ele>
        <time>2021-11-11T09:02:12Z</time>
      </trkpt>
      <trkpt lat="50.55087" lon="4.52721">
        <ele>156</ele>
        <time>2021-11-11T09:02:14Z</time>
      </trkpt>
      <trkpt lat="50.55085" lon="4.52735">
        <ele>156</ele>
        <time>2021-11-11T09:02:16Z</time>
      </trkpt>
      <trkpt lat="50.55083" lon="4.52748">
        <ele>157</ele>
        <time>2021-11-11T09:02:18Z</time>
      </trkpt>
      <trkpt lat="50.55081" lon="4.52762">
        <ele>157</ele>
        <time>2021-11-11T09:02:20Z</time>
      </trkpt>
      <trkpt lat="50.55079" lon="4.52775">
        <ele>157</ele>
        <time>2021-11-11T09:02:22Z</time>
      </trkpt>
      <trkpt lat="50.55077" lon="4.52787">
        <ele>157</ele>
        <time>2021-11-11T09:02:24Z</time>
      </trkpt>
      <trkpt lat="50.55075" lon="4.52799">
        <ele>158</ele>
        <time>2021-11-11T09:02:26Z</time>
      </trkpt>
      <trkpt lat="50.55072" lon="4.52812">
        <ele>158</ele>
        <time>2021-11-11T09:02:28Z</time>
      </trkpt>
      <trkpt lat="50.5507" lon="4.52824">
        <ele>159</ele>
        <time>2021-11-11T09:02:30Z</time>
      </trkpt>
      <trkpt lat="50.55067" lon="4.52836">
        <ele>159</ele>
        <time>2021-11-11T09:02:32Z</time>
      </trkpt>
      <trkpt lat="50.55065" lon="4.52847">
        <ele>159</ele>
        <time>2021-11-11T09:02:34Z</time>
      </trkpt>
      <trkpt lat="50.55063" lon="4.52859">
        <ele>159</ele>
        <time>2021-11-11T09:02:36Z</time>
      </trkpt>
      <trkpt lat="50.55061" lon="4.52871">
        <ele>159</ele>
        <time>2021-11-11T09:02:38Z</time>
      </trkpt>
      <trkpt lat="50.55058" lon="4.52884">
        <ele>160</ele>
        <time>2021-11-11T09:02:40Z</time>
      </trkpt>
      <trkpt lat="50.55056" lon="4.52896">
        <ele>160</ele>
        <time>2021-11-11T09:02:42Z</time>
      </trkpt>
      <trkpt lat="50.55054" lon="4.52909">
        <ele>159</ele>
        <time>2021-11-11T09:02:44Z</time>
      </trkpt>
      <trkpt lat="50.55052" lon="4.52921">
        <ele>159</ele>
        <time>2021-11-11T09:02:46Z</time>
      </trkpt>
      <trkpt lat="50.55051" lon="4.52934">
        <ele>161</ele>
        <time>2021-11-11T09:02:48Z</time>
      </trkpt>
      <trkpt lat="50.5505" lon="4.52947">
        <ele>161</ele>
        <time>2021-11-11T09:02:50Z</time>
      </trkpt>
      <trkpt lat="50.55048" lon="4.5296">
        <ele>160</ele>
        <time>2021-11-11T09:02:52Z</time>
      </trkpt>
      <trkpt lat="50.55047" lon="4.52974">
        <ele>160</ele>
        <time>2021-11-11T09:02:54Z</time>
      </trkpt>
      <trkpt lat="50.55045" lon="4.52988">
        <ele>160</ele>
        <time>2021-11-11T09:02:56Z</time>
      </trkpt>
      <trkpt lat="50.55043" lon="4.53002">
        <ele>160</ele>
        <time>2021-11-11T09:02:58Z</time>
      </trkpt>
      <trkpt lat="50.55042" lon="4.53017">
        <ele>159</ele>
        <time>2021-11-11T09:03:00Z</time>
      </trkpt>
      <trkpt lat="50.5504" lon="4.53032">
        <ele>159</ele>
        <time>2021-11-11T09:03:02Z</time>
      </trkpt>
      <trkpt lat="50.55039" lon="4.53046">
        <ele>158</ele>
        <time>2021-11-11T09:03:04Z</time>
      </trkpt>
      <trkpt lat="50.55039" lon="4.5306">
        <ele>158</ele>
        <time>2021-11-11T09:03:06Z</time>
      </trkpt>
      <trkpt lat="50.55039" lon="4.53074">
        <ele>157</ele>
        <time>2021-11-11T09:03:08Z</time>
      </trkpt>
      <trkpt lat="50.55039" lon="4.53087">
        <ele>157</ele>
        <time>2021-11-11T09:03:10Z</time>
      </trkpt>
      <trkpt lat="50.5504" lon="4.53101">
        <ele>155</ele>
        <time>2021-11-11T09:03:12Z</time>
      </trkpt>
      <trkpt lat="50.55042" lon="4.53115">
        <ele>155</ele>
        <time>2021-11-11T09:03:14Z</time>
      </trkpt>
      <trkpt lat="50.55046" lon="4.53128">
        <ele>155</ele>
        <time>2021-11-11T09:03:16Z</time>
      </trkpt>
      <trkpt lat="50.55051" lon="4.53139">
        <ele>155</ele>
        <time>2021-11-11T09:03:18Z</time>
      </trkpt>
      <trkpt lat="50.55057" lon="4.5315">
        <ele>155</ele>
        <time>2021-11-11T09:03:20Z</time>
      </trkpt>
      <trkpt lat="50.55062" lon="4.53161">
        <ele>154</ele>
        <time>2021-11-11T09:03:22Z</time>
      </trkpt>
      <trkpt lat="50.55067" lon="4.53172">
        <ele>154</ele>
        <time>2021-11-11T09:03:24Z</time>
      </trkpt>
      <trkpt lat="50.55072" lon="4.53183">
        <ele>153</ele>
        <time>2021-11-11T09:03:26Z</time>
      </trkpt>
      <trkpt lat="50.55076" lon="4.53196">
        <ele>153</ele>
        <time>2021-11-11T09:03:28Z</time>
      </trkpt>
      <trkpt lat="50.55078" lon="4.53212">
        <ele>151</ele>
        <time>2021-11-11T09:03:30Z</time>
      </trkpt>
      <trkpt lat="50.55079" lon="4.53228">
        <ele>151</ele>
        <time>2021-11-11T09:03:32Z</time>
      </trkpt>
      <trkpt lat="50.5508" lon="4.53245">
        <ele>150</ele>
        <time>2021-11-11T09:03:34Z</time>
      </trkpt>
      <trkpt lat="50.5508" lon="4.5326">
        <ele>150</ele>
        <time>2021-11-11T09:03:36Z</time>
      </trkpt>
      <trkpt lat="50.55079" lon="4.53271">
        <ele>148</ele>
        <time>2021-11-11T09:03:38Z</time>
      </trkpt>
      <trkpt lat="50.55082" lon="4.53281">
        <ele>148</ele>
        <time>2021-11-11T09:03:40Z</time>
      </trkpt>
      <trkpt lat="50.5509" lon="4.53286">
        <ele>148</ele>
        <time>2021-11-11T09:03:42Z</time>
      </trkpt>
      <trkpt lat="50.55098" lon="4.53287">
        <ele>150</ele>
        <time>2021-11-11T09:03:44Z</time>
      </trkpt>
      <trkpt lat="50.55107" lon="4.53288">
        <ele>150</ele>
        <time>2021-11-11T09:03:46Z</time>
      </trkpt>
      <trkpt lat="50.55114" lon="4.53295">
        <ele>149</ele>
        <time>2021-11-11T09:03:48Z</time>
      </trkpt>
      <trkpt lat="50.55121" lon="4.53306">
        <ele>149</ele>
        <time>2021-11-11T09:03:50Z</time>
      </trkpt>
      <trkpt lat="50.55129" lon="4.53318">
        <ele>149</ele>
        <time>2021-11-11T09:03:52Z</time>
      </trkpt>
      <trkpt lat="50.55136" lon="4.53329">
        <ele>148</ele>
        <time>2021-11-11T09:03:54Z</time>
      </trkpt>
      <trkpt lat="50.55143" lon="4.53341">
        <ele>148</ele>
        <time>2021-11-11T09:03:56Z</time>
      </trkpt>
      <trkpt lat="50.55151" lon="4.53353">
        <ele>148</ele>
        <time>2021-11-11T09:03:58Z</time>
      </trkpt>
      <trkpt lat="50.55158" lon="4.53365">
        <ele>148</ele>
        <time>2021-11-11T09:04:00Z</time>
      </trkpt>
      <trkpt lat="50.55164" lon="4.53377">
        <ele>146</ele>
        <time>2021-11-11T09:04:02Z</time>
      </trkpt>
      <trkpt lat="50.55171" lon="4.53389">
        <ele>146</ele>
        <time>2021-11-11T09:04:04Z</time>
      </trkpt>
      <trkpt lat="50.55178" lon="4.53402">
        <ele>146</ele>
        <time>2021-11-11T09:04:06Z</time>
      </trkpt>
      <trkpt lat="50.55184" lon="4.53415">
        <ele>146</ele>
        <time>2021-11-11T09:04:08Z</time>
      </trkpt>
      <trkpt lat="50.55191" lon="4.53428">
        <ele>146</ele>
        <time>2021-11-11T09:04:10Z</time>
      </trkpt>
      <trkpt lat="50.55197" lon="4.53441">
        <ele>147</ele>
        <time>2021-11-11T09:04:12Z</time>
      </trkpt>
      <trkpt lat="50.55203" lon="4.53453">
        <ele>147</ele>
        <time>2021-11-11T09:04:14Z</time>
      </trkpt>
      <trkpt lat="50.55207" lon="4.53465">
        <ele>147</ele>
        <time>2021-11-11T09:04:16Z</time>
      </trkpt>
      <trkpt lat="50.55214" lon="4.53484">
        <ele>147</ele>
        <time>2021-11-11T09:04:19Z</time>
      </trkpt>
      <trkpt lat="50.5522" lon="4.53496">
        <ele>147</ele>
        <time>2021-11-11T09:04:21Z</time>
      </trkpt>
      <trkpt lat="50.55224" lon="4.53507">
        <ele>147</ele>
        <time>2021-11-11T09:04:23Z</time>
      </trkpt>
      <trkpt lat="50.55229" lon="4.53517">
        <ele>148</ele>
        <time>2021-11-11T09:04:25Z</time>
      </trkpt>
      <trkpt lat="50.55235" lon="4.53527">
        <ele>148</ele>
        <time>2021-11-11T09:04:27Z</time>
      </trkpt>
      <trkpt lat="50.55241" lon="4.53537">
        <ele>147</ele>
        <time>2021-11-11T09:04:29Z</time>
      </trkpt>
      <trkpt lat="50.55245" lon="4.53548">
        <ele>145</ele>
        <time>2021-11-11T09:04:31Z</time>
      </trkpt>
      <trkpt lat="50.55249" lon="4.53558">
        <ele>145</ele>
        <time>2021-11-11T09:04:33Z</time>
      </trkpt>
      <trkpt lat="50.55251" lon="4.53569">
        <ele>145</ele>
        <time>2021-11-11T09:04:35Z</time>
      </trkpt>
      <trkpt lat="50.55254" lon="4.53579">
        <ele>146</ele>
        <time>2021-11-11T09:04:37Z</time>
      </trkpt>
      <trkpt lat="50.55256" lon="4.5359">
        <ele>146</ele>
        <time>2021-11-11T09:04:39Z</time>
      </trkpt>
      <trkpt lat="50.55256" lon="4.536">
        <ele>145</ele>
        <time>2021-11-11T09:04:41Z</time>
      </trkpt>
      <trkpt lat="50.55257" lon="4.53609">
        <ele>145</ele>
        <time>2021-11-11T09:04:43Z</time>
      </trkpt>
      <trkpt lat="50.55257" lon="4.53619">
        <ele>145</ele>
        <time>2021-11-11T09:04:45Z</time>
      </trkpt>
      <trkpt lat="50.55259" lon="4.53631">
        <ele>145</ele>
        <time>2021-11-11T09:04:47Z</time>
      </trkpt>
      <trkpt lat="50.55262" lon="4.53641">
        <ele>145</ele>
        <time>2021-11-11T09:04:49Z</time>
      </trkpt>
      <trkpt lat="50.55264" lon="4.53653">
        <ele>145</ele>
        <time>2021-11-11T09:04:51Z</time>
      </trkpt>
      <trkpt lat="50.55266" lon="4.53665">
        <ele>144</ele>
        <time>2021-11-11T09:04:53Z</time>
      </trkpt>
      <trkpt lat="50.55267" lon="4.53677">
        <ele>144</ele>
        <time>2021-11-11T09:04:55Z</time>
      </trkpt>
      <trkpt lat="50.55269" lon="4.53689">
        <ele>145</ele>
        <time>2021-11-11T09:04:57Z</time>
      </trkpt>
      <trkpt lat="50.55271" lon="4.53701">
        <ele>145</ele>
        <time>2021-11-11T09:04:59Z</time>
      </trkpt>
      <trkpt lat="50.55273" lon="4.53713">
        <ele>145</ele>
        <time>2021-11-11T09:05:01Z</time>
      </trkpt>
      <trkpt lat="50.55275" lon="4.53725">
        <ele>145</ele>
        <time>2021-11-11T09:05:03Z</time>
      </trkpt>
      <trkpt lat="50.55278" lon="4.53738">
        <ele>144</ele>
        <time>2021-11-11T09:05:05Z</time>
      </trkpt>
      <trkpt lat="50.55281" lon="4.53751">
        <ele>144</ele>
        <time>2021-11-11T09:05:07Z</time>
      </trkpt>
      <trkpt lat="50.55283" lon="4.53763">
        <ele>144</ele>
        <time>2021-11-11T09:05:09Z</time>
      </trkpt>
      <trkpt lat="50.55286" lon="4.53776">
        <ele>144</ele>
        <time>2021-11-11T09:05:11Z</time>
      </trkpt>
      <trkpt lat="50.55288" lon="4.53789">
        <ele>144</ele>
        <time>2021-11-11T09:05:13Z</time>
      </trkpt>
      <trkpt lat="50.55291" lon="4.53801">
        <ele>143</ele>
        <time>2021-11-11T09:05:15Z</time>
      </trkpt>
      <trkpt lat="50.55293" lon="4.53814">
        <ele>143</ele>
        <time>2021-11-11T09:05:17Z</time>
      </trkpt>
      <trkpt lat="50.55295" lon="4.53827">
        <ele>143</ele>
        <time>2021-11-11T09:05:19Z</time>
      </trkpt>
      <trkpt lat="50.55297" lon="4.53839">
        <ele>143</ele>
        <time>2021-11-11T09:05:21Z</time>
      </trkpt>
      <trkpt lat="50.55299" lon="4.53852">
        <ele>141</ele>
        <time>2021-11-11T09:05:23Z</time>
      </trkpt>
      <trkpt lat="50.55302" lon="4.53864">
        <ele>141</ele>
        <time>2021-11-11T09:05:25Z</time>
      </trkpt>
      <trkpt lat="50.55304" lon="4.53876">
        <ele>141</ele>
        <time>2021-11-11T09:05:27Z</time>
      </trkpt>
      <trkpt lat="50.55306" lon="4.53889">
        <ele>141</ele>
        <time>2021-11-11T09:05:29Z</time>
      </trkpt>
      <trkpt lat="50.55309" lon="4.53903">
        <ele>141</ele>
        <time>2021-11-11T09:05:31Z</time>
      </trkpt>
      <trkpt lat="50.55311" lon="4.53916">
        <ele>140</ele>
        <time>2021-11-11T09:05:33Z</time>
      </trkpt>
      <trkpt lat="50.55314" lon="4.53929">
        <ele>140</ele>
        <time>2021-11-11T09:05:35Z</time>
      </trkpt>
      <trkpt lat="50.55316" lon="4.53942">
        <ele>138</ele>
        <time>2021-11-11T09:05:37Z</time>
      </trkpt>
      <trkpt lat="50.55319" lon="4.53955">
        <ele>138</ele>
        <time>2021-11-11T09:05:39Z</time>
      </trkpt>
      <trkpt lat="50.55322" lon="4.53968">
        <ele>139</ele>
        <time>2021-11-11T09:05:41Z</time>
      </trkpt>
      <trkpt lat="50.55326" lon="4.53981">
        <ele>139</ele>
        <time>2021-11-11T09:05:43Z</time>
      </trkpt>
      <trkpt lat="50.5533" lon="4.53994">
        <ele>138</ele>
        <time>2021-11-11T09:05:45Z</time>
      </trkpt>
      <trkpt lat="50.55332" lon="4.54007">
        <ele>138</ele>
        <time>2021-11-11T09:05:47Z</time>
      </trkpt>
      <trkpt lat="50.55335" lon="4.5402">
        <ele>139</ele>
        <time>2021-11-11T09:05:49Z</time>
      </trkpt>
      <trkpt lat="50.55338" lon="4.54032">
        <ele>139</ele>
        <time>2021-11-11T09:05:51Z</time>
      </trkpt>
      <trkpt lat="50.55342" lon="4.54044">
        <ele>139</ele>
        <time>2021-11-11T09:05:53Z</time>
      </trkpt>
      <trkpt lat="50.55345" lon="4.54056">
        <ele>139</ele>
        <time>2021-11-11T09:05:55Z</time>
      </trkpt>
      <trkpt lat="50.55349" lon="4.54068">
        <ele>140</ele>
        <time>2021-11-11T09:05:57Z</time>
      </trkpt>
      <trkpt lat="50.55352" lon="4.5408">
        <ele>140</ele>
        <time>2021-11-11T09:05:59Z</time>
      </trkpt>
      <trkpt lat="50.55357" lon="4.54092">
        <ele>140</ele>
        <time>2021-11-11T09:06:01Z</time>
      </trkpt>
      <trkpt lat="50.5536" lon="4.54104">
        <ele>139</ele>
        <time>2021-11-11T09:06:03Z</time>
      </trkpt>
      <trkpt lat="50.55364" lon="4.54116">
        <ele>139</ele>
        <time>2021-11-11T09:06:05Z</time>
      </trkpt>
      <trkpt lat="50.55368" lon="4.54127">
        <ele>140</ele>
        <time>2021-11-11T09:06:07Z</time>
      </trkpt>
      <trkpt lat="50.55371" lon="4.54139">
        <ele>140</ele>
        <time>2021-11-11T09:06:09Z</time>
      </trkpt>
      <trkpt lat="50.55375" lon="4.5415">
        <ele>140</ele>
        <time>2021-11-11T09:06:11Z</time>
      </trkpt>
      <trkpt lat="50.55379" lon="4.54161">
        <ele>141</ele>
        <time>2021-11-11T09:06:13Z</time>
      </trkpt>
      <trkpt lat="50.55383" lon="4.54172">
        <ele>141</ele>
        <time>2021-11-11T09:06:15Z</time>
      </trkpt>
      <trkpt lat="50.55387" lon="4.54183">
        <ele>141</ele>
        <time>2021-11-11T09:06:17Z</time>
      </trkpt>
      <trkpt lat="50.5539" lon="4.54193">
        <ele>141</ele>
        <time>2021-11-11T09:06:19Z</time>
      </trkpt>
      <trkpt lat="50.55394" lon="4.54204">
        <ele>141</ele>
        <time>2021-11-11T09:06:21Z</time>
      </trkpt>
      <trkpt lat="50.55399" lon="4.54215">
        <ele>140</ele>
        <time>2021-11-11T09:06:23Z</time>
      </trkpt>
      <trkpt lat="50.55404" lon="4.54226">
        <ele>141</ele>
        <time>2021-11-11T09:06:25Z</time>
      </trkpt>
      <trkpt lat="50.55408" lon="4.54236">
        <ele>141</ele>
        <time>2021-11-11T09:06:27Z</time>
      </trkpt>
      <trkpt lat="50.55412" lon="4.54247">
        <ele>141</ele>
        <time>2021-11-11T09:06:29Z</time>
      </trkpt>
      <trkpt lat="50.55417" lon="4.54257">
        <ele>141</ele>
        <time>2021-11-11T09:06:31Z</time>
      </trkpt>
      <trkpt lat="50.55421" lon="4.54267">
        <ele>140</ele>
        <time>2021-11-11T09:06:33Z</time>
      </trkpt>
      <trkpt lat="50.55425" lon="4.54279">
        <ele>140</ele>
        <time>2021-11-11T09:06:35Z</time>
      </trkpt>
      <trkpt lat="50.55429" lon="4.54289">
        <ele>140</ele>
        <time>2021-11-11T09:06:37Z</time>
      </trkpt>
      <trkpt lat="50.55433" lon="4.543">
        <ele>141</ele>
        <time>2021-11-11T09:06:39Z</time>
      </trkpt>
      <trkpt lat="50.55436" lon="4.54312">
        <ele>141</ele>
        <time>2021-11-11T09:06:41Z</time>
      </trkpt>
      <trkpt lat="50.55439" lon="4.54323">
        <ele>141</ele>
        <time>2021-11-11T09:06:43Z</time>
      </trkpt>
      <trkpt lat="50.55443" lon="4.54333">
        <ele>141</ele>
        <time>2021-11-11T09:06:45Z</time>
      </trkpt>
      <trkpt lat="50.55447" lon="4.54344">
        <ele>141</ele>
        <time>2021-11-11T09:06:47Z</time>
      </trkpt>
      <trkpt lat="50.5545" lon="4.54355">
        <ele>140</ele>
        <time>2021-11-11T09:06:49Z</time>
      </trkpt>
      <trkpt lat="50.55452" lon="4.54365">
        <ele>140</ele>
        <time>2021-11-11T09:06:51Z</time>
      </trkpt>
      <trkpt lat="50.55455" lon="4.54376">
        <ele>140</ele>
        <time>2021-11-11T09:06:53Z</time>
      </trkpt>
      <trkpt lat="50.55457" lon="4.54387">
        <ele>140</ele>
        <time>2021-11-11T09:06:55Z</time>
      </trkpt>
      <trkpt lat="50.55459" lon="4.54397">
        <ele>140</ele>
        <time>2021-11-11T09:06:57Z</time>
      </trkpt>
      <trkpt lat="50.55461" lon="4.54407">
        <ele>141</ele>
        <time>2021-11-11T09:06:59Z</time>
      </trkpt>
      <trkpt lat="50.55463" lon="4.54416">
        <ele>141</ele>
        <time>2021-11-11T09:07:01Z</time>
      </trkpt>
      <trkpt lat="50.55465" lon="4.54427">
        <ele>141</ele>
        <time>2021-11-11T09:07:03Z</time>
      </trkpt>
      <trkpt lat="50.55467" lon="4.54439">
        <ele>142</ele>
        <time>2021-11-11T09:07:05Z</time>
      </trkpt>
      <trkpt lat="50.55469" lon="4.54451">
        <ele>142</ele>
        <time>2021-11-11T09:07:07Z</time>
      </trkpt>
      <trkpt lat="50.55471" lon="4.54463">
        <ele>142</ele>
        <time>2021-11-11T09:07:09Z</time>
      </trkpt>
      <trkpt lat="50.55474" lon="4.54476">
        <ele>142</ele>
        <time>2021-11-11T09:07:11Z</time>
      </trkpt>
      <trkpt lat="50.55476" lon="4.54488">
        <ele>144</ele>
        <time>2021-11-11T09:07:13Z</time>
      </trkpt>
      <trkpt lat="50.55479" lon="4.54501">
        <ele>144</ele>
        <time>2021-11-11T09:07:15Z</time>
      </trkpt>
      <trkpt lat="50.55481" lon="4.54513">
        <ele>144</ele>
        <time>2021-11-11T09:07:17Z</time>
      </trkpt>
      <trkpt lat="50.55485" lon="4.54524">
        <ele>143</ele>
        <time>2021-11-11T09:07:19Z</time>
      </trkpt>
      <trkpt lat="50.55488" lon="4.54535">
        <ele>143</ele>
        <time>2021-11-11T09:07:21Z</time>
      </trkpt>
      <trkpt lat="50.55491" lon="4.54544">
        <ele>143</ele>
        <time>2021-11-11T09:07:23Z</time>
      </trkpt>
      <trkpt lat="50.55491" lon="4.54552">
        <ele>143</ele>
        <time>2021-11-11T09:07:25Z</time>
      </trkpt>
      <trkpt lat="50.55489" lon="4.54559">
        <ele>143</ele>
        <time>2021-11-11T09:07:27Z</time>
      </trkpt>
      <trkpt lat="50.55487" lon="4.54565">
        <ele>143</ele>
        <time>2021-11-11T09:07:29Z</time>
      </trkpt>
      <trkpt lat="50.55484" lon="4.54569">
        <ele>143</ele>
        <time>2021-11-11T09:07:31Z</time>
      </trkpt>
      <trkpt lat="50.5548" lon="4.54574">
        <ele>141</ele>
        <time>2021-11-11T09:07:33Z</time>
      </trkpt>
      <trkpt lat="50.55475" lon="4.5458">
        <ele>141</ele>
        <time>2021-11-11T09:07:35Z</time>
      </trkpt>
      <trkpt lat="50.55468" lon="4.54585">
        <ele>141</ele>
        <time>2021-11-11T09:07:37Z</time>
      </trkpt>
      <trkpt lat="50.55461" lon="4.54591">
        <ele>141</ele>
        <time>2021-11-11T09:07:39Z</time>
      </trkpt>
      <trkpt lat="50.55453" lon="4.54597">
        <ele>140</ele>
        <time>2021-11-11T09:07:41Z</time>
      </trkpt>
      <trkpt lat="50.55447" lon="4.54603">
        <ele>139</ele>
        <time>2021-11-11T09:07:43Z</time>
      </trkpt>
      <trkpt lat="50.55445" lon="4.54611">
        <ele>139</ele>
        <time>2021-11-11T09:07:45Z</time>
      </trkpt>
      <trkpt lat="50.55447" lon="4.54621">
        <ele>139</ele>
        <time>2021-11-11T09:07:47Z</time>
      </trkpt>
      <trkpt lat="50.55451" lon="4.54631">
        <ele>138</ele>
        <time>2021-11-11T09:07:49Z</time>
      </trkpt>
      <trkpt lat="50.55453" lon="4.54642">
        <ele>138</ele>
        <time>2021-11-11T09:07:51Z</time>
      </trkpt>
      <trkpt lat="50.55455" lon="4.54654">
        <ele>136</ele>
        <time>2021-11-11T09:07:53Z</time>
      </trkpt>
      <trkpt lat="50.55457" lon="4.54664">
        <ele>136</ele>
        <time>2021-11-11T09:07:55Z</time>
      </trkpt>
      <trkpt lat="50.55457" lon="4.54674">
        <ele>136</ele>
        <time>2021-11-11T09:07:57Z</time>
      </trkpt>
      <trkpt lat="50.55452" lon="4.54679">
        <ele>136</ele>
        <time>2021-11-11T09:07:59Z</time>
      </trkpt>
      <trkpt lat="50.55446" lon="4.54684">
        <ele>137</ele>
        <time>2021-11-11T09:08:01Z</time>
      </trkpt>
      <trkpt lat="50.55439" lon="4.54689">
        <ele>137</ele>
        <time>2021-11-11T09:08:03Z</time>
      </trkpt>
      <trkpt lat="50.55431" lon="4.54695">
        <ele>137</ele>
        <time>2021-11-11T09:08:05Z</time>
      </trkpt>
      <trkpt lat="50.55425" lon="4.54701">
        <ele>136</ele>
        <time>2021-11-11T09:08:07Z</time>
      </trkpt>
      <trkpt lat="50.55419" lon="4.54707">
        <ele>136</ele>
        <time>2021-11-11T09:08:09Z</time>
      </trkpt>
      <trkpt lat="50.55413" lon="4.54713">
        <ele>134</ele>
        <time>2021-11-11T09:08:11Z</time>
      </trkpt>
      <trkpt lat="50.55407" lon="4.54722">
        <ele>134</ele>
        <time>2021-11-11T09:08:13Z</time>
      </trkpt>
      <trkpt lat="50.554" lon="4.5473">
        <ele>134</ele>
        <time>2021-11-11T09:08:15Z</time>
      </trkpt>
      <trkpt lat="50.55394" lon="4.54739">
        <ele>135</ele>
        <time>2021-11-11T09:08:17Z</time>
      </trkpt>
      <trkpt lat="50.55388" lon="4.54748">
        <ele>135</ele>
        <time>2021-11-11T09:08:19Z</time>
      </trkpt>
      <trkpt lat="50.55381" lon="4.54757">
        <ele>135</ele>
        <time>2021-11-11T09:08:21Z</time>
      </trkpt>
      <trkpt lat="50.55376" lon="4.54765">
        <ele>133</ele>
        <time>2021-11-11T09:08:23Z</time>
      </trkpt>
      <trkpt lat="50.55372" lon="4.54772">
        <ele>134</ele>
        <time>2021-11-11T09:08:25Z</time>
      </trkpt>
      <trkpt lat="50.55369" lon="4.54779">
        <ele>134</ele>
        <time>2021-11-11T09:08:27Z</time>
      </trkpt>
      <trkpt lat="50.55366" lon="4.54783">
        <ele>134</ele>
        <time>2021-11-11T09:08:29Z</time>
      </trkpt>
      <trkpt lat="50.55362" lon="4.54786">
        <ele>134</ele>
        <time>2021-11-11T09:08:31Z</time>
      </trkpt>
      <trkpt lat="50.55358" lon="4.54789">
        <ele>134</ele>
        <time>2021-11-11T09:08:33Z</time>
      </trkpt>
      <trkpt lat="50.55353" lon="4.54794">
        <ele>133</ele>
        <time>2021-11-11T09:08:35Z</time>
      </trkpt>
      <trkpt lat="50.55347" lon="4.54803">
        <ele>133</ele>
        <time>2021-11-11T09:08:37Z</time>
      </trkpt>
      <trkpt lat="50.5534" lon="4.54813">
        <ele>133</ele>
        <time>2021-11-11T09:08:39Z</time>
      </trkpt>
      <trkpt lat="50.55333" lon="4.54824">
        <ele>131</ele>
        <time>2021-11-11T09:08:41Z</time>
      </trkpt>
      <trkpt lat="50.55328" lon="4.54834">
        <ele>131</ele>
        <time>2021-11-11T09:08:43Z</time>
      </trkpt>
      <trkpt lat="50.55323" lon="4.54844">
        <ele>131</ele>
        <time>2021-11-11T09:08:45Z</time>
      </trkpt>
      <trkpt lat="50.55319" lon="4.54851">
        <ele>131</ele>
        <time>2021-11-11T09:08:47Z</time>
      </trkpt>
      <trkpt lat="50.55314" lon="4.54854">
        <ele>131</ele>
        <time>2021-11-11T09:08:49Z</time>
      </trkpt>
      <trkpt lat="50.5531" lon="4.54854">
        <ele>131</ele>
        <time>2021-11-11T09:08:51Z</time>
      </trkpt>
      <trkpt lat="50.55306" lon="4.54855">
        <ele>131</ele>
        <time>2021-11-11T09:08:53Z</time>
      </trkpt>
      <trkpt lat="50.55299" lon="4.54857">
        <ele>131</ele>
        <time>2021-11-11T09:08:55Z</time>
      </trkpt>
      <trkpt lat="50.55293" lon="4.54858">
        <ele>131</ele>
        <time>2021-11-11T09:08:57Z</time>
      </trkpt>
      <trkpt lat="50.55287" lon="4.54859">
        <ele>132</ele>
        <time>2021-11-11T09:08:59Z</time>
      </trkpt>
      <trkpt lat="50.55281" lon="4.54859">
        <ele>132</ele>
        <time>2021-11-11T09:09:01Z</time>
      </trkpt>
      <trkpt lat="50.55276" lon="4.54859">
        <ele>132</ele>
        <time>2021-11-11T09:09:03Z</time>
      </trkpt>
      <trkpt lat="50.55269" lon="4.54861">
        <ele>132</ele>
        <time>2021-11-11T09:09:05Z</time>
      </trkpt>
      <trkpt lat="50.55261" lon="4.54863">
        <ele>134</ele>
        <time>2021-11-11T09:09:07Z</time>
      </trkpt>
      <trkpt lat="50.55254" lon="4.54867">
        <ele>134</ele>
        <time>2021-11-11T09:09:09Z</time>
      </trkpt>
      <trkpt lat="50.55245" lon="4.54871">
        <ele>134</ele>
        <time>2021-11-11T09:09:11Z</time>
      </trkpt>
      <trkpt lat="50.55237" lon="4.54874">
        <ele>134</ele>
        <time>2021-11-11T09:09:13Z</time>
      </trkpt>
      <trkpt lat="50.5523" lon="4.54877">
        <ele>136</ele>
        <time>2021-11-11T09:09:15Z</time>
      </trkpt>
      <trkpt lat="50.55225" lon="4.5488">
        <ele>136</ele>
        <time>2021-11-11T09:09:17Z</time>
      </trkpt>
      <trkpt lat="50.55219" lon="4.54882">
        <ele>136</ele>
        <time>2021-11-11T09:09:19Z</time>
      </trkpt>
      <trkpt lat="50.55214" lon="4.54887">
        <ele>136</ele>
        <time>2021-11-11T09:09:21Z</time>
      </trkpt>
      <trkpt lat="50.55209" lon="4.54888">
        <ele>136</ele>
        <time>2021-11-11T09:09:23Z</time>
      </trkpt>
      <trkpt lat="50.55201" lon="4.5489">
        <ele>137</ele>
        <time>2021-11-11T09:09:25Z</time>
      </trkpt>
      <trkpt lat="50.55188" lon="4.54895">
        <ele>137</ele>
        <time>2021-11-11T09:09:28Z</time>
      </trkpt>
      <trkpt lat="50.5518" lon="4.54899">
        <ele>139</ele>
        <time>2021-11-11T09:09:30Z</time>
      </trkpt>
      <trkpt lat="50.55174" lon="4.54903">
        <ele>137</ele>
        <time>2021-11-11T09:09:32Z</time>
      </trkpt>
      <trkpt lat="50.55168" lon="4.54906">
        <ele>137</ele>
        <time>2021-11-11T09:09:34Z</time>
      </trkpt>
      <trkpt lat="50.55162" lon="4.5491">
        <ele>137</ele>
        <time>2021-11-11T09:09:36Z</time>
      </trkpt>
      <trkpt lat="50.55156" lon="4.54912">
        <ele>137</ele>
        <time>2021-11-11T09:09:38Z</time>
      </trkpt>
      <trkpt lat="50.55148" lon="4.54915">
        <ele>137</ele>
        <time>2021-11-11T09:09:40Z</time>
      </trkpt>
      <trkpt lat="50.55141" lon="4.54919">
        <ele>137</ele>
        <time>2021-11-11T09:09:42Z</time>
      </trkpt>
      <trkpt lat="50.55135" lon="4.54922">
        <ele>137</ele>
        <time>2021-11-11T09:09:44Z</time>
      </trkpt>
      <trkpt lat="50.55129" lon="4.54925">
        <ele>137</ele>
        <time>2021-11-11T09:09:46Z</time>
      </trkpt>
      <trkpt lat="50.55122" lon="4.54929">
        <ele>137</ele>
        <time>2021-11-11T09:09:48Z</time>
      </trkpt>
      <trkpt lat="50.55116" lon="4.54932">
        <ele>135</ele>
        <time>2021-11-11T09:09:50Z</time>
      </trkpt>
      <trkpt lat="50.55109" lon="4.54934">
        <ele>135</ele>
        <time>2021-11-11T09:09:52Z</time>
      </trkpt>
      <trkpt lat="50.55103" lon="4.54935">
        <ele>135</ele>
        <time>2021-11-11T09:09:54Z</time>
      </trkpt>
      <trkpt lat="50.55095" lon="4.54937">
        <ele>136</ele>
        <time>2021-11-11T09:09:56Z</time>
      </trkpt>
      <trkpt lat="50.55091" lon="4.54938">
        <ele>136</ele>
        <time>2021-11-11T09:09:58Z</time>
      </trkpt>
      <trkpt lat="50.55087" lon="4.54938">
        <ele>136</ele>
        <time>2021-11-11T09:10:00Z</time>
      </trkpt>
      <trkpt lat="50.55084" lon="4.54935">
        <ele>136</ele>
        <time>2021-11-11T09:10:02Z</time>
      </trkpt>
      <trkpt lat="50.5508" lon="4.54929">
        <ele>137</ele>
        <time>2021-11-11T09:10:04Z</time>
      </trkpt>
      <trkpt lat="50.55079" lon="4.54922">
        <ele>137</ele>
        <time>2021-11-11T09:10:06Z</time>
      </trkpt>
      <trkpt lat="50.55075" lon="4.54915">
        <ele>137</ele>
        <time>2021-11-11T09:10:08Z</time>
      </trkpt>
      <trkpt lat="50.55071" lon="4.54909">
        <ele>137</ele>
        <time>2021-11-11T09:10:10Z</time>
      </trkpt>
      <trkpt lat="50.5507" lon="4.54901">
        <ele>138</ele>
        <time>2021-11-11T09:10:12Z</time>
      </trkpt>
      <trkpt lat="50.55067" lon="4.54893">
        <ele>139</ele>
        <time>2021-11-11T09:10:14Z</time>
      </trkpt>
      <trkpt lat="50.55065" lon="4.54886">
        <ele>139</ele>
        <time>2021-11-11T09:10:16Z</time>
      </trkpt>
      <trkpt lat="50.55061" lon="4.54879">
        <ele>139</ele>
        <time>2021-11-11T09:10:18Z</time>
      </trkpt>
      <trkpt lat="50.55057" lon="4.54875">
        <ele>139</ele>
        <time>2021-11-11T09:10:20Z</time>
      </trkpt>
      <trkpt lat="50.55052" lon="4.54876">
        <ele>139</ele>
        <time>2021-11-11T09:10:22Z</time>
      </trkpt>
      <trkpt lat="50.55049" lon="4.54878">
        <ele>139</ele>
        <time>2021-11-11T09:10:24Z</time>
      </trkpt>
      <trkpt lat="50.55045" lon="4.5488">
        <ele>139</ele>
        <time>2021-11-11T09:10:26Z</time>
      </trkpt>
      <trkpt lat="50.55042" lon="4.54883">
        <ele>139</ele>
        <time>2021-11-11T09:10:28Z</time>
      </trkpt>
      <trkpt lat="50.55037" lon="4.54886">
        <ele>139</ele>
        <time>2021-11-11T09:10:30Z</time>
      </trkpt>
      <trkpt lat="50.55032" lon="4.54888">
        <ele>139</ele>
        <time>2021-11-11T09:10:32Z</time>
      </trkpt>
      <trkpt lat="50.55027" lon="4.54889">
        <ele>139</ele>
        <time>2021-11-11T09:10:34Z</time>
      </trkpt>
      <trkpt lat="50.55022" lon="4.54888">
        <ele>139</ele>
        <time>2021-11-11T09:10:36Z</time>
      </trkpt>
      <trkpt lat="50.55018" lon="4.54887">
        <ele>139</ele>
        <time>2021-11-11T09:10:38Z</time>
      </trkpt>
      <trkpt lat="50.55008" lon="4.54888">
        <ele>138</ele>
        <time>2021-11-11T09:10:40Z</time>
      </trkpt>
      <trkpt lat="50.54999" lon="4.54891">
        <ele>138</ele>
        <time>2021-11-11T09:10:42Z</time>
      </trkpt>
      <trkpt lat="50.5499" lon="4.54893">
        <ele>138</ele>
        <time>2021-11-11T09:10:44Z</time>
      </trkpt>
      <trkpt lat="50.54982" lon="4.54893">
        <ele>137</ele>
        <time>2021-11-11T09:10:46Z</time>
      </trkpt>
      <trkpt lat="50.54974" lon="4.54893">
        <ele>137</ele>
        <time>2021-11-11T09:10:48Z</time>
      </trkpt>
      <trkpt lat="50.54966" lon="4.54891">
        <ele>137</ele>
        <time>2021-11-11T09:10:50Z</time>
      </trkpt>
      <trkpt lat="50.54959" lon="4.54889">
        <ele>137</ele>
        <time>2021-11-11T09:10:52Z</time>
      </trkpt>
      <trkpt lat="50.54951" lon="4.54886">
        <ele>137</ele>
        <time>2021-11-11T09:10:54Z</time>
      </trkpt>
      <trkpt lat="50.54943" lon="4.54883">
        <ele>137</ele>
        <time>2021-11-11T09:10:56Z</time>
      </trkpt>
      <trkpt lat="50.54935" lon="4.5488">
        <ele>137</ele>
        <time>2021-11-11T09:10:58Z</time>
      </trkpt>
      <trkpt lat="50.54928" lon="4.54877">
        <ele>139</ele>
        <time>2021-11-11T09:11:00Z</time>
      </trkpt>
      <trkpt lat="50.54923" lon="4.54871">
        <ele>140</ele>
        <time>2021-11-11T09:11:02Z</time>
      </trkpt>
      <trkpt lat="50.54918" lon="4.54864">
        <ele>140</ele>
        <time>2021-11-11T09:11:04Z</time>
      </trkpt>
      <trkpt lat="50.54912" lon="4.54859">
        <ele>140</ele>
        <time>2021-11-11T09:11:06Z</time>
      </trkpt>
      <trkpt lat="50.54908" lon="4.54854">
        <ele>140</ele>
        <time>2021-11-11T09:11:08Z</time>
      </trkpt>
      <trkpt lat="50.54903" lon="4.54847">
        <ele>140</ele>
        <time>2021-11-11T09:11:10Z</time>
      </trkpt>
      <trkpt lat="50.54899" lon="4.5484">
        <ele>141</ele>
        <time>2021-11-11T09:11:12Z</time>
      </trkpt>
      <trkpt lat="50.54895" lon="4.54831">
        <ele>141</ele>
        <time>2021-11-11T09:11:14Z</time>
      </trkpt>
      <trkpt lat="50.5489" lon="4.54824">
        <ele>141</ele>
        <time>2021-11-11T09:11:16Z</time>
      </trkpt>
      <trkpt lat="50.54884" lon="4.54816">
        <ele>141</ele>
        <time>2021-11-11T09:11:18Z</time>
      </trkpt>
      <trkpt lat="50.54878" lon="4.54807">
        <ele>141</ele>
        <time>2021-11-11T09:11:20Z</time>
      </trkpt>
      <trkpt lat="50.54873" lon="4.54797">
        <ele>142</ele>
        <time>2021-11-11T09:11:22Z</time>
      </trkpt>
      <trkpt lat="50.54868" lon="4.54787">
        <ele>142</ele>
        <time>2021-11-11T09:11:24Z</time>
      </trkpt>
      <trkpt lat="50.54863" lon="4.54775">
        <ele>142</ele>
        <time>2021-11-11T09:11:26Z</time>
      </trkpt>
      <trkpt lat="50.54859" lon="4.54764">
        <ele>143</ele>
        <time>2021-11-11T09:11:28Z</time>
      </trkpt>
      <trkpt lat="50.54854" lon="4.54752">
        <ele>143</ele>
        <time>2021-11-11T09:11:30Z</time>
      </trkpt>
      <trkpt lat="50.54849" lon="4.54741">
        <ele>143</ele>
        <time>2021-11-11T09:11:32Z</time>
      </trkpt>
      <trkpt lat="50.54844" lon="4.54729">
        <ele>144</ele>
        <time>2021-11-11T09:11:34Z</time>
      </trkpt>
      <trkpt lat="50.5484" lon="4.54717">
        <ele>144</ele>
        <time>2021-11-11T09:11:36Z</time>
      </trkpt>
      <trkpt lat="50.54836" lon="4.54707">
        <ele>144</ele>
        <time>2021-11-11T09:11:38Z</time>
      </trkpt>
      <trkpt lat="50.54833" lon="4.54699">
        <ele>144</ele>
        <time>2021-11-11T09:11:40Z</time>
      </trkpt>
      <trkpt lat="50.54828" lon="4.54696">
        <ele>144</ele>
        <time>2021-11-11T09:11:42Z</time>
      </trkpt>
      <trkpt lat="50.54821" lon="4.54698">
        <ele>144</ele>
        <time>2021-11-11T09:11:44Z</time>
      </trkpt>
      <trkpt lat="50.54816" lon="4.54699">
        <ele>144</ele>
        <time>2021-11-11T09:11:46Z</time>
      </trkpt>
      <trkpt lat="50.54809" lon="4.54701">
        <ele>144</ele>
        <time>2021-11-11T09:11:48Z</time>
      </trkpt>
      <trkpt lat="50.54802" lon="4.54703">
        <ele>144</ele>
        <time>2021-11-11T09:11:50Z</time>
      </trkpt>
      <trkpt lat="50.54796" lon="4.54705">
        <ele>144</ele>
        <time>2021-11-11T09:11:52Z</time>
      </trkpt>
      <trkpt lat="50.54789" lon="4.54707">
        <ele>144</ele>
        <time>2021-11-11T09:11:54Z</time>
      </trkpt>
      <trkpt lat="50.54782" lon="4.54709">
        <ele>143</ele>
        <time>2021-11-11T09:11:56Z</time>
      </trkpt>
      <trkpt lat="50.54775" lon="4.54712">
        <ele>143</ele>
        <time>2021-11-11T09:11:58Z</time>
      </trkpt>
      <trkpt lat="50.54767" lon="4.54713">
        <ele>143</ele>
        <time>2021-11-11T09:12:00Z</time>
      </trkpt>
      <trkpt lat="50.54759" lon="4.54713">
        <ele>143</ele>
        <time>2021-11-11T09:12:02Z</time>
      </trkpt>
      <trkpt lat="50.54752" lon="4.54712">
        <ele>143</ele>
        <time>2021-11-11T09:12:04Z</time>
      </trkpt>
      <trkpt lat="50.54745" lon="4.54712">
        <ele>143</ele>
        <time>2021-11-11T09:12:06Z</time>
      </trkpt>
      <trkpt lat="50.54738" lon="4.54711">
        <ele>143</ele>
        <time>2021-11-11T09:12:08Z</time>
      </trkpt>
      <trkpt lat="50.54732" lon="4.54711">
        <ele>144</ele>
        <time>2021-11-11T09:12:10Z</time>
      </trkpt>
      <trkpt lat="50.54726" lon="4.54711">
        <ele>144</ele>
        <time>2021-11-11T09:12:12Z</time>
      </trkpt>
      <trkpt lat="50.5472" lon="4.54708">
        <ele>144</ele>
        <time>2021-11-11T09:12:14Z</time>
      </trkpt>
      <trkpt lat="50.54714" lon="4.54706">
        <ele>144</ele>
        <time>2021-11-11T09:12:16Z</time>
      </trkpt>
      <trkpt lat="50.54708" lon="4.54703">
        <ele>144</ele>
        <time>2021-11-11T09:12:18Z</time>
      </trkpt>
      <trkpt lat="50.54702" lon="4.54699">
        <ele>144</ele>
        <time>2021-11-11T09:12:20Z</time>
      </trkpt>
      <trkpt lat="50.54696" lon="4.54696">
        <ele>144</ele>
        <time>2021-11-11T09:12:22Z</time>
      </trkpt>
      <trkpt lat="50.54689" lon="4.54692">
        <ele>144</ele>
        <time>2021-11-11T09:12:24Z</time>
      </trkpt>
      <trkpt lat="50.54684" lon="4.54687">
        <ele>144</ele>
        <time>2021-11-11T09:12:26Z</time>
      </trkpt>
      <trkpt lat="50.54678" lon="4.54682">
        <ele>144</ele>
        <time>2021-11-11T09:12:28Z</time>
      </trkpt>
      <trkpt lat="50.54671" lon="4.54679">
        <ele>145</ele>
        <time>2021-11-11T09:12:30Z</time>
      </trkpt>
      <trkpt lat="50.54665" lon="4.54676">
        <ele>145</ele>
        <time>2021-11-11T09:12:32Z</time>
      </trkpt>
      <trkpt lat="50.54659" lon="4.54672">
        <ele>145</ele>
        <time>2021-11-11T09:12:34Z</time>
      </trkpt>
      <trkpt lat="50.54652" lon="4.54668">
        <ele>145</ele>
        <time>2021-11-11T09:12:36Z</time>
      </trkpt>
      <trkpt lat="50.54646" lon="4.54664">
        <ele>145</ele>
        <time>2021-11-11T09:12:38Z</time>
      </trkpt>
      <trkpt lat="50.5464" lon="4.5466">
        <ele>145</ele>
        <time>2021-11-11T09:12:40Z</time>
      </trkpt>
      <trkpt lat="50.54635" lon="4.54655">
        <ele>145</ele>
        <time>2021-11-11T09:12:42Z</time>
      </trkpt>
      <trkpt lat="50.54628" lon="4.5465">
        <ele>146</ele>
        <time>2021-11-11T09:12:44Z</time>
      </trkpt>
      <trkpt lat="50.54623" lon="4.54646">
        <ele>145</ele>
        <time>2021-11-11T09:12:46Z</time>
      </trkpt>
      <trkpt lat="50.54617" lon="4.54642">
        <ele>145</ele>
        <time>2021-11-11T09:12:48Z</time>
      </trkpt>
      <trkpt lat="50.54611" lon="4.54638">
        <ele>145</ele>
        <time>2021-11-11T09:12:50Z</time>
      </trkpt>
      <trkpt lat="50.54606" lon="4.54633">
        <ele>145</ele>
        <time>2021-11-11T09:12:52Z</time>
      </trkpt>
      <trkpt lat="50.546" lon="4.54629">
        <ele>145</ele>
        <time>2021-11-11T09:12:54Z</time>
      </trkpt>
      <trkpt lat="50.54594" lon="4.54624">
        <ele>145</ele>
        <time>2021-11-11T09:12:56Z</time>
      </trkpt>
      <trkpt lat="50.54589" lon="4.54619">
        <ele>145</ele>
        <time>2021-11-11T09:12:58Z</time>
      </trkpt>
      <trkpt lat="50.54583" lon="4.54615">
        <ele>145</ele>
        <time>2021-11-11T09:13:00Z</time>
      </trkpt>
      <trkpt lat="50.54577" lon="4.54611">
        <ele>145</ele>
        <time>2021-11-11T09:13:02Z</time>
      </trkpt>
      <trkpt lat="50.5457" lon="4.54606">
        <ele>145</ele>
        <time>2021-11-11T09:13:04Z</time>
      </trkpt>
      <trkpt lat="50.54564" lon="4.54601">
        <ele>146</ele>
        <time>2021-11-11T09:13:06Z</time>
      </trkpt>
      <trkpt lat="50.54557" lon="4.54596">
        <ele>145</ele>
        <time>2021-11-11T09:13:08Z</time>
      </trkpt>
      <trkpt lat="50.54551" lon="4.54592">
        <ele>145</ele>
        <time>2021-11-11T09:13:10Z</time>
      </trkpt>
      <trkpt lat="50.54544" lon="4.54587">
        <ele>145</ele>
        <time>2021-11-11T09:13:12Z</time>
      </trkpt>
      <trkpt lat="50.54538" lon="4.54583">
        <ele>145</ele>
        <time>2021-11-11T09:13:14Z</time>
      </trkpt>
      <trkpt lat="50.54531" lon="4.54579">
        <ele>145</ele>
        <time>2021-11-11T09:13:16Z</time>
      </trkpt>
      <trkpt lat="50.54524" lon="4.54575">
        <ele>145</ele>
        <time>2021-11-11T09:13:18Z</time>
      </trkpt>
      <trkpt lat="50.54518" lon="4.54571">
        <ele>145</ele>
        <time>2021-11-11T09:13:20Z</time>
      </trkpt>
      <trkpt lat="50.54511" lon="4.54568">
        <ele>144</ele>
        <time>2021-11-11T09:13:22Z</time>
      </trkpt>
      <trkpt lat="50.54504" lon="4.54564">
        <ele>144</ele>
        <time>2021-11-11T09:13:24Z</time>
      </trkpt>
      <trkpt lat="50.54497" lon="4.54561">
        <ele>144</ele>
        <time>2021-11-11T09:13:26Z</time>
      </trkpt>
      <trkpt lat="50.5449" lon="4.54557">
        <ele>144</ele>
        <time>2021-11-11T09:13:28Z</time>
      </trkpt>
      <trkpt lat="50.54483" lon="4.54555">
        <ele>144</ele>
        <time>2021-11-11T09:13:30Z</time>
      </trkpt>
      <trkpt lat="50.54475" lon="4.54551">
        <ele>144</ele>
        <time>2021-11-11T09:13:32Z</time>
      </trkpt>
      <trkpt lat="50.54469" lon="4.54549">
        <ele>144</ele>
        <time>2021-11-11T09:13:34Z</time>
      </trkpt>
      <trkpt lat="50.54462" lon="4.54547">
        <ele>144</ele>
        <time>2021-11-11T09:13:36Z</time>
      </trkpt>
      <trkpt lat="50.54454" lon="4.54545">
        <ele>143</ele>
        <time>2021-11-11T09:13:38Z</time>
      </trkpt>
      <trkpt lat="50.54447" lon="4.54543">
        <ele>143</ele>
        <time>2021-11-11T09:13:40Z</time>
      </trkpt>
      <trkpt lat="50.54439" lon="4.54542">
        <ele>144</ele>
        <time>2021-11-11T09:13:42Z</time>
      </trkpt>
      <trkpt lat="50.54431" lon="4.5454">
        <ele>144</ele>
        <time>2021-11-11T09:13:44Z</time>
      </trkpt>
      <trkpt lat="50.54424" lon="4.54539">
        <ele>143</ele>
        <time>2021-11-11T09:13:46Z</time>
      </trkpt>
      <trkpt lat="50.54416" lon="4.54537">
        <ele>143</ele>
        <time>2021-11-11T09:13:48Z</time>
      </trkpt>
      <trkpt lat="50.54409" lon="4.54536">
        <ele>143</ele>
        <time>2021-11-11T09:13:50Z</time>
      </trkpt>
      <trkpt lat="50.54401" lon="4.54535">
        <ele>144</ele>
        <time>2021-11-11T09:13:52Z</time>
      </trkpt>
      <trkpt lat="50.54394" lon="4.54534">
        <ele>144</ele>
        <time>2021-11-11T09:13:54Z</time>
      </trkpt>
      <trkpt lat="50.54386" lon="4.54533">
        <ele>144</ele>
        <time>2021-11-11T09:13:56Z</time>
      </trkpt>
      <trkpt lat="50.54378" lon="4.54531">
        <ele>144</ele>
        <time>2021-11-11T09:13:58Z</time>
      </trkpt>
      <trkpt lat="50.5437" lon="4.5453">
        <ele>144</ele>
        <time>2021-11-11T09:14:00Z</time>
      </trkpt>
      <trkpt lat="50.54362" lon="4.54528">
        <ele>144</ele>
        <time>2021-11-11T09:14:02Z</time>
      </trkpt>
      <trkpt lat="50.54355" lon="4.54527">
        <ele>144</ele>
        <time>2021-11-11T09:14:04Z</time>
      </trkpt>
      <trkpt lat="50.54347" lon="4.54526">
        <ele>145</ele>
        <time>2021-11-11T09:14:06Z</time>
      </trkpt>
      <trkpt lat="50.54339" lon="4.54525">
        <ele>145</ele>
        <time>2021-11-11T09:14:08Z</time>
      </trkpt>
      <trkpt lat="50.54331" lon="4.54523">
        <ele>145</ele>
        <time>2021-11-11T09:14:10Z</time>
      </trkpt>
      <trkpt lat="50.54323" lon="4.54522">
        <ele>145</ele>
        <time>2021-11-11T09:14:12Z</time>
      </trkpt>
      <trkpt lat="50.54316" lon="4.5452">
        <ele>146</ele>
        <time>2021-11-11T09:14:14Z</time>
      </trkpt>
      <trkpt lat="50.54308" lon="4.54518">
        <ele>146</ele>
        <time>2021-11-11T09:14:16Z</time>
      </trkpt>
      <trkpt lat="50.54301" lon="4.54517">
        <ele>146</ele>
        <time>2021-11-11T09:14:18Z</time>
      </trkpt>
      <trkpt lat="50.54294" lon="4.54516">
        <ele>146</ele>
        <time>2021-11-11T09:14:20Z</time>
      </trkpt>
      <trkpt lat="50.54286" lon="4.54514">
        <ele>147</ele>
        <time>2021-11-11T09:14:22Z</time>
      </trkpt>
      <trkpt lat="50.54278" lon="4.54512">
        <ele>147</ele>
        <time>2021-11-11T09:14:24Z</time>
      </trkpt>
      <trkpt lat="50.54271" lon="4.54511">
        <ele>147</ele>
        <time>2021-11-11T09:14:26Z</time>
      </trkpt>
      <trkpt lat="50.54264" lon="4.5451">
        <ele>149</ele>
        <time>2021-11-11T09:14:28Z</time>
      </trkpt>
      <trkpt lat="50.54257" lon="4.54508">
        <ele>149</ele>
        <time>2021-11-11T09:14:30Z</time>
      </trkpt>
      <trkpt lat="50.5425" lon="4.54507">
        <ele>149</ele>
        <time>2021-11-11T09:14:32Z</time>
      </trkpt>
      <trkpt lat="50.54243" lon="4.54505">
        <ele>149</ele>
        <time>2021-11-11T09:14:34Z</time>
      </trkpt>
      <trkpt lat="50.54236" lon="4.54504">
        <ele>151</ele>
        <time>2021-11-11T09:14:36Z</time>
      </trkpt>
      <trkpt lat="50.54229" lon="4.54503">
        <ele>151</ele>
        <time>2021-11-11T09:14:38Z</time>
      </trkpt>
      <trkpt lat="50.54221" lon="4.54502">
        <ele>151</ele>
        <time>2021-11-11T09:14:40Z</time>
      </trkpt>
      <trkpt lat="50.54215" lon="4.54501">
        <ele>151</ele>
        <time>2021-11-11T09:14:42Z</time>
      </trkpt>
      <trkpt lat="50.54208" lon="4.545">
        <ele>152</ele>
        <time>2021-11-11T09:14:44Z</time>
      </trkpt>
      <trkpt lat="50.54201" lon="4.54498">
        <ele>152</ele>
        <time>2021-11-11T09:14:46Z</time>
      </trkpt>
      <trkpt lat="50.54194" lon="4.54496">
        <ele>152</ele>
        <time>2021-11-11T09:14:48Z</time>
      </trkpt>
      <trkpt lat="50.54187" lon="4.54495">
        <ele>152</ele>
        <time>2021-11-11T09:14:50Z</time>
      </trkpt>
      <trkpt lat="50.5418" lon="4.54493">
        <ele>151</ele>
        <time>2021-11-11T09:14:52Z</time>
      </trkpt>
      <trkpt lat="50.54174" lon="4.54492">
        <ele>151</ele>
        <time>2021-11-11T09:14:54Z</time>
      </trkpt>
      <trkpt lat="50.54168" lon="4.54491">
        <ele>151</ele>
        <time>2021-11-11T09:14:56Z</time>
      </trkpt>
      <trkpt lat="50.54162" lon="4.5449">
        <ele>151</ele>
        <time>2021-11-11T09:14:58Z</time>
      </trkpt>
      <trkpt lat="50.54156" lon="4.54488">
        <ele>151</ele>
        <time>2021-11-11T09:15:00Z</time>
      </trkpt>
      <trkpt lat="50.5415" lon="4.54484">
        <ele>151</ele>
        <time>2021-11-11T09:15:02Z</time>
      </trkpt>
      <trkpt lat="50.54146" lon="4.54478">
        <ele>151</ele>
        <time>2021-11-11T09:15:04Z</time>
      </trkpt>
      <trkpt lat="50.54141" lon="4.54471">
        <ele>151</ele>
        <time>2021-11-11T09:15:06Z</time>
      </trkpt>
      <trkpt lat="50.54136" lon="4.54464">
        <ele>151</ele>
        <time>2021-11-11T09:15:08Z</time>
      </trkpt>
      <trkpt lat="50.54132" lon="4.54457">
        <ele>151</ele>
        <time>2021-11-11T09:15:10Z</time>
      </trkpt>
      <trkpt lat="50.54126" lon="4.5445">
        <ele>151</ele>
        <time>2021-11-11T09:15:12Z</time>
      </trkpt>
      <trkpt lat="50.54121" lon="4.54443">
        <ele>152</ele>
        <time>2021-11-11T09:15:14Z</time>
      </trkpt>
      <trkpt lat="50.54116" lon="4.54436">
        <ele>152</ele>
        <time>2021-11-11T09:15:16Z</time>
      </trkpt>
      <trkpt lat="50.5411" lon="4.54429">
        <ele>150</ele>
        <time>2021-11-11T09:15:18Z</time>
      </trkpt>
      <trkpt lat="50.54104" lon="4.54422">
        <ele>150</ele>
        <time>2021-11-11T09:15:20Z</time>
      </trkpt>
      <trkpt lat="50.54097" lon="4.54415">
        <ele>150</ele>
        <time>2021-11-11T09:15:22Z</time>
      </trkpt>
      <trkpt lat="50.54091" lon="4.54409">
        <ele>151</ele>
        <time>2021-11-11T09:15:24Z</time>
      </trkpt>
      <trkpt lat="50.54084" lon="4.54402">
        <ele>152</ele>
        <time>2021-11-11T09:15:26Z</time>
      </trkpt>
      <trkpt lat="50.54078" lon="4.54396">
        <ele>152</ele>
        <time>2021-11-11T09:15:28Z</time>
      </trkpt>
      <trkpt lat="50.54071" lon="4.5439">
        <ele>152</ele>
        <time>2021-11-11T09:15:30Z</time>
      </trkpt>
      <trkpt lat="50.54064" lon="4.54385">
        <ele>151</ele>
        <time>2021-11-11T09:15:32Z</time>
      </trkpt>
      <trkpt lat="50.54056" lon="4.54381">
        <ele>151</ele>
        <time>2021-11-11T09:15:34Z</time>
      </trkpt>
      <trkpt lat="50.54049" lon="4.54378">
        <ele>151</ele>
        <time>2021-11-11T09:15:36Z</time>
      </trkpt>
      <trkpt lat="50.5404" lon="4.54376">
        <ele>151</ele>
        <time>2021-11-11T09:15:38Z</time>
      </trkpt>
      <trkpt lat="50.54031" lon="4.54374">
        <ele>149</ele>
        <time>2021-11-11T09:15:40Z</time>
      </trkpt>
      <trkpt lat="50.54022" lon="4.54372">
        <ele>149</ele>
        <time>2021-11-11T09:15:42Z</time>
      </trkpt>
      <trkpt lat="50.54014" lon="4.54368">
        <ele>150</ele>
        <time>2021-11-11T09:15:44Z</time>
      </trkpt>
      <trkpt lat="50.54005" lon="4.54363">
        <ele>150</ele>
        <time>2021-11-11T09:15:46Z</time>
      </trkpt>
      <trkpt lat="50.53997" lon="4.54358">
        <ele>150</ele>
        <time>2021-11-11T09:15:48Z</time>
      </trkpt>
      <trkpt lat="50.53989" lon="4.54354">
        <ele>150</ele>
        <time>2021-11-11T09:15:50Z</time>
      </trkpt>
      <trkpt lat="50.53982" lon="4.5435">
        <ele>151</ele>
        <time>2021-11-11T09:15:52Z</time>
      </trkpt>
      <trkpt lat="50.53975" lon="4.54346">
        <ele>150</ele>
        <time>2021-11-11T09:15:54Z</time>
      </trkpt>
      <trkpt lat="50.53968" lon="4.54343">
        <ele>150</ele>
        <time>2021-11-11T09:15:56Z</time>
      </trkpt>
      <trkpt lat="50.5396" lon="4.54343">
        <ele>150</ele>
        <time>2021-11-11T09:15:58Z</time>
      </trkpt>
      <trkpt lat="50.53952" lon="4.54344">
        <ele>153</ele>
        <time>2021-11-11T09:16:00Z</time>
      </trkpt>
      <trkpt lat="50.53945" lon="4.54346">
        <ele>153</ele>
        <time>2021-11-11T09:16:02Z</time>
      </trkpt>
      <trkpt lat="50.53937" lon="4.54347">
        <ele>153</ele>
        <time>2021-11-11T09:16:04Z</time>
      </trkpt>
      <trkpt lat="50.53929" lon="4.54347">
        <ele>154</ele>
        <time>2021-11-11T09:16:06Z</time>
      </trkpt>
      <trkpt lat="50.53921" lon="4.54346">
        <ele>154</ele>
        <time>2021-11-11T09:16:08Z</time>
      </trkpt>
      <trkpt lat="50.53912" lon="4.54345">
        <ele>154</ele>
        <time>2021-11-11T09:16:10Z</time>
      </trkpt>
      <trkpt lat="50.53904" lon="4.54343">
        <ele>154</ele>
        <time>2021-11-11T09:16:12Z</time>
      </trkpt>
      <trkpt lat="50.53895" lon="4.54342">
        <ele>154</ele>
        <time>2021-11-11T09:16:14Z</time>
      </trkpt>
      <trkpt lat="50.53886" lon="4.54339">
        <ele>154</ele>
        <time>2021-11-11T09:16:16Z</time>
      </trkpt>
      <trkpt lat="50.53878" lon="4.54337">
        <ele>154</ele>
        <time>2021-11-11T09:16:18Z</time>
      </trkpt>
      <trkpt lat="50.5387" lon="4.54334">
        <ele>153</ele>
        <time>2021-11-11T09:16:20Z</time>
      </trkpt>
      <trkpt lat="50.53862" lon="4.54332">
        <ele>153</ele>
        <time>2021-11-11T09:16:22Z</time>
      </trkpt>
      <trkpt lat="50.53853" lon="4.54329">
        <ele>153</ele>
        <time>2021-11-11T09:16:24Z</time>
      </trkpt>
      <trkpt lat="50.53845" lon="4.54327">
        <ele>150</ele>
        <time>2021-11-11T09:16:26Z</time>
      </trkpt>
      <trkpt lat="50.53837" lon="4.54325">
        <ele>150</ele>
        <time>2021-11-11T09:16:28Z</time>
      </trkpt>
      <trkpt lat="50.53829" lon="4.54322">
        <ele>150</ele>
        <time>2021-11-11T09:16:30Z</time>
      </trkpt>
      <trkpt lat="50.5382" lon="4.5432">
        <ele>150</ele>
        <time>2021-11-11T09:16:32Z</time>
      </trkpt>
      <trkpt lat="50.53812" lon="4.54318">
        <ele>150</ele>
        <time>2021-11-11T09:16:34Z</time>
      </trkpt>
      <trkpt lat="50.53804" lon="4.54315">
        <ele>150</ele>
        <time>2021-11-11T09:16:36Z</time>
      </trkpt>
      <trkpt lat="50.53796" lon="4.54313">
        <ele>150</ele>
        <time>2021-11-11T09:16:38Z</time>
      </trkpt>
      <trkpt lat="50.53789" lon="4.54311">
        <ele>151</ele>
        <time>2021-11-11T09:16:40Z</time>
      </trkpt>
      <trkpt lat="50.53782" lon="4.54309">
        <ele>151</ele>
        <time>2021-11-11T09:16:42Z</time>
      </trkpt>
      <trkpt lat="50.53774" lon="4.54307">
        <ele>151</ele>
        <time>2021-11-11T09:16:44Z</time>
      </trkpt>
      <trkpt lat="50.53766" lon="4.54305">
        <ele>151</ele>
        <time>2021-11-11T09:16:46Z</time>
      </trkpt>
      <trkpt lat="50.53758" lon="4.54302">
        <ele>152</ele>
        <time>2021-11-11T09:16:48Z</time>
      </trkpt>
      <trkpt lat="50.53752" lon="4.54299">
        <ele>152</ele>
        <time>2021-11-11T09:16:50Z</time>
      </trkpt>
      <trkpt lat="50.53746" lon="4.54296">
        <ele>152</ele>
        <time>2021-11-11T09:16:52Z</time>
      </trkpt>
      <trkpt lat="50.53742" lon="4.54293">
        <ele>152</ele>
        <time>2021-11-11T09:16:54Z</time>
      </trkpt>
      <trkpt lat="50.53735" lon="4.54291">
        <ele>152</ele>
        <time>2021-11-11T09:16:56Z</time>
      </trkpt>
      <trkpt lat="50.53729" lon="4.54287">
        <ele>152</ele>
        <time>2021-11-11T09:16:58Z</time>
      </trkpt>
      <trkpt lat="50.53722" lon="4.54287">
        <ele>152</ele>
        <time>2021-11-11T09:17:00Z</time>
      </trkpt>
      <trkpt lat="50.53713" lon="4.54288">
        <ele>152</ele>
        <time>2021-11-11T09:17:02Z</time>
      </trkpt>
      <trkpt lat="50.53706" lon="4.54288">
        <ele>151</ele>
        <time>2021-11-11T09:17:04Z</time>
      </trkpt>
      <trkpt lat="50.53699" lon="4.54287">
        <ele>151</ele>
        <time>2021-11-11T09:17:06Z</time>
      </trkpt>
      <trkpt lat="50.53692" lon="4.54288">
        <ele>151</ele>
        <time>2021-11-11T09:17:08Z</time>
      </trkpt>
      <trkpt lat="50.53685" lon="4.54287">
        <ele>151</ele>
        <time>2021-11-11T09:17:10Z</time>
      </trkpt>
      <trkpt lat="50.53678" lon="4.54287">
        <ele>151</ele>
        <time>2021-11-11T09:17:12Z</time>
      </trkpt>
      <trkpt lat="50.53671" lon="4.54287">
        <ele>151</ele>
        <time>2021-11-11T09:17:14Z</time>
      </trkpt>
      <trkpt lat="50.53665" lon="4.54287">
        <ele>151</ele>
        <time>2021-11-11T09:17:16Z</time>
      </trkpt>
      <trkpt lat="50.53659" lon="4.54288">
        <ele>151</ele>
        <time>2021-11-11T09:17:18Z</time>
      </trkpt>
      <trkpt lat="50.53653" lon="4.54288">
        <ele>151</ele>
        <time>2021-11-11T09:17:20Z</time>
      </trkpt>
      <trkpt lat="50.53646" lon="4.54287">
        <ele>151</ele>
        <time>2021-11-11T09:17:22Z</time>
      </trkpt>
      <trkpt lat="50.53638" lon="4.54286">
        <ele>151</ele>
        <time>2021-11-11T09:17:24Z</time>
      </trkpt>
      <trkpt lat="50.53629" lon="4.54285">
        <ele>151</ele>
        <time>2021-11-11T09:17:26Z</time>
      </trkpt>
      <trkpt lat="50.53621" lon="4.54284">
        <ele>150</ele>
        <time>2021-11-11T09:17:28Z</time>
      </trkpt>
      <trkpt lat="50.53613" lon="4.54283">
        <ele>150</ele>
        <time>2021-11-11T09:17:30Z</time>
      </trkpt>
      <trkpt lat="50.53605" lon="4.54283">
        <ele>150</ele>
        <time>2021-11-11T09:17:32Z</time>
      </trkpt>
      <trkpt lat="50.53597" lon="4.54283">
        <ele>150</ele>
        <time>2021-11-11T09:17:34Z</time>
      </trkpt>
      <trkpt lat="50.5359" lon="4.54283">
        <ele>149</ele>
        <time>2021-11-11T09:17:36Z</time>
      </trkpt>
      <trkpt lat="50.53582" lon="4.54282">
        <ele>149</ele>
        <time>2021-11-11T09:17:38Z</time>
      </trkpt>
      <trkpt lat="50.53574" lon="4.54282">
        <ele>149</ele>
        <time>2021-11-11T09:17:40Z</time>
      </trkpt>
      <trkpt lat="50.53566" lon="4.54282">
        <ele>150</ele>
        <time>2021-11-11T09:17:42Z</time>
      </trkpt>
      <trkpt lat="50.53558" lon="4.54282">
        <ele>150</ele>
        <time>2021-11-11T09:17:44Z</time>
      </trkpt>
      <trkpt lat="50.5355" lon="4.54282">
        <ele>150</ele>
        <time>2021-11-11T09:17:46Z</time>
      </trkpt>
      <trkpt lat="50.53542" lon="4.54283">
        <ele>150</ele>
        <time>2021-11-11T09:17:48Z</time>
      </trkpt>
      <trkpt lat="50.53534" lon="4.54283">
        <ele>151</ele>
        <time>2021-11-11T09:17:50Z</time>
      </trkpt>
      <trkpt lat="50.53527" lon="4.54284">
        <ele>151</ele>
        <time>2021-11-11T09:17:52Z</time>
      </trkpt>
      <trkpt lat="50.53519" lon="4.54284">
        <ele>151</ele>
        <time>2021-11-11T09:17:54Z</time>
      </trkpt>
      <trkpt lat="50.53512" lon="4.54285">
        <ele>150</ele>
        <time>2021-11-11T09:17:56Z</time>
      </trkpt>
      <trkpt lat="50.53504" lon="4.54286">
        <ele>150</ele>
        <time>2021-11-11T09:17:58Z</time>
      </trkpt>
      <trkpt lat="50.53496" lon="4.54286">
        <ele>150</ele>
        <time>2021-11-11T09:18:00Z</time>
      </trkpt>
      <trkpt lat="50.53488" lon="4.54287">
        <ele>150</ele>
        <time>2021-11-11T09:18:02Z</time>
      </trkpt>
      <trkpt lat="50.5348" lon="4.54288">
        <ele>149</ele>
        <time>2021-11-11T09:18:04Z</time>
      </trkpt>
      <trkpt lat="50.53473" lon="4.54289">
        <ele>149</ele>
        <time>2021-11-11T09:18:06Z</time>
      </trkpt>
      <trkpt lat="50.53465" lon="4.5429">
        <ele>149</ele>
        <time>2021-11-11T09:18:08Z</time>
      </trkpt>
      <trkpt lat="50.53458" lon="4.54291">
        <ele>149</ele>
        <time>2021-11-11T09:18:10Z</time>
      </trkpt>
      <trkpt lat="50.5345" lon="4.54292">
        <ele>151</ele>
        <time>2021-11-11T09:18:12Z</time>
      </trkpt>
      <trkpt lat="50.53443" lon="4.54292">
        <ele>151</ele>
        <time>2021-11-11T09:18:14Z</time>
      </trkpt>
      <trkpt lat="50.53436" lon="4.54293">
        <ele>151</ele>
        <time>2021-11-11T09:18:16Z</time>
      </trkpt>
      <trkpt lat="50.53428" lon="4.54293">
        <ele>151</ele>
        <time>2021-11-11T09:18:18Z</time>
      </trkpt>
      <trkpt lat="50.53421" lon="4.54294">
        <ele>151</ele>
        <time>2021-11-11T09:18:20Z</time>
      </trkpt>
      <trkpt lat="50.53413" lon="4.54295">
        <ele>151</ele>
        <time>2021-11-11T09:18:22Z</time>
      </trkpt>
      <trkpt lat="50.53406" lon="4.54296">
        <ele>151</ele>
        <time>2021-11-11T09:18:24Z</time>
      </trkpt>
      <trkpt lat="50.53398" lon="4.54297">
        <ele>151</ele>
        <time>2021-11-11T09:18:26Z</time>
      </trkpt>
      <trkpt lat="50.53391" lon="4.54297">
        <ele>151</ele>
        <time>2021-11-11T09:18:28Z</time>
      </trkpt>
      <trkpt lat="50.53383" lon="4.54298">
        <ele>151</ele>
        <time>2021-11-11T09:18:30Z</time>
      </trkpt>
      <trkpt lat="50.53376" lon="4.54298">
        <ele>151</ele>
        <time>2021-11-11T09:18:32Z</time>
      </trkpt>
      <trkpt lat="50.53368" lon="4.54298">
        <ele>151</ele>
        <time>2021-11-11T09:18:34Z</time>
      </trkpt>
      <trkpt lat="50.5336" lon="4.54299">
        <ele>151</ele>
        <time>2021-11-11T09:18:36Z</time>
      </trkpt>
      <trkpt lat="50.53352" lon="4.54299">
        <ele>151</ele>
        <time>2021-11-11T09:18:38Z</time>
      </trkpt>
      <trkpt lat="50.53345" lon="4.54299">
        <ele>151</ele>
        <time>2021-11-11T09:18:40Z</time>
      </trkpt>
      <trkpt lat="50.53337" lon="4.54299">
        <ele>151</ele>
        <time>2021-11-11T09:18:42Z</time>
      </trkpt>
      <trkpt lat="50.5333" lon="4.54299">
        <ele>151</ele>
        <time>2021-11-11T09:18:44Z</time>
      </trkpt>
      <trkpt lat="50.53323" lon="4.54299">
        <ele>151</ele>
        <time>2021-11-11T09:18:46Z</time>
      </trkpt>
      <trkpt lat="50.53316" lon="4.54299">
        <ele>152</ele>
        <time>2021-11-11T09:18:48Z</time>
      </trkpt>
      <trkpt lat="50.53309" lon="4.543">
        <ele>152</ele>
        <time>2021-11-11T09:18:50Z</time>
      </trkpt>
      <trkpt lat="50.53301" lon="4.54301">
        <ele>152</ele>
        <time>2021-11-11T09:18:52Z</time>
      </trkpt>
      <trkpt lat="50.53294" lon="4.543">
        <ele>152</ele>
        <time>2021-11-11T09:18:54Z</time>
      </trkpt>
      <trkpt lat="50.53286" lon="4.54301">
        <ele>152</ele>
        <time>2021-11-11T09:18:56Z</time>
      </trkpt>
      <trkpt lat="50.53278" lon="4.543">
        <ele>152</ele>
        <time>2021-11-11T09:18:58Z</time>
      </trkpt>
      <trkpt lat="50.53271" lon="4.54299">
        <ele>152</ele>
        <time>2021-11-11T09:19:00Z</time>
      </trkpt>
      <trkpt lat="50.53264" lon="4.54298">
        <ele>152</ele>
        <time>2021-11-11T09:19:02Z</time>
      </trkpt>
      <trkpt lat="50.53256" lon="4.54296">
        <ele>152</ele>
        <time>2021-11-11T09:19:04Z</time>
      </trkpt>
      <trkpt lat="50.53249" lon="4.54294">
        <ele>152</ele>
        <time>2021-11-11T09:19:06Z</time>
      </trkpt>
      <trkpt lat="50.53242" lon="4.54292">
        <ele>152</ele>
        <time>2021-11-11T09:19:08Z</time>
      </trkpt>
      <trkpt lat="50.53235" lon="4.5429">
        <ele>153</ele>
        <time>2021-11-11T09:19:10Z</time>
      </trkpt>
      <trkpt lat="50.53227" lon="4.54289">
        <ele>153</ele>
        <time>2021-11-11T09:19:12Z</time>
      </trkpt>
      <trkpt lat="50.5322" lon="4.54287">
        <ele>153</ele>
        <time>2021-11-11T09:19:14Z</time>
      </trkpt>
      <trkpt lat="50.53212" lon="4.54285">
        <ele>153</ele>
        <time>2021-11-11T09:19:16Z</time>
      </trkpt>
      <trkpt lat="50.53205" lon="4.54284">
        <ele>153</ele>
        <time>2021-11-11T09:19:18Z</time>
      </trkpt>
      <trkpt lat="50.53198" lon="4.54282">
        <ele>153</ele>
        <time>2021-11-11T09:19:20Z</time>
      </trkpt>
      <trkpt lat="50.53191" lon="4.5428">
        <ele>153</ele>
        <time>2021-11-11T09:19:22Z</time>
      </trkpt>
      <trkpt lat="50.53183" lon="4.54278">
        <ele>153</ele>
        <time>2021-11-11T09:19:24Z</time>
      </trkpt>
      <trkpt lat="50.53176" lon="4.54277">
        <ele>153</ele>
        <time>2021-11-11T09:19:26Z</time>
      </trkpt>
      <trkpt lat="50.53169" lon="4.54276">
        <ele>153</ele>
        <time>2021-11-11T09:19:28Z</time>
      </trkpt>
      <trkpt lat="50.53161" lon="4.54275">
        <ele>153</ele>
        <time>2021-11-11T09:19:30Z</time>
      </trkpt>
      <trkpt lat="50.53153" lon="4.54274">
        <ele>153</ele>
        <time>2021-11-11T09:19:32Z</time>
      </trkpt>
      <trkpt lat="50.53144" lon="4.54274">
        <ele>153</ele>
        <time>2021-11-11T09:19:34Z</time>
      </trkpt>
      <trkpt lat="50.53136" lon="4.54273">
        <ele>153</ele>
        <time>2021-11-11T09:19:36Z</time>
      </trkpt>
      <trkpt lat="50.53128" lon="4.54273">
        <ele>153</ele>
        <time>2021-11-11T09:19:38Z</time>
      </trkpt>
      <trkpt lat="50.5312" lon="4.54272">
        <ele>154</ele>
        <time>2021-11-11T09:19:40Z</time>
      </trkpt>
      <trkpt lat="50.53112" lon="4.54272">
        <ele>154</ele>
        <time>2021-11-11T09:19:42Z</time>
      </trkpt>
      <trkpt lat="50.53105" lon="4.54271">
        <ele>154</ele>
        <time>2021-11-11T09:19:44Z</time>
      </trkpt>
      <trkpt lat="50.53097" lon="4.54271">
        <ele>155</ele>
        <time>2021-11-11T09:19:46Z</time>
      </trkpt>
      <trkpt lat="50.5309" lon="4.54272">
        <ele>155</ele>
        <time>2021-11-11T09:19:48Z</time>
      </trkpt>
      <trkpt lat="50.53082" lon="4.54272">
        <ele>155</ele>
        <time>2021-11-11T09:19:50Z</time>
      </trkpt>
      <trkpt lat="50.53074" lon="4.54273">
        <ele>155</ele>
        <time>2021-11-11T09:19:52Z</time>
      </trkpt>
      <trkpt lat="50.53066" lon="4.54274">
        <ele>155</ele>
        <time>2021-11-11T09:19:54Z</time>
      </trkpt>
      <trkpt lat="50.53059" lon="4.54275">
        <ele>155</ele>
        <time>2021-11-11T09:19:56Z</time>
      </trkpt>
      <trkpt lat="50.53051" lon="4.54276">
        <ele>155</ele>
        <time>2021-11-11T09:19:58Z</time>
      </trkpt>
      <trkpt lat="50.53043" lon="4.54278">
        <ele>155</ele>
        <time>2021-11-11T09:20:00Z</time>
      </trkpt>
      <trkpt lat="50.53035" lon="4.5428">
        <ele>156</ele>
        <time>2021-11-11T09:20:02Z</time>
      </trkpt>
      <trkpt lat="50.53027" lon="4.54281">
        <ele>156</ele>
        <time>2021-11-11T09:20:04Z</time>
      </trkpt>
      <trkpt lat="50.53019" lon="4.54281">
        <ele>156</ele>
        <time>2021-11-11T09:20:06Z</time>
      </trkpt>
      <trkpt lat="50.53011" lon="4.54282">
        <ele>156</ele>
        <time>2021-11-11T09:20:08Z</time>
      </trkpt>
      <trkpt lat="50.53003" lon="4.54283">
        <ele>156</ele>
        <time>2021-11-11T09:20:10Z</time>
      </trkpt>
      <trkpt lat="50.52995" lon="4.54284">
        <ele>156</ele>
        <time>2021-11-11T09:20:12Z</time>
      </trkpt>
      <trkpt lat="50.52987" lon="4.54285">
        <ele>156</ele>
        <time>2021-11-11T09:20:14Z</time>
      </trkpt>
      <trkpt lat="50.52979" lon="4.54286">
        <ele>156</ele>
        <time>2021-11-11T09:20:16Z</time>
      </trkpt>
      <trkpt lat="50.5297" lon="4.54287">
        <ele>156</ele>
        <time>2021-11-11T09:20:18Z</time>
      </trkpt>
      <trkpt lat="50.52962" lon="4.54289">
        <ele>156</ele>
        <time>2021-11-11T09:20:20Z</time>
      </trkpt>
      <trkpt lat="50.52953" lon="4.5429">
        <ele>156</ele>
        <time>2021-11-11T09:20:22Z</time>
      </trkpt>
      <trkpt lat="50.52945" lon="4.54292">
        <ele>157</ele>
        <time>2021-11-11T09:20:24Z</time>
      </trkpt>
      <trkpt lat="50.52937" lon="4.54293">
        <ele>157</ele>
        <time>2021-11-11T09:20:26Z</time>
      </trkpt>
      <trkpt lat="50.52928" lon="4.54294">
        <ele>157</ele>
        <time>2021-11-11T09:20:28Z</time>
      </trkpt>
      <trkpt lat="50.5292" lon="4.54294">
        <ele>157</ele>
        <time>2021-11-11T09:20:30Z</time>
      </trkpt>
      <trkpt lat="50.52913" lon="4.54293">
        <ele>157</ele>
        <time>2021-11-11T09:20:32Z</time>
      </trkpt>
      <trkpt lat="50.52904" lon="4.54293">
        <ele>157</ele>
        <time>2021-11-11T09:20:34Z</time>
      </trkpt>
      <trkpt lat="50.52896" lon="4.54291">
        <ele>159</ele>
        <time>2021-11-11T09:20:36Z</time>
      </trkpt>
      <trkpt lat="50.52888" lon="4.54289">
        <ele>159</ele>
        <time>2021-11-11T09:20:38Z</time>
      </trkpt>
      <trkpt lat="50.52881" lon="4.54286">
        <ele>159</ele>
        <time>2021-11-11T09:20:40Z</time>
      </trkpt>
      <trkpt lat="50.52873" lon="4.54283">
        <ele>159</ele>
        <time>2021-11-11T09:20:42Z</time>
      </trkpt>
      <trkpt lat="50.52865" lon="4.5428">
        <ele>159</ele>
        <time>2021-11-11T09:20:44Z</time>
      </trkpt>
      <trkpt lat="50.52858" lon="4.54277">
        <ele>159</ele>
        <time>2021-11-11T09:20:46Z</time>
      </trkpt>
      <trkpt lat="50.5285" lon="4.54274">
        <ele>159</ele>
        <time>2021-11-11T09:20:48Z</time>
      </trkpt>
      <trkpt lat="50.52844" lon="4.54272">
        <ele>160</ele>
        <time>2021-11-11T09:20:50Z</time>
      </trkpt>
      <trkpt lat="50.52836" lon="4.54269">
        <ele>160</ele>
        <time>2021-11-11T09:20:52Z</time>
      </trkpt>
      <trkpt lat="50.52829" lon="4.54266">
        <ele>160</ele>
        <time>2021-11-11T09:20:54Z</time>
      </trkpt>
      <trkpt lat="50.52821" lon="4.54264">
        <ele>159</ele>
        <time>2021-11-11T09:20:56Z</time>
      </trkpt>
      <trkpt lat="50.52813" lon="4.54261">
        <ele>159</ele>
        <time>2021-11-11T09:20:58Z</time>
      </trkpt>
      <trkpt lat="50.52805" lon="4.54259">
        <ele>159</ele>
        <time>2021-11-11T09:21:00Z</time>
      </trkpt>
      <trkpt lat="50.52797" lon="4.54257">
        <ele>159</ele>
        <time>2021-11-11T09:21:02Z</time>
      </trkpt>
      <trkpt lat="50.52788" lon="4.54256">
        <ele>158</ele>
        <time>2021-11-11T09:21:04Z</time>
      </trkpt>
      <trkpt lat="50.5278" lon="4.54254">
        <ele>158</ele>
        <time>2021-11-11T09:21:06Z</time>
      </trkpt>
      <trkpt lat="50.52772" lon="4.54252">
        <ele>158</ele>
        <time>2021-11-11T09:21:08Z</time>
      </trkpt>
      <trkpt lat="50.52764" lon="4.54251">
        <ele>157</ele>
        <time>2021-11-11T09:21:10Z</time>
      </trkpt>
      <trkpt lat="50.52755" lon="4.54249">
        <ele>157</ele>
        <time>2021-11-11T09:21:12Z</time>
      </trkpt>
      <trkpt lat="50.52747" lon="4.54248">
        <ele>157</ele>
        <time>2021-11-11T09:21:14Z</time>
      </trkpt>
      <trkpt lat="50.52739" lon="4.5425">
        <ele>157</ele>
        <time>2021-11-11T09:21:16Z</time>
      </trkpt>
      <trkpt lat="50.52731" lon="4.54254">
        <ele>156</ele>
        <time>2021-11-11T09:21:18Z</time>
      </trkpt>
      <trkpt lat="50.52726" lon="4.5426">
        <ele>156</ele>
        <time>2021-11-11T09:21:20Z</time>
      </trkpt>
      <trkpt lat="50.52719" lon="4.54266">
        <ele>155</ele>
        <time>2021-11-11T09:21:22Z</time>
      </trkpt>
      <trkpt lat="50.52712" lon="4.54273">
        <ele>155</ele>
        <time>2021-11-11T09:21:24Z</time>
      </trkpt>
      <trkpt lat="50.52704" lon="4.5428">
        <ele>154</ele>
        <time>2021-11-11T09:21:26Z</time>
      </trkpt>
      <trkpt lat="50.52694" lon="4.54288">
        <ele>154</ele>
        <time>2021-11-11T09:21:28Z</time>
      </trkpt>
      <trkpt lat="50.52683" lon="4.54296">
        <ele>155</ele>
        <time>2021-11-11T09:21:30Z</time>
      </trkpt>
      <trkpt lat="50.52671" lon="4.54303">
        <ele>154</ele>
        <time>2021-11-11T09:21:32Z</time>
      </trkpt>
      <trkpt lat="50.52659" lon="4.54308">
        <ele>154</ele>
        <time>2021-11-11T09:21:34Z</time>
      </trkpt>
      <trkpt lat="50.52646" lon="4.54313">
        <ele>153</ele>
        <time>2021-11-11T09:21:36Z</time>
      </trkpt>
      <trkpt lat="50.52632" lon="4.54318">
        <ele>153</ele>
        <time>2021-11-11T09:21:38Z</time>
      </trkpt>
      <trkpt lat="50.52618" lon="4.54323">
        <ele>151</ele>
        <time>2021-11-11T09:21:40Z</time>
      </trkpt>
      <trkpt lat="50.52604" lon="4.54326">
        <ele>151</ele>
        <time>2021-11-11T09:21:42Z</time>
      </trkpt>
      <trkpt lat="50.5259" lon="4.54328">
        <ele>149</ele>
        <time>2021-11-11T09:21:44Z</time>
      </trkpt>
      <trkpt lat="50.52577" lon="4.54328">
        <ele>149</ele>
        <time>2021-11-11T09:21:46Z</time>
      </trkpt>
      <trkpt lat="50.52564" lon="4.54328">
        <ele>149</ele>
        <time>2021-11-11T09:21:48Z</time>
      </trkpt>
      <trkpt lat="50.52551" lon="4.54328">
        <ele>149</ele>
        <time>2021-11-11T09:21:50Z</time>
      </trkpt>
      <trkpt lat="50.52539" lon="4.54328">
        <ele>149</ele>
        <time>2021-11-11T09:21:52Z</time>
      </trkpt>
      <trkpt lat="50.52527" lon="4.54328">
        <ele>149</ele>
        <time>2021-11-11T09:21:54Z</time>
      </trkpt>
      <trkpt lat="50.52516" lon="4.54328">
        <ele>149</ele>
        <time>2021-11-11T09:21:56Z</time>
      </trkpt>
      <trkpt lat="50.52505" lon="4.54328">
        <ele>149</ele>
        <time>2021-11-11T09:21:58Z</time>
      </trkpt>
      <trkpt lat="50.52495" lon="4.54329">
        <ele>149</ele>
        <time>2021-11-11T09:22:00Z</time>
      </trkpt>
      <trkpt lat="50.52486" lon="4.54329">
        <ele>148</ele>
        <time>2021-11-11T09:22:02Z</time>
      </trkpt>
      <trkpt lat="50.52476" lon="4.54329">
        <ele>148</ele>
        <time>2021-11-11T09:22:04Z</time>
      </trkpt>
      <trkpt lat="50.52465" lon="4.54329">
        <ele>148</ele>
        <time>2021-11-11T09:22:06Z</time>
      </trkpt>
      <trkpt lat="50.52455" lon="4.54329">
        <ele>147</ele>
        <time>2021-11-11T09:22:08Z</time>
      </trkpt>
      <trkpt lat="50.52445" lon="4.54329">
        <ele>147</ele>
        <time>2021-11-11T09:22:10Z</time>
      </trkpt>
      <trkpt lat="50.52434" lon="4.54329">
        <ele>147</ele>
        <time>2021-11-11T09:22:12Z</time>
      </trkpt>
      <trkpt lat="50.52424" lon="4.5433">
        <ele>146</ele>
        <time>2021-11-11T09:22:14Z</time>
      </trkpt>
      <trkpt lat="50.52414" lon="4.5433">
        <ele>146</ele>
        <time>2021-11-11T09:22:16Z</time>
      </trkpt>
      <trkpt lat="50.52405" lon="4.5433">
        <ele>146</ele>
        <time>2021-11-11T09:22:18Z</time>
      </trkpt>
      <trkpt lat="50.52395" lon="4.5433">
        <ele>145</ele>
        <time>2021-11-11T09:22:20Z</time>
      </trkpt>
      <trkpt lat="50.52385" lon="4.54331">
        <ele>145</ele>
        <time>2021-11-11T09:22:22Z</time>
      </trkpt>
      <trkpt lat="50.52375" lon="4.54331">
        <ele>145</ele>
        <time>2021-11-11T09:22:24Z</time>
      </trkpt>
      <trkpt lat="50.52365" lon="4.54331">
        <ele>145</ele>
        <time>2021-11-11T09:22:26Z</time>
      </trkpt>
      <trkpt lat="50.52355" lon="4.54332">
        <ele>145</ele>
        <time>2021-11-11T09:22:28Z</time>
      </trkpt>
      <trkpt lat="50.52345" lon="4.54332">
        <ele>145</ele>
        <time>2021-11-11T09:22:30Z</time>
      </trkpt>
      <trkpt lat="50.52335" lon="4.54332">
        <ele>145</ele>
        <time>2021-11-11T09:22:32Z</time>
      </trkpt>
      <trkpt lat="50.52325" lon="4.54332">
        <ele>145</ele>
        <time>2021-11-11T09:22:34Z</time>
      </trkpt>
      <trkpt lat="50.52314" lon="4.54332">
        <ele>145</ele>
        <time>2021-11-11T09:22:36Z</time>
      </trkpt>
      <trkpt lat="50.52303" lon="4.54332">
        <ele>145</ele>
        <time>2021-11-11T09:22:38Z</time>
      </trkpt>
      <trkpt lat="50.52293" lon="4.54332">
        <ele>145</ele>
        <time>2021-11-11T09:22:40Z</time>
      </trkpt>
      <trkpt lat="50.52282" lon="4.54333">
        <ele>144</ele>
        <time>2021-11-11T09:22:42Z</time>
      </trkpt>
      <trkpt lat="50.52271" lon="4.54333">
        <ele>144</ele>
        <time>2021-11-11T09:22:44Z</time>
      </trkpt>
      <trkpt lat="50.52261" lon="4.54333">
        <ele>145</ele>
        <time>2021-11-11T09:22:46Z</time>
      </trkpt>
      <trkpt lat="50.52251" lon="4.54333">
        <ele>145</ele>
        <time>2021-11-11T09:22:48Z</time>
      </trkpt>
      <trkpt lat="50.52241" lon="4.54333">
        <ele>145</ele>
        <time>2021-11-11T09:22:50Z</time>
      </trkpt>
      <trkpt lat="50.52231" lon="4.54334">
        <ele>146</ele>
        <time>2021-11-11T09:22:52Z</time>
      </trkpt>
      <trkpt lat="50.5222" lon="4.54334">
        <ele>146</ele>
        <time>2021-11-11T09:22:54Z</time>
      </trkpt>
      <trkpt lat="50.5221" lon="4.54334">
        <ele>146</ele>
        <time>2021-11-11T09:22:56Z</time>
      </trkpt>
      <trkpt lat="50.52199" lon="4.54334">
        <ele>146</ele>
        <time>2021-11-11T09:22:58Z</time>
      </trkpt>
      <trkpt lat="50.52189" lon="4.54333">
        <ele>146</ele>
        <time>2021-11-11T09:23:00Z</time>
      </trkpt>
      <trkpt lat="50.52179" lon="4.54331">
        <ele>146</ele>
        <time>2021-11-11T09:23:02Z</time>
      </trkpt>
      <trkpt lat="50.5217" lon="4.54328">
        <ele>146</ele>
        <time>2021-11-11T09:23:04Z</time>
      </trkpt>
      <trkpt lat="50.52162" lon="4.54323">
        <ele>146</ele>
        <time>2021-11-11T09:23:06Z</time>
      </trkpt>
      <trkpt lat="50.52153" lon="4.54316">
        <ele>146</ele>
        <time>2021-11-11T09:23:07Z</time>
      </trkpt>
      <trkpt lat="50.52144" lon="4.54309">
        <ele>146</ele>
        <time>2021-11-11T09:23:10Z</time>
      </trkpt>
      <trkpt lat="50.52136" lon="4.54301">
        <ele>146</ele>
        <time>2021-11-11T09:23:12Z</time>
      </trkpt>
      <trkpt lat="50.52126" lon="4.54293">
        <ele>146</ele>
        <time>2021-11-11T09:23:14Z</time>
      </trkpt>
      <trkpt lat="50.52118" lon="4.54286">
        <ele>145</ele>
        <time>2021-11-11T09:23:16Z</time>
      </trkpt>
      <trkpt lat="50.52108" lon="4.54278">
        <ele>145</ele>
        <time>2021-11-11T09:23:18Z</time>
      </trkpt>
      <trkpt lat="50.521" lon="4.54271">
        <ele>145</ele>
        <time>2021-11-11T09:23:20Z</time>
      </trkpt>
      <trkpt lat="50.52091" lon="4.54265">
        <ele>144</ele>
        <time>2021-11-11T09:23:22Z</time>
      </trkpt>
      <trkpt lat="50.52082" lon="4.5426">
        <ele>143</ele>
        <time>2021-11-11T09:23:24Z</time>
      </trkpt>
      <trkpt lat="50.52072" lon="4.54254">
        <ele>143</ele>
        <time>2021-11-11T09:23:26Z</time>
      </trkpt>
      <trkpt lat="50.52062" lon="4.54249">
        <ele>142</ele>
        <time>2021-11-11T09:23:28Z</time>
      </trkpt>
      <trkpt lat="50.52052" lon="4.54244">
        <ele>142</ele>
        <time>2021-11-11T09:23:30Z</time>
      </trkpt>
      <trkpt lat="50.52042" lon="4.54239">
        <ele>142</ele>
        <time>2021-11-11T09:23:32Z</time>
      </trkpt>
      <trkpt lat="50.52033" lon="4.54234">
        <ele>141</ele>
        <time>2021-11-11T09:23:34Z</time>
      </trkpt>
      <trkpt lat="50.52024" lon="4.54229">
        <ele>141</ele>
        <time>2021-11-11T09:23:36Z</time>
      </trkpt>
      <trkpt lat="50.52015" lon="4.54225">
        <ele>141</ele>
        <time>2021-11-11T09:23:38Z</time>
      </trkpt>
      <trkpt lat="50.52006" lon="4.54221">
        <ele>140</ele>
        <time>2021-11-11T09:23:40Z</time>
      </trkpt>
      <trkpt lat="50.51998" lon="4.54216">
        <ele>140</ele>
        <time>2021-11-11T09:23:42Z</time>
      </trkpt>
      <trkpt lat="50.5199" lon="4.54212">
        <ele>140</ele>
        <time>2021-11-11T09:23:44Z</time>
      </trkpt>
      <trkpt lat="50.51983" lon="4.54208">
        <ele>140</ele>
        <time>2021-11-11T09:23:46Z</time>
      </trkpt>
      <trkpt lat="50.51975" lon="4.54205">
        <ele>140</ele>
        <time>2021-11-11T09:23:48Z</time>
      </trkpt>
      <trkpt lat="50.5197" lon="4.542">
        <ele>140</ele>
        <time>2021-11-11T09:23:50Z</time>
      </trkpt>
      <trkpt lat="50.51968" lon="4.54191">
        <ele>140</ele>
        <time>2021-11-11T09:23:52Z</time>
      </trkpt>
      <trkpt lat="50.51971" lon="4.54182">
        <ele>140</ele>
        <time>2021-11-11T09:23:54Z</time>
      </trkpt>
      <trkpt lat="50.51978" lon="4.54173">
        <ele>140</ele>
        <time>2021-11-11T09:23:56Z</time>
      </trkpt>
      <trkpt lat="50.51984" lon="4.54161">
        <ele>140</ele>
        <time>2021-11-11T09:23:58Z</time>
      </trkpt>
      <trkpt lat="50.51989" lon="4.54149">
        <ele>140</ele>
        <time>2021-11-11T09:24:00Z</time>
      </trkpt>
      <trkpt lat="50.51993" lon="4.54137">
        <ele>140</ele>
        <time>2021-11-11T09:24:02Z</time>
      </trkpt>
      <trkpt lat="50.51998" lon="4.54124">
        <ele>140</ele>
        <time>2021-11-11T09:24:04Z</time>
      </trkpt>
      <trkpt lat="50.52003" lon="4.54112">
        <ele>140</ele>
        <time>2021-11-11T09:24:06Z</time>
      </trkpt>
      <trkpt lat="50.52008" lon="4.541">
        <ele>140</ele>
        <time>2021-11-11T09:24:08Z</time>
      </trkpt>
      <trkpt lat="50.52013" lon="4.54088">
        <ele>140</ele>
        <time>2021-11-11T09:24:10Z</time>
      </trkpt>
      <trkpt lat="50.52018" lon="4.54075">
        <ele>140</ele>
        <time>2021-11-11T09:24:12Z</time>
      </trkpt>
      <trkpt lat="50.52023" lon="4.54062">
        <ele>140</ele>
        <time>2021-11-11T09:24:14Z</time>
      </trkpt>
      <trkpt lat="50.52028" lon="4.54049">
        <ele>140</ele>
        <time>2021-11-11T09:24:16Z</time>
      </trkpt>
      <trkpt lat="50.52033" lon="4.54036">
        <ele>140</ele>
        <time>2021-11-11T09:24:18Z</time>
      </trkpt>
      <trkpt lat="50.52038" lon="4.54023">
        <ele>140</ele>
        <time>2021-11-11T09:24:20Z</time>
      </trkpt>
      <trkpt lat="50.52043" lon="4.5401">
        <ele>140</ele>
        <time>2021-11-11T09:24:22Z</time>
      </trkpt>
      <trkpt lat="50.52049" lon="4.53997">
        <ele>140</ele>
        <time>2021-11-11T09:24:24Z</time>
      </trkpt>
      <trkpt lat="50.52054" lon="4.53983">
        <ele>141</ele>
        <time>2021-11-11T09:24:26Z</time>
      </trkpt>
      <trkpt lat="50.52059" lon="4.53969">
        <ele>141</ele>
        <time>2021-11-11T09:24:28Z</time>
      </trkpt>
      <trkpt lat="50.52065" lon="4.53955">
        <ele>140</ele>
        <time>2021-11-11T09:24:30Z</time>
      </trkpt>
      <trkpt lat="50.5207" lon="4.53942">
        <ele>143</ele>
        <time>2021-11-11T09:24:32Z</time>
      </trkpt>
      <trkpt lat="50.52074" lon="4.5393">
        <ele>143</ele>
        <time>2021-11-11T09:24:34Z</time>
      </trkpt>
      <trkpt lat="50.52079" lon="4.53917">
        <ele>143</ele>
        <time>2021-11-11T09:24:36Z</time>
      </trkpt>
      <trkpt lat="50.52081" lon="4.53903">
        <ele>144</ele>
        <time>2021-11-11T09:24:37Z</time>
      </trkpt>
      <trkpt lat="50.52075" lon="4.53893">
        <ele>144</ele>
        <time>2021-11-11T09:24:40Z</time>
      </trkpt>
      <trkpt lat="50.52067" lon="4.53889">
        <ele>142</ele>
        <time>2021-11-11T09:24:42Z</time>
      </trkpt>
      <trkpt lat="50.52058" lon="4.53888">
        <ele>142</ele>
        <time>2021-11-11T09:24:44Z</time>
      </trkpt>
      <trkpt lat="50.52049" lon="4.53887">
        <ele>142</ele>
        <time>2021-11-11T09:24:46Z</time>
      </trkpt>
      <trkpt lat="50.5204" lon="4.53886">
        <ele>140</ele>
        <time>2021-11-11T09:24:48Z</time>
      </trkpt>
      <trkpt lat="50.52031" lon="4.53885">
        <ele>140</ele>
        <time>2021-11-11T09:24:50Z</time>
      </trkpt>
      <trkpt lat="50.52022" lon="4.53883">
        <ele>140</ele>
        <time>2021-11-11T09:24:52Z</time>
      </trkpt>
      <trkpt lat="50.52013" lon="4.53881">
        <ele>139</ele>
        <time>2021-11-11T09:24:54Z</time>
      </trkpt>
      <trkpt lat="50.52004" lon="4.5388">
        <ele>139</ele>
        <time>2021-11-11T09:24:56Z</time>
      </trkpt>
      <trkpt lat="50.51994" lon="4.53878">
        <ele>139</ele>
        <time>2021-11-11T09:24:58Z</time>
      </trkpt>
      <trkpt lat="50.51985" lon="4.53877">
        <ele>139</ele>
        <time>2021-11-11T09:25:00Z</time>
      </trkpt>
      <trkpt lat="50.51976" lon="4.53877">
        <ele>139</ele>
        <time>2021-11-11T09:25:02Z</time>
      </trkpt>
      <trkpt lat="50.51967" lon="4.53876">
        <ele>139</ele>
        <time>2021-11-11T09:25:04Z</time>
      </trkpt>
      <trkpt lat="50.51959" lon="4.53877">
        <ele>139</ele>
        <time>2021-11-11T09:25:06Z</time>
      </trkpt>
      <trkpt lat="50.5195" lon="4.53874">
        <ele>140</ele>
        <time>2021-11-11T09:25:08Z</time>
      </trkpt>
      <trkpt lat="50.51943" lon="4.53865">
        <ele>140</ele>
        <time>2021-11-11T09:25:10Z</time>
      </trkpt>
      <trkpt lat="50.51939" lon="4.53852">
        <ele>140</ele>
        <time>2021-11-11T09:25:12Z</time>
      </trkpt>
      <trkpt lat="50.51937" lon="4.53838">
        <ele>143</ele>
        <time>2021-11-11T09:25:14Z</time>
      </trkpt>
      <trkpt lat="50.51934" lon="4.53823">
        <ele>143</ele>
        <time>2021-11-11T09:25:16Z</time>
      </trkpt>
      <trkpt lat="50.5193" lon="4.5381">
        <ele>141</ele>
        <time>2021-11-11T09:25:18Z</time>
      </trkpt>
      <trkpt lat="50.51923" lon="4.53801">
        <ele>141</ele>
        <time>2021-11-11T09:25:20Z</time>
      </trkpt>
      <trkpt lat="50.51915" lon="4.53794">
        <ele>141</ele>
        <time>2021-11-11T09:25:22Z</time>
      </trkpt>
      <trkpt lat="50.51909" lon="4.53787">
        <ele>143</ele>
        <time>2021-11-11T09:25:24Z</time>
      </trkpt>
      <trkpt lat="50.51901" lon="4.53782">
        <ele>139</ele>
        <time>2021-11-11T09:25:26Z</time>
      </trkpt>
      <trkpt lat="50.51893" lon="4.53776">
        <ele>139</ele>
        <time>2021-11-11T09:25:28Z</time>
      </trkpt>
      <trkpt lat="50.51884" lon="4.53771">
        <ele>139</ele>
        <time>2021-11-11T09:25:30Z</time>
      </trkpt>
      <trkpt lat="50.51876" lon="4.53766">
        <ele>139</ele>
        <time>2021-11-11T09:25:32Z</time>
      </trkpt>
      <trkpt lat="50.51869" lon="4.53762">
        <ele>141</ele>
        <time>2021-11-11T09:25:34Z</time>
      </trkpt>
      <trkpt lat="50.51862" lon="4.53761">
        <ele>141</ele>
        <time>2021-11-11T09:25:36Z</time>
      </trkpt>
      <trkpt lat="50.51858" lon="4.53766">
        <ele>138</ele>
        <time>2021-11-11T09:25:38Z</time>
      </trkpt>
      <trkpt lat="50.51854" lon="4.53774">
        <ele>138</ele>
        <time>2021-11-11T09:25:40Z</time>
      </trkpt>
      <trkpt lat="50.51849" lon="4.53782">
        <ele>138</ele>
        <time>2021-11-11T09:25:42Z</time>
      </trkpt>
      <trkpt lat="50.51845" lon="4.53791">
        <ele>140</ele>
        <time>2021-11-11T09:25:44Z</time>
      </trkpt>
      <trkpt lat="50.5184" lon="4.53798">
        <ele>140</ele>
        <time>2021-11-11T09:25:46Z</time>
      </trkpt>
      <trkpt lat="50.51835" lon="4.53806">
        <ele>140</ele>
        <time>2021-11-11T09:25:48Z</time>
      </trkpt>
      <trkpt lat="50.5183" lon="4.53814">
        <ele>140</ele>
        <time>2021-11-11T09:25:50Z</time>
      </trkpt>
      <trkpt lat="50.51825" lon="4.5382">
        <ele>139</ele>
        <time>2021-11-11T09:25:52Z</time>
      </trkpt>
      <trkpt lat="50.51821" lon="4.53827">
        <ele>139</ele>
        <time>2021-11-11T09:25:54Z</time>
      </trkpt>
      <trkpt lat="50.51817" lon="4.53834">
        <ele>141</ele>
        <time>2021-11-11T09:25:56Z</time>
      </trkpt>
      <trkpt lat="50.51814" lon="4.53842">
        <ele>141</ele>
        <time>2021-11-11T09:25:58Z</time>
      </trkpt>
      <trkpt lat="50.5181" lon="4.53849">
        <ele>140</ele>
        <time>2021-11-11T09:26:00Z</time>
      </trkpt>
      <trkpt lat="50.51806" lon="4.53856">
        <ele>140</ele>
        <time>2021-11-11T09:26:02Z</time>
      </trkpt>
      <trkpt lat="50.51801" lon="4.53864">
        <ele>140</ele>
        <time>2021-11-11T09:26:04Z</time>
      </trkpt>
      <trkpt lat="50.51796" lon="4.53871">
        <ele>140</ele>
        <time>2021-11-11T09:26:06Z</time>
      </trkpt>
      <trkpt lat="50.51792" lon="4.5388">
        <ele>141</ele>
        <time>2021-11-11T09:26:08Z</time>
      </trkpt>
      <trkpt lat="50.51787" lon="4.53887">
        <ele>140</ele>
        <time>2021-11-11T09:26:10Z</time>
      </trkpt>
      <trkpt lat="50.51782" lon="4.53895">
        <ele>140</ele>
        <time>2021-11-11T09:26:12Z</time>
      </trkpt>
      <trkpt lat="50.51777" lon="4.53903">
        <ele>141</ele>
        <time>2021-11-11T09:26:14Z</time>
      </trkpt>
      <trkpt lat="50.51772" lon="4.53911">
        <ele>141</ele>
        <time>2021-11-11T09:26:16Z</time>
      </trkpt>
      <trkpt lat="50.51768" lon="4.53919">
        <ele>141</ele>
        <time>2021-11-11T09:26:18Z</time>
      </trkpt>
      <trkpt lat="50.51764" lon="4.53926">
        <ele>141</ele>
        <time>2021-11-11T09:26:20Z</time>
      </trkpt>
      <trkpt lat="50.51759" lon="4.53933">
        <ele>140</ele>
        <time>2021-11-11T09:26:22Z</time>
      </trkpt>
      <trkpt lat="50.51755" lon="4.53938">
        <ele>140</ele>
        <time>2021-11-11T09:26:24Z</time>
      </trkpt>
      <trkpt lat="50.5175" lon="4.53944">
        <ele>140</ele>
        <time>2021-11-11T09:26:26Z</time>
      </trkpt>
      <trkpt lat="50.51744" lon="4.53949">
        <ele>140</ele>
        <time>2021-11-11T09:26:28Z</time>
      </trkpt>
      <trkpt lat="50.51738" lon="4.53954">
        <ele>140</ele>
        <time>2021-11-11T09:26:30Z</time>
      </trkpt>
      <trkpt lat="50.51733" lon="4.5396">
        <ele>141</ele>
        <time>2021-11-11T09:26:32Z</time>
      </trkpt>
      <trkpt lat="50.51728" lon="4.53966">
        <ele>141</ele>
        <time>2021-11-11T09:26:34Z</time>
      </trkpt>
      <trkpt lat="50.51721" lon="4.53971">
        <ele>141</ele>
        <time>2021-11-11T09:26:36Z</time>
      </trkpt>
      <trkpt lat="50.51715" lon="4.53977">
        <ele>141</ele>
        <time>2021-11-11T09:26:38Z</time>
      </trkpt>
      <trkpt lat="50.51709" lon="4.53983">
        <ele>141</ele>
        <time>2021-11-11T09:26:40Z</time>
      </trkpt>
      <trkpt lat="50.51703" lon="4.53989">
        <ele>141</ele>
        <time>2021-11-11T09:26:42Z</time>
      </trkpt>
      <trkpt lat="50.51697" lon="4.53995">
        <ele>141</ele>
        <time>2021-11-11T09:26:44Z</time>
      </trkpt>
      <trkpt lat="50.5169" lon="4.54002">
        <ele>141</ele>
        <time>2021-11-11T09:26:46Z</time>
      </trkpt>
      <trkpt lat="50.51683" lon="4.54009">
        <ele>141</ele>
        <time>2021-11-11T09:26:48Z</time>
      </trkpt>
      <trkpt lat="50.51677" lon="4.54015">
        <ele>140</ele>
        <time>2021-11-11T09:26:50Z</time>
      </trkpt>
      <trkpt lat="50.51671" lon="4.5402">
        <ele>140</ele>
        <time>2021-11-11T09:26:52Z</time>
      </trkpt>
      <trkpt lat="50.51666" lon="4.54025">
        <ele>140</ele>
        <time>2021-11-11T09:26:54Z</time>
      </trkpt>
      <trkpt lat="50.5166" lon="4.54031">
        <ele>140</ele>
        <time>2021-11-11T09:26:56Z</time>
      </trkpt>
      <trkpt lat="50.51656" lon="4.54035">
        <ele>140</ele>
        <time>2021-11-11T09:26:58Z</time>
      </trkpt>
      <trkpt lat="50.51651" lon="4.54041">
        <ele>139</ele>
        <time>2021-11-11T09:27:00Z</time>
      </trkpt>
      <trkpt lat="50.51648" lon="4.54047">
        <ele>138</ele>
        <time>2021-11-11T09:27:02Z</time>
      </trkpt>
      <trkpt lat="50.51642" lon="4.54047">
        <ele>138</ele>
        <time>2021-11-11T09:27:04Z</time>
      </trkpt>
      <trkpt lat="50.51638" lon="4.54049">
        <ele>138</ele>
        <time>2021-11-11T09:27:06Z</time>
      </trkpt>
      <trkpt lat="50.51635" lon="4.54049">
        <ele>138</ele>
        <time>2021-11-11T09:27:08Z</time>
      </trkpt>
      <trkpt lat="50.51631" lon="4.54049">
        <ele>138</ele>
        <time>2021-11-11T09:27:10Z</time>
      </trkpt>
      <trkpt lat="50.51624" lon="4.5405">
        <ele>138</ele>
        <time>2021-11-11T09:27:12Z</time>
      </trkpt>
      <trkpt lat="50.51619" lon="4.54054">
        <ele>138</ele>
        <time>2021-11-11T09:27:14Z</time>
      </trkpt>
      <trkpt lat="50.51614" lon="4.54058">
        <ele>138</ele>
        <time>2021-11-11T09:27:16Z</time>
      </trkpt>
      <trkpt lat="50.51608" lon="4.5406">
        <ele>138</ele>
        <time>2021-11-11T09:27:18Z</time>
      </trkpt>
      <trkpt lat="50.51601" lon="4.54063">
        <ele>138</ele>
        <time>2021-11-11T09:27:20Z</time>
      </trkpt>
      <trkpt lat="50.51592" lon="4.54066">
        <ele>139</ele>
        <time>2021-11-11T09:27:22Z</time>
      </trkpt>
      <trkpt lat="50.51583" lon="4.54069">
        <ele>139</ele>
        <time>2021-11-11T09:27:24Z</time>
      </trkpt>
      <trkpt lat="50.51576" lon="4.54072">
        <ele>138</ele>
        <time>2021-11-11T09:27:26Z</time>
      </trkpt>
      <trkpt lat="50.51568" lon="4.54074">
        <ele>138</ele>
        <time>2021-11-11T09:27:28Z</time>
      </trkpt>
      <trkpt lat="50.5156" lon="4.54077">
        <ele>138</ele>
        <time>2021-11-11T09:27:30Z</time>
      </trkpt>
      <trkpt lat="50.51553" lon="4.54079">
        <ele>138</ele>
        <time>2021-11-11T09:27:32Z</time>
      </trkpt>
      <trkpt lat="50.51546" lon="4.54082">
        <ele>138</ele>
        <time>2021-11-11T09:27:34Z</time>
      </trkpt>
      <trkpt lat="50.51539" lon="4.54084">
        <ele>139</ele>
        <time>2021-11-11T09:27:36Z</time>
      </trkpt>
      <trkpt lat="50.51532" lon="4.54087">
        <ele>139</ele>
        <time>2021-11-11T09:27:38Z</time>
      </trkpt>
      <trkpt lat="50.51526" lon="4.54089">
        <ele>139</ele>
        <time>2021-11-11T09:27:40Z</time>
      </trkpt>
      <trkpt lat="50.51519" lon="4.54093">
        <ele>139</ele>
        <time>2021-11-11T09:27:42Z</time>
      </trkpt>
      <trkpt lat="50.51512" lon="4.54096">
        <ele>140</ele>
        <time>2021-11-11T09:27:44Z</time>
      </trkpt>
      <trkpt lat="50.51505" lon="4.54098">
        <ele>141</ele>
        <time>2021-11-11T09:27:46Z</time>
      </trkpt>
      <trkpt lat="50.51499" lon="4.541">
        <ele>141</ele>
        <time>2021-11-11T09:27:48Z</time>
      </trkpt>
      <trkpt lat="50.51494" lon="4.54102">
        <ele>141</ele>
        <time>2021-11-11T09:27:50Z</time>
      </trkpt>
      <trkpt lat="50.51488" lon="4.54104">
        <ele>141</ele>
        <time>2021-11-11T09:27:52Z</time>
      </trkpt>
      <trkpt lat="50.51484" lon="4.54105">
        <ele>142</ele>
        <time>2021-11-11T09:27:54Z</time>
      </trkpt>
      <trkpt lat="50.51481" lon="4.54104">
        <ele>142</ele>
        <time>2021-11-11T09:27:56Z</time>
      </trkpt>
      <trkpt lat="50.51475" lon="4.54104">
        <ele>142</ele>
        <time>2021-11-11T09:27:58Z</time>
      </trkpt>
      <trkpt lat="50.51469" lon="4.54106">
        <ele>142</ele>
        <time>2021-11-11T09:28:00Z</time>
      </trkpt>
      <trkpt lat="50.51463" lon="4.54111">
        <ele>142</ele>
        <time>2021-11-11T09:28:02Z</time>
      </trkpt>
      <trkpt lat="50.51457" lon="4.54117">
        <ele>142</ele>
        <time>2021-11-11T09:28:04Z</time>
      </trkpt>
      <trkpt lat="50.5145" lon="4.54122">
        <ele>142</ele>
        <time>2021-11-11T09:28:06Z</time>
      </trkpt>
      <trkpt lat="50.51443" lon="4.54128">
        <ele>143</ele>
        <time>2021-11-11T09:28:08Z</time>
      </trkpt>
      <trkpt lat="50.51437" lon="4.54135">
        <ele>143</ele>
        <time>2021-11-11T09:28:10Z</time>
      </trkpt>
      <trkpt lat="50.51431" lon="4.54141">
        <ele>144</ele>
        <time>2021-11-11T09:28:12Z</time>
      </trkpt>
      <trkpt lat="50.51424" lon="4.54148">
        <ele>144</ele>
        <time>2021-11-11T09:28:14Z</time>
      </trkpt>
      <trkpt lat="50.51418" lon="4.54154">
        <ele>144</ele>
        <time>2021-11-11T09:28:16Z</time>
      </trkpt>
      <trkpt lat="50.5141" lon="4.5416">
        <ele>144</ele>
        <time>2021-11-11T09:28:18Z</time>
      </trkpt>
      <trkpt lat="50.51403" lon="4.54166">
        <ele>144</ele>
        <time>2021-11-11T09:28:20Z</time>
      </trkpt>
      <trkpt lat="50.51395" lon="4.54173">
        <ele>145</ele>
        <time>2021-11-11T09:28:22Z</time>
      </trkpt>
      <trkpt lat="50.51388" lon="4.5418">
        <ele>145</ele>
        <time>2021-11-11T09:28:24Z</time>
      </trkpt>
      <trkpt lat="50.5138" lon="4.54187">
        <ele>144</ele>
        <time>2021-11-11T09:28:26Z</time>
      </trkpt>
      <trkpt lat="50.51372" lon="4.54195">
        <ele>144</ele>
        <time>2021-11-11T09:28:28Z</time>
      </trkpt>
      <trkpt lat="50.51364" lon="4.54202">
        <ele>144</ele>
        <time>2021-11-11T09:28:30Z</time>
      </trkpt>
      <trkpt lat="50.51356" lon="4.5421">
        <ele>145</ele>
        <time>2021-11-11T09:28:32Z</time>
      </trkpt>
      <trkpt lat="50.51347" lon="4.54217">
        <ele>145</ele>
        <time>2021-11-11T09:28:34Z</time>
      </trkpt>
      <trkpt lat="50.51339" lon="4.54225">
        <ele>144</ele>
        <time>2021-11-11T09:28:36Z</time>
      </trkpt>
      <trkpt lat="50.51331" lon="4.54232">
        <ele>144</ele>
        <time>2021-11-11T09:28:38Z</time>
      </trkpt>
      <trkpt lat="50.51322" lon="4.5424">
        <ele>144</ele>
        <time>2021-11-11T09:28:40Z</time>
      </trkpt>
      <trkpt lat="50.51313" lon="4.54248">
        <ele>144</ele>
        <time>2021-11-11T09:28:42Z</time>
      </trkpt>
      <trkpt lat="50.51304" lon="4.54257">
        <ele>144</ele>
        <time>2021-11-11T09:28:44Z</time>
      </trkpt>
      <trkpt lat="50.51294" lon="4.54266">
        <ele>144</ele>
        <time>2021-11-11T09:28:46Z</time>
      </trkpt>
      <trkpt lat="50.51284" lon="4.54275">
        <ele>143</ele>
        <time>2021-11-11T09:28:48Z</time>
      </trkpt>
      <trkpt lat="50.51273" lon="4.54284">
        <ele>143</ele>
        <time>2021-11-11T09:28:50Z</time>
      </trkpt>
      <trkpt lat="50.51263" lon="4.54294">
        <ele>142</ele>
        <time>2021-11-11T09:28:52Z</time>
      </trkpt>
      <trkpt lat="50.51252" lon="4.54304">
        <ele>142</ele>
        <time>2021-11-11T09:28:54Z</time>
      </trkpt>
      <trkpt lat="50.51242" lon="4.54314">
        <ele>142</ele>
        <time>2021-11-11T09:28:56Z</time>
      </trkpt>
      <trkpt lat="50.51233" lon="4.54321">
        <ele>140</ele>
        <time>2021-11-11T09:28:58Z</time>
      </trkpt>
      <trkpt lat="50.51226" lon="4.54328">
        <ele>140</ele>
        <time>2021-11-11T09:29:00Z</time>
      </trkpt>
      <trkpt lat="50.51223" lon="4.54338">
        <ele>140</ele>
        <time>2021-11-11T09:29:02Z</time>
      </trkpt>
      <trkpt lat="50.51225" lon="4.5435">
        <ele>139</ele>
        <time>2021-11-11T09:29:04Z</time>
      </trkpt>
      <trkpt lat="50.51228" lon="4.54364">
        <ele>139</ele>
        <time>2021-11-11T09:29:06Z</time>
      </trkpt>
      <trkpt lat="50.5123" lon="4.54379">
        <ele>140</ele>
        <time>2021-11-11T09:29:08Z</time>
      </trkpt>
      <trkpt lat="50.51231" lon="4.54394">
        <ele>140</ele>
        <time>2021-11-11T09:29:10Z</time>
      </trkpt>
      <trkpt lat="50.51235" lon="4.54409">
        <ele>139</ele>
        <time>2021-11-11T09:29:12Z</time>
      </trkpt>
      <trkpt lat="50.5124" lon="4.54424">
        <ele>140</ele>
        <time>2021-11-11T09:29:14Z</time>
      </trkpt>
      <trkpt lat="50.51246" lon="4.54437">
        <ele>141</ele>
        <time>2021-11-11T09:29:16Z</time>
      </trkpt>
      <trkpt lat="50.51252" lon="4.54451">
        <ele>141</ele>
        <time>2021-11-11T09:29:18Z</time>
      </trkpt>
      <trkpt lat="50.51258" lon="4.54464">
        <ele>140</ele>
        <time>2021-11-11T09:29:20Z</time>
      </trkpt>
      <trkpt lat="50.51265" lon="4.54477">
        <ele>141</ele>
        <time>2021-11-11T09:29:22Z</time>
      </trkpt>
      <trkpt lat="50.51271" lon="4.5449">
        <ele>142</ele>
        <time>2021-11-11T09:29:24Z</time>
      </trkpt>
      <trkpt lat="50.51276" lon="4.54503">
        <ele>142</ele>
        <time>2021-11-11T09:29:26Z</time>
      </trkpt>
      <trkpt lat="50.51283" lon="4.54516">
        <ele>141</ele>
        <time>2021-11-11T09:29:28Z</time>
      </trkpt>
      <trkpt lat="50.51289" lon="4.54528">
        <ele>141</ele>
        <time>2021-11-11T09:29:30Z</time>
      </trkpt>
      <trkpt lat="50.51294" lon="4.54539">
        <ele>142</ele>
        <time>2021-11-11T09:29:32Z</time>
      </trkpt>
      <trkpt lat="50.513" lon="4.5455">
        <ele>143</ele>
        <time>2021-11-11T09:29:34Z</time>
      </trkpt>
      <trkpt lat="50.51306" lon="4.54561">
        <ele>143</ele>
        <time>2021-11-11T09:29:36Z</time>
      </trkpt>
      <trkpt lat="50.51313" lon="4.54574">
        <ele>142</ele>
        <time>2021-11-11T09:29:38Z</time>
      </trkpt>
      <trkpt lat="50.5132" lon="4.54587">
        <ele>143</ele>
        <time>2021-11-11T09:29:40Z</time>
      </trkpt>
      <trkpt lat="50.51325" lon="4.546">
        <ele>142</ele>
        <time>2021-11-11T09:29:42Z</time>
      </trkpt>
      <trkpt lat="50.51331" lon="4.54612">
        <ele>142</ele>
        <time>2021-11-11T09:29:44Z</time>
      </trkpt>
      <trkpt lat="50.51336" lon="4.54624">
        <ele>142</ele>
        <time>2021-11-11T09:29:46Z</time>
      </trkpt>
      <trkpt lat="50.51341" lon="4.54636">
        <ele>142</ele>
        <time>2021-11-11T09:29:48Z</time>
      </trkpt>
      <trkpt lat="50.51347" lon="4.54647">
        <ele>142</ele>
        <time>2021-11-11T09:29:50Z</time>
      </trkpt>
      <trkpt lat="50.51351" lon="4.54657">
        <ele>143</ele>
        <time>2021-11-11T09:29:52Z</time>
      </trkpt>
      <trkpt lat="50.51355" lon="4.54668">
        <ele>143</ele>
        <time>2021-11-11T09:29:54Z</time>
      </trkpt>
      <trkpt lat="50.5136" lon="4.54679">
        <ele>143</ele>
        <time>2021-11-11T09:29:56Z</time>
      </trkpt>
      <trkpt lat="50.51366" lon="4.5469">
        <ele>142</ele>
        <time>2021-11-11T09:29:58Z</time>
      </trkpt>
      <trkpt lat="50.51371" lon="4.54702">
        <ele>142</ele>
        <time>2021-11-11T09:30:00Z</time>
      </trkpt>
      <trkpt lat="50.51376" lon="4.54714">
        <ele>143</ele>
        <time>2021-11-11T09:30:02Z</time>
      </trkpt>
      <trkpt lat="50.51381" lon="4.54726">
        <ele>143</ele>
        <time>2021-11-11T09:30:04Z</time>
      </trkpt>
      <trkpt lat="50.51385" lon="4.54738">
        <ele>142</ele>
        <time>2021-11-11T09:30:06Z</time>
      </trkpt>
      <trkpt lat="50.5139" lon="4.5475">
        <ele>142</ele>
        <time>2021-11-11T09:30:08Z</time>
      </trkpt>
      <trkpt lat="50.51396" lon="4.54761">
        <ele>142</ele>
        <time>2021-11-11T09:30:10Z</time>
      </trkpt>
      <trkpt lat="50.51401" lon="4.54773">
        <ele>142</ele>
        <time>2021-11-11T09:30:12Z</time>
      </trkpt>
      <trkpt lat="50.51407" lon="4.54785">
        <ele>141</ele>
        <time>2021-11-11T09:30:14Z</time>
      </trkpt>
      <trkpt lat="50.51412" lon="4.54796">
        <ele>142</ele>
        <time>2021-11-11T09:30:16Z</time>
      </trkpt>
      <trkpt lat="50.51417" lon="4.54801">
        <ele>142</ele>
        <time>2021-11-11T09:30:18Z</time>
      </trkpt>
      <trkpt lat="50.51423" lon="4.54805">
        <ele>142</ele>
        <time>2021-11-11T09:30:20Z</time>
      </trkpt>
      <trkpt lat="50.51429" lon="4.5481">
        <ele>142</ele>
        <time>2021-11-11T09:30:22Z</time>
      </trkpt>
      <trkpt lat="50.51439" lon="4.54816">
        <ele>142</ele>
        <time>2021-11-11T09:30:24Z</time>
      </trkpt>
      <trkpt lat="50.51448" lon="4.54822">
        <ele>142</ele>
        <time>2021-11-11T09:30:26Z</time>
      </trkpt>
      <trkpt lat="50.51458" lon="4.54828">
        <ele>142</ele>
        <time>2021-11-11T09:30:28Z</time>
      </trkpt>
      <trkpt lat="50.51468" lon="4.54834">
        <ele>143</ele>
        <time>2021-11-11T09:30:30Z</time>
      </trkpt>
      <trkpt lat="50.51477" lon="4.54841">
        <ele>143</ele>
        <time>2021-11-11T09:30:32Z</time>
      </trkpt>
      <trkpt lat="50.51486" lon="4.54847">
        <ele>143</ele>
        <time>2021-11-11T09:30:34Z</time>
      </trkpt>
      <trkpt lat="50.51491" lon="4.54856">
        <ele>141</ele>
        <time>2021-11-11T09:30:36Z</time>
      </trkpt>
      <trkpt lat="50.51492" lon="4.54869">
        <ele>141</ele>
        <time>2021-11-11T09:30:38Z</time>
      </trkpt>
      <trkpt lat="50.51488" lon="4.5488">
        <ele>140</ele>
        <time>2021-11-11T09:30:40Z</time>
      </trkpt>
      <trkpt lat="50.51484" lon="4.54891">
        <ele>140</ele>
        <time>2021-11-11T09:30:42Z</time>
      </trkpt>
      <trkpt lat="50.51478" lon="4.549">
        <ele>140</ele>
        <time>2021-11-11T09:30:44Z</time>
      </trkpt>
      <trkpt lat="50.51474" lon="4.54908">
        <ele>138</ele>
        <time>2021-11-11T09:30:46Z</time>
      </trkpt>
      <trkpt lat="50.51473" lon="4.54911">
        <ele>138</ele>
        <time>2021-11-11T09:30:48Z</time>
      </trkpt>
      <trkpt lat="50.51468" lon="4.54923">
        <ele>138</ele>
        <time>2021-11-11T09:40:32Z</time>
      </trkpt>
      <trkpt lat="50.51462" lon="4.54937">
        <ele>139</ele>
        <time>2021-11-11T09:40:34Z</time>
      </trkpt>
      <trkpt lat="50.5146" lon="4.54941">
        <ele>139</ele>
        <time>2021-11-11T09:40:36Z</time>
      </trkpt>
      <trkpt lat="50.51458" lon="4.54948">
        <ele>139</ele>
        <time>2021-11-11T09:40:38Z</time>
      </trkpt>
      <trkpt lat="50.51455" lon="4.54954">
        <ele>139</ele>
        <time>2021-11-11T09:40:40Z</time>
      </trkpt>
      <trkpt lat="50.51454" lon="4.54964">
        <ele>136</ele>
        <time>2021-11-11T09:40:42Z</time>
      </trkpt>
      <trkpt lat="50.51452" lon="4.54972">
        <ele>136</ele>
        <time>2021-11-11T09:40:44Z</time>
      </trkpt>
      <trkpt lat="50.5145" lon="4.54981">
        <ele>136</ele>
        <time>2021-11-11T09:40:46Z</time>
      </trkpt>
      <trkpt lat="50.51447" lon="4.54989">
        <ele>137</ele>
        <time>2021-11-11T09:40:48Z</time>
      </trkpt>
      <trkpt lat="50.51443" lon="4.54998">
        <ele>137</ele>
        <time>2021-11-11T09:40:50Z</time>
      </trkpt>
      <trkpt lat="50.5144" lon="4.55008">
        <ele>137</ele>
        <time>2021-11-11T09:40:52Z</time>
      </trkpt>
      <trkpt lat="50.51437" lon="4.55018">
        <ele>136</ele>
        <time>2021-11-11T09:40:54Z</time>
      </trkpt>
      <trkpt lat="50.51434" lon="4.55029">
        <ele>136</ele>
        <time>2021-11-11T09:40:56Z</time>
      </trkpt>
      <trkpt lat="50.51431" lon="4.5504">
        <ele>136</ele>
        <time>2021-11-11T09:40:58Z</time>
      </trkpt>
      <trkpt lat="50.51429" lon="4.55052">
        <ele>138</ele>
        <time>2021-11-11T09:41:00Z</time>
      </trkpt>
      <trkpt lat="50.51426" lon="4.55062">
        <ele>138</ele>
        <time>2021-11-11T09:41:02Z</time>
      </trkpt>
      <trkpt lat="50.51423" lon="4.55073">
        <ele>138</ele>
        <time>2021-11-11T09:41:04Z</time>
      </trkpt>
      <trkpt lat="50.5142" lon="4.55084">
        <ele>138</ele>
        <time>2021-11-11T09:41:06Z</time>
      </trkpt>
      <trkpt lat="50.51416" lon="4.55096">
        <ele>138</ele>
        <time>2021-11-11T09:41:08Z</time>
      </trkpt>
      <trkpt lat="50.51414" lon="4.55108">
        <ele>139</ele>
        <time>2021-11-11T09:41:10Z</time>
      </trkpt>
      <trkpt lat="50.51411" lon="4.55118">
        <ele>139</ele>
        <time>2021-11-11T09:41:12Z</time>
      </trkpt>
      <trkpt lat="50.51408" lon="4.55127">
        <ele>139</ele>
        <time>2021-11-11T09:41:14Z</time>
      </trkpt>
      <trkpt lat="50.51405" lon="4.55133">
        <ele>139</ele>
        <time>2021-11-11T09:41:16Z</time>
      </trkpt>
      <trkpt lat="50.51398" lon="4.55134">
        <ele>139</ele>
        <time>2021-11-11T09:41:18Z</time>
      </trkpt>
      <trkpt lat="50.5139" lon="4.55131">
        <ele>139</ele>
        <time>2021-11-11T09:41:20Z</time>
      </trkpt>
      <trkpt lat="50.51383" lon="4.55126">
        <ele>139</ele>
        <time>2021-11-11T09:41:22Z</time>
      </trkpt>
      <trkpt lat="50.51376" lon="4.5512">
        <ele>140</ele>
        <time>2021-11-11T09:41:24Z</time>
      </trkpt>
      <trkpt lat="50.51368" lon="4.55114">
        <ele>139</ele>
        <time>2021-11-11T09:41:26Z</time>
      </trkpt>
      <trkpt lat="50.5136" lon="4.55109">
        <ele>139</ele>
        <time>2021-11-11T09:41:28Z</time>
      </trkpt>
      <trkpt lat="50.51352" lon="4.55104">
        <ele>139</ele>
        <time>2021-11-11T09:41:30Z</time>
      </trkpt>
      <trkpt lat="50.51344" lon="4.55098">
        <ele>138</ele>
        <time>2021-11-11T09:41:32Z</time>
      </trkpt>
      <trkpt lat="50.51335" lon="4.55093">
        <ele>139</ele>
        <time>2021-11-11T09:41:34Z</time>
      </trkpt>
      <trkpt lat="50.51328" lon="4.55087">
        <ele>139</ele>
        <time>2021-11-11T09:41:36Z</time>
      </trkpt>
      <trkpt lat="50.51318" lon="4.55081">
        <ele>139</ele>
        <time>2021-11-11T09:41:38Z</time>
      </trkpt>
      <trkpt lat="50.51309" lon="4.55075">
        <ele>139</ele>
        <time>2021-11-11T09:41:40Z</time>
      </trkpt>
      <trkpt lat="50.513" lon="4.55068">
        <ele>139</ele>
        <time>2021-11-11T09:41:42Z</time>
      </trkpt>
      <trkpt lat="50.51291" lon="4.55063">
        <ele>138</ele>
        <time>2021-11-11T09:41:44Z</time>
      </trkpt>
      <trkpt lat="50.51281" lon="4.55057">
        <ele>138</ele>
        <time>2021-11-11T09:41:46Z</time>
      </trkpt>
      <trkpt lat="50.51271" lon="4.5505">
        <ele>138</ele>
        <time>2021-11-11T09:41:48Z</time>
      </trkpt>
      <trkpt lat="50.51262" lon="4.55042">
        <ele>140</ele>
        <time>2021-11-11T09:41:50Z</time>
      </trkpt>
      <trkpt lat="50.51252" lon="4.55034">
        <ele>140</ele>
        <time>2021-11-11T09:41:52Z</time>
      </trkpt>
      <trkpt lat="50.51243" lon="4.55026">
        <ele>140</ele>
        <time>2021-11-11T09:41:54Z</time>
      </trkpt>
      <trkpt lat="50.51235" lon="4.55016">
        <ele>141</ele>
        <time>2021-11-11T09:41:56Z</time>
      </trkpt>
      <trkpt lat="50.51228" lon="4.55004">
        <ele>141</ele>
        <time>2021-11-11T09:41:58Z</time>
      </trkpt>
      <trkpt lat="50.51224" lon="4.54991">
        <ele>141</ele>
        <time>2021-11-11T09:42:00Z</time>
      </trkpt>
      <trkpt lat="50.5122" lon="4.54978">
        <ele>139</ele>
        <time>2021-11-11T09:42:02Z</time>
      </trkpt>
      <trkpt lat="50.51216" lon="4.54963">
        <ele>139</ele>
        <time>2021-11-11T09:42:04Z</time>
      </trkpt>
      <trkpt lat="50.51211" lon="4.54948">
        <ele>140</ele>
        <time>2021-11-11T09:42:06Z</time>
      </trkpt>
      <trkpt lat="50.51208" lon="4.54932">
        <ele>141</ele>
        <time>2021-11-11T09:42:08Z</time>
      </trkpt>
      <trkpt lat="50.51204" lon="4.54918">
        <ele>138</ele>
        <time>2021-11-11T09:42:10Z</time>
      </trkpt>
      <trkpt lat="50.512" lon="4.54904">
        <ele>138</ele>
        <time>2021-11-11T09:42:12Z</time>
      </trkpt>
      <trkpt lat="50.51198" lon="4.54892">
        <ele>138</ele>
        <time>2021-11-11T09:42:14Z</time>
      </trkpt>
      <trkpt lat="50.51194" lon="4.54887">
        <ele>138</ele>
        <time>2021-11-11T09:42:16Z</time>
      </trkpt>
      <trkpt lat="50.51197" lon="4.54889">
        <ele>138</ele>
        <time>2021-11-11T09:42:18Z</time>
      </trkpt>
      <trkpt lat="50.51194" lon="4.54898">
        <ele>138</ele>
        <time>2021-11-11T09:42:20Z</time>
      </trkpt>
      <trkpt lat="50.51183" lon="4.5491">
        <ele>138</ele>
        <time>2021-11-11T09:42:22Z</time>
      </trkpt>
      <trkpt lat="50.51173" lon="4.54921">
        <ele>138</ele>
        <time>2021-11-11T09:42:24Z</time>
      </trkpt>
      <trkpt lat="50.51165" lon="4.54932">
        <ele>139</ele>
        <time>2021-11-11T09:42:26Z</time>
      </trkpt>
      <trkpt lat="50.51157" lon="4.54942">
        <ele>139</ele>
        <time>2021-11-11T09:42:28Z</time>
      </trkpt>
      <trkpt lat="50.51148" lon="4.5495">
        <ele>138</ele>
        <time>2021-11-11T09:42:30Z</time>
      </trkpt>
      <trkpt lat="50.5114" lon="4.5496">
        <ele>141</ele>
        <time>2021-11-11T09:42:32Z</time>
      </trkpt>
      <trkpt lat="50.51132" lon="4.54968">
        <ele>141</ele>
        <time>2021-11-11T09:42:34Z</time>
      </trkpt>
      <trkpt lat="50.51123" lon="4.54975">
        <ele>142</ele>
        <time>2021-11-11T09:42:36Z</time>
      </trkpt>
      <trkpt lat="50.51115" lon="4.54981">
        <ele>142</ele>
        <time>2021-11-11T09:42:38Z</time>
      </trkpt>
      <trkpt lat="50.51109" lon="4.54991">
        <ele>141</ele>
        <time>2021-11-11T09:42:40Z</time>
      </trkpt>
      <trkpt lat="50.51103" lon="4.55">
        <ele>141</ele>
        <time>2021-11-11T09:42:42Z</time>
      </trkpt>
      <trkpt lat="50.51097" lon="4.55008">
        <ele>143</ele>
        <time>2021-11-11T09:42:44Z</time>
      </trkpt>
      <trkpt lat="50.5109" lon="4.55017">
        <ele>142</ele>
        <time>2021-11-11T09:42:46Z</time>
      </trkpt>
      <trkpt lat="50.51084" lon="4.55025">
        <ele>142</ele>
        <time>2021-11-11T09:42:48Z</time>
      </trkpt>
      <trkpt lat="50.51077" lon="4.55034">
        <ele>142</ele>
        <time>2021-11-11T09:42:50Z</time>
      </trkpt>
      <trkpt lat="50.51071" lon="4.55042">
        <ele>142</ele>
        <time>2021-11-11T09:42:52Z</time>
      </trkpt>
      <trkpt lat="50.51064" lon="4.5505">
        <ele>142</ele>
        <time>2021-11-11T09:42:54Z</time>
      </trkpt>
      <trkpt lat="50.51056" lon="4.55058">
        <ele>142</ele>
        <time>2021-11-11T09:42:56Z</time>
      </trkpt>
      <trkpt lat="50.5105" lon="4.55067">
        <ele>142</ele>
        <time>2021-11-11T09:42:58Z</time>
      </trkpt>
      <trkpt lat="50.51043" lon="4.55076">
        <ele>142</ele>
        <time>2021-11-11T09:43:00Z</time>
      </trkpt>
      <trkpt lat="50.51035" lon="4.55085">
        <ele>143</ele>
        <time>2021-11-11T09:43:02Z</time>
      </trkpt>
      <trkpt lat="50.51028" lon="4.55093">
        <ele>143</ele>
        <time>2021-11-11T09:43:04Z</time>
      </trkpt>
      <trkpt lat="50.51021" lon="4.55102">
        <ele>144</ele>
        <time>2021-11-11T09:43:06Z</time>
      </trkpt>
      <trkpt lat="50.51015" lon="4.5511">
        <ele>144</ele>
        <time>2021-11-11T09:43:08Z</time>
      </trkpt>
      <trkpt lat="50.51008" lon="4.55118">
        <ele>145</ele>
        <time>2021-11-11T09:43:10Z</time>
      </trkpt>
      <trkpt lat="50.51001" lon="4.55127">
        <ele>146</ele>
        <time>2021-11-11T09:43:12Z</time>
      </trkpt>
      <trkpt lat="50.50996" lon="4.55136">
        <ele>146</ele>
        <time>2021-11-11T09:43:14Z</time>
      </trkpt>
      <trkpt lat="50.5099" lon="4.55144">
        <ele>146</ele>
        <time>2021-11-11T09:43:16Z</time>
      </trkpt>
      <trkpt lat="50.50982" lon="4.55152">
        <ele>146</ele>
        <time>2021-11-11T09:43:18Z</time>
      </trkpt>
      <trkpt lat="50.50977" lon="4.5516">
        <ele>147</ele>
        <time>2021-11-11T09:43:20Z</time>
      </trkpt>
      <trkpt lat="50.50971" lon="4.55167">
        <ele>147</ele>
        <time>2021-11-11T09:43:22Z</time>
      </trkpt>
      <trkpt lat="50.50967" lon="4.55174">
        <ele>147</ele>
        <time>2021-11-11T09:43:24Z</time>
      </trkpt>
      <trkpt lat="50.50964" lon="4.55179">
        <ele>147</ele>
        <time>2021-11-11T09:43:26Z</time>
      </trkpt>
      <trkpt lat="50.50962" lon="4.55183">
        <ele>146</ele>
        <time>2021-11-11T09:43:28Z</time>
      </trkpt>
      <trkpt lat="50.50956" lon="4.55191">
        <ele>145</ele>
        <time>2021-11-11T09:43:30Z</time>
      </trkpt>
      <trkpt lat="50.50948" lon="4.55198">
        <ele>145</ele>
        <time>2021-11-11T09:43:32Z</time>
      </trkpt>
      <trkpt lat="50.50942" lon="4.55204">
        <ele>145</ele>
        <time>2021-11-11T09:43:34Z</time>
      </trkpt>
      <trkpt lat="50.50935" lon="4.55211">
        <ele>145</ele>
        <time>2021-11-11T09:43:36Z</time>
      </trkpt>
      <trkpt lat="50.50928" lon="4.55218">
        <ele>144</ele>
        <time>2021-11-11T09:43:38Z</time>
      </trkpt>
      <trkpt lat="50.5092" lon="4.55226">
        <ele>144</ele>
        <time>2021-11-11T09:43:40Z</time>
      </trkpt>
      <trkpt lat="50.50913" lon="4.55233">
        <ele>144</ele>
        <time>2021-11-11T09:43:42Z</time>
      </trkpt>
      <trkpt lat="50.50905" lon="4.5524">
        <ele>145</ele>
        <time>2021-11-11T09:43:44Z</time>
      </trkpt>
      <trkpt lat="50.50898" lon="4.55247">
        <ele>145</ele>
        <time>2021-11-11T09:43:46Z</time>
      </trkpt>
      <trkpt lat="50.5089" lon="4.55254">
        <ele>145</ele>
        <time>2021-11-11T09:43:48Z</time>
      </trkpt>
      <trkpt lat="50.50882" lon="4.55261">
        <ele>145</ele>
        <time>2021-11-11T09:43:50Z</time>
      </trkpt>
      <trkpt lat="50.50873" lon="4.55269">
        <ele>145</ele>
        <time>2021-11-11T09:43:52Z</time>
      </trkpt>
      <trkpt lat="50.50864" lon="4.55276">
        <ele>145</ele>
        <time>2021-11-11T09:43:54Z</time>
      </trkpt>
      <trkpt lat="50.50856" lon="4.55284">
        <ele>145</ele>
        <time>2021-11-11T09:43:56Z</time>
      </trkpt>
      <trkpt lat="50.50849" lon="4.55291">
        <ele>145</ele>
        <time>2021-11-11T09:43:58Z</time>
      </trkpt>
      <trkpt lat="50.50841" lon="4.55299">
        <ele>144</ele>
        <time>2021-11-11T09:44:00Z</time>
      </trkpt>
      <trkpt lat="50.50833" lon="4.55307">
        <ele>144</ele>
        <time>2021-11-11T09:44:02Z</time>
      </trkpt>
      <trkpt lat="50.50826" lon="4.55315">
        <ele>144</ele>
        <time>2021-11-11T09:44:04Z</time>
      </trkpt>
      <trkpt lat="50.50818" lon="4.55322">
        <ele>143</ele>
        <time>2021-11-11T09:44:06Z</time>
      </trkpt>
      <trkpt lat="50.5081" lon="4.5533">
        <ele>143</ele>
        <time>2021-11-11T09:44:08Z</time>
      </trkpt>
      <trkpt lat="50.50803" lon="4.55339">
        <ele>143</ele>
        <time>2021-11-11T09:44:10Z</time>
      </trkpt>
      <trkpt lat="50.50796" lon="4.55348">
        <ele>143</ele>
        <time>2021-11-11T09:44:12Z</time>
      </trkpt>
      <trkpt lat="50.50788" lon="4.55356">
        <ele>143</ele>
        <time>2021-11-11T09:44:14Z</time>
      </trkpt>
      <trkpt lat="50.50779" lon="4.55364">
        <ele>143</ele>
        <time>2021-11-11T09:44:16Z</time>
      </trkpt>
      <trkpt lat="50.50771" lon="4.55372">
        <ele>143</ele>
        <time>2021-11-11T09:44:18Z</time>
      </trkpt>
      <trkpt lat="50.50763" lon="4.5538">
        <ele>142</ele>
        <time>2021-11-11T09:44:20Z</time>
      </trkpt>
      <trkpt lat="50.50755" lon="4.55389">
        <ele>142</ele>
        <time>2021-11-11T09:44:22Z</time>
      </trkpt>
      <trkpt lat="50.50747" lon="4.55397">
        <ele>142</ele>
        <time>2021-11-11T09:44:24Z</time>
      </trkpt>
      <trkpt lat="50.50739" lon="4.55406">
        <ele>142</ele>
        <time>2021-11-11T09:44:26Z</time>
      </trkpt>
      <trkpt lat="50.50731" lon="4.55416">
        <ele>142</ele>
        <time>2021-11-11T09:44:28Z</time>
      </trkpt>
      <trkpt lat="50.50723" lon="4.55425">
        <ele>142</ele>
        <time>2021-11-11T09:44:30Z</time>
      </trkpt>
      <trkpt lat="50.50715" lon="4.55434">
        <ele>141</ele>
        <time>2021-11-11T09:44:32Z</time>
      </trkpt>
      <trkpt lat="50.50708" lon="4.55443">
        <ele>142</ele>
        <time>2021-11-11T09:44:34Z</time>
      </trkpt>
      <trkpt lat="50.507" lon="4.55453">
        <ele>142</ele>
        <time>2021-11-11T09:44:36Z</time>
      </trkpt>
      <trkpt lat="50.50692" lon="4.55463">
        <ele>142</ele>
        <time>2021-11-11T09:44:38Z</time>
      </trkpt>
      <trkpt lat="50.50684" lon="4.55473">
        <ele>142</ele>
        <time>2021-11-11T09:44:40Z</time>
      </trkpt>
      <trkpt lat="50.50677" lon="4.55483">
        <ele>142</ele>
        <time>2021-11-11T09:44:42Z</time>
      </trkpt>
      <trkpt lat="50.5067" lon="4.55493">
        <ele>142</ele>
        <time>2021-11-11T09:44:44Z</time>
      </trkpt>
      <trkpt lat="50.50665" lon="4.55504">
        <ele>142</ele>
        <time>2021-11-11T09:44:46Z</time>
      </trkpt>
      <trkpt lat="50.5066" lon="4.55515">
        <ele>141</ele>
        <time>2021-11-11T09:44:48Z</time>
      </trkpt>
      <trkpt lat="50.50655" lon="4.55528">
        <ele>141</ele>
        <time>2021-11-11T09:44:50Z</time>
      </trkpt>
      <trkpt lat="50.50649" lon="4.5554">
        <ele>140</ele>
        <time>2021-11-11T09:44:52Z</time>
      </trkpt>
      <trkpt lat="50.50643" lon="4.55552">
        <ele>142</ele>
        <time>2021-11-11T09:44:54Z</time>
      </trkpt>
      <trkpt lat="50.50637" lon="4.55565">
        <ele>142</ele>
        <time>2021-11-11T09:44:56Z</time>
      </trkpt>
      <trkpt lat="50.50631" lon="4.55577">
        <ele>139</ele>
        <time>2021-11-11T09:44:58Z</time>
      </trkpt>
      <trkpt lat="50.50625" lon="4.5559">
        <ele>138</ele>
        <time>2021-11-11T09:45:00Z</time>
      </trkpt>
      <trkpt lat="50.5062" lon="4.55603">
        <ele>140</ele>
        <time>2021-11-11T09:45:02Z</time>
      </trkpt>
      <trkpt lat="50.50615" lon="4.55617">
        <ele>140</ele>
        <time>2021-11-11T09:45:04Z</time>
      </trkpt>
      <trkpt lat="50.50611" lon="4.5563">
        <ele>138</ele>
        <time>2021-11-11T09:45:06Z</time>
      </trkpt>
      <trkpt lat="50.50608" lon="4.55644">
        <ele>138</ele>
        <time>2021-11-11T09:45:08Z</time>
      </trkpt>
      <trkpt lat="50.50606" lon="4.5566">
        <ele>139</ele>
        <time>2021-11-11T09:45:10Z</time>
      </trkpt>
      <trkpt lat="50.50601" lon="4.55674">
        <ele>139</ele>
        <time>2021-11-11T09:45:12Z</time>
      </trkpt>
      <trkpt lat="50.50593" lon="4.55687">
        <ele>136</ele>
        <time>2021-11-11T09:45:14Z</time>
      </trkpt>
      <trkpt lat="50.50584" lon="4.55699">
        <ele>136</ele>
        <time>2021-11-11T09:45:16Z</time>
      </trkpt>
      <trkpt lat="50.50575" lon="4.55711">
        <ele>135</ele>
        <time>2021-11-11T09:45:18Z</time>
      </trkpt>
      <trkpt lat="50.50567" lon="4.55722">
        <ele>134</ele>
        <time>2021-11-11T09:45:20Z</time>
      </trkpt>
      <trkpt lat="50.5056" lon="4.5573">
        <ele>134</ele>
        <time>2021-11-11T09:45:22Z</time>
      </trkpt>
      <trkpt lat="50.50554" lon="4.55736">
        <ele>134</ele>
        <time>2021-11-11T09:45:24Z</time>
      </trkpt>
      <trkpt lat="50.50548" lon="4.55745">
        <ele>134</ele>
        <time>2021-11-11T09:45:26Z</time>
      </trkpt>
      <trkpt lat="50.50543" lon="4.55752">
        <ele>134</ele>
        <time>2021-11-11T09:45:28Z</time>
      </trkpt>
      <trkpt lat="50.50537" lon="4.55762">
        <ele>134</ele>
        <time>2021-11-11T09:45:30Z</time>
      </trkpt>
      <trkpt lat="50.5053" lon="4.55771">
        <ele>133</ele>
        <time>2021-11-11T09:45:32Z</time>
      </trkpt>
      <trkpt lat="50.50523" lon="4.55781">
        <ele>133</ele>
        <time>2021-11-11T09:45:34Z</time>
      </trkpt>
      <trkpt lat="50.50515" lon="4.55789">
        <ele>133</ele>
        <time>2021-11-11T09:45:36Z</time>
      </trkpt>
      <trkpt lat="50.50507" lon="4.55796">
        <ele>133</ele>
        <time>2021-11-11T09:45:38Z</time>
      </trkpt>
      <trkpt lat="50.50499" lon="4.55803">
        <ele>133</ele>
        <time>2021-11-11T09:45:40Z</time>
      </trkpt>
      <trkpt lat="50.5049" lon="4.5581">
        <ele>133</ele>
        <time>2021-11-11T09:45:42Z</time>
      </trkpt>
      <trkpt lat="50.50482" lon="4.55817">
        <ele>133</ele>
        <time>2021-11-11T09:45:44Z</time>
      </trkpt>
      <trkpt lat="50.50475" lon="4.55825">
        <ele>133</ele>
        <time>2021-11-11T09:45:46Z</time>
      </trkpt>
      <trkpt lat="50.50467" lon="4.55833">
        <ele>133</ele>
        <time>2021-11-11T09:45:48Z</time>
      </trkpt>
      <trkpt lat="50.5046" lon="4.55841">
        <ele>133</ele>
        <time>2021-11-11T09:45:50Z</time>
      </trkpt>
      <trkpt lat="50.50453" lon="4.55848">
        <ele>134</ele>
        <time>2021-11-11T09:45:52Z</time>
      </trkpt>
      <trkpt lat="50.50446" lon="4.55857">
        <ele>134</ele>
        <time>2021-11-11T09:45:54Z</time>
      </trkpt>
      <trkpt lat="50.50439" lon="4.55865">
        <ele>134</ele>
        <time>2021-11-11T09:45:56Z</time>
      </trkpt>
      <trkpt lat="50.50432" lon="4.55872">
        <ele>134</ele>
        <time>2021-11-11T09:45:58Z</time>
      </trkpt>
      <trkpt lat="50.50425" lon="4.55879">
        <ele>134</ele>
        <time>2021-11-11T09:46:00Z</time>
      </trkpt>
      <trkpt lat="50.50419" lon="4.55886">
        <ele>134</ele>
        <time>2021-11-11T09:46:02Z</time>
      </trkpt>
      <trkpt lat="50.50412" lon="4.55893">
        <ele>134</ele>
        <time>2021-11-11T09:46:04Z</time>
      </trkpt>
      <trkpt lat="50.50406" lon="4.55899">
        <ele>134</ele>
        <time>2021-11-11T09:46:06Z</time>
      </trkpt>
      <trkpt lat="50.50399" lon="4.55907">
        <ele>135</ele>
        <time>2021-11-11T09:46:08Z</time>
      </trkpt>
      <trkpt lat="50.50394" lon="4.55914">
        <ele>135</ele>
        <time>2021-11-11T09:46:10Z</time>
      </trkpt>
      <trkpt lat="50.50386" lon="4.5592">
        <ele>135</ele>
        <time>2021-11-11T09:46:12Z</time>
      </trkpt>
      <trkpt lat="50.50379" lon="4.55925">
        <ele>135</ele>
        <time>2021-11-11T09:46:14Z</time>
      </trkpt>
      <trkpt lat="50.50371" lon="4.55929">
        <ele>136</ele>
        <time>2021-11-11T09:46:16Z</time>
      </trkpt>
      <trkpt lat="50.50363" lon="4.55932">
        <ele>138</ele>
        <time>2021-11-11T09:46:18Z</time>
      </trkpt>
      <trkpt lat="50.50356" lon="4.55934">
        <ele>138</ele>
        <time>2021-11-11T09:46:20Z</time>
      </trkpt>
      <trkpt lat="50.50348" lon="4.55935">
        <ele>138</ele>
        <time>2021-11-11T09:46:22Z</time>
      </trkpt>
      <trkpt lat="50.50341" lon="4.55937">
        <ele>138</ele>
        <time>2021-11-11T09:46:24Z</time>
      </trkpt>
      <trkpt lat="50.50333" lon="4.55937">
        <ele>138</ele>
        <time>2021-11-11T09:46:26Z</time>
      </trkpt>
      <trkpt lat="50.50326" lon="4.55939">
        <ele>138</ele>
        <time>2021-11-11T09:46:28Z</time>
      </trkpt>
      <trkpt lat="50.50318" lon="4.5594">
        <ele>138</ele>
        <time>2021-11-11T09:46:30Z</time>
      </trkpt>
      <trkpt lat="50.50309" lon="4.5594">
        <ele>138</ele>
        <time>2021-11-11T09:46:32Z</time>
      </trkpt>
      <trkpt lat="50.50301" lon="4.55942">
        <ele>138</ele>
        <time>2021-11-11T09:46:34Z</time>
      </trkpt>
      <trkpt lat="50.50293" lon="4.55943">
        <ele>138</ele>
        <time>2021-11-11T09:46:36Z</time>
      </trkpt>
      <trkpt lat="50.50285" lon="4.55944">
        <ele>138</ele>
        <time>2021-11-11T09:46:38Z</time>
      </trkpt>
      <trkpt lat="50.50277" lon="4.55945">
        <ele>138</ele>
        <time>2021-11-11T09:46:40Z</time>
      </trkpt>
      <trkpt lat="50.50269" lon="4.55947">
        <ele>138</ele>
        <time>2021-11-11T09:46:42Z</time>
      </trkpt>
      <trkpt lat="50.50261" lon="4.55948">
        <ele>139</ele>
        <time>2021-11-11T09:46:44Z</time>
      </trkpt>
      <trkpt lat="50.50253" lon="4.5595">
        <ele>139</ele>
        <time>2021-11-11T09:46:46Z</time>
      </trkpt>
      <trkpt lat="50.50245" lon="4.55951">
        <ele>139</ele>
        <time>2021-11-11T09:46:48Z</time>
      </trkpt>
      <trkpt lat="50.50237" lon="4.55951">
        <ele>139</ele>
        <time>2021-11-11T09:46:50Z</time>
      </trkpt>
      <trkpt lat="50.50229" lon="4.55952">
        <ele>141</ele>
        <time>2021-11-11T09:46:52Z</time>
      </trkpt>
      <trkpt lat="50.50221" lon="4.55952">
        <ele>141</ele>
        <time>2021-11-11T09:46:54Z</time>
      </trkpt>
      <trkpt lat="50.50213" lon="4.55952">
        <ele>141</ele>
        <time>2021-11-11T09:46:56Z</time>
      </trkpt>
      <trkpt lat="50.50204" lon="4.55953">
        <ele>140</ele>
        <time>2021-11-11T09:46:58Z</time>
      </trkpt>
      <trkpt lat="50.50196" lon="4.55955">
        <ele>140</ele>
        <time>2021-11-11T09:47:00Z</time>
      </trkpt>
      <trkpt lat="50.50189" lon="4.55958">
        <ele>140</ele>
        <time>2021-11-11T09:47:02Z</time>
      </trkpt>
      <trkpt lat="50.50182" lon="4.55964">
        <ele>140</ele>
        <time>2021-11-11T09:47:04Z</time>
      </trkpt>
      <trkpt lat="50.50176" lon="4.55973">
        <ele>140</ele>
        <time>2021-11-11T09:47:06Z</time>
      </trkpt>
      <trkpt lat="50.50173" lon="4.55985">
        <ele>140</ele>
        <time>2021-11-11T09:47:08Z</time>
      </trkpt>
      <trkpt lat="50.50171" lon="4.55997">
        <ele>139</ele>
        <time>2021-11-11T09:47:10Z</time>
      </trkpt>
      <trkpt lat="50.5017" lon="4.56009">
        <ele>139</ele>
        <time>2021-11-11T09:47:12Z</time>
      </trkpt>
      <trkpt lat="50.50168" lon="4.56022">
        <ele>141</ele>
        <time>2021-11-11T09:47:14Z</time>
      </trkpt>
      <trkpt lat="50.50166" lon="4.56034">
        <ele>141</ele>
        <time>2021-11-11T09:47:16Z</time>
      </trkpt>
      <trkpt lat="50.50164" lon="4.56047">
        <ele>141</ele>
        <time>2021-11-11T09:47:18Z</time>
      </trkpt>
      <trkpt lat="50.50162" lon="4.56059">
        <ele>141</ele>
        <time>2021-11-11T09:47:20Z</time>
      </trkpt>
      <trkpt lat="50.5016" lon="4.56072">
        <ele>142</ele>
        <time>2021-11-11T09:47:22Z</time>
      </trkpt>
      <trkpt lat="50.50158" lon="4.56085">
        <ele>142</ele>
        <time>2021-11-11T09:47:24Z</time>
      </trkpt>
      <trkpt lat="50.50156" lon="4.56098">
        <ele>143</ele>
        <time>2021-11-11T09:47:26Z</time>
      </trkpt>
      <trkpt lat="50.50155" lon="4.56111">
        <ele>143</ele>
        <time>2021-11-11T09:47:28Z</time>
      </trkpt>
      <trkpt lat="50.50153" lon="4.56123">
        <ele>143</ele>
        <time>2021-11-11T09:47:30Z</time>
      </trkpt>
      <trkpt lat="50.50152" lon="4.56135">
        <ele>143</ele>
        <time>2021-11-11T09:47:32Z</time>
      </trkpt>
      <trkpt lat="50.50151" lon="4.56146">
        <ele>143</ele>
        <time>2021-11-11T09:47:34Z</time>
      </trkpt>
      <trkpt lat="50.5015" lon="4.56155">
        <ele>143</ele>
        <time>2021-11-11T09:47:36Z</time>
      </trkpt>
      <trkpt lat="50.50149" lon="4.56165">
        <ele>143</ele>
        <time>2021-11-11T09:47:38Z</time>
      </trkpt>
      <trkpt lat="50.50147" lon="4.56175">
        <ele>143</ele>
        <time>2021-11-11T09:47:40Z</time>
      </trkpt>
      <trkpt lat="50.50146" lon="4.56183">
        <ele>143</ele>
        <time>2021-11-11T09:47:42Z</time>
      </trkpt>
      <trkpt lat="50.50145" lon="4.56191">
        <ele>143</ele>
        <time>2021-11-11T09:47:44Z</time>
      </trkpt>
      <trkpt lat="50.50143" lon="4.56196">
        <ele>143</ele>
        <time>2021-11-11T09:47:46Z</time>
      </trkpt>
      <trkpt lat="50.50142" lon="4.56202">
        <ele>143</ele>
        <time>2021-11-11T09:47:48Z</time>
      </trkpt>
      <trkpt lat="50.5014" lon="4.56209">
        <ele>143</ele>
        <time>2021-11-11T09:47:50Z</time>
      </trkpt>
      <trkpt lat="50.5014" lon="4.56217">
        <ele>143</ele>
        <time>2021-11-11T09:47:52Z</time>
      </trkpt>
      <trkpt lat="50.5014" lon="4.56226">
        <ele>143</ele>
        <time>2021-11-11T09:47:54Z</time>
      </trkpt>
      <trkpt lat="50.50139" lon="4.56237">
        <ele>143</ele>
        <time>2021-11-11T09:47:56Z</time>
      </trkpt>
      <trkpt lat="50.50138" lon="4.56248">
        <ele>143</ele>
        <time>2021-11-11T09:47:58Z</time>
      </trkpt>
      <trkpt lat="50.50137" lon="4.56259">
        <ele>143</ele>
        <time>2021-11-11T09:48:00Z</time>
      </trkpt>
      <trkpt lat="50.50137" lon="4.56271">
        <ele>142</ele>
        <time>2021-11-11T09:48:02Z</time>
      </trkpt>
      <trkpt lat="50.50136" lon="4.56283">
        <ele>142</ele>
        <time>2021-11-11T09:48:04Z</time>
      </trkpt>
      <trkpt lat="50.50135" lon="4.56295">
        <ele>143</ele>
        <time>2021-11-11T09:48:06Z</time>
      </trkpt>
      <trkpt lat="50.50134" lon="4.56306">
        <ele>143</ele>
        <time>2021-11-11T09:48:08Z</time>
      </trkpt>
      <trkpt lat="50.50134" lon="4.56318">
        <ele>143</ele>
        <time>2021-11-11T09:48:10Z</time>
      </trkpt>
      <trkpt lat="50.50133" lon="4.5633">
        <ele>142</ele>
        <time>2021-11-11T09:48:12Z</time>
      </trkpt>
      <trkpt lat="50.50133" lon="4.56342">
        <ele>142</ele>
        <time>2021-11-11T09:48:14Z</time>
      </trkpt>
      <trkpt lat="50.50132" lon="4.56352">
        <ele>143</ele>
        <time>2021-11-11T09:48:16Z</time>
      </trkpt>
      <trkpt lat="50.50132" lon="4.56364">
        <ele>143</ele>
        <time>2021-11-11T09:48:18Z</time>
      </trkpt>
      <trkpt lat="50.50132" lon="4.56376">
        <ele>143</ele>
        <time>2021-11-11T09:48:20Z</time>
      </trkpt>
      <trkpt lat="50.50132" lon="4.56388">
        <ele>143</ele>
        <time>2021-11-11T09:48:22Z</time>
      </trkpt>
      <trkpt lat="50.50131" lon="4.56399">
        <ele>143</ele>
        <time>2021-11-11T09:48:24Z</time>
      </trkpt>
      <trkpt lat="50.50131" lon="4.56411">
        <ele>143</ele>
        <time>2021-11-11T09:48:26Z</time>
      </trkpt>
      <trkpt lat="50.5013" lon="4.56422">
        <ele>143</ele>
        <time>2021-11-11T09:48:28Z</time>
      </trkpt>
      <trkpt lat="50.50129" lon="4.56434">
        <ele>145</ele>
        <time>2021-11-11T09:48:30Z</time>
      </trkpt>
      <trkpt lat="50.50129" lon="4.56447">
        <ele>145</ele>
        <time>2021-11-11T09:48:32Z</time>
      </trkpt>
      <trkpt lat="50.50129" lon="4.56459">
        <ele>145</ele>
        <time>2021-11-11T09:48:34Z</time>
      </trkpt>
      <trkpt lat="50.50128" lon="4.56472">
        <ele>145</ele>
        <time>2021-11-11T09:48:36Z</time>
      </trkpt>
      <trkpt lat="50.50127" lon="4.56485">
        <ele>145</ele>
        <time>2021-11-11T09:48:38Z</time>
      </trkpt>
      <trkpt lat="50.50127" lon="4.56498">
        <ele>147</ele>
        <time>2021-11-11T09:48:40Z</time>
      </trkpt>
      <trkpt lat="50.50126" lon="4.56511">
        <ele>147</ele>
        <time>2021-11-11T09:48:42Z</time>
      </trkpt>
      <trkpt lat="50.50125" lon="4.56525">
        <ele>147</ele>
        <time>2021-11-11T09:48:44Z</time>
      </trkpt>
      <trkpt lat="50.50124" lon="4.56538">
        <ele>147</ele>
        <time>2021-11-11T09:48:46Z</time>
      </trkpt>
      <trkpt lat="50.50124" lon="4.56552">
        <ele>147</ele>
        <time>2021-11-11T09:48:48Z</time>
      </trkpt>
      <trkpt lat="50.50123" lon="4.56565">
        <ele>147</ele>
        <time>2021-11-11T09:48:50Z</time>
      </trkpt>
      <trkpt lat="50.50122" lon="4.56578">
        <ele>148</ele>
        <time>2021-11-11T09:48:52Z</time>
      </trkpt>
      <trkpt lat="50.5012" lon="4.5659">
        <ele>148</ele>
        <time>2021-11-11T09:48:54Z</time>
      </trkpt>
      <trkpt lat="50.50118" lon="4.56603">
        <ele>148</ele>
        <time>2021-11-11T09:48:56Z</time>
      </trkpt>
      <trkpt lat="50.50117" lon="4.56616">
        <ele>148</ele>
        <time>2021-11-11T09:48:58Z</time>
      </trkpt>
      <trkpt lat="50.50116" lon="4.56628">
        <ele>149</ele>
        <time>2021-11-11T09:49:00Z</time>
      </trkpt>
      <trkpt lat="50.50115" lon="4.56638">
        <ele>149</ele>
        <time>2021-11-11T09:49:02Z</time>
      </trkpt>
      <trkpt lat="50.50114" lon="4.56647">
        <ele>149</ele>
        <time>2021-11-11T09:49:04Z</time>
      </trkpt>
      <trkpt lat="50.50113" lon="4.56655">
        <ele>149</ele>
        <time>2021-11-11T09:49:06Z</time>
      </trkpt>
      <trkpt lat="50.50111" lon="4.56661">
        <ele>149</ele>
        <time>2021-11-11T09:49:08Z</time>
      </trkpt>
      <trkpt lat="50.50109" lon="4.56669">
        <ele>149</ele>
        <time>2021-11-11T09:49:10Z</time>
      </trkpt>
      <trkpt lat="50.50107" lon="4.5668">
        <ele>149</ele>
        <time>2021-11-11T09:49:12Z</time>
      </trkpt>
      <trkpt lat="50.50104" lon="4.5669">
        <ele>150</ele>
        <time>2021-11-11T09:49:14Z</time>
      </trkpt>
      <trkpt lat="50.50101" lon="4.56701">
        <ele>150</ele>
        <time>2021-11-11T09:49:16Z</time>
      </trkpt>
      <trkpt lat="50.50098" lon="4.56711">
        <ele>150</ele>
        <time>2021-11-11T09:49:18Z</time>
      </trkpt>
      <trkpt lat="50.50095" lon="4.56722">
        <ele>150</ele>
        <time>2021-11-11T09:49:20Z</time>
      </trkpt>
      <trkpt lat="50.50092" lon="4.56733">
        <ele>150</ele>
        <time>2021-11-11T09:49:22Z</time>
      </trkpt>
      <trkpt lat="50.50089" lon="4.56745">
        <ele>151</ele>
        <time>2021-11-11T09:49:24Z</time>
      </trkpt>
      <trkpt lat="50.50085" lon="4.56756">
        <ele>151</ele>
        <time>2021-11-11T09:49:26Z</time>
      </trkpt>
      <trkpt lat="50.50083" lon="4.56767">
        <ele>151</ele>
        <time>2021-11-11T09:49:28Z</time>
      </trkpt>
      <trkpt lat="50.5008" lon="4.56779">
        <ele>151</ele>
        <time>2021-11-11T09:49:30Z</time>
      </trkpt>
      <trkpt lat="50.50077" lon="4.5679">
        <ele>151</ele>
        <time>2021-11-11T09:49:32Z</time>
      </trkpt>
      <trkpt lat="50.50074" lon="4.56802">
        <ele>151</ele>
        <time>2021-11-11T09:49:34Z</time>
      </trkpt>
      <trkpt lat="50.50071" lon="4.56814">
        <ele>151</ele>
        <time>2021-11-11T09:49:36Z</time>
      </trkpt>
      <trkpt lat="50.50068" lon="4.56826">
        <ele>152</ele>
        <time>2021-11-11T09:49:38Z</time>
      </trkpt>
      <trkpt lat="50.50065" lon="4.56837">
        <ele>152</ele>
        <time>2021-11-11T09:49:40Z</time>
      </trkpt>
      <trkpt lat="50.50062" lon="4.56849">
        <ele>151</ele>
        <time>2021-11-11T09:49:42Z</time>
      </trkpt>
      <trkpt lat="50.50059" lon="4.56861">
        <ele>151</ele>
        <time>2021-11-11T09:49:44Z</time>
      </trkpt>
      <trkpt lat="50.50056" lon="4.56874">
        <ele>151</ele>
        <time>2021-11-11T09:49:46Z</time>
      </trkpt>
      <trkpt lat="50.50053" lon="4.56886">
        <ele>151</ele>
        <time>2021-11-11T09:49:48Z</time>
      </trkpt>
      <trkpt lat="50.5005" lon="4.56899">
        <ele>151</ele>
        <time>2021-11-11T09:49:50Z</time>
      </trkpt>
      <trkpt lat="50.50047" lon="4.5691">
        <ele>152</ele>
        <time>2021-11-11T09:49:52Z</time>
      </trkpt>
      <trkpt lat="50.50044" lon="4.56922">
        <ele>152</ele>
        <time>2021-11-11T09:49:54Z</time>
      </trkpt>
      <trkpt lat="50.5004" lon="4.56933">
        <ele>153</ele>
        <time>2021-11-11T09:49:56Z</time>
      </trkpt>
      <trkpt lat="50.50037" lon="4.56944">
        <ele>153</ele>
        <time>2021-11-11T09:49:58Z</time>
      </trkpt>
      <trkpt lat="50.50032" lon="4.56955">
        <ele>153</ele>
        <time>2021-11-11T09:50:00Z</time>
      </trkpt>
      <trkpt lat="50.50028" lon="4.56965">
        <ele>153</ele>
        <time>2021-11-11T09:50:02Z</time>
      </trkpt>
      <trkpt lat="50.50023" lon="4.56976">
        <ele>153</ele>
        <time>2021-11-11T09:50:04Z</time>
      </trkpt>
      <trkpt lat="50.50018" lon="4.56987">
        <ele>153</ele>
        <time>2021-11-11T09:50:06Z</time>
      </trkpt>
      <trkpt lat="50.50013" lon="4.56996">
        <ele>154</ele>
        <time>2021-11-11T09:50:08Z</time>
      </trkpt>
      <trkpt lat="50.50008" lon="4.57006">
        <ele>154</ele>
        <time>2021-11-11T09:50:10Z</time>
      </trkpt>
      <trkpt lat="50.50003" lon="4.57016">
        <ele>154</ele>
        <time>2021-11-11T09:50:12Z</time>
      </trkpt>
      <trkpt lat="50.49997" lon="4.57026">
        <ele>154</ele>
        <time>2021-11-11T09:50:14Z</time>
      </trkpt>
      <trkpt lat="50.49992" lon="4.57036">
        <ele>154</ele>
        <time>2021-11-11T09:50:16Z</time>
      </trkpt>
      <trkpt lat="50.49987" lon="4.57046">
        <ele>154</ele>
        <time>2021-11-11T09:50:18Z</time>
      </trkpt>
      <trkpt lat="50.49981" lon="4.57056">
        <ele>154</ele>
        <time>2021-11-11T09:50:20Z</time>
      </trkpt>
      <trkpt lat="50.49976" lon="4.57067">
        <ele>154</ele>
        <time>2021-11-11T09:50:22Z</time>
      </trkpt>
      <trkpt lat="50.49971" lon="4.57078">
        <ele>154</ele>
        <time>2021-11-11T09:50:24Z</time>
      </trkpt>
      <trkpt lat="50.49967" lon="4.57091">
        <ele>154</ele>
        <time>2021-11-11T09:50:26Z</time>
      </trkpt>
      <trkpt lat="50.49964" lon="4.57106">
        <ele>153</ele>
        <time>2021-11-11T09:50:28Z</time>
      </trkpt>
      <trkpt lat="50.49962" lon="4.57122">
        <ele>153</ele>
        <time>2021-11-11T09:50:30Z</time>
      </trkpt>
      <trkpt lat="50.49961" lon="4.5714">
        <ele>154</ele>
        <time>2021-11-11T09:50:32Z</time>
      </trkpt>
      <trkpt lat="50.4996" lon="4.57157">
        <ele>151</ele>
        <time>2021-11-11T09:50:34Z</time>
      </trkpt>
      <trkpt lat="50.49959" lon="4.57173">
        <ele>151</ele>
        <time>2021-11-11T09:50:36Z</time>
      </trkpt>
      <trkpt lat="50.49959" lon="4.57188">
        <ele>153</ele>
        <time>2021-11-11T09:50:38Z</time>
      </trkpt>
      <trkpt lat="50.4996" lon="4.57203">
        <ele>153</ele>
        <time>2021-11-11T09:50:40Z</time>
      </trkpt>
      <trkpt lat="50.49961" lon="4.57217">
        <ele>151</ele>
        <time>2021-11-11T09:50:42Z</time>
      </trkpt>
      <trkpt lat="50.49961" lon="4.57232">
        <ele>151</ele>
        <time>2021-11-11T09:50:44Z</time>
      </trkpt>
      <trkpt lat="50.49961" lon="4.57245">
        <ele>151</ele>
        <time>2021-11-11T09:50:46Z</time>
      </trkpt>
      <trkpt lat="50.49962" lon="4.57258">
        <ele>151</ele>
        <time>2021-11-11T09:50:48Z</time>
      </trkpt>
      <trkpt lat="50.49961" lon="4.57271">
        <ele>151</ele>
        <time>2021-11-11T09:50:50Z</time>
      </trkpt>
      <trkpt lat="50.49961" lon="4.57284">
        <ele>151</ele>
        <time>2021-11-11T09:50:52Z</time>
      </trkpt>
      <trkpt lat="50.49962" lon="4.57297">
        <ele>149</ele>
        <time>2021-11-11T09:50:54Z</time>
      </trkpt>
      <trkpt lat="50.49962" lon="4.5731">
        <ele>149</ele>
        <time>2021-11-11T09:50:56Z</time>
      </trkpt>
      <trkpt lat="50.49963" lon="4.57321">
        <ele>148</ele>
        <time>2021-11-11T09:50:58Z</time>
      </trkpt>
      <trkpt lat="50.49963" lon="4.5733">
        <ele>148</ele>
        <time>2021-11-11T09:51:00Z</time>
      </trkpt>
      <trkpt lat="50.49965" lon="4.57337">
        <ele>148</ele>
        <time>2021-11-11T09:51:02Z</time>
      </trkpt>
      <trkpt lat="50.49966" lon="4.57345">
        <ele>148</ele>
        <time>2021-11-11T09:51:04Z</time>
      </trkpt>
      <trkpt lat="50.49967" lon="4.57351">
        <ele>149</ele>
        <time>2021-11-11T09:51:06Z</time>
      </trkpt>
      <trkpt lat="50.49968" lon="4.57358">
        <ele>149</ele>
        <time>2021-11-11T09:51:08Z</time>
      </trkpt>
      <trkpt lat="50.49969" lon="4.57368">
        <ele>149</ele>
        <time>2021-11-11T09:51:10Z</time>
      </trkpt>
      <trkpt lat="50.49971" lon="4.5738">
        <ele>148</ele>
        <time>2021-11-11T09:51:12Z</time>
      </trkpt>
      <trkpt lat="50.49971" lon="4.57393">
        <ele>148</ele>
        <time>2021-11-11T09:51:14Z</time>
      </trkpt>
      <trkpt lat="50.49971" lon="4.57404">
        <ele>151</ele>
        <time>2021-11-11T09:51:16Z</time>
      </trkpt>
      <trkpt lat="50.49971" lon="4.57415">
        <ele>151</ele>
        <time>2021-11-11T09:51:18Z</time>
      </trkpt>
      <trkpt lat="50.49971" lon="4.57428">
        <ele>151</ele>
        <time>2021-11-11T09:51:20Z</time>
      </trkpt>
      <trkpt lat="50.4997" lon="4.5744">
        <ele>151</ele>
        <time>2021-11-11T09:51:22Z</time>
      </trkpt>
      <trkpt lat="50.4997" lon="4.57452">
        <ele>151</ele>
        <time>2021-11-11T09:51:24Z</time>
      </trkpt>
      <trkpt lat="50.49969" lon="4.57464">
        <ele>152</ele>
        <time>2021-11-11T09:51:26Z</time>
      </trkpt>
      <trkpt lat="50.49969" lon="4.57476">
        <ele>152</ele>
        <time>2021-11-11T09:51:28Z</time>
      </trkpt>
      <trkpt lat="50.49968" lon="4.57489">
        <ele>153</ele>
        <time>2021-11-11T09:51:30Z</time>
      </trkpt>
      <trkpt lat="50.49967" lon="4.57502">
        <ele>153</ele>
        <time>2021-11-11T09:51:32Z</time>
      </trkpt>
      <trkpt lat="50.49967" lon="4.57515">
        <ele>151</ele>
        <time>2021-11-11T09:51:34Z</time>
      </trkpt>
      <trkpt lat="50.49966" lon="4.57529">
        <ele>151</ele>
        <time>2021-11-11T09:51:36Z</time>
      </trkpt>
      <trkpt lat="50.49965" lon="4.57543">
        <ele>150</ele>
        <time>2021-11-11T09:51:38Z</time>
      </trkpt>
      <trkpt lat="50.49964" lon="4.57558">
        <ele>150</ele>
        <time>2021-11-11T09:51:40Z</time>
      </trkpt>
      <trkpt lat="50.49964" lon="4.57571">
        <ele>149</ele>
        <time>2021-11-11T09:51:42Z</time>
      </trkpt>
      <trkpt lat="50.49963" lon="4.57586">
        <ele>149</ele>
        <time>2021-11-11T09:51:44Z</time>
      </trkpt>
      <trkpt lat="50.49963" lon="4.576">
        <ele>149</ele>
        <time>2021-11-11T09:51:46Z</time>
      </trkpt>
      <trkpt lat="50.49962" lon="4.57613">
        <ele>149</ele>
        <time>2021-11-11T09:51:48Z</time>
      </trkpt>
      <trkpt lat="50.49961" lon="4.57626">
        <ele>149</ele>
        <time>2021-11-11T09:51:50Z</time>
      </trkpt>
      <trkpt lat="50.49955" lon="4.57634">
        <ele>150</ele>
        <time>2021-11-11T09:51:52Z</time>
      </trkpt>
      <trkpt lat="50.49948" lon="4.57633">
        <ele>150</ele>
        <time>2021-11-11T09:51:54Z</time>
      </trkpt>
      <trkpt lat="50.49939" lon="4.57631">
        <ele>150</ele>
        <time>2021-11-11T09:51:56Z</time>
      </trkpt>
      <trkpt lat="50.49931" lon="4.57629">
        <ele>150</ele>
        <time>2021-11-11T09:51:58Z</time>
      </trkpt>
      <trkpt lat="50.49923" lon="4.57629">
        <ele>151</ele>
        <time>2021-11-11T09:52:00Z</time>
      </trkpt>
      <trkpt lat="50.49914" lon="4.57628">
        <ele>151</ele>
        <time>2021-11-11T09:52:02Z</time>
      </trkpt>
      <trkpt lat="50.49906" lon="4.57629">
        <ele>151</ele>
        <time>2021-11-11T09:52:04Z</time>
      </trkpt>
      <trkpt lat="50.49897" lon="4.5763">
        <ele>152</ele>
        <time>2021-11-11T09:52:06Z</time>
      </trkpt>
      <trkpt lat="50.49889" lon="4.57632">
        <ele>152</ele>
        <time>2021-11-11T09:52:08Z</time>
      </trkpt>
      <trkpt lat="50.49881" lon="4.57635">
        <ele>152</ele>
        <time>2021-11-11T09:52:10Z</time>
      </trkpt>
      <trkpt lat="50.49874" lon="4.57638">
        <ele>152</ele>
        <time>2021-11-11T09:52:12Z</time>
      </trkpt>
      <trkpt lat="50.49867" lon="4.57641">
        <ele>152</ele>
        <time>2021-11-11T09:52:14Z</time>
      </trkpt>
      <trkpt lat="50.49859" lon="4.57644">
        <ele>152</ele>
        <time>2021-11-11T09:52:16Z</time>
      </trkpt>
      <trkpt lat="50.49851" lon="4.57647">
        <ele>152</ele>
        <time>2021-11-11T09:52:18Z</time>
      </trkpt>
      <trkpt lat="50.49844" lon="4.57651">
        <ele>153</ele>
        <time>2021-11-11T09:52:20Z</time>
      </trkpt>
      <trkpt lat="50.49837" lon="4.57654">
        <ele>153</ele>
        <time>2021-11-11T09:52:22Z</time>
      </trkpt>
      <trkpt lat="50.49831" lon="4.57656">
        <ele>153</ele>
        <time>2021-11-11T09:52:24Z</time>
      </trkpt>
      <trkpt lat="50.49826" lon="4.57659">
        <ele>153</ele>
        <time>2021-11-11T09:52:26Z</time>
      </trkpt>
      <trkpt lat="50.4982" lon="4.57661">
        <ele>153</ele>
        <time>2021-11-11T09:52:28Z</time>
      </trkpt>
      <trkpt lat="50.49813" lon="4.57664">
        <ele>154</ele>
        <time>2021-11-11T09:52:30Z</time>
      </trkpt>
      <trkpt lat="50.49806" lon="4.5767">
        <ele>154</ele>
        <time>2021-11-11T09:52:32Z</time>
      </trkpt>
      <trkpt lat="50.498" lon="4.57675">
        <ele>154</ele>
        <time>2021-11-11T09:52:34Z</time>
      </trkpt>
      <trkpt lat="50.49793" lon="4.57678">
        <ele>154</ele>
        <time>2021-11-11T09:52:36Z</time>
      </trkpt>
      <trkpt lat="50.49784" lon="4.57679">
        <ele>155</ele>
        <time>2021-11-11T09:52:38Z</time>
      </trkpt>
      <trkpt lat="50.49776" lon="4.57682">
        <ele>154</ele>
        <time>2021-11-11T09:52:40Z</time>
      </trkpt>
      <trkpt lat="50.49768" lon="4.57683">
        <ele>154</ele>
        <time>2021-11-11T09:52:42Z</time>
      </trkpt>
      <trkpt lat="50.49759" lon="4.57685">
        <ele>154</ele>
        <time>2021-11-11T09:52:44Z</time>
      </trkpt>
      <trkpt lat="50.49751" lon="4.57688">
        <ele>154</ele>
        <time>2021-11-11T09:52:46Z</time>
      </trkpt>
      <trkpt lat="50.49742" lon="4.5769">
        <ele>154</ele>
        <time>2021-11-11T09:52:48Z</time>
      </trkpt>
      <trkpt lat="50.49733" lon="4.57692">
        <ele>154</ele>
        <time>2021-11-11T09:52:50Z</time>
      </trkpt>
      <trkpt lat="50.49724" lon="4.57695">
        <ele>154</ele>
        <time>2021-11-11T09:52:52Z</time>
      </trkpt>
      <trkpt lat="50.49716" lon="4.57697">
        <ele>154</ele>
        <time>2021-11-11T09:52:54Z</time>
      </trkpt>
      <trkpt lat="50.49708" lon="4.57699">
        <ele>155</ele>
        <time>2021-11-11T09:52:56Z</time>
      </trkpt>
      <trkpt lat="50.497" lon="4.57701">
        <ele>155</ele>
        <time>2021-11-11T09:52:58Z</time>
      </trkpt>
      <trkpt lat="50.49692" lon="4.57703">
        <ele>155</ele>
        <time>2021-11-11T09:53:00Z</time>
      </trkpt>
      <trkpt lat="50.49684" lon="4.57706">
        <ele>155</ele>
        <time>2021-11-11T09:53:02Z</time>
      </trkpt>
      <trkpt lat="50.49677" lon="4.57708">
        <ele>155</ele>
        <time>2021-11-11T09:53:04Z</time>
      </trkpt>
      <trkpt lat="50.49669" lon="4.57711">
        <ele>156</ele>
        <time>2021-11-11T09:53:06Z</time>
      </trkpt>
      <trkpt lat="50.49661" lon="4.57714">
        <ele>156</ele>
        <time>2021-11-11T09:53:08Z</time>
      </trkpt>
      <trkpt lat="50.49653" lon="4.57717">
        <ele>156</ele>
        <time>2021-11-11T09:53:10Z</time>
      </trkpt>
      <trkpt lat="50.49645" lon="4.5772">
        <ele>156</ele>
        <time>2021-11-11T09:53:12Z</time>
      </trkpt>
      <trkpt lat="50.49638" lon="4.57723">
        <ele>156</ele>
        <time>2021-11-11T09:53:14Z</time>
      </trkpt>
      <trkpt lat="50.49631" lon="4.57727">
        <ele>156</ele>
        <time>2021-11-11T09:53:16Z</time>
      </trkpt>
      <trkpt lat="50.49624" lon="4.57731">
        <ele>154</ele>
        <time>2021-11-11T09:53:18Z</time>
      </trkpt>
      <trkpt lat="50.49617" lon="4.57737">
        <ele>153</ele>
        <time>2021-11-11T09:53:20Z</time>
      </trkpt>
      <trkpt lat="50.49611" lon="4.57742">
        <ele>153</ele>
        <time>2021-11-11T09:53:22Z</time>
      </trkpt>
      <trkpt lat="50.49604" lon="4.57746">
        <ele>153</ele>
        <time>2021-11-11T09:53:24Z</time>
      </trkpt>
      <trkpt lat="50.49598" lon="4.5775">
        <ele>153</ele>
        <time>2021-11-11T09:53:26Z</time>
      </trkpt>
      <trkpt lat="50.49592" lon="4.57754">
        <ele>153</ele>
        <time>2021-11-11T09:53:28Z</time>
      </trkpt>
      <trkpt lat="50.49587" lon="4.57758">
        <ele>153</ele>
        <time>2021-11-11T09:53:30Z</time>
      </trkpt>
      <trkpt lat="50.49581" lon="4.57761">
        <ele>153</ele>
        <time>2021-11-11T09:53:32Z</time>
      </trkpt>
      <trkpt lat="50.49575" lon="4.57765">
        <ele>153</ele>
        <time>2021-11-11T09:53:34Z</time>
      </trkpt>
      <trkpt lat="50.4957" lon="4.57768">
        <ele>153</ele>
        <time>2021-11-11T09:53:36Z</time>
      </trkpt>
      <trkpt lat="50.49564" lon="4.57771">
        <ele>155</ele>
        <time>2021-11-11T09:53:38Z</time>
      </trkpt>
      <trkpt lat="50.49558" lon="4.57774">
        <ele>155</ele>
        <time>2021-11-11T09:53:40Z</time>
      </trkpt>
      <trkpt lat="50.49552" lon="4.57777">
        <ele>155</ele>
        <time>2021-11-11T09:53:42Z</time>
      </trkpt>
      <trkpt lat="50.49546" lon="4.57781">
        <ele>155</ele>
        <time>2021-11-11T09:53:44Z</time>
      </trkpt>
      <trkpt lat="50.4954" lon="4.57784">
        <ele>157</ele>
        <time>2021-11-11T09:53:46Z</time>
      </trkpt>
      <trkpt lat="50.49534" lon="4.57787">
        <ele>157</ele>
        <time>2021-11-11T09:53:48Z</time>
      </trkpt>
      <trkpt lat="50.49529" lon="4.57791">
        <ele>157</ele>
        <time>2021-11-11T09:53:50Z</time>
      </trkpt>
      <trkpt lat="50.49523" lon="4.57795">
        <ele>156</ele>
        <time>2021-11-11T09:53:52Z</time>
      </trkpt>
      <trkpt lat="50.49517" lon="4.57798">
        <ele>156</ele>
        <time>2021-11-11T09:53:54Z</time>
      </trkpt>
      <trkpt lat="50.49511" lon="4.57802">
        <ele>157</ele>
        <time>2021-11-11T09:53:56Z</time>
      </trkpt>
      <trkpt lat="50.49505" lon="4.57805">
        <ele>157</ele>
        <time>2021-11-11T09:53:58Z</time>
      </trkpt>
      <trkpt lat="50.49499" lon="4.57808">
        <ele>157</ele>
        <time>2021-11-11T09:54:00Z</time>
      </trkpt>
      <trkpt lat="50.49493" lon="4.57812">
        <ele>157</ele>
        <time>2021-11-11T09:54:02Z</time>
      </trkpt>
      <trkpt lat="50.49486" lon="4.57815">
        <ele>157</ele>
        <time>2021-11-11T09:54:04Z</time>
      </trkpt>
      <trkpt lat="50.4948" lon="4.57819">
        <ele>157</ele>
        <time>2021-11-11T09:54:06Z</time>
      </trkpt>
      <trkpt lat="50.49473" lon="4.57823">
        <ele>156</ele>
        <time>2021-11-11T09:54:08Z</time>
      </trkpt>
      <trkpt lat="50.49466" lon="4.57827">
        <ele>156</ele>
        <time>2021-11-11T09:54:10Z</time>
      </trkpt>
      <trkpt lat="50.4946" lon="4.57831">
        <ele>156</ele>
        <time>2021-11-11T09:54:12Z</time>
      </trkpt>
      <trkpt lat="50.49453" lon="4.57835">
        <ele>155</ele>
        <time>2021-11-11T09:54:14Z</time>
      </trkpt>
      <trkpt lat="50.49446" lon="4.57839">
        <ele>155</ele>
        <time>2021-11-11T09:54:16Z</time>
      </trkpt>
      <trkpt lat="50.49439" lon="4.57843">
        <ele>155</ele>
        <time>2021-11-11T09:54:18Z</time>
      </trkpt>
      <trkpt lat="50.49433" lon="4.57847">
        <ele>155</ele>
        <time>2021-11-11T09:54:20Z</time>
      </trkpt>
      <trkpt lat="50.49426" lon="4.5785">
        <ele>155</ele>
        <time>2021-11-11T09:54:22Z</time>
      </trkpt>
      <trkpt lat="50.4942" lon="4.57854">
        <ele>155</ele>
        <time>2021-11-11T09:54:24Z</time>
      </trkpt>
      <trkpt lat="50.49414" lon="4.57858">
        <ele>155</ele>
        <time>2021-11-11T09:54:26Z</time>
      </trkpt>
      <trkpt lat="50.49407" lon="4.57863">
        <ele>155</ele>
        <time>2021-11-11T09:54:28Z</time>
      </trkpt>
      <trkpt lat="50.494" lon="4.57868">
        <ele>155</ele>
        <time>2021-11-11T09:54:30Z</time>
      </trkpt>
      <trkpt lat="50.49394" lon="4.57872">
        <ele>155</ele>
        <time>2021-11-11T09:54:32Z</time>
      </trkpt>
      <trkpt lat="50.49387" lon="4.57877">
        <ele>155</ele>
        <time>2021-11-11T09:54:34Z</time>
      </trkpt>
      <trkpt lat="50.4938" lon="4.57883">
        <ele>155</ele>
        <time>2021-11-11T09:54:36Z</time>
      </trkpt>
      <trkpt lat="50.49373" lon="4.57889">
        <ele>155</ele>
        <time>2021-11-11T09:54:38Z</time>
      </trkpt>
      <trkpt lat="50.49366" lon="4.57895">
        <ele>155</ele>
        <time>2021-11-11T09:54:40Z</time>
      </trkpt>
      <trkpt lat="50.4936" lon="4.57901">
        <ele>155</ele>
        <time>2021-11-11T09:54:42Z</time>
      </trkpt>
      <trkpt lat="50.49353" lon="4.57907">
        <ele>156</ele>
        <time>2021-11-11T09:54:44Z</time>
      </trkpt>
      <trkpt lat="50.49347" lon="4.57913">
        <ele>156</ele>
        <time>2021-11-11T09:54:46Z</time>
      </trkpt>
      <trkpt lat="50.49342" lon="4.5792">
        <ele>156</ele>
        <time>2021-11-11T09:54:48Z</time>
      </trkpt>
      <trkpt lat="50.49334" lon="4.57928">
        <ele>156</ele>
        <time>2021-11-11T09:54:50Z</time>
      </trkpt>
      <trkpt lat="50.49327" lon="4.57936">
        <ele>155</ele>
        <time>2021-11-11T09:54:52Z</time>
      </trkpt>
      <trkpt lat="50.49319" lon="4.57944">
        <ele>155</ele>
        <time>2021-11-11T09:54:54Z</time>
      </trkpt>
      <trkpt lat="50.49311" lon="4.57952">
        <ele>155</ele>
        <time>2021-11-11T09:54:56Z</time>
      </trkpt>
      <trkpt lat="50.49303" lon="4.57959">
        <ele>155</ele>
        <time>2021-11-11T09:54:58Z</time>
      </trkpt>
      <trkpt lat="50.49294" lon="4.57966">
        <ele>155</ele>
        <time>2021-11-11T09:55:00Z</time>
      </trkpt>
      <trkpt lat="50.49285" lon="4.57972">
        <ele>154</ele>
        <time>2021-11-11T09:55:02Z</time>
      </trkpt>
      <trkpt lat="50.49275" lon="4.57977">
        <ele>154</ele>
        <time>2021-11-11T09:55:04Z</time>
      </trkpt>
      <trkpt lat="50.49264" lon="4.5798">
        <ele>154</ele>
        <time>2021-11-11T09:55:06Z</time>
      </trkpt>
      <trkpt lat="50.49254" lon="4.57983">
        <ele>154</ele>
        <time>2021-11-11T09:55:08Z</time>
      </trkpt>
      <trkpt lat="50.49243" lon="4.57985">
        <ele>154</ele>
        <time>2021-11-11T09:55:10Z</time>
      </trkpt>
      <trkpt lat="50.49234" lon="4.57986">
        <ele>153</ele>
        <time>2021-11-11T09:55:12Z</time>
      </trkpt>
      <trkpt lat="50.49224" lon="4.57987">
        <ele>153</ele>
        <time>2021-11-11T09:55:14Z</time>
      </trkpt>
      <trkpt lat="50.49213" lon="4.57988">
        <ele>153</ele>
        <time>2021-11-11T09:55:16Z</time>
      </trkpt>
      <trkpt lat="50.49204" lon="4.57989">
        <ele>152</ele>
        <time>2021-11-11T09:55:18Z</time>
      </trkpt>
      <trkpt lat="50.49194" lon="4.5799">
        <ele>152</ele>
        <time>2021-11-11T09:55:20Z</time>
      </trkpt>
      <trkpt lat="50.49185" lon="4.5799">
        <ele>152</ele>
        <time>2021-11-11T09:55:22Z</time>
      </trkpt>
      <trkpt lat="50.49177" lon="4.57991">
        <ele>152</ele>
        <time>2021-11-11T09:55:24Z</time>
      </trkpt>
      <trkpt lat="50.49167" lon="4.57992">
        <ele>152</ele>
        <time>2021-11-11T09:55:26Z</time>
      </trkpt>
      <trkpt lat="50.49158" lon="4.57992">
        <ele>152</ele>
        <time>2021-11-11T09:55:28Z</time>
      </trkpt>
      <trkpt lat="50.49149" lon="4.57993">
        <ele>151</ele>
        <time>2021-11-11T09:55:30Z</time>
      </trkpt>
      <trkpt lat="50.49141" lon="4.57993">
        <ele>151</ele>
        <time>2021-11-11T09:55:32Z</time>
      </trkpt>
      <trkpt lat="50.49132" lon="4.57993">
        <ele>151</ele>
        <time>2021-11-11T09:55:34Z</time>
      </trkpt>
      <trkpt lat="50.49124" lon="4.57993">
        <ele>151</ele>
        <time>2021-11-11T09:55:36Z</time>
      </trkpt>
      <trkpt lat="50.49118" lon="4.57993">
        <ele>151</ele>
        <time>2021-11-11T09:55:38Z</time>
      </trkpt>
      <trkpt lat="50.49112" lon="4.57993">
        <ele>151</ele>
        <time>2021-11-11T09:55:40Z</time>
      </trkpt>
      <trkpt lat="50.49107" lon="4.57992">
        <ele>151</ele>
        <time>2021-11-11T09:55:42Z</time>
      </trkpt>
      <trkpt lat="50.49101" lon="4.57991">
        <ele>151</ele>
        <time>2021-11-11T09:55:44Z</time>
      </trkpt>
      <trkpt lat="50.49096" lon="4.5799">
        <ele>150</ele>
        <time>2021-11-11T09:55:46Z</time>
      </trkpt>
      <trkpt lat="50.49091" lon="4.57989">
        <ele>150</ele>
        <time>2021-11-11T09:55:48Z</time>
      </trkpt>
      <trkpt lat="50.49085" lon="4.57988">
        <ele>150</ele>
        <time>2021-11-11T09:55:50Z</time>
      </trkpt>
      <trkpt lat="50.49079" lon="4.57987">
        <ele>150</ele>
        <time>2021-11-11T09:55:52Z</time>
      </trkpt>
      <trkpt lat="50.49073" lon="4.57987">
        <ele>150</ele>
        <time>2021-11-11T09:55:54Z</time>
      </trkpt>
      <trkpt lat="50.49068" lon="4.57986">
        <ele>148</ele>
        <time>2021-11-11T09:55:56Z</time>
      </trkpt>
      <trkpt lat="50.49063" lon="4.57986">
        <ele>150</ele>
        <time>2021-11-11T09:55:58Z</time>
      </trkpt>
      <trkpt lat="50.49057" lon="4.57985">
        <ele>150</ele>
        <time>2021-11-11T09:56:00Z</time>
      </trkpt>
      <trkpt lat="50.49052" lon="4.57984">
        <ele>150</ele>
        <time>2021-11-11T09:56:02Z</time>
      </trkpt>
      <trkpt lat="50.49047" lon="4.57983">
        <ele>150</ele>
        <time>2021-11-11T09:56:04Z</time>
      </trkpt>
      <trkpt lat="50.49042" lon="4.57982">
        <ele>150</ele>
        <time>2021-11-11T09:56:06Z</time>
      </trkpt>
      <trkpt lat="50.49037" lon="4.57981">
        <ele>150</ele>
        <time>2021-11-11T09:56:08Z</time>
      </trkpt>
      <trkpt lat="50.49032" lon="4.57981">
        <ele>150</ele>
        <time>2021-11-11T09:56:10Z</time>
      </trkpt>
      <trkpt lat="50.49027" lon="4.57979">
        <ele>150</ele>
        <time>2021-11-11T09:56:12Z</time>
      </trkpt>
      <trkpt lat="50.49022" lon="4.57979">
        <ele>150</ele>
        <time>2021-11-11T09:56:14Z</time>
      </trkpt>
      <trkpt lat="50.49017" lon="4.57979">
        <ele>150</ele>
        <time>2021-11-11T09:56:16Z</time>
      </trkpt>
      <trkpt lat="50.49012" lon="4.57978">
        <ele>151</ele>
        <time>2021-11-11T09:56:18Z</time>
      </trkpt>
      <trkpt lat="50.49007" lon="4.57978">
        <ele>151</ele>
        <time>2021-11-11T09:56:20Z</time>
      </trkpt>
      <trkpt lat="50.49001" lon="4.57978">
        <ele>151</ele>
        <time>2021-11-11T09:56:22Z</time>
      </trkpt>
      <trkpt lat="50.48996" lon="4.57978">
        <ele>151</ele>
        <time>2021-11-11T09:56:24Z</time>
      </trkpt>
      <trkpt lat="50.4899" lon="4.57979">
        <ele>151</ele>
        <time>2021-11-11T09:56:26Z</time>
      </trkpt>
      <trkpt lat="50.48984" lon="4.5798">
        <ele>152</ele>
        <time>2021-11-11T09:56:28Z</time>
      </trkpt>
      <trkpt lat="50.48978" lon="4.57981">
        <ele>152</ele>
        <time>2021-11-11T09:56:30Z</time>
      </trkpt>
      <trkpt lat="50.48972" lon="4.57982">
        <ele>152</ele>
        <time>2021-11-11T09:56:32Z</time>
      </trkpt>
      <trkpt lat="50.48966" lon="4.57985">
        <ele>152</ele>
        <time>2021-11-11T09:56:34Z</time>
      </trkpt>
      <trkpt lat="50.4896" lon="4.57988">
        <ele>152</ele>
        <time>2021-11-11T09:56:36Z</time>
      </trkpt>
      <trkpt lat="50.48954" lon="4.57991">
        <ele>153</ele>
        <time>2021-11-11T09:56:38Z</time>
      </trkpt>
      <trkpt lat="50.48948" lon="4.57994">
        <ele>153</ele>
        <time>2021-11-11T09:56:40Z</time>
      </trkpt>
      <trkpt lat="50.48943" lon="4.57997">
        <ele>153</ele>
        <time>2021-11-11T09:56:42Z</time>
      </trkpt>
      <trkpt lat="50.48937" lon="4.58">
        <ele>153</ele>
        <time>2021-11-11T09:56:44Z</time>
      </trkpt>
      <trkpt lat="50.48931" lon="4.58003">
        <ele>153</ele>
        <time>2021-11-11T09:56:46Z</time>
      </trkpt>
      <trkpt lat="50.48925" lon="4.58007">
        <ele>154</ele>
        <time>2021-11-11T09:56:48Z</time>
      </trkpt>
      <trkpt lat="50.48918" lon="4.58011">
        <ele>154</ele>
        <time>2021-11-11T09:56:50Z</time>
      </trkpt>
      <trkpt lat="50.48912" lon="4.58015">
        <ele>155</ele>
        <time>2021-11-11T09:56:52Z</time>
      </trkpt>
      <trkpt lat="50.48906" lon="4.58019">
        <ele>155</ele>
        <time>2021-11-11T09:56:54Z</time>
      </trkpt>
      <trkpt lat="50.489" lon="4.58023">
        <ele>155</ele>
        <time>2021-11-11T09:56:56Z</time>
      </trkpt>
      <trkpt lat="50.48893" lon="4.58028">
        <ele>155</ele>
        <time>2021-11-11T09:56:58Z</time>
      </trkpt>
      <trkpt lat="50.48887" lon="4.58032">
        <ele>155</ele>
        <time>2021-11-11T09:57:00Z</time>
      </trkpt>
      <trkpt lat="50.4888" lon="4.58036">
        <ele>155</ele>
        <time>2021-11-11T09:57:02Z</time>
      </trkpt>
      <trkpt lat="50.48874" lon="4.5804">
        <ele>156</ele>
        <time>2021-11-11T09:57:04Z</time>
      </trkpt>
      <trkpt lat="50.48867" lon="4.58044">
        <ele>156</ele>
        <time>2021-11-11T09:57:06Z</time>
      </trkpt>
      <trkpt lat="50.48862" lon="4.58047">
        <ele>156</ele>
        <time>2021-11-11T09:57:08Z</time>
      </trkpt>
      <trkpt lat="50.48856" lon="4.5805">
        <ele>156</ele>
        <time>2021-11-11T09:57:10Z</time>
      </trkpt>
      <trkpt lat="50.4885" lon="4.58054">
        <ele>156</ele>
        <time>2021-11-11T09:57:12Z</time>
      </trkpt>
      <trkpt lat="50.48845" lon="4.58057">
        <ele>155</ele>
        <time>2021-11-11T09:57:14Z</time>
      </trkpt>
      <trkpt lat="50.48839" lon="4.58061">
        <ele>155</ele>
        <time>2021-11-11T09:57:16Z</time>
      </trkpt>
      <trkpt lat="50.48834" lon="4.58065">
        <ele>155</ele>
        <time>2021-11-11T09:57:18Z</time>
      </trkpt>
      <trkpt lat="50.48828" lon="4.58068">
        <ele>155</ele>
        <time>2021-11-11T09:57:20Z</time>
      </trkpt>
      <trkpt lat="50.48822" lon="4.58072">
        <ele>155</ele>
        <time>2021-11-11T09:57:22Z</time>
      </trkpt>
      <trkpt lat="50.48816" lon="4.58076">
        <ele>156</ele>
        <time>2021-11-11T09:57:24Z</time>
      </trkpt>
      <trkpt lat="50.4881" lon="4.58081">
        <ele>156</ele>
        <time>2021-11-11T09:57:26Z</time>
      </trkpt>
      <trkpt lat="50.48803" lon="4.58085">
        <ele>156</ele>
        <time>2021-11-11T09:57:28Z</time>
      </trkpt>
      <trkpt lat="50.48797" lon="4.5809">
        <ele>156</ele>
        <time>2021-11-11T09:57:30Z</time>
      </trkpt>
      <trkpt lat="50.48789" lon="4.58095">
        <ele>157</ele>
        <time>2021-11-11T09:57:32Z</time>
      </trkpt>
      <trkpt lat="50.48782" lon="4.581">
        <ele>157</ele>
        <time>2021-11-11T09:57:34Z</time>
      </trkpt>
      <trkpt lat="50.48775" lon="4.58105">
        <ele>157</ele>
        <time>2021-11-11T09:57:36Z</time>
      </trkpt>
      <trkpt lat="50.48768" lon="4.5811">
        <ele>157</ele>
        <time>2021-11-11T09:57:38Z</time>
      </trkpt>
      <trkpt lat="50.48762" lon="4.58115">
        <ele>158</ele>
        <time>2021-11-11T09:57:40Z</time>
      </trkpt>
      <trkpt lat="50.48755" lon="4.58121">
        <ele>158</ele>
        <time>2021-11-11T09:57:42Z</time>
      </trkpt>
      <trkpt lat="50.48749" lon="4.58128">
        <ele>158</ele>
        <time>2021-11-11T09:57:44Z</time>
      </trkpt>
      <trkpt lat="50.48743" lon="4.58136">
        <ele>158</ele>
        <time>2021-11-11T09:57:46Z</time>
      </trkpt>
      <trkpt lat="50.48738" lon="4.58144">
        <ele>158</ele>
        <time>2021-11-11T09:57:48Z</time>
      </trkpt>
      <trkpt lat="50.48733" lon="4.58153">
        <ele>158</ele>
        <time>2021-11-11T09:57:50Z</time>
      </trkpt>
      <trkpt lat="50.48728" lon="4.58163">
        <ele>158</ele>
        <time>2021-11-11T09:57:52Z</time>
      </trkpt>
      <trkpt lat="50.48723" lon="4.58173">
        <ele>158</ele>
        <time>2021-11-11T09:57:54Z</time>
      </trkpt>
      <trkpt lat="50.48719" lon="4.58182">
        <ele>159</ele>
        <time>2021-11-11T09:57:56Z</time>
      </trkpt>
      <trkpt lat="50.48714" lon="4.58191">
        <ele>159</ele>
        <time>2021-11-11T09:57:58Z</time>
      </trkpt>
      <trkpt lat="50.48708" lon="4.58199">
        <ele>159</ele>
        <time>2021-11-11T09:58:00Z</time>
      </trkpt>
      <trkpt lat="50.48701" lon="4.58207">
        <ele>159</ele>
        <time>2021-11-11T09:58:02Z</time>
      </trkpt>
      <trkpt lat="50.48694" lon="4.58213">
        <ele>157</ele>
        <time>2021-11-11T09:58:04Z</time>
      </trkpt>
      <trkpt lat="50.48686" lon="4.58219">
        <ele>157</ele>
        <time>2021-11-11T09:58:06Z</time>
      </trkpt>
      <trkpt lat="50.48678" lon="4.58224">
        <ele>158</ele>
        <time>2021-11-11T09:58:08Z</time>
      </trkpt>
      <trkpt lat="50.4867" lon="4.58229">
        <ele>158</ele>
        <time>2021-11-11T09:58:10Z</time>
      </trkpt>
      <trkpt lat="50.48662" lon="4.58233">
        <ele>158</ele>
        <time>2021-11-11T09:58:12Z</time>
      </trkpt>
      <trkpt lat="50.48654" lon="4.58238">
        <ele>157</ele>
        <time>2021-11-11T09:58:14Z</time>
      </trkpt>
      <trkpt lat="50.48646" lon="4.58243">
        <ele>157</ele>
        <time>2021-11-11T09:58:16Z</time>
      </trkpt>
      <trkpt lat="50.48639" lon="4.58248">
        <ele>157</ele>
        <time>2021-11-11T09:58:18Z</time>
      </trkpt>
      <trkpt lat="50.48631" lon="4.58252">
        <ele>157</ele>
        <time>2021-11-11T09:58:20Z</time>
      </trkpt>
      <trkpt lat="50.48624" lon="4.58256">
        <ele>157</ele>
        <time>2021-11-11T09:58:22Z</time>
      </trkpt>
      <trkpt lat="50.48618" lon="4.5826">
        <ele>157</ele>
        <time>2021-11-11T09:58:24Z</time>
      </trkpt>
      <trkpt lat="50.48612" lon="4.58264">
        <ele>157</ele>
        <time>2021-11-11T09:58:26Z</time>
      </trkpt>
      <trkpt lat="50.48606" lon="4.58267">
        <ele>158</ele>
        <time>2021-11-11T09:58:28Z</time>
      </trkpt>
      <trkpt lat="50.486" lon="4.58271">
        <ele>158</ele>
        <time>2021-11-11T09:58:30Z</time>
      </trkpt>
      <trkpt lat="50.48594" lon="4.58275">
        <ele>158</ele>
        <time>2021-11-11T09:58:32Z</time>
      </trkpt>
      <trkpt lat="50.48588" lon="4.58279">
        <ele>158</ele>
        <time>2021-11-11T09:58:34Z</time>
      </trkpt>
      <trkpt lat="50.48581" lon="4.58283">
        <ele>158</ele>
        <time>2021-11-11T09:58:36Z</time>
      </trkpt>
      <trkpt lat="50.48574" lon="4.58288">
        <ele>158</ele>
        <time>2021-11-11T09:58:38Z</time>
      </trkpt>
      <trkpt lat="50.48567" lon="4.58293">
        <ele>158</ele>
        <time>2021-11-11T09:58:40Z</time>
      </trkpt>
      <trkpt lat="50.48559" lon="4.58298">
        <ele>158</ele>
        <time>2021-11-11T09:58:42Z</time>
      </trkpt>
      <trkpt lat="50.48551" lon="4.58303">
        <ele>158</ele>
        <time>2021-11-11T09:58:44Z</time>
      </trkpt>
      <trkpt lat="50.48542" lon="4.58308">
        <ele>158</ele>
        <time>2021-11-11T09:58:46Z</time>
      </trkpt>
      <trkpt lat="50.48534" lon="4.58314">
        <ele>158</ele>
        <time>2021-11-11T09:58:48Z</time>
      </trkpt>
      <trkpt lat="50.48526" lon="4.58319">
        <ele>158</ele>
        <time>2021-11-11T09:58:50Z</time>
      </trkpt>
      <trkpt lat="50.48518" lon="4.58324">
        <ele>158</ele>
        <time>2021-11-11T09:58:52Z</time>
      </trkpt>
      <trkpt lat="50.48509" lon="4.5833">
        <ele>158</ele>
        <time>2021-11-11T09:58:54Z</time>
      </trkpt>
      <trkpt lat="50.48501" lon="4.58336">
        <ele>158</ele>
        <time>2021-11-11T09:58:56Z</time>
      </trkpt>
      <trkpt lat="50.48492" lon="4.58342">
        <ele>158</ele>
        <time>2021-11-11T09:58:58Z</time>
      </trkpt>
      <trkpt lat="50.48484" lon="4.58348">
        <ele>157</ele>
        <time>2021-11-11T09:59:00Z</time>
      </trkpt>
      <trkpt lat="50.48475" lon="4.58353">
        <ele>157</ele>
        <time>2021-11-11T09:59:02Z</time>
      </trkpt>
      <trkpt lat="50.48465" lon="4.58359">
        <ele>157</ele>
        <time>2021-11-11T09:59:04Z</time>
      </trkpt>
      <trkpt lat="50.48457" lon="4.58366">
        <ele>156</ele>
        <time>2021-11-11T09:59:06Z</time>
      </trkpt>
      <trkpt lat="50.48448" lon="4.58373">
        <ele>156</ele>
        <time>2021-11-11T09:59:08Z</time>
      </trkpt>
      <trkpt lat="50.48441" lon="4.5838">
        <ele>158</ele>
        <time>2021-11-11T09:59:10Z</time>
      </trkpt>
      <trkpt lat="50.48432" lon="4.58381">
        <ele>158</ele>
        <time>2021-11-11T09:59:12Z</time>
      </trkpt>
      <trkpt lat="50.48424" lon="4.58377">
        <ele>157</ele>
        <time>2021-11-11T09:59:14Z</time>
      </trkpt>
      <trkpt lat="50.48415" lon="4.58371">
        <ele>156</ele>
        <time>2021-11-11T09:59:16Z</time>
      </trkpt>
      <trkpt lat="50.48407" lon="4.58364">
        <ele>156</ele>
        <time>2021-11-11T09:59:18Z</time>
      </trkpt>
      <trkpt lat="50.48398" lon="4.58359">
        <ele>155</ele>
        <time>2021-11-11T09:59:20Z</time>
      </trkpt>
      <trkpt lat="50.48389" lon="4.58354">
        <ele>155</ele>
        <time>2021-11-11T09:59:22Z</time>
      </trkpt>
      <trkpt lat="50.48381" lon="4.58349">
        <ele>155</ele>
        <time>2021-11-11T09:59:24Z</time>
      </trkpt>
      <trkpt lat="50.48373" lon="4.58344">
        <ele>154</ele>
        <time>2021-11-11T09:59:26Z</time>
      </trkpt>
      <trkpt lat="50.48364" lon="4.58339">
        <ele>154</ele>
        <time>2021-11-11T09:59:28Z</time>
      </trkpt>
      <trkpt lat="50.48356" lon="4.58333">
        <ele>154</ele>
        <time>2021-11-11T09:59:30Z</time>
      </trkpt>
      <trkpt lat="50.48347" lon="4.58328">
        <ele>154</ele>
        <time>2021-11-11T09:59:32Z</time>
      </trkpt>
      <trkpt lat="50.48338" lon="4.58322">
        <ele>154</ele>
        <time>2021-11-11T09:59:34Z</time>
      </trkpt>
      <trkpt lat="50.48329" lon="4.58317">
        <ele>156</ele>
        <time>2021-11-11T09:59:36Z</time>
      </trkpt>
      <trkpt lat="50.48321" lon="4.58311">
        <ele>156</ele>
        <time>2021-11-11T09:59:38Z</time>
      </trkpt>
      <trkpt lat="50.48312" lon="4.58307">
        <ele>156</ele>
        <time>2021-11-11T09:59:40Z</time>
      </trkpt>
      <trkpt lat="50.48303" lon="4.58302">
        <ele>156</ele>
        <time>2021-11-11T09:59:42Z</time>
      </trkpt>
      <trkpt lat="50.48294" lon="4.58298">
        <ele>156</ele>
        <time>2021-11-11T09:59:44Z</time>
      </trkpt>
      <trkpt lat="50.48283" lon="4.58296">
        <ele>156</ele>
        <time>2021-11-11T09:59:46Z</time>
      </trkpt>
      <trkpt lat="50.48272" lon="4.58294">
        <ele>156</ele>
        <time>2021-11-11T09:59:48Z</time>
      </trkpt>
      <trkpt lat="50.4826" lon="4.58291">
        <ele>156</ele>
        <time>2021-11-11T09:59:50Z</time>
      </trkpt>
      <trkpt lat="50.48247" lon="4.58287">
        <ele>156</ele>
        <time>2021-11-11T09:59:52Z</time>
      </trkpt>
      <trkpt lat="50.48235" lon="4.58282">
        <ele>156</ele>
        <time>2021-11-11T09:59:54Z</time>
      </trkpt>
      <trkpt lat="50.48225" lon="4.58276">
        <ele>156</ele>
        <time>2021-11-11T09:59:56Z</time>
      </trkpt>
      <trkpt lat="50.48213" lon="4.5827">
        <ele>156</ele>
        <time>2021-11-11T09:59:58Z</time>
      </trkpt>
      <trkpt lat="50.48202" lon="4.58266">
        <ele>156</ele>
        <time>2021-11-11T10:00:00Z</time>
      </trkpt>
      <trkpt lat="50.48193" lon="4.58257">
        <ele>155</ele>
        <time>2021-11-11T10:00:02Z</time>
      </trkpt>
      <trkpt lat="50.48187" lon="4.58243">
        <ele>155</ele>
        <time>2021-11-11T10:00:04Z</time>
      </trkpt>
      <trkpt lat="50.48185" lon="4.58229">
        <ele>154</ele>
        <time>2021-11-11T10:00:06Z</time>
      </trkpt>
      <trkpt lat="50.48182" lon="4.58214">
        <ele>154</ele>
        <time>2021-11-11T10:00:08Z</time>
      </trkpt>
      <trkpt lat="50.4818" lon="4.582">
        <ele>154</ele>
        <time>2021-11-11T10:00:10Z</time>
      </trkpt>
      <trkpt lat="50.48177" lon="4.58188">
        <ele>154</ele>
        <time>2021-11-11T10:00:12Z</time>
      </trkpt>
      <trkpt lat="50.48175" lon="4.58175">
        <ele>154</ele>
        <time>2021-11-11T10:00:14Z</time>
      </trkpt>
      <trkpt lat="50.48173" lon="4.58163">
        <ele>154</ele>
        <time>2021-11-11T10:00:16Z</time>
      </trkpt>
      <trkpt lat="50.48171" lon="4.58152">
        <ele>153</ele>
        <time>2021-11-11T10:00:18Z</time>
      </trkpt>
      <trkpt lat="50.48168" lon="4.58141">
        <ele>153</ele>
        <time>2021-11-11T10:00:20Z</time>
      </trkpt>
      <trkpt lat="50.48166" lon="4.58131">
        <ele>153</ele>
        <time>2021-11-11T10:00:22Z</time>
      </trkpt>
      <trkpt lat="50.4816" lon="4.58126">
        <ele>153</ele>
        <time>2021-11-11T10:00:24Z</time>
      </trkpt>
      <trkpt lat="50.48153" lon="4.58127">
        <ele>152</ele>
        <time>2021-11-11T10:00:26Z</time>
      </trkpt>
      <trkpt lat="50.48146" lon="4.58132">
        <ele>152</ele>
        <time>2021-11-11T10:00:28Z</time>
      </trkpt>
      <trkpt lat="50.48139" lon="4.58136">
        <ele>152</ele>
        <time>2021-11-11T10:00:30Z</time>
      </trkpt>
      <trkpt lat="50.48132" lon="4.5814">
        <ele>152</ele>
        <time>2021-11-11T10:00:32Z</time>
      </trkpt>
      <trkpt lat="50.48125" lon="4.58144">
        <ele>152</ele>
        <time>2021-11-11T10:00:34Z</time>
      </trkpt>
      <trkpt lat="50.48118" lon="4.58149">
        <ele>152</ele>
        <time>2021-11-11T10:00:36Z</time>
      </trkpt>
      <trkpt lat="50.48111" lon="4.58154">
        <ele>153</ele>
        <time>2021-11-11T10:00:38Z</time>
      </trkpt>
      <trkpt lat="50.48103" lon="4.58159">
        <ele>153</ele>
        <time>2021-11-11T10:00:40Z</time>
      </trkpt>
      <trkpt lat="50.48096" lon="4.58165">
        <ele>152</ele>
        <time>2021-11-11T10:00:42Z</time>
      </trkpt>
      <trkpt lat="50.48088" lon="4.5817">
        <ele>152</ele>
        <time>2021-11-11T10:00:44Z</time>
      </trkpt>
      <trkpt lat="50.4808" lon="4.58176">
        <ele>152</ele>
        <time>2021-11-11T10:00:46Z</time>
      </trkpt>
      <trkpt lat="50.4807" lon="4.58182">
        <ele>153</ele>
        <time>2021-11-11T10:00:48Z</time>
      </trkpt>
      <trkpt lat="50.4806" lon="4.5819">
        <ele>152</ele>
        <time>2021-11-11T10:00:50Z</time>
      </trkpt>
      <trkpt lat="50.48049" lon="4.58198">
        <ele>152</ele>
        <time>2021-11-11T10:00:52Z</time>
      </trkpt>
      <trkpt lat="50.48038" lon="4.58207">
        <ele>151</ele>
        <time>2021-11-11T10:00:54Z</time>
      </trkpt>
      <trkpt lat="50.48026" lon="4.58216">
        <ele>152</ele>
        <time>2021-11-11T10:00:56Z</time>
      </trkpt>
      <trkpt lat="50.48016" lon="4.5822">
        <ele>152</ele>
        <time>2021-11-11T10:00:58Z</time>
      </trkpt>
      <trkpt lat="50.48006" lon="4.58215">
        <ele>151</ele>
        <time>2021-11-11T10:01:00Z</time>
      </trkpt>
      <trkpt lat="50.48002" lon="4.58201">
        <ele>150</ele>
        <time>2021-11-11T10:01:02Z</time>
      </trkpt>
      <trkpt lat="50.47998" lon="4.58186">
        <ele>150</ele>
        <time>2021-11-11T10:01:04Z</time>
      </trkpt>
      <trkpt lat="50.47993" lon="4.58172">
        <ele>150</ele>
        <time>2021-11-11T10:01:06Z</time>
      </trkpt>
      <trkpt lat="50.47988" lon="4.58156">
        <ele>150</ele>
        <time>2021-11-11T10:01:08Z</time>
      </trkpt>
      <trkpt lat="50.47983" lon="4.5814">
        <ele>150</ele>
        <time>2021-11-11T10:01:10Z</time>
      </trkpt>
      <trkpt lat="50.47977" lon="4.58124">
        <ele>150</ele>
        <time>2021-11-11T10:01:12Z</time>
      </trkpt>
      <trkpt lat="50.47972" lon="4.58108">
        <ele>150</ele>
        <time>2021-11-11T10:01:14Z</time>
      </trkpt>
      <trkpt lat="50.47966" lon="4.58092">
        <ele>150</ele>
        <time>2021-11-11T10:01:16Z</time>
      </trkpt>
      <trkpt lat="50.47962" lon="4.58076">
        <ele>150</ele>
        <time>2021-11-11T10:01:18Z</time>
      </trkpt>
      <trkpt lat="50.47958" lon="4.58061">
        <ele>150</ele>
        <time>2021-11-11T10:01:20Z</time>
      </trkpt>
      <trkpt lat="50.47953" lon="4.58047">
        <ele>150</ele>
        <time>2021-11-11T10:01:22Z</time>
      </trkpt>
      <trkpt lat="50.47951" lon="4.58032">
        <ele>151</ele>
        <time>2021-11-11T10:01:24Z</time>
      </trkpt>
      <trkpt lat="50.47948" lon="4.58018">
        <ele>151</ele>
        <time>2021-11-11T10:01:26Z</time>
      </trkpt>
      <trkpt lat="50.47945" lon="4.58003">
        <ele>150</ele>
        <time>2021-11-11T10:01:28Z</time>
      </trkpt>
      <trkpt lat="50.47942" lon="4.57988">
        <ele>150</ele>
        <time>2021-11-11T10:01:30Z</time>
      </trkpt>
      <trkpt lat="50.47939" lon="4.57974">
        <ele>151</ele>
        <time>2021-11-11T10:01:32Z</time>
      </trkpt>
      <trkpt lat="50.47936" lon="4.57959">
        <ele>151</ele>
        <time>2021-11-11T10:01:34Z</time>
      </trkpt>
      <trkpt lat="50.47933" lon="4.57944">
        <ele>151</ele>
        <time>2021-11-11T10:01:36Z</time>
      </trkpt>
      <trkpt lat="50.4793" lon="4.5793">
        <ele>154</ele>
        <time>2021-11-11T10:01:38Z</time>
      </trkpt>
      <trkpt lat="50.47927" lon="4.57915">
        <ele>154</ele>
        <time>2021-11-11T10:01:40Z</time>
      </trkpt>
      <trkpt lat="50.47923" lon="4.579">
        <ele>155</ele>
        <time>2021-11-11T10:01:42Z</time>
      </trkpt>
      <trkpt lat="50.47919" lon="4.57885">
        <ele>155</ele>
        <time>2021-11-11T10:01:44Z</time>
      </trkpt>
      <trkpt lat="50.47915" lon="4.5787">
        <ele>154</ele>
        <time>2021-11-11T10:01:46Z</time>
      </trkpt>
      <trkpt lat="50.47911" lon="4.57855">
        <ele>154</ele>
        <time>2021-11-11T10:01:48Z</time>
      </trkpt>
      <trkpt lat="50.47906" lon="4.5784">
        <ele>155</ele>
        <time>2021-11-11T10:01:50Z</time>
      </trkpt>
      <trkpt lat="50.47902" lon="4.57826">
        <ele>156</ele>
        <time>2021-11-11T10:01:52Z</time>
      </trkpt>
      <trkpt lat="50.47898" lon="4.57811">
        <ele>154</ele>
        <time>2021-11-11T10:01:54Z</time>
      </trkpt>
      <trkpt lat="50.47893" lon="4.57797">
        <ele>154</ele>
        <time>2021-11-11T10:01:56Z</time>
      </trkpt>
      <trkpt lat="50.47889" lon="4.57783">
        <ele>155</ele>
        <time>2021-11-11T10:01:58Z</time>
      </trkpt>
      <trkpt lat="50.47884" lon="4.57769">
        <ele>155</ele>
        <time>2021-11-11T10:02:00Z</time>
      </trkpt>
      <trkpt lat="50.47879" lon="4.57755">
        <ele>154</ele>
        <time>2021-11-11T10:02:02Z</time>
      </trkpt>
      <trkpt lat="50.47875" lon="4.5774">
        <ele>155</ele>
        <time>2021-11-11T10:02:04Z</time>
      </trkpt>
      <trkpt lat="50.47871" lon="4.57725">
        <ele>156</ele>
        <time>2021-11-11T10:02:06Z</time>
      </trkpt>
      <trkpt lat="50.47866" lon="4.57711">
        <ele>156</ele>
        <time>2021-11-11T10:02:08Z</time>
      </trkpt>
      <trkpt lat="50.47861" lon="4.57696">
        <ele>156</ele>
        <time>2021-11-11T10:02:10Z</time>
      </trkpt>
      <trkpt lat="50.47856" lon="4.57682">
        <ele>156</ele>
        <time>2021-11-11T10:02:12Z</time>
      </trkpt>
      <trkpt lat="50.4785" lon="4.57668">
        <ele>156</ele>
        <time>2021-11-11T10:02:14Z</time>
      </trkpt>
      <trkpt lat="50.47845" lon="4.57655">
        <ele>157</ele>
        <time>2021-11-11T10:02:16Z</time>
      </trkpt>
      <trkpt lat="50.47839" lon="4.57641">
        <ele>156</ele>
        <time>2021-11-11T10:02:18Z</time>
      </trkpt>
      <trkpt lat="50.47833" lon="4.57627">
        <ele>156</ele>
        <time>2021-11-11T10:02:20Z</time>
      </trkpt>
      <trkpt lat="50.47828" lon="4.57613">
        <ele>156</ele>
        <time>2021-11-11T10:02:22Z</time>
      </trkpt>
      <trkpt lat="50.47821" lon="4.57599">
        <ele>156</ele>
        <time>2021-11-11T10:02:24Z</time>
      </trkpt>
      <trkpt lat="50.47815" lon="4.57585">
        <ele>156</ele>
        <time>2021-11-11T10:02:26Z</time>
      </trkpt>
      <trkpt lat="50.47809" lon="4.57572">
        <ele>156</ele>
        <time>2021-11-11T10:02:28Z</time>
      </trkpt>
      <trkpt lat="50.47802" lon="4.57559">
        <ele>156</ele>
        <time>2021-11-11T10:02:30Z</time>
      </trkpt>
      <trkpt lat="50.47796" lon="4.57545">
        <ele>156</ele>
        <time>2021-11-11T10:02:32Z</time>
      </trkpt>
      <trkpt lat="50.4779" lon="4.57532">
        <ele>156</ele>
        <time>2021-11-11T10:02:34Z</time>
      </trkpt>
      <trkpt lat="50.47784" lon="4.57519">
        <ele>156</ele>
        <time>2021-11-11T10:02:36Z</time>
      </trkpt>
      <trkpt lat="50.47777" lon="4.57506">
        <ele>156</ele>
        <time>2021-11-11T10:02:38Z</time>
      </trkpt>
      <trkpt lat="50.4777" lon="4.57494">
        <ele>156</ele>
        <time>2021-11-11T10:02:40Z</time>
      </trkpt>
      <trkpt lat="50.47763" lon="4.57482">
        <ele>156</ele>
        <time>2021-11-11T10:02:42Z</time>
      </trkpt>
      <trkpt lat="50.47756" lon="4.57471">
        <ele>156</ele>
        <time>2021-11-11T10:02:44Z</time>
      </trkpt>
      <trkpt lat="50.47749" lon="4.57459">
        <ele>156</ele>
        <time>2021-11-11T10:02:46Z</time>
      </trkpt>
      <trkpt lat="50.47743" lon="4.57448">
        <ele>156</ele>
        <time>2021-11-11T10:02:48Z</time>
      </trkpt>
      <trkpt lat="50.47738" lon="4.57438">
        <ele>156</ele>
        <time>2021-11-11T10:02:50Z</time>
      </trkpt>
      <trkpt lat="50.47732" lon="4.57429">
        <ele>156</ele>
        <time>2021-11-11T10:02:52Z</time>
      </trkpt>
      <trkpt lat="50.47728" lon="4.57421">
        <ele>156</ele>
        <time>2021-11-11T10:02:54Z</time>
      </trkpt>
      <trkpt lat="50.47724" lon="4.57414">
        <ele>156</ele>
        <time>2021-11-11T10:02:56Z</time>
      </trkpt>
      <trkpt lat="50.47719" lon="4.57405">
        <ele>156</ele>
        <time>2021-11-11T10:02:58Z</time>
      </trkpt>
      <trkpt lat="50.47715" lon="4.57396">
        <ele>155</ele>
        <time>2021-11-11T10:03:00Z</time>
      </trkpt>
      <trkpt lat="50.47711" lon="4.57388">
        <ele>155</ele>
        <time>2021-11-11T10:03:02Z</time>
      </trkpt>
      <trkpt lat="50.47706" lon="4.57379">
        <ele>156</ele>
        <time>2021-11-11T10:03:04Z</time>
      </trkpt>
      <trkpt lat="50.477" lon="4.57369">
        <ele>156</ele>
        <time>2021-11-11T10:03:06Z</time>
      </trkpt>
      <trkpt lat="50.47694" lon="4.5736">
        <ele>156</ele>
        <time>2021-11-11T10:03:08Z</time>
      </trkpt>
      <trkpt lat="50.47687" lon="4.57352">
        <ele>156</ele>
        <time>2021-11-11T10:03:10Z</time>
      </trkpt>
      <trkpt lat="50.4768" lon="4.57343">
        <ele>155</ele>
        <time>2021-11-11T10:03:12Z</time>
      </trkpt>
      <trkpt lat="50.47673" lon="4.57334">
        <ele>155</ele>
        <time>2021-11-11T10:03:14Z</time>
      </trkpt>
      <trkpt lat="50.47667" lon="4.57323">
        <ele>155</ele>
        <time>2021-11-11T10:03:16Z</time>
      </trkpt>
      <trkpt lat="50.47661" lon="4.57312">
        <ele>156</ele>
        <time>2021-11-11T10:03:18Z</time>
      </trkpt>
      <trkpt lat="50.47656" lon="4.573">
        <ele>156</ele>
        <time>2021-11-11T10:03:20Z</time>
      </trkpt>
      <trkpt lat="50.47651" lon="4.57288">
        <ele>156</ele>
        <time>2021-11-11T10:03:22Z</time>
      </trkpt>
      <trkpt lat="50.47646" lon="4.57275">
        <ele>156</ele>
        <time>2021-11-11T10:03:24Z</time>
      </trkpt>
      <trkpt lat="50.47641" lon="4.57263">
        <ele>156</ele>
        <time>2021-11-11T10:03:26Z</time>
      </trkpt>
      <trkpt lat="50.47636" lon="4.5725">
        <ele>156</ele>
        <time>2021-11-11T10:03:28Z</time>
      </trkpt>
      <trkpt lat="50.47631" lon="4.57237">
        <ele>156</ele>
        <time>2021-11-11T10:03:30Z</time>
      </trkpt>
      <trkpt lat="50.47626" lon="4.57225">
        <ele>158</ele>
        <time>2021-11-11T10:03:32Z</time>
      </trkpt>
      <trkpt lat="50.4762" lon="4.57212">
        <ele>157</ele>
        <time>2021-11-11T10:03:34Z</time>
      </trkpt>
      <trkpt lat="50.47615" lon="4.57199">
        <ele>156</ele>
        <time>2021-11-11T10:03:36Z</time>
      </trkpt>
      <trkpt lat="50.47609" lon="4.57186">
        <ele>156</ele>
        <time>2021-11-11T10:03:38Z</time>
      </trkpt>
      <trkpt lat="50.47604" lon="4.57174">
        <ele>157</ele>
        <time>2021-11-11T10:03:40Z</time>
      </trkpt>
      <trkpt lat="50.47598" lon="4.57162">
        <ele>157</ele>
        <time>2021-11-11T10:03:42Z</time>
      </trkpt>
      <trkpt lat="50.47593" lon="4.57149">
        <ele>157</ele>
        <time>2021-11-11T10:03:44Z</time>
      </trkpt>
      <trkpt lat="50.47587" lon="4.57136">
        <ele>157</ele>
        <time>2021-11-11T10:03:46Z</time>
      </trkpt>
      <trkpt lat="50.47581" lon="4.57124">
        <ele>156</ele>
        <time>2021-11-11T10:03:48Z</time>
      </trkpt>
      <trkpt lat="50.47575" lon="4.57111">
        <ele>156</ele>
        <time>2021-11-11T10:03:50Z</time>
      </trkpt>
      <trkpt lat="50.47569" lon="4.57099">
        <ele>157</ele>
        <time>2021-11-11T10:03:52Z</time>
      </trkpt>
      <trkpt lat="50.47562" lon="4.57087">
        <ele>157</ele>
        <time>2021-11-11T10:03:54Z</time>
      </trkpt>
      <trkpt lat="50.47556" lon="4.57075">
        <ele>157</ele>
        <time>2021-11-11T10:03:56Z</time>
      </trkpt>
      <trkpt lat="50.47549" lon="4.57063">
        <ele>155</ele>
        <time>2021-11-11T10:03:58Z</time>
      </trkpt>
      <trkpt lat="50.47542" lon="4.57051">
        <ele>155</ele>
        <time>2021-11-11T10:04:00Z</time>
      </trkpt>
      <trkpt lat="50.47535" lon="4.57039">
        <ele>157</ele>
        <time>2021-11-11T10:04:02Z</time>
      </trkpt>
      <trkpt lat="50.47528" lon="4.57027">
        <ele>157</ele>
        <time>2021-11-11T10:04:04Z</time>
      </trkpt>
      <trkpt lat="50.47521" lon="4.57015">
        <ele>157</ele>
        <time>2021-11-11T10:04:06Z</time>
      </trkpt>
      <trkpt lat="50.47515" lon="4.57002">
        <ele>156</ele>
        <time>2021-11-11T10:04:08Z</time>
      </trkpt>
      <trkpt lat="50.47509" lon="4.5699">
        <ele>156</ele>
        <time>2021-11-11T10:04:10Z</time>
      </trkpt>
      <trkpt lat="50.47503" lon="4.56978">
        <ele>158</ele>
        <time>2021-11-11T10:04:12Z</time>
      </trkpt>
      <trkpt lat="50.47497" lon="4.56966">
        <ele>158</ele>
        <time>2021-11-11T10:04:14Z</time>
      </trkpt>
      <trkpt lat="50.4749" lon="4.56954">
        <ele>158</ele>
        <time>2021-11-11T10:04:16Z</time>
      </trkpt>
      <trkpt lat="50.47484" lon="4.56943">
        <ele>158</ele>
        <time>2021-11-11T10:04:18Z</time>
      </trkpt>
      <trkpt lat="50.47478" lon="4.56932">
        <ele>158</ele>
        <time>2021-11-11T10:04:20Z</time>
      </trkpt>
      <trkpt lat="50.47472" lon="4.56921">
        <ele>160</ele>
        <time>2021-11-11T10:04:22Z</time>
      </trkpt>
      <trkpt lat="50.47465" lon="4.56911">
        <ele>160</ele>
        <time>2021-11-11T10:04:24Z</time>
      </trkpt>
      <trkpt lat="50.47459" lon="4.56902">
        <ele>159</ele>
        <time>2021-11-11T10:04:26Z</time>
      </trkpt>
      <trkpt lat="50.47453" lon="4.56893">
        <ele>159</ele>
        <time>2021-11-11T10:04:28Z</time>
      </trkpt>
      <trkpt lat="50.47447" lon="4.56885">
        <ele>159</ele>
        <time>2021-11-11T10:04:30Z</time>
      </trkpt>
      <trkpt lat="50.47441" lon="4.56877">
        <ele>159</ele>
        <time>2021-11-11T10:04:32Z</time>
      </trkpt>
      <trkpt lat="50.47434" lon="4.56869">
        <ele>160</ele>
        <time>2021-11-11T10:04:34Z</time>
      </trkpt>
      <trkpt lat="50.47427" lon="4.56859">
        <ele>160</ele>
        <time>2021-11-11T10:04:36Z</time>
      </trkpt>
      <trkpt lat="50.47421" lon="4.5685">
        <ele>160</ele>
        <time>2021-11-11T10:04:38Z</time>
      </trkpt>
      <trkpt lat="50.47413" lon="4.56841">
        <ele>159</ele>
        <time>2021-11-11T10:04:40Z</time>
      </trkpt>
      <trkpt lat="50.47405" lon="4.56831">
        <ele>159</ele>
        <time>2021-11-11T10:04:42Z</time>
      </trkpt>
      <trkpt lat="50.47398" lon="4.56821">
        <ele>159</ele>
        <time>2021-11-11T10:04:44Z</time>
      </trkpt>
      <trkpt lat="50.4739" lon="4.5681">
        <ele>160</ele>
        <time>2021-11-11T10:04:46Z</time>
      </trkpt>
      <trkpt lat="50.47383" lon="4.568">
        <ele>160</ele>
        <time>2021-11-11T10:04:48Z</time>
      </trkpt>
      <trkpt lat="50.47375" lon="4.5679">
        <ele>161</ele>
        <time>2021-11-11T10:04:50Z</time>
      </trkpt>
      <trkpt lat="50.47368" lon="4.5678">
        <ele>160</ele>
        <time>2021-11-11T10:04:52Z</time>
      </trkpt>
      <trkpt lat="50.4736" lon="4.5677">
        <ele>160</ele>
        <time>2021-11-11T10:04:54Z</time>
      </trkpt>
      <trkpt lat="50.47353" lon="4.56759">
        <ele>160</ele>
        <time>2021-11-11T10:04:56Z</time>
      </trkpt>
      <trkpt lat="50.47346" lon="4.56749">
        <ele>160</ele>
        <time>2021-11-11T10:04:58Z</time>
      </trkpt>
      <trkpt lat="50.47339" lon="4.56739">
        <ele>160</ele>
        <time>2021-11-11T10:05:00Z</time>
      </trkpt>
      <trkpt lat="50.47332" lon="4.56729">
        <ele>160</ele>
        <time>2021-11-11T10:05:02Z</time>
      </trkpt>
      <trkpt lat="50.47326" lon="4.5672">
        <ele>160</ele>
        <time>2021-11-11T10:05:04Z</time>
      </trkpt>
      <trkpt lat="50.4732" lon="4.56711">
        <ele>160</ele>
        <time>2021-11-11T10:05:06Z</time>
      </trkpt>
      <trkpt lat="50.47314" lon="4.56703">
        <ele>161</ele>
        <time>2021-11-11T10:05:08Z</time>
      </trkpt>
      <trkpt lat="50.47309" lon="4.56695">
        <ele>161</ele>
        <time>2021-11-11T10:05:10Z</time>
      </trkpt>
      <trkpt lat="50.47305" lon="4.56688">
        <ele>161</ele>
        <time>2021-11-11T10:05:12Z</time>
      </trkpt>
      <trkpt lat="50.473" lon="4.56682">
        <ele>161</ele>
        <time>2021-11-11T10:05:14Z</time>
      </trkpt>
      <trkpt lat="50.47299" lon="4.56674">
        <ele>162</ele>
        <time>2021-11-11T10:05:16Z</time>
      </trkpt>
      <trkpt lat="50.47302" lon="4.56665">
        <ele>162</ele>
        <time>2021-11-11T10:05:18Z</time>
      </trkpt>
      <trkpt lat="50.47306" lon="4.56659">
        <ele>162</ele>
        <time>2021-11-11T10:05:20Z</time>
      </trkpt>
      <trkpt lat="50.47312" lon="4.56652">
        <ele>162</ele>
        <time>2021-11-11T10:05:22Z</time>
      </trkpt>
      <trkpt lat="50.47318" lon="4.56644">
        <ele>162</ele>
        <time>2021-11-11T10:05:24Z</time>
      </trkpt>
      <trkpt lat="50.47323" lon="4.56636">
        <ele>162</ele>
        <time>2021-11-11T10:05:26Z</time>
      </trkpt>
      <trkpt lat="50.47329" lon="4.56628">
        <ele>162</ele>
        <time>2021-11-11T10:05:28Z</time>
      </trkpt>
      <trkpt lat="50.47335" lon="4.56619">
        <ele>164</ele>
        <time>2021-11-11T10:05:30Z</time>
      </trkpt>
      <trkpt lat="50.47341" lon="4.56611">
        <ele>164</ele>
        <time>2021-11-11T10:05:32Z</time>
      </trkpt>
      <trkpt lat="50.47347" lon="4.56602">
        <ele>164</ele>
        <time>2021-11-11T10:05:34Z</time>
      </trkpt>
      <trkpt lat="50.47353" lon="4.56593">
        <ele>164</ele>
        <time>2021-11-11T10:05:36Z</time>
      </trkpt>
      <trkpt lat="50.47359" lon="4.56584">
        <ele>164</ele>
        <time>2021-11-11T10:05:38Z</time>
      </trkpt>
      <trkpt lat="50.47364" lon="4.56574">
        <ele>164</ele>
        <time>2021-11-11T10:05:40Z</time>
      </trkpt>
      <trkpt lat="50.47369" lon="4.56564">
        <ele>163</ele>
        <time>2021-11-11T10:05:42Z</time>
      </trkpt>
      <trkpt lat="50.47374" lon="4.56554">
        <ele>163</ele>
        <time>2021-11-11T10:05:44Z</time>
      </trkpt>
      <trkpt lat="50.47379" lon="4.56545">
        <ele>162</ele>
        <time>2021-11-11T10:05:46Z</time>
      </trkpt>
      <trkpt lat="50.47383" lon="4.56535">
        <ele>163</ele>
        <time>2021-11-11T10:05:48Z</time>
      </trkpt>
      <trkpt lat="50.47388" lon="4.56526">
        <ele>163</ele>
        <time>2021-11-11T10:05:50Z</time>
      </trkpt>
      <trkpt lat="50.47392" lon="4.56516">
        <ele>163</ele>
        <time>2021-11-11T10:05:52Z</time>
      </trkpt>
      <trkpt lat="50.47397" lon="4.56507">
        <ele>162</ele>
        <time>2021-11-11T10:05:54Z</time>
      </trkpt>
      <trkpt lat="50.474" lon="4.56498">
        <ele>162</ele>
        <time>2021-11-11T10:05:56Z</time>
      </trkpt>
      <trkpt lat="50.47404" lon="4.5649">
        <ele>162</ele>
        <time>2021-11-11T10:05:58Z</time>
      </trkpt>
      <trkpt lat="50.47408" lon="4.56482">
        <ele>162</ele>
        <time>2021-11-11T10:06:00Z</time>
      </trkpt>
      <trkpt lat="50.47411" lon="4.56473">
        <ele>162</ele>
        <time>2021-11-11T10:06:02Z</time>
      </trkpt>
      <trkpt lat="50.47415" lon="4.56464">
        <ele>162</ele>
        <time>2021-11-11T10:06:04Z</time>
      </trkpt>
      <trkpt lat="50.47419" lon="4.56455">
        <ele>162</ele>
        <time>2021-11-11T10:06:06Z</time>
      </trkpt>
      <trkpt lat="50.47422" lon="4.56446">
        <ele>162</ele>
        <time>2021-11-11T10:06:08Z</time>
      </trkpt>
      <trkpt lat="50.47426" lon="4.56438">
        <ele>162</ele>
        <time>2021-11-11T10:06:10Z</time>
      </trkpt>
      <trkpt lat="50.4743" lon="4.56428">
        <ele>161</ele>
        <time>2021-11-11T10:06:12Z</time>
      </trkpt>
      <trkpt lat="50.47434" lon="4.56419">
        <ele>161</ele>
        <time>2021-11-11T10:06:14Z</time>
      </trkpt>
      <trkpt lat="50.47438" lon="4.56409">
        <ele>161</ele>
        <time>2021-11-11T10:06:16Z</time>
      </trkpt>
      <trkpt lat="50.47443" lon="4.56399">
        <ele>160</ele>
        <time>2021-11-11T10:06:18Z</time>
      </trkpt>
      <trkpt lat="50.47447" lon="4.5639">
        <ele>160</ele>
        <time>2021-11-11T10:06:20Z</time>
      </trkpt>
      <trkpt lat="50.47451" lon="4.5638">
        <ele>160</ele>
        <time>2021-11-11T10:06:22Z</time>
      </trkpt>
      <trkpt lat="50.47456" lon="4.5637">
        <ele>159</ele>
        <time>2021-11-11T10:06:24Z</time>
      </trkpt>
      <trkpt lat="50.4746" lon="4.56361">
        <ele>159</ele>
        <time>2021-11-11T10:06:26Z</time>
      </trkpt>
      <trkpt lat="50.47464" lon="4.56352">
        <ele>159</ele>
        <time>2021-11-11T10:06:28Z</time>
      </trkpt>
      <trkpt lat="50.47467" lon="4.56342">
        <ele>157</ele>
        <time>2021-11-11T10:06:30Z</time>
      </trkpt>
      <trkpt lat="50.4747" lon="4.56331">
        <ele>157</ele>
        <time>2021-11-11T10:06:32Z</time>
      </trkpt>
      <trkpt lat="50.47472" lon="4.56319">
        <ele>157</ele>
        <time>2021-11-11T10:06:34Z</time>
      </trkpt>
      <trkpt lat="50.47474" lon="4.56308">
        <ele>157</ele>
        <time>2021-11-11T10:06:36Z</time>
      </trkpt>
      <trkpt lat="50.47475" lon="4.56296">
        <ele>157</ele>
        <time>2021-11-11T10:06:38Z</time>
      </trkpt>
      <trkpt lat="50.47476" lon="4.56283">
        <ele>156</ele>
        <time>2021-11-11T10:06:40Z</time>
      </trkpt>
      <trkpt lat="50.47476" lon="4.56272">
        <ele>156</ele>
        <time>2021-11-11T10:06:42Z</time>
      </trkpt>
      <trkpt lat="50.47478" lon="4.5626">
        <ele>156</ele>
        <time>2021-11-11T10:06:44Z</time>
      </trkpt>
      <trkpt lat="50.47481" lon="4.56248">
        <ele>156</ele>
        <time>2021-11-11T10:06:46Z</time>
      </trkpt>
      <trkpt lat="50.47484" lon="4.56236">
        <ele>154</ele>
        <time>2021-11-11T10:06:48Z</time>
      </trkpt>
      <trkpt lat="50.47487" lon="4.56224">
        <ele>155</ele>
        <time>2021-11-11T10:06:50Z</time>
      </trkpt>
      <trkpt lat="50.47491" lon="4.56212">
        <ele>155</ele>
        <time>2021-11-11T10:06:52Z</time>
      </trkpt>
      <trkpt lat="50.47495" lon="4.56201">
        <ele>156</ele>
        <time>2021-11-11T10:06:54Z</time>
      </trkpt>
      <trkpt lat="50.47497" lon="4.56189">
        <ele>156</ele>
        <time>2021-11-11T10:06:56Z</time>
      </trkpt>
      <trkpt lat="50.47498" lon="4.56176">
        <ele>157</ele>
        <time>2021-11-11T10:06:58Z</time>
      </trkpt>
      <trkpt lat="50.47496" lon="4.56163">
        <ele>157</ele>
        <time>2021-11-11T10:07:00Z</time>
      </trkpt>
      <trkpt lat="50.47493" lon="4.56151">
        <ele>157</ele>
        <time>2021-11-11T10:07:02Z</time>
      </trkpt>
      <trkpt lat="50.47489" lon="4.5614">
        <ele>157</ele>
        <time>2021-11-11T10:07:04Z</time>
      </trkpt>
      <trkpt lat="50.47484" lon="4.56128">
        <ele>157</ele>
        <time>2021-11-11T10:07:06Z</time>
      </trkpt>
      <trkpt lat="50.47479" lon="4.56115">
        <ele>158</ele>
        <time>2021-11-11T10:07:08Z</time>
      </trkpt>
      <trkpt lat="50.47475" lon="4.56102">
        <ele>158</ele>
        <time>2021-11-11T10:07:10Z</time>
      </trkpt>
      <trkpt lat="50.47471" lon="4.5609">
        <ele>159</ele>
        <time>2021-11-11T10:07:12Z</time>
      </trkpt>
      <trkpt lat="50.47467" lon="4.56077">
        <ele>159</ele>
        <time>2021-11-11T10:07:14Z</time>
      </trkpt>
      <trkpt lat="50.47463" lon="4.56063">
        <ele>160</ele>
        <time>2021-11-11T10:07:16Z</time>
      </trkpt>
      <trkpt lat="50.4746" lon="4.5605">
        <ele>160</ele>
        <time>2021-11-11T10:07:18Z</time>
      </trkpt>
      <trkpt lat="50.47455" lon="4.56037">
        <ele>160</ele>
        <time>2021-11-11T10:07:20Z</time>
      </trkpt>
      <trkpt lat="50.47451" lon="4.56024">
        <ele>160</ele>
        <time>2021-11-11T10:07:22Z</time>
      </trkpt>
      <trkpt lat="50.47447" lon="4.56011">
        <ele>161</ele>
        <time>2021-11-11T10:07:24Z</time>
      </trkpt>
      <trkpt lat="50.47441" lon="4.55998">
        <ele>161</ele>
        <time>2021-11-11T10:07:26Z</time>
      </trkpt>
      <trkpt lat="50.47437" lon="4.55985">
        <ele>160</ele>
        <time>2021-11-11T10:07:28Z</time>
      </trkpt>
      <trkpt lat="50.47432" lon="4.55972">
        <ele>160</ele>
        <time>2021-11-11T10:07:30Z</time>
      </trkpt>
      <trkpt lat="50.47427" lon="4.55958">
        <ele>160</ele>
        <time>2021-11-11T10:07:32Z</time>
      </trkpt>
      <trkpt lat="50.47423" lon="4.55945">
        <ele>160</ele>
        <time>2021-11-11T10:07:34Z</time>
      </trkpt>
      <trkpt lat="50.47421" lon="4.55932">
        <ele>160</ele>
        <time>2021-11-11T10:07:36Z</time>
      </trkpt>
      <trkpt lat="50.47418" lon="4.55923">
        <ele>159</ele>
        <time>2021-11-11T10:07:38Z</time>
      </trkpt>
      <trkpt lat="50.47416" lon="4.55915">
        <ele>159</ele>
        <time>2021-11-11T10:07:40Z</time>
      </trkpt>
      <trkpt lat="50.47417" lon="4.55909">
        <ele>159</ele>
        <time>2021-11-11T10:07:42Z</time>
      </trkpt>
      <trkpt lat="50.47418" lon="4.55908">
        <ele>159</ele>
        <time>2021-11-11T10:07:44Z</time>
      </trkpt>
      <trkpt lat="50.47422" lon="4.55903">
        <ele>158</ele>
        <time>2021-11-11T10:07:48Z</time>
      </trkpt>
      <trkpt lat="50.47424" lon="4.55897">
        <ele>158</ele>
        <time>2021-11-11T10:07:50Z</time>
      </trkpt>
      <trkpt lat="50.47422" lon="4.55892">
        <ele>158</ele>
        <time>2021-11-11T10:07:52Z</time>
      </trkpt>
      <trkpt lat="50.4742" lon="4.55886">
        <ele>158</ele>
        <time>2021-11-11T10:07:54Z</time>
      </trkpt>
      <trkpt lat="50.47417" lon="4.55878">
        <ele>158</ele>
        <time>2021-11-11T10:07:56Z</time>
      </trkpt>
      <trkpt lat="50.47414" lon="4.5587">
        <ele>159</ele>
        <time>2021-11-11T10:07:58Z</time>
      </trkpt>
      <trkpt lat="50.47413" lon="4.55863">
        <ele>159</ele>
        <time>2021-11-11T10:08:00Z</time>
      </trkpt>
      <trkpt lat="50.4741" lon="4.55854">
        <ele>159</ele>
        <time>2021-11-11T10:08:02Z</time>
      </trkpt>
      <trkpt lat="50.47408" lon="4.55844">
        <ele>160</ele>
        <time>2021-11-11T10:08:04Z</time>
      </trkpt>
      <trkpt lat="50.47404" lon="4.55834">
        <ele>160</ele>
        <time>2021-11-11T10:08:06Z</time>
      </trkpt>
      <trkpt lat="50.47399" lon="4.55826">
        <ele>164</ele>
        <time>2021-11-11T10:08:08Z</time>
      </trkpt>
      <trkpt lat="50.47397" lon="4.55816">
        <ele>162</ele>
        <time>2021-11-11T10:08:10Z</time>
      </trkpt>
      <trkpt lat="50.47395" lon="4.55807">
        <ele>162</ele>
        <time>2021-11-11T10:08:12Z</time>
      </trkpt>
      <trkpt lat="50.47393" lon="4.55799">
        <ele>162</ele>
        <time>2021-11-11T10:08:14Z</time>
      </trkpt>
      <trkpt lat="50.47393" lon="4.55791">
        <ele>162</ele>
        <time>2021-11-11T10:08:16Z</time>
      </trkpt>
      <trkpt lat="50.47393" lon="4.55784">
        <ele>162</ele>
        <time>2021-11-11T10:08:18Z</time>
      </trkpt>
      <trkpt lat="50.47395" lon="4.55778">
        <ele>162</ele>
        <time>2021-11-11T10:08:20Z</time>
      </trkpt>
      <trkpt lat="50.47396" lon="4.55773">
        <ele>162</ele>
        <time>2021-11-11T10:08:22Z</time>
      </trkpt>
      <trkpt lat="50.47397" lon="4.55768">
        <ele>162</ele>
        <time>2021-11-11T10:08:26Z</time>
      </trkpt>
      <trkpt lat="50.47397" lon="4.55767">
        <ele>162</ele>
        <time>2021-11-11T10:08:28Z</time>
      </trkpt>
      <trkpt lat="50.47397" lon="4.55762">
        <ele>163</ele>
        <time>2021-11-11T10:08:30Z</time>
      </trkpt>
      <trkpt lat="50.47397" lon="4.55757">
        <ele>163</ele>
        <time>2021-11-11T10:08:32Z</time>
      </trkpt>
      <trkpt lat="50.47398" lon="4.55749">
        <ele>163</ele>
        <time>2021-11-11T10:08:34Z</time>
      </trkpt>
      <trkpt lat="50.47397" lon="4.55743">
        <ele>163</ele>
        <time>2021-11-11T10:08:36Z</time>
      </trkpt>
      <trkpt lat="50.47397" lon="4.5574">
        <ele>163</ele>
        <time>2021-11-11T10:08:38Z</time>
      </trkpt>
      <trkpt lat="50.47397" lon="4.55738">
        <ele>163</ele>
        <time>2021-11-11T10:08:40Z</time>
      </trkpt>
      <trkpt lat="50.47396" lon="4.55736">
        <ele>163</ele>
        <time>2021-11-11T10:08:48Z</time>
      </trkpt>
      <trkpt lat="50.47395" lon="4.55732">
        <ele>163</ele>
        <time>2021-11-11T10:09:00Z</time>
      </trkpt>
      <trkpt lat="50.47392" lon="4.55721">
        <ele>163</ele>
        <time>2021-11-11T10:09:40Z</time>
      </trkpt>
      <trkpt lat="50.47389" lon="4.55715">
        <ele>163</ele>
        <time>2021-11-11T10:09:42Z</time>
      </trkpt>
      <trkpt lat="50.47386" lon="4.55707">
        <ele>163</ele>
        <time>2021-11-11T10:09:44Z</time>
      </trkpt>
      <trkpt lat="50.47384" lon="4.55703">
        <ele>163</ele>
        <time>2021-11-11T10:09:46Z</time>
      </trkpt>
      <trkpt lat="50.4738" lon="4.55698">
        <ele>163</ele>
        <time>2021-11-11T10:09:48Z</time>
      </trkpt>
      <trkpt lat="50.47378" lon="4.55693">
        <ele>163</ele>
        <time>2021-11-11T10:09:50Z</time>
      </trkpt>
      <trkpt lat="50.47375" lon="4.55689">
        <ele>164</ele>
        <time>2021-11-11T10:09:52Z</time>
      </trkpt>
      <trkpt lat="50.47372" lon="4.55687">
        <ele>164</ele>
        <time>2021-11-11T10:09:54Z</time>
      </trkpt>
      <trkpt lat="50.47371" lon="4.55683">
        <ele>164</ele>
        <time>2021-11-11T10:09:56Z</time>
      </trkpt>
      <trkpt lat="50.47369" lon="4.55681">
        <ele>164</ele>
        <time>2021-11-11T10:09:58Z</time>
      </trkpt>
      <trkpt lat="50.4737" lon="4.55678">
        <ele>166</ele>
        <time>2021-11-11T10:10:00Z</time>
      </trkpt>
      <trkpt lat="50.4737" lon="4.55673">
        <ele>166</ele>
        <time>2021-11-11T10:10:02Z</time>
      </trkpt>
      <trkpt lat="50.47369" lon="4.55668">
        <ele>166</ele>
        <time>2021-11-11T10:10:04Z</time>
      </trkpt>
      <trkpt lat="50.47368" lon="4.55663">
        <ele>166</ele>
        <time>2021-11-11T10:10:06Z</time>
      </trkpt>
      <trkpt lat="50.47366" lon="4.55659">
        <ele>166</ele>
        <time>2021-11-11T10:10:08Z</time>
      </trkpt>
      <trkpt lat="50.47365" lon="4.55657">
        <ele>166</ele>
        <time>2021-11-11T10:10:10Z</time>
      </trkpt>
      <trkpt lat="50.47364" lon="4.55653">
        <ele>166</ele>
        <time>2021-11-11T10:10:12Z</time>
      </trkpt>
      <trkpt lat="50.47364" lon="4.55646">
        <ele>164</ele>
        <time>2021-11-11T10:10:15Z</time>
      </trkpt>
      <trkpt lat="50.47364" lon="4.55641">
        <ele>164</ele>
        <time>2021-11-11T10:10:17Z</time>
      </trkpt>
      <trkpt lat="50.47363" lon="4.55634">
        <ele>164</ele>
        <time>2021-11-11T10:10:19Z</time>
      </trkpt>
      <trkpt lat="50.47362" lon="4.55629">
        <ele>164</ele>
        <time>2021-11-11T10:10:21Z</time>
      </trkpt>
      <trkpt lat="50.47361" lon="4.55625">
        <ele>164</ele>
        <time>2021-11-11T10:10:23Z</time>
      </trkpt>
      <trkpt lat="50.4736" lon="4.5562">
        <ele>164</ele>
        <time>2021-11-11T10:10:25Z</time>
      </trkpt>
      <trkpt lat="50.47358" lon="4.55615">
        <ele>164</ele>
        <time>2021-11-11T10:10:27Z</time>
      </trkpt>
      <trkpt lat="50.47357" lon="4.55608">
        <ele>164</ele>
        <time>2021-11-11T10:10:29Z</time>
      </trkpt>
      <trkpt lat="50.47355" lon="4.55602">
        <ele>164</ele>
        <time>2021-11-11T10:10:31Z</time>
      </trkpt>
      <trkpt lat="50.47353" lon="4.55595">
        <ele>164</ele>
        <time>2021-11-11T10:10:33Z</time>
      </trkpt>
      <trkpt lat="50.4735" lon="4.5559">
        <ele>164</ele>
        <time>2021-11-11T10:10:35Z</time>
      </trkpt>
      <trkpt lat="50.47348" lon="4.55585">
        <ele>164</ele>
        <time>2021-11-11T10:10:37Z</time>
      </trkpt>
      <trkpt lat="50.47346" lon="4.55578">
        <ele>163</ele>
        <time>2021-11-11T10:10:39Z</time>
      </trkpt>
      <trkpt lat="50.47344" lon="4.55571">
        <ele>163</ele>
        <time>2021-11-11T10:10:41Z</time>
      </trkpt>
      <trkpt lat="50.47341" lon="4.55563">
        <ele>163</ele>
        <time>2021-11-11T10:10:43Z</time>
      </trkpt>
      <trkpt lat="50.47339" lon="4.55556">
        <ele>163</ele>
        <time>2021-11-11T10:10:45Z</time>
      </trkpt>
      <trkpt lat="50.47335" lon="4.55551">
        <ele>163</ele>
        <time>2021-11-11T10:10:47Z</time>
      </trkpt>
      <trkpt lat="50.47333" lon="4.55544">
        <ele>163</ele>
        <time>2021-11-11T10:10:49Z</time>
      </trkpt>
      <trkpt lat="50.47331" lon="4.55538">
        <ele>162</ele>
        <time>2021-11-11T10:10:51Z</time>
      </trkpt>
      <trkpt lat="50.47329" lon="4.5553">
        <ele>162</ele>
        <time>2021-11-11T10:10:53Z</time>
      </trkpt>
      <trkpt lat="50.47326" lon="4.55522">
        <ele>162</ele>
        <time>2021-11-11T10:10:55Z</time>
      </trkpt>
      <trkpt lat="50.47324" lon="4.55514">
        <ele>160</ele>
        <time>2021-11-11T10:10:57Z</time>
      </trkpt>
      <trkpt lat="50.4732" lon="4.55506">
        <ele>160</ele>
        <time>2021-11-11T10:10:59Z</time>
      </trkpt>
      <trkpt lat="50.47316" lon="4.55499">
        <ele>160</ele>
        <time>2021-11-11T10:11:01Z</time>
      </trkpt>
      <trkpt lat="50.47313" lon="4.5549">
        <ele>160</ele>
        <time>2021-11-11T10:11:03Z</time>
      </trkpt>
      <trkpt lat="50.47311" lon="4.5548">
        <ele>160</ele>
        <time>2021-11-11T10:11:05Z</time>
      </trkpt>
      <trkpt lat="50.4731" lon="4.55471">
        <ele>160</ele>
        <time>2021-11-11T10:11:07Z</time>
      </trkpt>
      <trkpt lat="50.47311" lon="4.55465">
        <ele>160</ele>
        <time>2021-11-11T10:11:27Z</time>
      </trkpt>
      <trkpt lat="50.47311" lon="4.55458">
        <ele>160</ele>
        <time>2021-11-11T10:11:29Z</time>
      </trkpt>
      <trkpt lat="50.4731" lon="4.5545">
        <ele>160</ele>
        <time>2021-11-11T10:11:31Z</time>
      </trkpt>
      <trkpt lat="50.47308" lon="4.55442">
        <ele>160</ele>
        <time>2021-11-11T10:11:33Z</time>
      </trkpt>
      <trkpt lat="50.47306" lon="4.55432">
        <ele>160</ele>
        <time>2021-11-11T10:11:35Z</time>
      </trkpt>
      <trkpt lat="50.47304" lon="4.55423">
        <ele>159</ele>
        <time>2021-11-11T10:11:37Z</time>
      </trkpt>
      <trkpt lat="50.47303" lon="4.55414">
        <ele>159</ele>
        <time>2021-11-11T10:11:39Z</time>
      </trkpt>
      <trkpt lat="50.473" lon="4.55405">
        <ele>159</ele>
        <time>2021-11-11T10:11:41Z</time>
      </trkpt>
      <trkpt lat="50.47298" lon="4.55395">
        <ele>159</ele>
        <time>2021-11-11T10:11:43Z</time>
      </trkpt>
      <trkpt lat="50.47296" lon="4.55385">
        <ele>159</ele>
        <time>2021-11-11T10:11:45Z</time>
      </trkpt>
      <trkpt lat="50.47293" lon="4.55374">
        <ele>158</ele>
        <time>2021-11-11T10:11:47Z</time>
      </trkpt>
      <trkpt lat="50.47291" lon="4.55362">
        <ele>158</ele>
        <time>2021-11-11T10:11:49Z</time>
      </trkpt>
      <trkpt lat="50.47289" lon="4.5535">
        <ele>158</ele>
        <time>2021-11-11T10:11:51Z</time>
      </trkpt>
      <trkpt lat="50.47286" lon="4.55338">
        <ele>157</ele>
        <time>2021-11-11T10:11:53Z</time>
      </trkpt>
      <trkpt lat="50.47283" lon="4.55326">
        <ele>157</ele>
        <time>2021-11-11T10:11:55Z</time>
      </trkpt>
      <trkpt lat="50.4728" lon="4.55314">
        <ele>158</ele>
        <time>2021-11-11T10:11:57Z</time>
      </trkpt>
      <trkpt lat="50.47277" lon="4.55303">
        <ele>158</ele>
        <time>2021-11-11T10:11:59Z</time>
      </trkpt>
      <trkpt lat="50.47274" lon="4.55292">
        <ele>158</ele>
        <time>2021-11-11T10:12:01Z</time>
      </trkpt>
      <trkpt lat="50.47272" lon="4.55283">
        <ele>159</ele>
        <time>2021-11-11T10:12:03Z</time>
      </trkpt>
      <trkpt lat="50.47268" lon="4.55276">
        <ele>159</ele>
        <time>2021-11-11T10:12:05Z</time>
      </trkpt>
      <trkpt lat="50.47263" lon="4.55274">
        <ele>158</ele>
        <time>2021-11-11T10:12:07Z</time>
      </trkpt>
      <trkpt lat="50.47257" lon="4.55278">
        <ele>158</ele>
        <time>2021-11-11T10:12:09Z</time>
      </trkpt>
      <trkpt lat="50.47251" lon="4.55281">
        <ele>158</ele>
        <time>2021-11-11T10:12:11Z</time>
      </trkpt>
      <trkpt lat="50.47244" lon="4.55284">
        <ele>158</ele>
        <time>2021-11-11T10:12:13Z</time>
      </trkpt>
      <trkpt lat="50.47237" lon="4.55288">
        <ele>158</ele>
        <time>2021-11-11T10:12:15Z</time>
      </trkpt>
      <trkpt lat="50.47231" lon="4.55291">
        <ele>157</ele>
        <time>2021-11-11T10:12:17Z</time>
      </trkpt>
      <trkpt lat="50.47224" lon="4.55295">
        <ele>158</ele>
        <time>2021-11-11T10:12:19Z</time>
      </trkpt>
      <trkpt lat="50.47217" lon="4.55298">
        <ele>158</ele>
        <time>2021-11-11T10:12:21Z</time>
      </trkpt>
      <trkpt lat="50.4721" lon="4.55302">
        <ele>158</ele>
        <time>2021-11-11T10:12:23Z</time>
      </trkpt>
      <trkpt lat="50.47203" lon="4.55306">
        <ele>158</ele>
        <time>2021-11-11T10:12:25Z</time>
      </trkpt>
      <trkpt lat="50.47195" lon="4.55309">
        <ele>158</ele>
        <time>2021-11-11T10:12:27Z</time>
      </trkpt>
      <trkpt lat="50.47188" lon="4.55312">
        <ele>158</ele>
        <time>2021-11-11T10:12:29Z</time>
      </trkpt>
      <trkpt lat="50.47181" lon="4.55316">
        <ele>158</ele>
        <time>2021-11-11T10:12:31Z</time>
      </trkpt>
      <trkpt lat="50.47175" lon="4.55319">
        <ele>158</ele>
        <time>2021-11-11T10:12:33Z</time>
      </trkpt>
      <trkpt lat="50.47167" lon="4.55322">
        <ele>158</ele>
        <time>2021-11-11T10:12:35Z</time>
      </trkpt>
      <trkpt lat="50.4716" lon="4.55325">
        <ele>158</ele>
        <time>2021-11-11T10:12:37Z</time>
      </trkpt>
      <trkpt lat="50.47154" lon="4.55328">
        <ele>158</ele>
        <time>2021-11-11T10:12:39Z</time>
      </trkpt>
      <trkpt lat="50.47147" lon="4.55331">
        <ele>158</ele>
        <time>2021-11-11T10:12:41Z</time>
      </trkpt>
      <trkpt lat="50.4714" lon="4.55334">
        <ele>158</ele>
        <time>2021-11-11T10:12:43Z</time>
      </trkpt>
      <trkpt lat="50.47134" lon="4.55337">
        <ele>158</ele>
        <time>2021-11-11T10:12:45Z</time>
      </trkpt>
      <trkpt lat="50.47126" lon="4.55339">
        <ele>158</ele>
        <time>2021-11-11T10:12:47Z</time>
      </trkpt>
      <trkpt lat="50.4712" lon="4.55342">
        <ele>158</ele>
        <time>2021-11-11T10:12:49Z</time>
      </trkpt>
      <trkpt lat="50.47113" lon="4.55344">
        <ele>158</ele>
        <time>2021-11-11T10:12:51Z</time>
      </trkpt>
      <trkpt lat="50.47106" lon="4.55347">
        <ele>158</ele>
        <time>2021-11-11T10:12:53Z</time>
      </trkpt>
      <trkpt lat="50.471" lon="4.55349">
        <ele>159</ele>
        <time>2021-11-11T10:12:55Z</time>
      </trkpt>
      <trkpt lat="50.47093" lon="4.5535">
        <ele>160</ele>
        <time>2021-11-11T10:12:57Z</time>
      </trkpt>
      <trkpt lat="50.47086" lon="4.55351">
        <ele>160</ele>
        <time>2021-11-11T10:12:59Z</time>
      </trkpt>
      <trkpt lat="50.4708" lon="4.55351">
        <ele>160</ele>
        <time>2021-11-11T10:13:01Z</time>
      </trkpt>
      <trkpt lat="50.47072" lon="4.55352">
        <ele>160</ele>
        <time>2021-11-11T10:13:03Z</time>
      </trkpt>
      <trkpt lat="50.47065" lon="4.55352">
        <ele>161</ele>
        <time>2021-11-11T10:13:05Z</time>
      </trkpt>
      <trkpt lat="50.47058" lon="4.55352">
        <ele>161</ele>
        <time>2021-11-11T10:13:07Z</time>
      </trkpt>
      <trkpt lat="50.47051" lon="4.55351">
        <ele>161</ele>
        <time>2021-11-11T10:13:09Z</time>
      </trkpt>
      <trkpt lat="50.47043" lon="4.5535">
        <ele>161</ele>
        <time>2021-11-11T10:13:11Z</time>
      </trkpt>
      <trkpt lat="50.47036" lon="4.55348">
        <ele>162</ele>
        <time>2021-11-11T10:13:13Z</time>
      </trkpt>
      <trkpt lat="50.47029" lon="4.55345">
        <ele>163</ele>
        <time>2021-11-11T10:13:15Z</time>
      </trkpt>
      <trkpt lat="50.47022" lon="4.55342">
        <ele>163</ele>
        <time>2021-11-11T10:13:17Z</time>
      </trkpt>
      <trkpt lat="50.47015" lon="4.55338">
        <ele>163</ele>
        <time>2021-11-11T10:13:19Z</time>
      </trkpt>
      <trkpt lat="50.47009" lon="4.55333">
        <ele>163</ele>
        <time>2021-11-11T10:13:21Z</time>
      </trkpt>
      <trkpt lat="50.47003" lon="4.55328">
        <ele>163</ele>
        <time>2021-11-11T10:13:23Z</time>
      </trkpt>
      <trkpt lat="50.46998" lon="4.55324">
        <ele>163</ele>
        <time>2021-11-11T10:13:25Z</time>
      </trkpt>
      <trkpt lat="50.46993" lon="4.55319">
        <ele>163</ele>
        <time>2021-11-11T10:13:27Z</time>
      </trkpt>
      <trkpt lat="50.46989" lon="4.55314">
        <ele>163</ele>
        <time>2021-11-11T10:13:29Z</time>
      </trkpt>
      <trkpt lat="50.46985" lon="4.55309">
        <ele>163</ele>
        <time>2021-11-11T10:13:31Z</time>
      </trkpt>
      <trkpt lat="50.46981" lon="4.55305">
        <ele>163</ele>
        <time>2021-11-11T10:13:33Z</time>
      </trkpt>
      <trkpt lat="50.46978" lon="4.553">
        <ele>163</ele>
        <time>2021-11-11T10:13:35Z</time>
      </trkpt>
      <trkpt lat="50.46976" lon="4.55296">
        <ele>163</ele>
        <time>2021-11-11T10:13:37Z</time>
      </trkpt>
      <trkpt lat="50.46973" lon="4.55293">
        <ele>163</ele>
        <time>2021-11-11T10:13:39Z</time>
      </trkpt>
      <trkpt lat="50.4697" lon="4.55289">
        <ele>163</ele>
        <time>2021-11-11T10:13:41Z</time>
      </trkpt>
      <trkpt lat="50.46967" lon="4.55285">
        <ele>163</ele>
        <time>2021-11-11T10:13:43Z</time>
      </trkpt>
      <trkpt lat="50.46964" lon="4.5528">
        <ele>163</ele>
        <time>2021-11-11T10:13:45Z</time>
      </trkpt>
      <trkpt lat="50.46961" lon="4.55275">
        <ele>163</ele>
        <time>2021-11-11T10:13:47Z</time>
      </trkpt>
      <trkpt lat="50.46958" lon="4.55271">
        <ele>163</ele>
        <time>2021-11-11T10:13:49Z</time>
      </trkpt>
      <trkpt lat="50.46955" lon="4.55266">
        <ele>163</ele>
        <time>2021-11-11T10:13:51Z</time>
      </trkpt>
      <trkpt lat="50.46952" lon="4.55261">
        <ele>162</ele>
        <time>2021-11-11T10:13:53Z</time>
      </trkpt>
      <trkpt lat="50.46949" lon="4.55256">
        <ele>162</ele>
        <time>2021-11-11T10:13:55Z</time>
      </trkpt>
      <trkpt lat="50.46946" lon="4.55252">
        <ele>162</ele>
        <time>2021-11-11T10:13:57Z</time>
      </trkpt>
      <trkpt lat="50.46943" lon="4.55247">
        <ele>162</ele>
        <time>2021-11-11T10:13:59Z</time>
      </trkpt>
      <trkpt lat="50.4694" lon="4.55243">
        <ele>162</ele>
        <time>2021-11-11T10:14:01Z</time>
      </trkpt>
      <trkpt lat="50.46938" lon="4.55239">
        <ele>162</ele>
        <time>2021-11-11T10:14:03Z</time>
      </trkpt>
      <trkpt lat="50.46937" lon="4.55237">
        <ele>162</ele>
        <time>2021-11-11T10:14:05Z</time>
      </trkpt>
      <trkpt lat="50.46935" lon="4.55233">
        <ele>163</ele>
        <time>2021-11-11T10:14:07Z</time>
      </trkpt>
      <trkpt lat="50.46933" lon="4.55229">
        <ele>163</ele>
        <time>2021-11-11T10:14:11Z</time>
      </trkpt>
      <trkpt lat="50.46931" lon="4.55225">
        <ele>163</ele>
        <time>2021-11-11T10:14:13Z</time>
      </trkpt>
      <trkpt lat="50.46929" lon="4.5522">
        <ele>163</ele>
        <time>2021-11-11T10:14:15Z</time>
      </trkpt>
      <trkpt lat="50.46927" lon="4.55215">
        <ele>163</ele>
        <time>2021-11-11T10:14:17Z</time>
      </trkpt>
      <trkpt lat="50.46923" lon="4.55209">
        <ele>163</ele>
        <time>2021-11-11T10:14:19Z</time>
      </trkpt>
      <trkpt lat="50.46921" lon="4.55205">
        <ele>163</ele>
        <time>2021-11-11T10:14:21Z</time>
      </trkpt>
      <trkpt lat="50.46917" lon="4.55201">
        <ele>163</ele>
        <time>2021-11-11T10:14:23Z</time>
      </trkpt>
      <trkpt lat="50.46913" lon="4.55197">
        <ele>163</ele>
        <time>2021-11-11T10:14:25Z</time>
      </trkpt>
      <trkpt lat="50.46909" lon="4.55193">
        <ele>163</ele>
        <time>2021-11-11T10:14:27Z</time>
      </trkpt>
      <trkpt lat="50.46906" lon="4.5519">
        <ele>163</ele>
        <time>2021-11-11T10:14:29Z</time>
      </trkpt>
      <trkpt lat="50.46901" lon="4.55188">
        <ele>163</ele>
        <time>2021-11-11T10:14:31Z</time>
      </trkpt>
      <trkpt lat="50.46896" lon="4.55187">
        <ele>163</ele>
        <time>2021-11-11T10:14:33Z</time>
      </trkpt>
      <trkpt lat="50.46892" lon="4.55186">
        <ele>163</ele>
        <time>2021-11-11T10:14:35Z</time>
      </trkpt>
      <trkpt lat="50.46888" lon="4.55186">
        <ele>163</ele>
        <time>2021-11-11T10:14:37Z</time>
      </trkpt>
      <trkpt lat="50.46884" lon="4.55187">
        <ele>163</ele>
        <time>2021-11-11T10:14:39Z</time>
      </trkpt>
      <trkpt lat="50.4688" lon="4.55187">
        <ele>163</ele>
        <time>2021-11-11T10:14:41Z</time>
      </trkpt>
      <trkpt lat="50.46875" lon="4.55188">
        <ele>163</ele>
        <time>2021-11-11T10:14:43Z</time>
      </trkpt>
      <trkpt lat="50.46872" lon="4.55189">
        <ele>162</ele>
        <time>2021-11-11T10:14:45Z</time>
      </trkpt>
      <trkpt lat="50.46869" lon="4.55191">
        <ele>162</ele>
        <time>2021-11-11T10:14:47Z</time>
      </trkpt>
      <trkpt lat="50.46865" lon="4.55192">
        <ele>162</ele>
        <time>2021-11-11T10:14:49Z</time>
      </trkpt>
      <trkpt lat="50.46862" lon="4.55194">
        <ele>162</ele>
        <time>2021-11-11T10:14:51Z</time>
      </trkpt>
      <trkpt lat="50.4686" lon="4.55195">
        <ele>162</ele>
        <time>2021-11-11T10:14:53Z</time>
      </trkpt>
      <trkpt lat="50.46857" lon="4.55196">
        <ele>162</ele>
        <time>2021-11-11T10:14:55Z</time>
      </trkpt>
      <trkpt lat="50.46854" lon="4.55198">
        <ele>162</ele>
        <time>2021-11-11T10:14:57Z</time>
      </trkpt>
      <trkpt lat="50.46851" lon="4.552">
        <ele>162</ele>
        <time>2021-11-11T10:14:59Z</time>
      </trkpt>
      <trkpt lat="50.46849" lon="4.55201">
        <ele>162</ele>
        <time>2021-11-11T10:15:01Z</time>
      </trkpt>
      <trkpt lat="50.46847" lon="4.55203">
        <ele>161</ele>
        <time>2021-11-11T10:15:03Z</time>
      </trkpt>
      <trkpt lat="50.46845" lon="4.55204">
        <ele>161</ele>
        <time>2021-11-11T10:15:05Z</time>
      </trkpt>
      <trkpt lat="50.46842" lon="4.55206">
        <ele>161</ele>
        <time>2021-11-11T10:15:07Z</time>
      </trkpt>
      <trkpt lat="50.4684" lon="4.5521">
        <ele>161</ele>
        <time>2021-11-11T10:15:09Z</time>
      </trkpt>
      <trkpt lat="50.46836" lon="4.55213">
        <ele>161</ele>
        <time>2021-11-11T10:15:11Z</time>
      </trkpt>
      <trkpt lat="50.46832" lon="4.55216">
        <ele>161</ele>
        <time>2021-11-11T10:15:13Z</time>
      </trkpt>
      <trkpt lat="50.46827" lon="4.55218">
        <ele>161</ele>
        <time>2021-11-11T10:15:15Z</time>
      </trkpt>
      <trkpt lat="50.46822" lon="4.55221">
        <ele>161</ele>
        <time>2021-11-11T10:15:17Z</time>
      </trkpt>
      <trkpt lat="50.46817" lon="4.55225">
        <ele>159</ele>
        <time>2021-11-11T10:15:19Z</time>
      </trkpt>
      <trkpt lat="50.46813" lon="4.55225">
        <ele>159</ele>
        <time>2021-11-11T10:15:21Z</time>
      </trkpt>
      <trkpt lat="50.46808" lon="4.55227">
        <ele>159</ele>
        <time>2021-11-11T10:15:23Z</time>
      </trkpt>
      <trkpt lat="50.46803" lon="4.55229">
        <ele>159</ele>
        <time>2021-11-11T10:15:25Z</time>
      </trkpt>
      <trkpt lat="50.46798" lon="4.55233">
        <ele>159</ele>
        <time>2021-11-11T10:15:27Z</time>
      </trkpt>
      <trkpt lat="50.46792" lon="4.55237">
        <ele>160</ele>
        <time>2021-11-11T10:15:29Z</time>
      </trkpt>
      <trkpt lat="50.46785" lon="4.55243">
        <ele>160</ele>
        <time>2021-11-11T10:15:31Z</time>
      </trkpt>
      <trkpt lat="50.46778" lon="4.55248">
        <ele>160</ele>
        <time>2021-11-11T10:15:33Z</time>
      </trkpt>
      <trkpt lat="50.46771" lon="4.55253">
        <ele>160</ele>
        <time>2021-11-11T10:15:35Z</time>
      </trkpt>
      <trkpt lat="50.46765" lon="4.55258">
        <ele>160</ele>
        <time>2021-11-11T10:15:37Z</time>
      </trkpt>
      <trkpt lat="50.46759" lon="4.55264">
        <ele>158</ele>
        <time>2021-11-11T10:15:39Z</time>
      </trkpt>
      <trkpt lat="50.46753" lon="4.55271">
        <ele>158</ele>
        <time>2021-11-11T10:15:41Z</time>
      </trkpt>
      <trkpt lat="50.46747" lon="4.55277">
        <ele>158</ele>
        <time>2021-11-11T10:15:43Z</time>
      </trkpt>
      <trkpt lat="50.46742" lon="4.55283">
        <ele>158</ele>
        <time>2021-11-11T10:15:45Z</time>
      </trkpt>
      <trkpt lat="50.46737" lon="4.55289">
        <ele>158</ele>
        <time>2021-11-11T10:15:47Z</time>
      </trkpt>
      <trkpt lat="50.46732" lon="4.55294">
        <ele>161</ele>
        <time>2021-11-11T10:15:49Z</time>
      </trkpt>
      <trkpt lat="50.46728" lon="4.55299">
        <ele>161</ele>
        <time>2021-11-11T10:15:51Z</time>
      </trkpt>
      <trkpt lat="50.46722" lon="4.55305">
        <ele>161</ele>
        <time>2021-11-11T10:15:53Z</time>
      </trkpt>
      <trkpt lat="50.46717" lon="4.55311">
        <ele>161</ele>
        <time>2021-11-11T10:15:55Z</time>
      </trkpt>
      <trkpt lat="50.46711" lon="4.55317">
        <ele>161</ele>
        <time>2021-11-11T10:15:57Z</time>
      </trkpt>
      <trkpt lat="50.46704" lon="4.55322">
        <ele>164</ele>
        <time>2021-11-11T10:15:59Z</time>
      </trkpt>
      <trkpt lat="50.46697" lon="4.55326">
        <ele>164</ele>
        <time>2021-11-11T10:16:01Z</time>
      </trkpt>
      <trkpt lat="50.46691" lon="4.5533">
        <ele>164</ele>
        <time>2021-11-11T10:16:03Z</time>
      </trkpt>
      <trkpt lat="50.46685" lon="4.55333">
        <ele>164</ele>
        <time>2021-11-11T10:16:05Z</time>
      </trkpt>
      <trkpt lat="50.46678" lon="4.55336">
        <ele>164</ele>
        <time>2021-11-11T10:16:07Z</time>
      </trkpt>
      <trkpt lat="50.46672" lon="4.55339">
        <ele>164</ele>
        <time>2021-11-11T10:16:09Z</time>
      </trkpt>
      <trkpt lat="50.46665" lon="4.55341">
        <ele>164</ele>
        <time>2021-11-11T10:16:11Z</time>
      </trkpt>
      <trkpt lat="50.46659" lon="4.55344">
        <ele>164</ele>
        <time>2021-11-11T10:16:13Z</time>
      </trkpt>
      <trkpt lat="50.46653" lon="4.55346">
        <ele>166</ele>
        <time>2021-11-11T10:16:15Z</time>
      </trkpt>
      <trkpt lat="50.46647" lon="4.55347">
        <ele>165</ele>
        <time>2021-11-11T10:16:17Z</time>
      </trkpt>
      <trkpt lat="50.4664" lon="4.55349">
        <ele>165</ele>
        <time>2021-11-11T10:16:19Z</time>
      </trkpt>
      <trkpt lat="50.46634" lon="4.55351">
        <ele>165</ele>
        <time>2021-11-11T10:16:21Z</time>
      </trkpt>
      <trkpt lat="50.46627" lon="4.55352">
        <ele>165</ele>
        <time>2021-11-11T10:16:23Z</time>
      </trkpt>
      <trkpt lat="50.4662" lon="4.55352">
        <ele>166</ele>
        <time>2021-11-11T10:16:25Z</time>
      </trkpt>
      <trkpt lat="50.46613" lon="4.55353">
        <ele>166</ele>
        <time>2021-11-11T10:16:27Z</time>
      </trkpt>
      <trkpt lat="50.46607" lon="4.55353">
        <ele>166</ele>
        <time>2021-11-11T10:16:29Z</time>
      </trkpt>
      <trkpt lat="50.466" lon="4.55354">
        <ele>166</ele>
        <time>2021-11-11T10:16:31Z</time>
      </trkpt>
      <trkpt lat="50.46591" lon="4.55355">
        <ele>166</ele>
        <time>2021-11-11T10:16:33Z</time>
      </trkpt>
      <trkpt lat="50.46583" lon="4.55355">
        <ele>166</ele>
        <time>2021-11-11T10:16:35Z</time>
      </trkpt>
      <trkpt lat="50.46574" lon="4.55357">
        <ele>166</ele>
        <time>2021-11-11T10:16:37Z</time>
      </trkpt>
      <trkpt lat="50.46566" lon="4.55358">
        <ele>166</ele>
        <time>2021-11-11T10:16:39Z</time>
      </trkpt>
      <trkpt lat="50.46558" lon="4.55363">
        <ele>166</ele>
        <time>2021-11-11T10:16:41Z</time>
      </trkpt>
      <trkpt lat="50.46549" lon="4.55368">
        <ele>166</ele>
        <time>2021-11-11T10:16:43Z</time>
      </trkpt>
      <trkpt lat="50.46542" lon="4.55375">
        <ele>163</ele>
        <time>2021-11-11T10:16:45Z</time>
      </trkpt>
      <trkpt lat="50.46536" lon="4.55385">
        <ele>165</ele>
        <time>2021-11-11T10:16:47Z</time>
      </trkpt>
      <trkpt lat="50.46531" lon="4.55395">
        <ele>165</ele>
        <time>2021-11-11T10:16:49Z</time>
      </trkpt>
      <trkpt lat="50.46526" lon="4.55405">
        <ele>166</ele>
        <time>2021-11-11T10:16:51Z</time>
      </trkpt>
      <trkpt lat="50.4652" lon="4.55417">
        <ele>166</ele>
        <time>2021-11-11T10:16:53Z</time>
      </trkpt>
      <trkpt lat="50.46515" lon="4.55427">
        <ele>166</ele>
        <time>2021-11-11T10:16:55Z</time>
      </trkpt>
      <trkpt lat="50.4651" lon="4.55434">
        <ele>167</ele>
        <time>2021-11-11T10:16:57Z</time>
      </trkpt>
      <trkpt lat="50.46504" lon="4.55441">
        <ele>167</ele>
        <time>2021-11-11T10:16:59Z</time>
      </trkpt>
      <trkpt lat="50.46497" lon="4.55448">
        <ele>167</ele>
        <time>2021-11-11T10:17:01Z</time>
      </trkpt>
      <trkpt lat="50.46489" lon="4.55453">
        <ele>167</ele>
        <time>2021-11-11T10:17:03Z</time>
      </trkpt>
      <trkpt lat="50.46481" lon="4.55458">
        <ele>166</ele>
        <time>2021-11-11T10:17:05Z</time>
      </trkpt>
      <trkpt lat="50.46474" lon="4.55462">
        <ele>167</ele>
        <time>2021-11-11T10:17:07Z</time>
      </trkpt>
      <trkpt lat="50.46466" lon="4.55466">
        <ele>167</ele>
        <time>2021-11-11T10:17:09Z</time>
      </trkpt>
      <trkpt lat="50.4646" lon="4.55469">
        <ele>167</ele>
        <time>2021-11-11T10:17:11Z</time>
      </trkpt>
      <trkpt lat="50.46453" lon="4.55471">
        <ele>168</ele>
        <time>2021-11-11T10:17:13Z</time>
      </trkpt>
      <trkpt lat="50.46446" lon="4.55472">
        <ele>168</ele>
        <time>2021-11-11T10:17:15Z</time>
      </trkpt>
      <trkpt lat="50.4644" lon="4.55472">
        <ele>168</ele>
        <time>2021-11-11T10:17:17Z</time>
      </trkpt>
      <trkpt lat="50.46433" lon="4.55473">
        <ele>168</ele>
        <time>2021-11-11T10:17:19Z</time>
      </trkpt>
      <trkpt lat="50.46426" lon="4.55472">
        <ele>168</ele>
        <time>2021-11-11T10:17:21Z</time>
      </trkpt>
      <trkpt lat="50.4642" lon="4.55472">
        <ele>168</ele>
        <time>2021-11-11T10:17:23Z</time>
      </trkpt>
      <trkpt lat="50.46414" lon="4.55473">
        <ele>168</ele>
        <time>2021-11-11T10:17:25Z</time>
      </trkpt>
      <trkpt lat="50.46407" lon="4.55474">
        <ele>168</ele>
        <time>2021-11-11T10:17:27Z</time>
      </trkpt>
      <trkpt lat="50.46401" lon="4.55474">
        <ele>169</ele>
        <time>2021-11-11T10:17:29Z</time>
      </trkpt>
      <trkpt lat="50.46394" lon="4.55475">
        <ele>169</ele>
        <time>2021-11-11T10:17:31Z</time>
      </trkpt>
      <trkpt lat="50.46386" lon="4.55475">
        <ele>169</ele>
        <time>2021-11-11T10:17:33Z</time>
      </trkpt>
      <trkpt lat="50.46379" lon="4.55474">
        <ele>169</ele>
        <time>2021-11-11T10:17:35Z</time>
      </trkpt>
      <trkpt lat="50.46372" lon="4.55473">
        <ele>170</ele>
        <time>2021-11-11T10:17:37Z</time>
      </trkpt>
      <trkpt lat="50.46365" lon="4.55472">
        <ele>170</ele>
        <time>2021-11-11T10:17:39Z</time>
      </trkpt>
      <trkpt lat="50.46358" lon="4.5547">
        <ele>170</ele>
        <time>2021-11-11T10:17:41Z</time>
      </trkpt>
      <trkpt lat="50.46351" lon="4.55468">
        <ele>170</ele>
        <time>2021-11-11T10:17:43Z</time>
      </trkpt>
      <trkpt lat="50.46343" lon="4.55465">
        <ele>171</ele>
        <time>2021-11-11T10:17:45Z</time>
      </trkpt>
      <trkpt lat="50.46336" lon="4.55463">
        <ele>171</ele>
        <time>2021-11-11T10:17:47Z</time>
      </trkpt>
      <trkpt lat="50.46328" lon="4.5546">
        <ele>171</ele>
        <time>2021-11-11T10:17:49Z</time>
      </trkpt>
      <trkpt lat="50.46321" lon="4.55457">
        <ele>170</ele>
        <time>2021-11-11T10:17:51Z</time>
      </trkpt>
      <trkpt lat="50.46313" lon="4.55453">
        <ele>170</ele>
        <time>2021-11-11T10:17:53Z</time>
      </trkpt>
      <trkpt lat="50.46306" lon="4.5545">
        <ele>170</ele>
        <time>2021-11-11T10:17:55Z</time>
      </trkpt>
      <trkpt lat="50.46298" lon="4.55447">
        <ele>170</ele>
        <time>2021-11-11T10:17:57Z</time>
      </trkpt>
      <trkpt lat="50.46289" lon="4.55443">
        <ele>170</ele>
        <time>2021-11-11T10:17:59Z</time>
      </trkpt>
      <trkpt lat="50.46281" lon="4.5544">
        <ele>170</ele>
        <time>2021-11-11T10:18:01Z</time>
      </trkpt>
      <trkpt lat="50.46273" lon="4.55438">
        <ele>170</ele>
        <time>2021-11-11T10:18:03Z</time>
      </trkpt>
      <trkpt lat="50.46265" lon="4.55435">
        <ele>170</ele>
        <time>2021-11-11T10:18:05Z</time>
      </trkpt>
      <trkpt lat="50.46256" lon="4.55433">
        <ele>171</ele>
        <time>2021-11-11T10:18:07Z</time>
      </trkpt>
      <trkpt lat="50.46248" lon="4.55431">
        <ele>171</ele>
        <time>2021-11-11T10:18:09Z</time>
      </trkpt>
      <trkpt lat="50.46239" lon="4.55431">
        <ele>171</ele>
        <time>2021-11-11T10:18:11Z</time>
      </trkpt>
      <trkpt lat="50.46231" lon="4.5543">
        <ele>172</ele>
        <time>2021-11-11T10:18:13Z</time>
      </trkpt>
      <trkpt lat="50.46222" lon="4.55428">
        <ele>172</ele>
        <time>2021-11-11T10:18:15Z</time>
      </trkpt>
      <trkpt lat="50.46214" lon="4.55426">
        <ele>172</ele>
        <time>2021-11-11T10:18:17Z</time>
      </trkpt>
      <trkpt lat="50.46206" lon="4.55424">
        <ele>174</ele>
        <time>2021-11-11T10:18:19Z</time>
      </trkpt>
      <trkpt lat="50.46199" lon="4.55423">
        <ele>174</ele>
        <time>2021-11-11T10:18:21Z</time>
      </trkpt>
      <trkpt lat="50.46191" lon="4.55423">
        <ele>174</ele>
        <time>2021-11-11T10:18:23Z</time>
      </trkpt>
      <trkpt lat="50.46182" lon="4.55423">
        <ele>174</ele>
        <time>2021-11-11T10:18:25Z</time>
      </trkpt>
      <trkpt lat="50.46174" lon="4.55423">
        <ele>176</ele>
        <time>2021-11-11T10:18:27Z</time>
      </trkpt>
      <trkpt lat="50.46166" lon="4.55423">
        <ele>176</ele>
        <time>2021-11-11T10:18:29Z</time>
      </trkpt>
      <trkpt lat="50.46157" lon="4.55423">
        <ele>176</ele>
        <time>2021-11-11T10:18:31Z</time>
      </trkpt>
      <trkpt lat="50.46149" lon="4.55424">
        <ele>177</ele>
        <time>2021-11-11T10:18:33Z</time>
      </trkpt>
      <trkpt lat="50.46141" lon="4.55423">
        <ele>177</ele>
        <time>2021-11-11T10:18:35Z</time>
      </trkpt>
      <trkpt lat="50.46133" lon="4.5542">
        <ele>177</ele>
        <time>2021-11-11T10:18:37Z</time>
      </trkpt>
      <trkpt lat="50.46125" lon="4.55417">
        <ele>177</ele>
        <time>2021-11-11T10:18:39Z</time>
      </trkpt>
      <trkpt lat="50.46116" lon="4.55413">
        <ele>177</ele>
        <time>2021-11-11T10:18:41Z</time>
      </trkpt>
      <trkpt lat="50.4611" lon="4.5541">
        <ele>177</ele>
        <time>2021-11-11T10:18:43Z</time>
      </trkpt>
      <trkpt lat="50.46101" lon="4.55405">
        <ele>177</ele>
        <time>2021-11-11T10:18:45Z</time>
      </trkpt>
      <trkpt lat="50.46093" lon="4.554">
        <ele>178</ele>
        <time>2021-11-11T10:18:47Z</time>
      </trkpt>
      <trkpt lat="50.46084" lon="4.55395">
        <ele>178</ele>
        <time>2021-11-11T10:18:49Z</time>
      </trkpt>
      <trkpt lat="50.46076" lon="4.55391">
        <ele>178</ele>
        <time>2021-11-11T10:18:51Z</time>
      </trkpt>
      <trkpt lat="50.46068" lon="4.55386">
        <ele>179</ele>
        <time>2021-11-11T10:18:53Z</time>
      </trkpt>
      <trkpt lat="50.46061" lon="4.55379">
        <ele>179</ele>
        <time>2021-11-11T10:18:55Z</time>
      </trkpt>
      <trkpt lat="50.46053" lon="4.55374">
        <ele>175</ele>
        <time>2021-11-11T10:18:57Z</time>
      </trkpt>
      <trkpt lat="50.46044" lon="4.55369">
        <ele>175</ele>
        <time>2021-11-11T10:18:59Z</time>
      </trkpt>
      <trkpt lat="50.46035" lon="4.55364">
        <ele>176</ele>
        <time>2021-11-11T10:19:01Z</time>
      </trkpt>
      <trkpt lat="50.46026" lon="4.55359">
        <ele>176</ele>
        <time>2021-11-11T10:19:03Z</time>
      </trkpt>
      <trkpt lat="50.46019" lon="4.55351">
        <ele>176</ele>
        <time>2021-11-11T10:19:05Z</time>
      </trkpt>
      <trkpt lat="50.46011" lon="4.55344">
        <ele>176</ele>
        <time>2021-11-11T10:19:07Z</time>
      </trkpt>
      <trkpt lat="50.46003" lon="4.55337">
        <ele>176</ele>
        <time>2021-11-11T10:19:09Z</time>
      </trkpt>
      <trkpt lat="50.45995" lon="4.55329">
        <ele>176</ele>
        <time>2021-11-11T10:19:11Z</time>
      </trkpt>
      <trkpt lat="50.45987" lon="4.5532">
        <ele>176</ele>
        <time>2021-11-11T10:19:13Z</time>
      </trkpt>
      <trkpt lat="50.4598" lon="4.55311">
        <ele>177</ele>
        <time>2021-11-11T10:19:15Z</time>
      </trkpt>
      <trkpt lat="50.45971" lon="4.55304">
        <ele>177</ele>
        <time>2021-11-11T10:19:17Z</time>
      </trkpt>
      <trkpt lat="50.45963" lon="4.55296">
        <ele>177</ele>
        <time>2021-11-11T10:19:19Z</time>
      </trkpt>
      <trkpt lat="50.45955" lon="4.55287">
        <ele>179</ele>
        <time>2021-11-11T10:19:21Z</time>
      </trkpt>
      <trkpt lat="50.45948" lon="4.55277">
        <ele>179</ele>
        <time>2021-11-11T10:19:23Z</time>
      </trkpt>
      <trkpt lat="50.4594" lon="4.55268">
        <ele>179</ele>
        <time>2021-11-11T10:19:25Z</time>
      </trkpt>
      <trkpt lat="50.45932" lon="4.5526">
        <ele>178</ele>
        <time>2021-11-11T10:19:27Z</time>
      </trkpt>
      <trkpt lat="50.45923" lon="4.55251">
        <ele>179</ele>
        <time>2021-11-11T10:19:29Z</time>
      </trkpt>
      <trkpt lat="50.45914" lon="4.55242">
        <ele>179</ele>
        <time>2021-11-11T10:19:31Z</time>
      </trkpt>
      <trkpt lat="50.45905" lon="4.55233">
        <ele>179</ele>
        <time>2021-11-11T10:19:33Z</time>
      </trkpt>
      <trkpt lat="50.45895" lon="4.55224">
        <ele>180</ele>
        <time>2021-11-11T10:19:35Z</time>
      </trkpt>
      <trkpt lat="50.45886" lon="4.55215">
        <ele>180</ele>
        <time>2021-11-11T10:19:37Z</time>
      </trkpt>
      <trkpt lat="50.45877" lon="4.55206">
        <ele>177</ele>
        <time>2021-11-11T10:19:39Z</time>
      </trkpt>
      <trkpt lat="50.45868" lon="4.55196">
        <ele>178</ele>
        <time>2021-11-11T10:19:41Z</time>
      </trkpt>
      <trkpt lat="50.45859" lon="4.55186">
        <ele>178</ele>
        <time>2021-11-11T10:19:43Z</time>
      </trkpt>
      <trkpt lat="50.45849" lon="4.55176">
        <ele>177</ele>
        <time>2021-11-11T10:19:45Z</time>
      </trkpt>
      <trkpt lat="50.45839" lon="4.55167">
        <ele>176</ele>
        <time>2021-11-11T10:19:47Z</time>
      </trkpt>
      <trkpt lat="50.4583" lon="4.55156">
        <ele>176</ele>
        <time>2021-11-11T10:19:49Z</time>
      </trkpt>
      <trkpt lat="50.4582" lon="4.55145">
        <ele>176</ele>
        <time>2021-11-11T10:19:51Z</time>
      </trkpt>
      <trkpt lat="50.45809" lon="4.55136">
        <ele>177</ele>
        <time>2021-11-11T10:19:53Z</time>
      </trkpt>
      <trkpt lat="50.45798" lon="4.55125">
        <ele>175</ele>
        <time>2021-11-11T10:19:55Z</time>
      </trkpt>
      <trkpt lat="50.45787" lon="4.55114">
        <ele>177</ele>
        <time>2021-11-11T10:19:57Z</time>
      </trkpt>
      <trkpt lat="50.45776" lon="4.55105">
        <ele>177</ele>
        <time>2021-11-11T10:19:59Z</time>
      </trkpt>
      <trkpt lat="50.45766" lon="4.55094">
        <ele>176</ele>
        <time>2021-11-11T10:20:01Z</time>
      </trkpt>
      <trkpt lat="50.45757" lon="4.55085">
        <ele>177</ele>
        <time>2021-11-11T10:20:03Z</time>
      </trkpt>
      <trkpt lat="50.45747" lon="4.55076">
        <ele>177</ele>
        <time>2021-11-11T10:20:05Z</time>
      </trkpt>
      <trkpt lat="50.45739" lon="4.55067">
        <ele>177</ele>
        <time>2021-11-11T10:20:07Z</time>
      </trkpt>
      <trkpt lat="50.4573" lon="4.55057">
        <ele>176</ele>
        <time>2021-11-11T10:20:09Z</time>
      </trkpt>
      <trkpt lat="50.45721" lon="4.55047">
        <ele>176</ele>
        <time>2021-11-11T10:20:11Z</time>
      </trkpt>
      <trkpt lat="50.45712" lon="4.55037">
        <ele>175</ele>
        <time>2021-11-11T10:20:13Z</time>
      </trkpt>
      <trkpt lat="50.45704" lon="4.55027">
        <ele>175</ele>
        <time>2021-11-11T10:20:15Z</time>
      </trkpt>
      <trkpt lat="50.45696" lon="4.55017">
        <ele>175</ele>
        <time>2021-11-11T10:20:17Z</time>
      </trkpt>
      <trkpt lat="50.45688" lon="4.55006">
        <ele>175</ele>
        <time>2021-11-11T10:20:19Z</time>
      </trkpt>
      <trkpt lat="50.4568" lon="4.54995">
        <ele>176</ele>
        <time>2021-11-11T10:20:21Z</time>
      </trkpt>
      <trkpt lat="50.45672" lon="4.54985">
        <ele>175</ele>
        <time>2021-11-11T10:20:23Z</time>
      </trkpt>
      <trkpt lat="50.45664" lon="4.54975">
        <ele>175</ele>
        <time>2021-11-11T10:20:25Z</time>
      </trkpt>
      <trkpt lat="50.45656" lon="4.54964">
        <ele>175</ele>
        <time>2021-11-11T10:20:27Z</time>
      </trkpt>
      <trkpt lat="50.45647" lon="4.54954">
        <ele>175</ele>
        <time>2021-11-11T10:20:29Z</time>
      </trkpt>
      <trkpt lat="50.45638" lon="4.54945">
        <ele>175</ele>
        <time>2021-11-11T10:20:31Z</time>
      </trkpt>
      <trkpt lat="50.45629" lon="4.54935">
        <ele>175</ele>
        <time>2021-11-11T10:20:33Z</time>
      </trkpt>
      <trkpt lat="50.4562" lon="4.54926">
        <ele>175</ele>
        <time>2021-11-11T10:20:35Z</time>
      </trkpt>
      <trkpt lat="50.45611" lon="4.54917">
        <ele>175</ele>
        <time>2021-11-11T10:20:37Z</time>
      </trkpt>
      <trkpt lat="50.45602" lon="4.54908">
        <ele>175</ele>
        <time>2021-11-11T10:20:39Z</time>
      </trkpt>
      <trkpt lat="50.45593" lon="4.54901">
        <ele>175</ele>
        <time>2021-11-11T10:20:41Z</time>
      </trkpt>
      <trkpt lat="50.45583" lon="4.54893">
        <ele>175</ele>
        <time>2021-11-11T10:20:43Z</time>
      </trkpt>
      <trkpt lat="50.45574" lon="4.54886">
        <ele>175</ele>
        <time>2021-11-11T10:20:45Z</time>
      </trkpt>
      <trkpt lat="50.45565" lon="4.54878">
        <ele>175</ele>
        <time>2021-11-11T10:20:47Z</time>
      </trkpt>
      <trkpt lat="50.45556" lon="4.5487">
        <ele>175</ele>
        <time>2021-11-11T10:20:49Z</time>
      </trkpt>
      <trkpt lat="50.45548" lon="4.54862">
        <ele>175</ele>
        <time>2021-11-11T10:20:51Z</time>
      </trkpt>
      <trkpt lat="50.45539" lon="4.54855">
        <ele>174</ele>
        <time>2021-11-11T10:20:53Z</time>
      </trkpt>
      <trkpt lat="50.45531" lon="4.54847">
        <ele>173</ele>
        <time>2021-11-11T10:20:55Z</time>
      </trkpt>
      <trkpt lat="50.45524" lon="4.5484">
        <ele>173</ele>
        <time>2021-11-11T10:20:57Z</time>
      </trkpt>
      <trkpt lat="50.45516" lon="4.54833">
        <ele>173</ele>
        <time>2021-11-11T10:20:59Z</time>
      </trkpt>
      <trkpt lat="50.45509" lon="4.54827">
        <ele>173</ele>
        <time>2021-11-11T10:21:01Z</time>
      </trkpt>
      <trkpt lat="50.45502" lon="4.54822">
        <ele>173</ele>
        <time>2021-11-11T10:21:03Z</time>
      </trkpt>
      <trkpt lat="50.45494" lon="4.54822">
        <ele>173</ele>
        <time>2021-11-11T10:21:05Z</time>
      </trkpt>
      <trkpt lat="50.45486" lon="4.54829">
        <ele>174</ele>
        <time>2021-11-11T10:21:07Z</time>
      </trkpt>
      <trkpt lat="50.4548" lon="4.54838">
        <ele>174</ele>
        <time>2021-11-11T10:21:09Z</time>
      </trkpt>
      <trkpt lat="50.45475" lon="4.5485">
        <ele>174</ele>
        <time>2021-11-11T10:21:11Z</time>
      </trkpt>
      <trkpt lat="50.4547" lon="4.54863">
        <ele>174</ele>
        <time>2021-11-11T10:21:13Z</time>
      </trkpt>
      <trkpt lat="50.45467" lon="4.54876">
        <ele>176</ele>
        <time>2021-11-11T10:21:15Z</time>
      </trkpt>
      <trkpt lat="50.45462" lon="4.54888">
        <ele>176</ele>
        <time>2021-11-11T10:21:17Z</time>
      </trkpt>
      <trkpt lat="50.45459" lon="4.54901">
        <ele>176</ele>
        <time>2021-11-11T10:21:19Z</time>
      </trkpt>
      <trkpt lat="50.45455" lon="4.54915">
        <ele>176</ele>
        <time>2021-11-11T10:21:21Z</time>
      </trkpt>
      <trkpt lat="50.45451" lon="4.54928">
        <ele>176</ele>
        <time>2021-11-11T10:21:23Z</time>
      </trkpt>
      <trkpt lat="50.45446" lon="4.5494">
        <ele>176</ele>
        <time>2021-11-11T10:21:25Z</time>
      </trkpt>
      <trkpt lat="50.45443" lon="4.54954">
        <ele>176</ele>
        <time>2021-11-11T10:21:27Z</time>
      </trkpt>
      <trkpt lat="50.45441" lon="4.54969">
        <ele>176</ele>
        <time>2021-11-11T10:21:29Z</time>
      </trkpt>
      <trkpt lat="50.45441" lon="4.54983">
        <ele>176</ele>
        <time>2021-11-11T10:21:31Z</time>
      </trkpt>
      <trkpt lat="50.45442" lon="4.54998">
        <ele>176</ele>
        <time>2021-11-11T10:21:33Z</time>
      </trkpt>
      <trkpt lat="50.45443" lon="4.55012">
        <ele>176</ele>
        <time>2021-11-11T10:21:35Z</time>
      </trkpt>
      <trkpt lat="50.45446" lon="4.55027">
        <ele>177</ele>
        <time>2021-11-11T10:21:37Z</time>
      </trkpt>
      <trkpt lat="50.45447" lon="4.55041">
        <ele>177</ele>
        <time>2021-11-11T10:21:39Z</time>
      </trkpt>
      <trkpt lat="50.45449" lon="4.55057">
        <ele>178</ele>
        <time>2021-11-11T10:21:41Z</time>
      </trkpt>
      <trkpt lat="50.45448" lon="4.55072">
        <ele>179</ele>
        <time>2021-11-11T10:21:43Z</time>
      </trkpt>
      <trkpt lat="50.45445" lon="4.55085">
        <ele>179</ele>
        <time>2021-11-11T10:21:45Z</time>
      </trkpt>
      <trkpt lat="50.45438" lon="4.55096">
        <ele>179</ele>
        <time>2021-11-11T10:21:47Z</time>
      </trkpt>
      <trkpt lat="50.45431" lon="4.55107">
        <ele>181</ele>
        <time>2021-11-11T10:21:49Z</time>
      </trkpt>
      <trkpt lat="50.45424" lon="4.55116">
        <ele>179</ele>
        <time>2021-11-11T10:21:51Z</time>
      </trkpt>
      <trkpt lat="50.45417" lon="4.55124">
        <ele>179</ele>
        <time>2021-11-11T10:21:53Z</time>
      </trkpt>
      <trkpt lat="50.45411" lon="4.55131">
        <ele>180</ele>
        <time>2021-11-11T10:21:55Z</time>
      </trkpt>
      <trkpt lat="50.45404" lon="4.55139">
        <ele>180</ele>
        <time>2021-11-11T10:21:57Z</time>
      </trkpt>
      <trkpt lat="50.45398" lon="4.55147">
        <ele>181</ele>
        <time>2021-11-11T10:21:59Z</time>
      </trkpt>
      <trkpt lat="50.45392" lon="4.55154">
        <ele>180</ele>
        <time>2021-11-11T10:22:01Z</time>
      </trkpt>
      <trkpt lat="50.45387" lon="4.55161">
        <ele>180</ele>
        <time>2021-11-11T10:22:03Z</time>
      </trkpt>
      <trkpt lat="50.45382" lon="4.55168">
        <ele>180</ele>
        <time>2021-11-11T10:22:05Z</time>
      </trkpt>
      <trkpt lat="50.45377" lon="4.55174">
        <ele>180</ele>
        <time>2021-11-11T10:22:07Z</time>
      </trkpt>
      <trkpt lat="50.45372" lon="4.55178">
        <ele>181</ele>
        <time>2021-11-11T10:22:09Z</time>
      </trkpt>
      <trkpt lat="50.45365" lon="4.55181">
        <ele>181</ele>
        <time>2021-11-11T10:22:11Z</time>
      </trkpt>
      <trkpt lat="50.45356" lon="4.55184">
        <ele>181</ele>
        <time>2021-11-11T10:22:13Z</time>
      </trkpt>
      <trkpt lat="50.45347" lon="4.55187">
        <ele>181</ele>
        <time>2021-11-11T10:22:15Z</time>
      </trkpt>
      <trkpt lat="50.45337" lon="4.55188">
        <ele>181</ele>
        <time>2021-11-11T10:22:17Z</time>
      </trkpt>
      <trkpt lat="50.45327" lon="4.5519">
        <ele>181</ele>
        <time>2021-11-11T10:22:19Z</time>
      </trkpt>
      <trkpt lat="50.45317" lon="4.55189">
        <ele>181</ele>
        <time>2021-11-11T10:22:21Z</time>
      </trkpt>
      <trkpt lat="50.45307" lon="4.55189">
        <ele>181</ele>
        <time>2021-11-11T10:22:23Z</time>
      </trkpt>
      <trkpt lat="50.45298" lon="4.55189">
        <ele>181</ele>
        <time>2021-11-11T10:22:25Z</time>
      </trkpt>
      <trkpt lat="50.45287" lon="4.55188">
        <ele>181</ele>
        <time>2021-11-11T10:22:27Z</time>
      </trkpt>
      <trkpt lat="50.45277" lon="4.55187">
        <ele>181</ele>
        <time>2021-11-11T10:22:29Z</time>
      </trkpt>
      <trkpt lat="50.45267" lon="4.55186">
        <ele>181</ele>
        <time>2021-11-11T10:22:31Z</time>
      </trkpt>
      <trkpt lat="50.45257" lon="4.55184">
        <ele>180</ele>
        <time>2021-11-11T10:22:33Z</time>
      </trkpt>
      <trkpt lat="50.45247" lon="4.55183">
        <ele>180</ele>
        <time>2021-11-11T10:22:35Z</time>
      </trkpt>
      <trkpt lat="50.45236" lon="4.55181">
        <ele>180</ele>
        <time>2021-11-11T10:22:37Z</time>
      </trkpt>
      <trkpt lat="50.45225" lon="4.55179">
        <ele>180</ele>
        <time>2021-11-11T10:22:39Z</time>
      </trkpt>
      <trkpt lat="50.45215" lon="4.55178">
        <ele>180</ele>
        <time>2021-11-11T10:22:41Z</time>
      </trkpt>
      <trkpt lat="50.45205" lon="4.55176">
        <ele>180</ele>
        <time>2021-11-11T10:22:43Z</time>
      </trkpt>
      <trkpt lat="50.45194" lon="4.55173">
        <ele>180</ele>
        <time>2021-11-11T10:22:45Z</time>
      </trkpt>
      <trkpt lat="50.45184" lon="4.55168">
        <ele>180</ele>
        <time>2021-11-11T10:22:47Z</time>
      </trkpt>
      <trkpt lat="50.45175" lon="4.55162">
        <ele>180</ele>
        <time>2021-11-11T10:22:49Z</time>
      </trkpt>
      <trkpt lat="50.45166" lon="4.55156">
        <ele>180</ele>
        <time>2021-11-11T10:22:51Z</time>
      </trkpt>
      <trkpt lat="50.45157" lon="4.55149">
        <ele>180</ele>
        <time>2021-11-11T10:22:53Z</time>
      </trkpt>
      <trkpt lat="50.45148" lon="4.55143">
        <ele>179</ele>
        <time>2021-11-11T10:22:55Z</time>
      </trkpt>
      <trkpt lat="50.45139" lon="4.55136">
        <ele>179</ele>
        <time>2021-11-11T10:22:57Z</time>
      </trkpt>
      <trkpt lat="50.45129" lon="4.55129">
        <ele>179</ele>
        <time>2021-11-11T10:22:59Z</time>
      </trkpt>
      <trkpt lat="50.4512" lon="4.55124">
        <ele>179</ele>
        <time>2021-11-11T10:23:01Z</time>
      </trkpt>
      <trkpt lat="50.4511" lon="4.55117">
        <ele>179</ele>
        <time>2021-11-11T10:23:03Z</time>
      </trkpt>
      <trkpt lat="50.45101" lon="4.55112">
        <ele>179</ele>
        <time>2021-11-11T10:23:05Z</time>
      </trkpt>
      <trkpt lat="50.45092" lon="4.55106">
        <ele>179</ele>
        <time>2021-11-11T10:23:07Z</time>
      </trkpt>
      <trkpt lat="50.45083" lon="4.551">
        <ele>179</ele>
        <time>2021-11-11T10:23:09Z</time>
      </trkpt>
      <trkpt lat="50.45073" lon="4.55095">
        <ele>178</ele>
        <time>2021-11-11T10:23:11Z</time>
      </trkpt>
      <trkpt lat="50.45065" lon="4.5509">
        <ele>178</ele>
        <time>2021-11-11T10:23:13Z</time>
      </trkpt>
      <trkpt lat="50.45057" lon="4.55086">
        <ele>178</ele>
        <time>2021-11-11T10:23:15Z</time>
      </trkpt>
      <trkpt lat="50.4505" lon="4.55083">
        <ele>178</ele>
        <time>2021-11-11T10:23:17Z</time>
      </trkpt>
      <trkpt lat="50.45043" lon="4.5508">
        <ele>178</ele>
        <time>2021-11-11T10:23:19Z</time>
      </trkpt>
      <trkpt lat="50.45035" lon="4.55076">
        <ele>179</ele>
        <time>2021-11-11T10:23:21Z</time>
      </trkpt>
      <trkpt lat="50.45027" lon="4.55072">
        <ele>179</ele>
        <time>2021-11-11T10:23:23Z</time>
      </trkpt>
      <trkpt lat="50.45019" lon="4.55068">
        <ele>179</ele>
        <time>2021-11-11T10:23:25Z</time>
      </trkpt>
      <trkpt lat="50.45011" lon="4.55064">
        <ele>180</ele>
        <time>2021-11-11T10:23:27Z</time>
      </trkpt>
      <trkpt lat="50.45002" lon="4.5506">
        <ele>180</ele>
        <time>2021-11-11T10:23:29Z</time>
      </trkpt>
      <trkpt lat="50.44995" lon="4.55055">
        <ele>180</ele>
        <time>2021-11-11T10:23:31Z</time>
      </trkpt>
      <trkpt lat="50.44988" lon="4.55051">
        <ele>180</ele>
        <time>2021-11-11T10:23:33Z</time>
      </trkpt>
      <trkpt lat="50.44981" lon="4.55047">
        <ele>182</ele>
        <time>2021-11-11T10:23:35Z</time>
      </trkpt>
      <trkpt lat="50.44973" lon="4.55044">
        <ele>182</ele>
        <time>2021-11-11T10:23:37Z</time>
      </trkpt>
      <trkpt lat="50.44966" lon="4.5504">
        <ele>180</ele>
        <time>2021-11-11T10:23:39Z</time>
      </trkpt>
      <trkpt lat="50.44959" lon="4.55037">
        <ele>180</ele>
        <time>2021-11-11T10:23:41Z</time>
      </trkpt>
      <trkpt lat="50.44951" lon="4.55034">
        <ele>180</ele>
        <time>2021-11-11T10:23:43Z</time>
      </trkpt>
      <trkpt lat="50.44945" lon="4.55031">
        <ele>180</ele>
        <time>2021-11-11T10:23:45Z</time>
      </trkpt>
      <trkpt lat="50.44938" lon="4.55027">
        <ele>180</ele>
        <time>2021-11-11T10:23:47Z</time>
      </trkpt>
      <trkpt lat="50.44934" lon="4.55023">
        <ele>180</ele>
        <time>2021-11-11T10:23:49Z</time>
      </trkpt>
      <trkpt lat="50.44927" lon="4.55018">
        <ele>180</ele>
        <time>2021-11-11T10:23:51Z</time>
      </trkpt>
      <trkpt lat="50.44921" lon="4.55013">
        <ele>180</ele>
        <time>2021-11-11T10:23:53Z</time>
      </trkpt>
      <trkpt lat="50.44914" lon="4.55008">
        <ele>180</ele>
        <time>2021-11-11T10:23:55Z</time>
      </trkpt>
      <trkpt lat="50.44908" lon="4.55003">
        <ele>180</ele>
        <time>2021-11-11T10:23:57Z</time>
      </trkpt>
      <trkpt lat="50.44902" lon="4.54997">
        <ele>178</ele>
        <time>2021-11-11T10:23:59Z</time>
      </trkpt>
      <trkpt lat="50.44896" lon="4.54992">
        <ele>178</ele>
        <time>2021-11-11T10:24:01Z</time>
      </trkpt>
      <trkpt lat="50.4489" lon="4.54986">
        <ele>179</ele>
        <time>2021-11-11T10:24:03Z</time>
      </trkpt>
      <trkpt lat="50.44885" lon="4.54979">
        <ele>179</ele>
        <time>2021-11-11T10:24:05Z</time>
      </trkpt>
      <trkpt lat="50.44879" lon="4.54973">
        <ele>179</ele>
        <time>2021-11-11T10:24:07Z</time>
      </trkpt>
      <trkpt lat="50.44873" lon="4.54967">
        <ele>179</ele>
        <time>2021-11-11T10:24:09Z</time>
      </trkpt>
      <trkpt lat="50.44867" lon="4.54962">
        <ele>179</ele>
        <time>2021-11-11T10:24:11Z</time>
      </trkpt>
      <trkpt lat="50.44862" lon="4.54956">
        <ele>179</ele>
        <time>2021-11-11T10:24:13Z</time>
      </trkpt>
      <trkpt lat="50.44856" lon="4.54951">
        <ele>179</ele>
        <time>2021-11-11T10:24:15Z</time>
      </trkpt>
      <trkpt lat="50.44851" lon="4.54945">
        <ele>179</ele>
        <time>2021-11-11T10:24:17Z</time>
      </trkpt>
      <trkpt lat="50.44845" lon="4.54938">
        <ele>180</ele>
        <time>2021-11-11T10:24:19Z</time>
      </trkpt>
      <trkpt lat="50.44839" lon="4.54931">
        <ele>180</ele>
        <time>2021-11-11T10:24:21Z</time>
      </trkpt>
      <trkpt lat="50.44833" lon="4.54924">
        <ele>179</ele>
        <time>2021-11-11T10:24:23Z</time>
      </trkpt>
      <trkpt lat="50.44828" lon="4.54917">
        <ele>179</ele>
        <time>2021-11-11T10:24:25Z</time>
      </trkpt>
      <trkpt lat="50.44822" lon="4.54911">
        <ele>179</ele>
        <time>2021-11-11T10:24:27Z</time>
      </trkpt>
      <trkpt lat="50.44816" lon="4.54905">
        <ele>179</ele>
        <time>2021-11-11T10:24:29Z</time>
      </trkpt>
      <trkpt lat="50.44811" lon="4.54899">
        <ele>179</ele>
        <time>2021-11-11T10:24:31Z</time>
      </trkpt>
      <trkpt lat="50.44804" lon="4.54893">
        <ele>179</ele>
        <time>2021-11-11T10:24:33Z</time>
      </trkpt>
      <trkpt lat="50.44799" lon="4.54886">
        <ele>179</ele>
        <time>2021-11-11T10:24:35Z</time>
      </trkpt>
      <trkpt lat="50.44793" lon="4.5488">
        <ele>179</ele>
        <time>2021-11-11T10:24:37Z</time>
      </trkpt>
      <trkpt lat="50.44785" lon="4.54871">
        <ele>180</ele>
        <time>2021-11-11T10:24:40Z</time>
      </trkpt>
      <trkpt lat="50.44779" lon="4.54866">
        <ele>180</ele>
        <time>2021-11-11T10:24:42Z</time>
      </trkpt>
      <trkpt lat="50.44774" lon="4.5486">
        <ele>180</ele>
        <time>2021-11-11T10:24:44Z</time>
      </trkpt>
      <trkpt lat="50.44765" lon="4.5485">
        <ele>180</ele>
        <time>2021-11-11T10:24:47Z</time>
      </trkpt>
      <trkpt lat="50.44759" lon="4.54844">
        <ele>181</ele>
        <time>2021-11-11T10:24:49Z</time>
      </trkpt>
      <trkpt lat="50.44753" lon="4.54838">
        <ele>181</ele>
        <time>2021-11-11T10:24:51Z</time>
      </trkpt>
      <trkpt lat="50.44747" lon="4.54831">
        <ele>181</ele>
        <time>2021-11-11T10:24:53Z</time>
      </trkpt>
      <trkpt lat="50.44741" lon="4.54825">
        <ele>181</ele>
        <time>2021-11-11T10:24:55Z</time>
      </trkpt>
      <trkpt lat="50.44735" lon="4.54819">
        <ele>180</ele>
        <time>2021-11-11T10:24:57Z</time>
      </trkpt>
      <trkpt lat="50.4473" lon="4.54813">
        <ele>180</ele>
        <time>2021-11-11T10:24:59Z</time>
      </trkpt>
      <trkpt lat="50.44724" lon="4.54807">
        <ele>180</ele>
        <time>2021-11-11T10:25:01Z</time>
      </trkpt>
      <trkpt lat="50.44719" lon="4.54801">
        <ele>180</ele>
        <time>2021-11-11T10:25:03Z</time>
      </trkpt>
      <trkpt lat="50.44713" lon="4.54795">
        <ele>180</ele>
        <time>2021-11-11T10:25:05Z</time>
      </trkpt>
      <trkpt lat="50.44708" lon="4.5479">
        <ele>180</ele>
        <time>2021-11-11T10:25:07Z</time>
      </trkpt>
      <trkpt lat="50.44702" lon="4.54784">
        <ele>180</ele>
        <time>2021-11-11T10:25:09Z</time>
      </trkpt>
      <trkpt lat="50.44697" lon="4.54778">
        <ele>180</ele>
        <time>2021-11-11T10:25:11Z</time>
      </trkpt>
      <trkpt lat="50.44692" lon="4.54774">
        <ele>180</ele>
        <time>2021-11-11T10:25:13Z</time>
      </trkpt>
      <trkpt lat="50.44688" lon="4.54768">
        <ele>180</ele>
        <time>2021-11-11T10:25:15Z</time>
      </trkpt>
      <trkpt lat="50.44687" lon="4.54761">
        <ele>181</ele>
        <time>2021-11-11T10:25:17Z</time>
      </trkpt>
      <trkpt lat="50.4469" lon="4.54753">
        <ele>181</ele>
        <time>2021-11-11T10:25:19Z</time>
      </trkpt>
      <trkpt lat="50.44692" lon="4.54744">
        <ele>181</ele>
        <time>2021-11-11T10:25:21Z</time>
      </trkpt>
      <trkpt lat="50.44694" lon="4.54734">
        <ele>182</ele>
        <time>2021-11-11T10:25:23Z</time>
      </trkpt>
      <trkpt lat="50.44695" lon="4.54723">
        <ele>182</ele>
        <time>2021-11-11T10:25:25Z</time>
      </trkpt>
      <trkpt lat="50.44696" lon="4.54712">
        <ele>182</ele>
        <time>2021-11-11T10:25:27Z</time>
      </trkpt>
      <trkpt lat="50.44697" lon="4.547">
        <ele>179</ele>
        <time>2021-11-11T10:25:29Z</time>
      </trkpt>
      <trkpt lat="50.44699" lon="4.54689">
        <ele>179</ele>
        <time>2021-11-11T10:25:31Z</time>
      </trkpt>
      <trkpt lat="50.44701" lon="4.54676">
        <ele>179</ele>
        <time>2021-11-11T10:25:33Z</time>
      </trkpt>
      <trkpt lat="50.44703" lon="4.54664">
        <ele>179</ele>
        <time>2021-11-11T10:25:35Z</time>
      </trkpt>
      <trkpt lat="50.44706" lon="4.54653">
        <ele>179</ele>
        <time>2021-11-11T10:25:37Z</time>
      </trkpt>
      <trkpt lat="50.44708" lon="4.5464">
        <ele>178</ele>
        <time>2021-11-11T10:25:39Z</time>
      </trkpt>
      <trkpt lat="50.44711" lon="4.54629">
        <ele>178</ele>
        <time>2021-11-11T10:25:41Z</time>
      </trkpt>
      <trkpt lat="50.44715" lon="4.54616">
        <ele>178</ele>
        <time>2021-11-11T10:25:43Z</time>
      </trkpt>
      <trkpt lat="50.44719" lon="4.54604">
        <ele>178</ele>
        <time>2021-11-11T10:25:45Z</time>
      </trkpt>
      <trkpt lat="50.44723" lon="4.54593">
        <ele>179</ele>
        <time>2021-11-11T10:25:47Z</time>
      </trkpt>
      <trkpt lat="50.44727" lon="4.54582">
        <ele>179</ele>
        <time>2021-11-11T10:25:49Z</time>
      </trkpt>
      <trkpt lat="50.44732" lon="4.54571">
        <ele>179</ele>
        <time>2021-11-11T10:25:51Z</time>
      </trkpt>
      <trkpt lat="50.44737" lon="4.54559">
        <ele>177</ele>
        <time>2021-11-11T10:25:53Z</time>
      </trkpt>
      <trkpt lat="50.44743" lon="4.54548">
        <ele>177</ele>
        <time>2021-11-11T10:25:55Z</time>
      </trkpt>
      <trkpt lat="50.44749" lon="4.54536">
        <ele>179</ele>
        <time>2021-11-11T10:25:57Z</time>
      </trkpt>
      <trkpt lat="50.44756" lon="4.54524">
        <ele>179</ele>
        <time>2021-11-11T10:25:59Z</time>
      </trkpt>
      <trkpt lat="50.44763" lon="4.54513">
        <ele>179</ele>
        <time>2021-11-11T10:26:01Z</time>
      </trkpt>
      <trkpt lat="50.4477" lon="4.54503">
        <ele>180</ele>
        <time>2021-11-11T10:26:03Z</time>
      </trkpt>
      <trkpt lat="50.44776" lon="4.54494">
        <ele>180</ele>
        <time>2021-11-11T10:26:05Z</time>
      </trkpt>
      <trkpt lat="50.44778" lon="4.54487">
        <ele>180</ele>
        <time>2021-11-11T10:26:07Z</time>
      </trkpt>
      <trkpt lat="50.44774" lon="4.54481">
        <ele>180</ele>
        <time>2021-11-11T10:26:09Z</time>
      </trkpt>
      <trkpt lat="50.44767" lon="4.54475">
        <ele>180</ele>
        <time>2021-11-11T10:26:11Z</time>
      </trkpt>
      <trkpt lat="50.44759" lon="4.54469">
        <ele>181</ele>
        <time>2021-11-11T10:26:13Z</time>
      </trkpt>
      <trkpt lat="50.44751" lon="4.54465">
        <ele>181</ele>
        <time>2021-11-11T10:26:15Z</time>
      </trkpt>
      <trkpt lat="50.44742" lon="4.54461">
        <ele>181</ele>
        <time>2021-11-11T10:26:17Z</time>
      </trkpt>
      <trkpt lat="50.44735" lon="4.54456">
        <ele>182</ele>
        <time>2021-11-11T10:26:19Z</time>
      </trkpt>
      <trkpt lat="50.44727" lon="4.54453">
        <ele>182</ele>
        <time>2021-11-11T10:26:21Z</time>
      </trkpt>
      <trkpt lat="50.44719" lon="4.5445">
        <ele>182</ele>
        <time>2021-11-11T10:26:23Z</time>
      </trkpt>
      <trkpt lat="50.44711" lon="4.54446">
        <ele>182</ele>
        <time>2021-11-11T10:26:25Z</time>
      </trkpt>
      <trkpt lat="50.44702" lon="4.54443">
        <ele>181</ele>
        <time>2021-11-11T10:26:27Z</time>
      </trkpt>
      <trkpt lat="50.44697" lon="4.54441">
        <ele>181</ele>
        <time>2021-11-11T10:26:29Z</time>
      </trkpt>
      <trkpt lat="50.44694" lon="4.54436">
        <ele>181</ele>
        <time>2021-11-11T10:26:31Z</time>
      </trkpt>
      <trkpt lat="50.44692" lon="4.54431">
        <ele>181</ele>
        <time>2021-11-11T10:26:33Z</time>
      </trkpt>
      <trkpt lat="50.44689" lon="4.54428">
        <ele>183</ele>
        <time>2021-11-11T10:26:35Z</time>
      </trkpt>
      <trkpt lat="50.44683" lon="4.54424">
        <ele>183</ele>
        <time>2021-11-11T10:26:37Z</time>
      </trkpt>
      <trkpt lat="50.44675" lon="4.54417">
        <ele>183</ele>
        <time>2021-11-11T10:26:39Z</time>
      </trkpt>
      <trkpt lat="50.44668" lon="4.54407">
        <ele>183</ele>
        <time>2021-11-11T10:26:41Z</time>
      </trkpt>
      <trkpt lat="50.4466" lon="4.54398">
        <ele>183</ele>
        <time>2021-11-11T10:26:43Z</time>
      </trkpt>
      <trkpt lat="50.44654" lon="4.5439">
        <ele>183</ele>
        <time>2021-11-11T10:26:45Z</time>
      </trkpt>
      <trkpt lat="50.44646" lon="4.54382">
        <ele>184</ele>
        <time>2021-11-11T10:26:47Z</time>
      </trkpt>
      <trkpt lat="50.44636" lon="4.54375">
        <ele>184</ele>
        <time>2021-11-11T10:26:49Z</time>
      </trkpt>
      <trkpt lat="50.44626" lon="4.54371">
        <ele>179</ele>
        <time>2021-11-11T10:26:51Z</time>
      </trkpt>
      <trkpt lat="50.44613" lon="4.54365">
        <ele>178</ele>
        <time>2021-11-11T10:26:53Z</time>
      </trkpt>
      <trkpt lat="50.44601" lon="4.5436">
        <ele>178</ele>
        <time>2021-11-11T10:26:55Z</time>
      </trkpt>
      <trkpt lat="50.44589" lon="4.54359">
        <ele>177</ele>
        <time>2021-11-11T10:26:57Z</time>
      </trkpt>
      <trkpt lat="50.44579" lon="4.5436">
        <ele>177</ele>
        <time>2021-11-11T10:26:59Z</time>
      </trkpt>
      <trkpt lat="50.44576" lon="4.54362">
        <ele>177</ele>
        <time>2021-11-11T10:27:01Z</time>
      </trkpt>
      <trkpt lat="50.44572" lon="4.54363">
        <ele>177</ele>
        <time>2021-11-11T10:27:03Z</time>
      </trkpt>
      <trkpt lat="50.44566" lon="4.54362">
        <ele>177</ele>
        <time>2021-11-11T10:27:05Z</time>
      </trkpt>
      <trkpt lat="50.44562" lon="4.54362">
        <ele>177</ele>
        <time>2021-11-11T10:27:07Z</time>
      </trkpt>
      <trkpt lat="50.44556" lon="4.54361">
        <ele>177</ele>
        <time>2021-11-11T10:27:09Z</time>
      </trkpt>
      <trkpt lat="50.44548" lon="4.5436">
        <ele>177</ele>
        <time>2021-11-11T10:27:11Z</time>
      </trkpt>
      <trkpt lat="50.44539" lon="4.5436">
        <ele>177</ele>
        <time>2021-11-11T10:27:13Z</time>
      </trkpt>
      <trkpt lat="50.44529" lon="4.54357">
        <ele>177</ele>
        <time>2021-11-11T10:27:15Z</time>
      </trkpt>
      <trkpt lat="50.44521" lon="4.54356">
        <ele>177</ele>
        <time>2021-11-11T10:27:17Z</time>
      </trkpt>
      <trkpt lat="50.44512" lon="4.54354">
        <ele>178</ele>
        <time>2021-11-11T10:27:19Z</time>
      </trkpt>
      <trkpt lat="50.44504" lon="4.54356">
        <ele>178</ele>
        <time>2021-11-11T10:27:21Z</time>
      </trkpt>
      <trkpt lat="50.44498" lon="4.54355">
        <ele>178</ele>
        <time>2021-11-11T10:27:23Z</time>
      </trkpt>
      <trkpt lat="50.4449" lon="4.54353">
        <ele>178</ele>
        <time>2021-11-11T10:27:25Z</time>
      </trkpt>
      <trkpt lat="50.44484" lon="4.54352">
        <ele>178</ele>
        <time>2021-11-11T10:27:27Z</time>
      </trkpt>
      <trkpt lat="50.44479" lon="4.54351">
        <ele>178</ele>
        <time>2021-11-11T10:27:29Z</time>
      </trkpt>
      <trkpt lat="50.44477" lon="4.54348">
        <ele>178</ele>
        <time>2021-11-11T10:27:31Z</time>
      </trkpt>
      <trkpt lat="50.4447" lon="4.54347">
        <ele>176</ele>
        <time>2021-11-11T10:27:33Z</time>
      </trkpt>
      <trkpt lat="50.44461" lon="4.54344">
        <ele>176</ele>
        <time>2021-11-11T10:27:35Z</time>
      </trkpt>
      <trkpt lat="50.44453" lon="4.54343">
        <ele>176</ele>
        <time>2021-11-11T10:27:37Z</time>
      </trkpt>
      <trkpt lat="50.44448" lon="4.5434">
        <ele>176</ele>
        <time>2021-11-11T10:27:39Z</time>
      </trkpt>
      <trkpt lat="50.44443" lon="4.54336">
        <ele>176</ele>
        <time>2021-11-11T10:27:41Z</time>
      </trkpt>
      <trkpt lat="50.44436" lon="4.54334">
        <ele>176</ele>
        <time>2021-11-11T10:27:43Z</time>
      </trkpt>
      <trkpt lat="50.44429" lon="4.54332">
        <ele>176</ele>
        <time>2021-11-11T10:27:45Z</time>
      </trkpt>
      <trkpt lat="50.44423" lon="4.54332">
        <ele>176</ele>
        <time>2021-11-11T10:27:47Z</time>
      </trkpt>
      <trkpt lat="50.44418" lon="4.54332">
        <ele>176</ele>
        <time>2021-11-11T10:27:49Z</time>
      </trkpt>
      <trkpt lat="50.44411" lon="4.54331">
        <ele>176</ele>
        <time>2021-11-11T10:27:51Z</time>
      </trkpt>
      <trkpt lat="50.44404" lon="4.54329">
        <ele>176</ele>
        <time>2021-11-11T10:27:53Z</time>
      </trkpt>
      <trkpt lat="50.44397" lon="4.54325">
        <ele>174</ele>
        <time>2021-11-11T10:27:55Z</time>
      </trkpt>
      <trkpt lat="50.44389" lon="4.54319">
        <ele>172</ele>
        <time>2021-11-11T10:27:57Z</time>
      </trkpt>
      <trkpt lat="50.44382" lon="4.54317">
        <ele>172</ele>
        <time>2021-11-11T10:27:59Z</time>
      </trkpt>
      <trkpt lat="50.44371" lon="4.54316">
        <ele>171</ele>
        <time>2021-11-11T10:28:01Z</time>
      </trkpt>
      <trkpt lat="50.44362" lon="4.54315">
        <ele>171</ele>
        <time>2021-11-11T10:28:03Z</time>
      </trkpt>
      <trkpt lat="50.44354" lon="4.54315">
        <ele>171</ele>
        <time>2021-11-11T10:28:05Z</time>
      </trkpt>
      <trkpt lat="50.44347" lon="4.54311">
        <ele>170</ele>
        <time>2021-11-11T10:28:07Z</time>
      </trkpt>
      <trkpt lat="50.44338" lon="4.54307">
        <ele>170</ele>
        <time>2021-11-11T10:28:09Z</time>
      </trkpt>
      <trkpt lat="50.44329" lon="4.54304">
        <ele>170</ele>
        <time>2021-11-11T10:28:11Z</time>
      </trkpt>
      <trkpt lat="50.4432" lon="4.54298">
        <ele>170</ele>
        <time>2021-11-11T10:28:13Z</time>
      </trkpt>
      <trkpt lat="50.44314" lon="4.54291">
        <ele>169</ele>
        <time>2021-11-11T10:28:15Z</time>
      </trkpt>
      <trkpt lat="50.44309" lon="4.54282">
        <ele>169</ele>
        <time>2021-11-11T10:28:17Z</time>
      </trkpt>
      <trkpt lat="50.44304" lon="4.54274">
        <ele>169</ele>
        <time>2021-11-11T10:28:19Z</time>
      </trkpt>
      <trkpt lat="50.44298" lon="4.54268">
        <ele>169</ele>
        <time>2021-11-11T10:28:21Z</time>
      </trkpt>
      <trkpt lat="50.44292" lon="4.54262">
        <ele>168</ele>
        <time>2021-11-11T10:28:23Z</time>
      </trkpt>
      <trkpt lat="50.44286" lon="4.54259">
        <ele>166</ele>
        <time>2021-11-11T10:28:25Z</time>
      </trkpt>
      <trkpt lat="50.44278" lon="4.54253">
        <ele>166</ele>
        <time>2021-11-11T10:28:27Z</time>
      </trkpt>
      <trkpt lat="50.44272" lon="4.54248">
        <ele>166</ele>
        <time>2021-11-11T10:28:29Z</time>
      </trkpt>
      <trkpt lat="50.44264" lon="4.54245">
        <ele>164</ele>
        <time>2021-11-11T10:28:31Z</time>
      </trkpt>
      <trkpt lat="50.44257" lon="4.54243">
        <ele>164</ele>
        <time>2021-11-11T10:28:33Z</time>
      </trkpt>
      <trkpt lat="50.44252" lon="4.54239">
        <ele>164</ele>
        <time>2021-11-11T10:28:35Z</time>
      </trkpt>
      <trkpt lat="50.44244" lon="4.54235">
        <ele>164</ele>
        <time>2021-11-11T10:28:37Z</time>
      </trkpt>
      <trkpt lat="50.44237" lon="4.54233">
        <ele>164</ele>
        <time>2021-11-11T10:28:39Z</time>
      </trkpt>
      <trkpt lat="50.4423" lon="4.54233">
        <ele>162</ele>
        <time>2021-11-11T10:28:41Z</time>
      </trkpt>
      <trkpt lat="50.44223" lon="4.5423">
        <ele>162</ele>
        <time>2021-11-11T10:28:43Z</time>
      </trkpt>
      <trkpt lat="50.44215" lon="4.54225">
        <ele>162</ele>
        <time>2021-11-11T10:28:45Z</time>
      </trkpt>
      <trkpt lat="50.44208" lon="4.5422">
        <ele>162</ele>
        <time>2021-11-11T10:28:47Z</time>
      </trkpt>
      <trkpt lat="50.44202" lon="4.54214">
        <ele>162</ele>
        <time>2021-11-11T10:28:49Z</time>
      </trkpt>
      <trkpt lat="50.44193" lon="4.54212">
        <ele>162</ele>
        <time>2021-11-11T10:28:51Z</time>
      </trkpt>
      <trkpt lat="50.44186" lon="4.54209">
        <ele>162</ele>
        <time>2021-11-11T10:28:54Z</time>
      </trkpt>
      <trkpt lat="50.44181" lon="4.54208">
        <ele>168</ele>
        <time>2021-11-11T10:28:56Z</time>
      </trkpt>
      <trkpt lat="50.44178" lon="4.5421">
        <ele>161</ele>
        <time>2021-11-11T10:28:58Z</time>
      </trkpt>
      <trkpt lat="50.44175" lon="4.54208">
        <ele>165</ele>
        <time>2021-11-11T10:29:00Z</time>
      </trkpt>
      <trkpt lat="50.44173" lon="4.54206">
        <ele>165</ele>
        <time>2021-11-11T10:29:02Z</time>
      </trkpt>
      <trkpt lat="50.4417" lon="4.54204">
        <ele>165</ele>
        <time>2021-11-11T10:29:04Z</time>
      </trkpt>
      <trkpt lat="50.44166" lon="4.54202">
        <ele>165</ele>
        <time>2021-11-11T10:29:06Z</time>
      </trkpt>
      <trkpt lat="50.44161" lon="4.54201">
        <ele>165</ele>
        <time>2021-11-11T10:29:08Z</time>
      </trkpt>
      <trkpt lat="50.44157" lon="4.542">
        <ele>165</ele>
        <time>2021-11-11T10:29:10Z</time>
      </trkpt>
      <trkpt lat="50.44153" lon="4.54199">
        <ele>165</ele>
        <time>2021-11-11T10:29:12Z</time>
      </trkpt>
      <trkpt lat="50.44149" lon="4.54198">
        <ele>160</ele>
        <time>2021-11-11T10:29:14Z</time>
      </trkpt>
      <trkpt lat="50.44146" lon="4.54197">
        <ele>160</ele>
        <time>2021-11-11T10:29:16Z</time>
      </trkpt>
      <trkpt lat="50.44142" lon="4.54197">
        <ele>160</ele>
        <time>2021-11-11T10:29:18Z</time>
      </trkpt>
      <trkpt lat="50.4414" lon="4.54194">
        <ele>160</ele>
        <time>2021-11-11T10:29:20Z</time>
      </trkpt>
      <trkpt lat="50.44136" lon="4.54193">
        <ele>160</ele>
        <time>2021-11-11T10:29:22Z</time>
      </trkpt>
      <trkpt lat="50.44133" lon="4.5419">
        <ele>160</ele>
        <time>2021-11-11T10:29:24Z</time>
      </trkpt>
      <trkpt lat="50.44129" lon="4.54188">
        <ele>160</ele>
        <time>2021-11-11T10:29:26Z</time>
      </trkpt>
      <trkpt lat="50.44124" lon="4.54189">
        <ele>153</ele>
        <time>2021-11-11T10:29:28Z</time>
      </trkpt>
      <trkpt lat="50.4412" lon="4.54191">
        <ele>153</ele>
        <time>2021-11-11T10:29:30Z</time>
      </trkpt>
      <trkpt lat="50.44118" lon="4.54193">
        <ele>153</ele>
        <time>2021-11-11T10:29:32Z</time>
      </trkpt>
      <trkpt lat="50.44118" lon="4.54196">
        <ele>153</ele>
        <time>2021-11-11T10:29:34Z</time>
      </trkpt>
      <trkpt lat="50.44119" lon="4.54198">
        <ele>153</ele>
        <time>2021-11-11T10:29:36Z</time>
      </trkpt>
      <trkpt lat="50.4412" lon="4.54201">
        <ele>153</ele>
        <time>2021-11-11T10:29:38Z</time>
      </trkpt>
      <trkpt lat="50.44122" lon="4.54203">
        <ele>153</ele>
        <time>2021-11-11T10:29:40Z</time>
      </trkpt>
      <trkpt lat="50.44124" lon="4.54205">
        <ele>153</ele>
        <time>2021-11-11T10:29:42Z</time>
      </trkpt>
      <trkpt lat="50.44125" lon="4.54205">
        <ele>153</ele>
        <time>2021-11-11T10:29:44Z</time>
      </trkpt>
      <trkpt lat="50.44122" lon="4.54202">
        <ele>153</ele>
        <time>2021-11-11T10:32:56Z</time>
      </trkpt>
      <trkpt lat="50.44119" lon="4.54197">
        <ele>153</ele>
        <time>2021-11-11T10:32:58Z</time>
      </trkpt>
      <trkpt lat="50.44117" lon="4.54193">
        <ele>153</ele>
        <time>2021-11-11T10:33:00Z</time>
      </trkpt>
      <trkpt lat="50.44114" lon="4.54187">
        <ele>153</ele>
        <time>2021-11-11T10:33:03Z</time>
      </trkpt>
      <trkpt lat="50.44112" lon="4.54183">
        <ele>153</ele>
        <time>2021-11-11T10:33:05Z</time>
      </trkpt>
      <trkpt lat="50.44111" lon="4.54178">
        <ele>158</ele>
        <time>2021-11-11T10:33:07Z</time>
      </trkpt>
      <trkpt lat="50.44108" lon="4.54174">
        <ele>158</ele>
        <time>2021-11-11T10:33:09Z</time>
      </trkpt>
      <trkpt lat="50.44106" lon="4.54168">
        <ele>158</ele>
        <time>2021-11-11T10:33:11Z</time>
      </trkpt>
      <trkpt lat="50.44103" lon="4.54164">
        <ele>158</ele>
        <time>2021-11-11T10:33:13Z</time>
      </trkpt>
      <trkpt lat="50.441" lon="4.5416">
        <ele>158</ele>
        <time>2021-11-11T10:33:15Z</time>
      </trkpt>
      <trkpt lat="50.44098" lon="4.54155">
        <ele>158</ele>
        <time>2021-11-11T10:33:17Z</time>
      </trkpt>
      <trkpt lat="50.44095" lon="4.54151">
        <ele>156</ele>
        <time>2021-11-11T10:33:19Z</time>
      </trkpt>
      <trkpt lat="50.44091" lon="4.54146">
        <ele>156</ele>
        <time>2021-11-11T10:33:21Z</time>
      </trkpt>
      <trkpt lat="50.44089" lon="4.54142">
        <ele>156</ele>
        <time>2021-11-11T10:33:23Z</time>
      </trkpt>
      <trkpt lat="50.44087" lon="4.54136">
        <ele>156</ele>
        <time>2021-11-11T10:33:25Z</time>
      </trkpt>
      <trkpt lat="50.44083" lon="4.54129">
        <ele>156</ele>
        <time>2021-11-11T10:33:27Z</time>
      </trkpt>
      <trkpt lat="50.44078" lon="4.54123">
        <ele>161</ele>
        <time>2021-11-11T10:33:29Z</time>
      </trkpt>
      <trkpt lat="50.44073" lon="4.54117">
        <ele>161</ele>
        <time>2021-11-11T10:33:31Z</time>
      </trkpt>
      <trkpt lat="50.44067" lon="4.54109">
        <ele>153</ele>
        <time>2021-11-11T10:33:33Z</time>
      </trkpt>
      <trkpt lat="50.44059" lon="4.54102">
        <ele>153</ele>
        <time>2021-11-11T10:33:35Z</time>
      </trkpt>
      <trkpt lat="50.4405" lon="4.54095">
        <ele>158</ele>
        <time>2021-11-11T10:33:37Z</time>
      </trkpt>
      <trkpt lat="50.44041" lon="4.54088">
        <ele>152</ele>
        <time>2021-11-11T10:33:39Z</time>
      </trkpt>
      <trkpt lat="50.44032" lon="4.54083">
        <ele>152</ele>
        <time>2021-11-11T10:33:41Z</time>
      </trkpt>
      <trkpt lat="50.44025" lon="4.54077">
        <ele>152</ele>
        <time>2021-11-11T10:33:43Z</time>
      </trkpt>
      <trkpt lat="50.44016" lon="4.54066">
        <ele>158</ele>
        <time>2021-11-11T10:33:45Z</time>
      </trkpt>
      <trkpt lat="50.44008" lon="4.54056">
        <ele>149</ele>
        <time>2021-11-11T10:33:47Z</time>
      </trkpt>
      <trkpt lat="50.43998" lon="4.5405">
        <ele>149</ele>
        <time>2021-11-11T10:33:49Z</time>
      </trkpt>
      <trkpt lat="50.4399" lon="4.54043">
        <ele>149</ele>
        <time>2021-11-11T10:33:51Z</time>
      </trkpt>
      <trkpt lat="50.43985" lon="4.54038">
        <ele>147</ele>
        <time>2021-11-11T10:33:53Z</time>
      </trkpt>
      <trkpt lat="50.43979" lon="4.54031">
        <ele>147</ele>
        <time>2021-11-11T10:33:55Z</time>
      </trkpt>
      <trkpt lat="50.43975" lon="4.54022">
        <ele>147</ele>
        <time>2021-11-11T10:33:57Z</time>
      </trkpt>
      <trkpt lat="50.43972" lon="4.54014">
        <ele>147</ele>
        <time>2021-11-11T10:33:59Z</time>
      </trkpt>
      <trkpt lat="50.43967" lon="4.54008">
        <ele>149</ele>
        <time>2021-11-11T10:34:01Z</time>
      </trkpt>
      <trkpt lat="50.43958" lon="4.54001">
        <ele>143</ele>
        <time>2021-11-11T10:34:03Z</time>
      </trkpt>
      <trkpt lat="50.43951" lon="4.53994">
        <ele>143</ele>
        <time>2021-11-11T10:34:05Z</time>
      </trkpt>
      <trkpt lat="50.43942" lon="4.53987">
        <ele>143</ele>
        <time>2021-11-11T10:34:07Z</time>
      </trkpt>
      <trkpt lat="50.43934" lon="4.5398">
        <ele>146</ele>
        <time>2021-11-11T10:34:09Z</time>
      </trkpt>
      <trkpt lat="50.43925" lon="4.53972">
        <ele>139</ele>
        <time>2021-11-11T10:34:11Z</time>
      </trkpt>
      <trkpt lat="50.43918" lon="4.53966">
        <ele>139</ele>
        <time>2021-11-11T10:34:13Z</time>
      </trkpt>
      <trkpt lat="50.43911" lon="4.53954">
        <ele>140</ele>
        <time>2021-11-11T10:34:15Z</time>
      </trkpt>
      <trkpt lat="50.43906" lon="4.53942">
        <ele>140</ele>
        <time>2021-11-11T10:34:17Z</time>
      </trkpt>
      <trkpt lat="50.43898" lon="4.53936">
        <ele>133</ele>
        <time>2021-11-11T10:34:19Z</time>
      </trkpt>
      <trkpt lat="50.43888" lon="4.53931">
        <ele>133</ele>
        <time>2021-11-11T10:34:21Z</time>
      </trkpt>
      <trkpt lat="50.43879" lon="4.53924">
        <ele>136</ele>
        <time>2021-11-11T10:34:23Z</time>
      </trkpt>
      <trkpt lat="50.43873" lon="4.53912">
        <ele>129</ele>
        <time>2021-11-11T10:34:25Z</time>
      </trkpt>
      <trkpt lat="50.43868" lon="4.53901">
        <ele>131</ele>
        <time>2021-11-11T10:34:27Z</time>
      </trkpt>
      <trkpt lat="50.43861" lon="4.53893">
        <ele>131</ele>
        <time>2021-11-11T10:34:29Z</time>
      </trkpt>
      <trkpt lat="50.43857" lon="4.53887">
        <ele>131</ele>
        <time>2021-11-11T10:34:31Z</time>
      </trkpt>
      <trkpt lat="50.43854" lon="4.53882">
        <ele>131</ele>
        <time>2021-11-11T10:34:33Z</time>
      </trkpt>
      <trkpt lat="50.4385" lon="4.53878">
        <ele>131</ele>
        <time>2021-11-11T10:34:35Z</time>
      </trkpt>
      <trkpt lat="50.43846" lon="4.53875">
        <ele>132</ele>
        <time>2021-11-11T10:34:37Z</time>
      </trkpt>
      <trkpt lat="50.43841" lon="4.53871">
        <ele>132</ele>
        <time>2021-11-11T10:34:39Z</time>
      </trkpt>
      <trkpt lat="50.43837" lon="4.53865">
        <ele>132</ele>
        <time>2021-11-11T10:34:41Z</time>
      </trkpt>
      <trkpt lat="50.43834" lon="4.53859">
        <ele>132</ele>
        <time>2021-11-11T10:34:43Z</time>
      </trkpt>
      <trkpt lat="50.43829" lon="4.53854">
        <ele>132</ele>
        <time>2021-11-11T10:34:45Z</time>
      </trkpt>
      <trkpt lat="50.43826" lon="4.5385">
        <ele>132</ele>
        <time>2021-11-11T10:34:47Z</time>
      </trkpt>
      <trkpt lat="50.43823" lon="4.53846">
        <ele>137</ele>
        <time>2021-11-11T10:34:49Z</time>
      </trkpt>
      <trkpt lat="50.43818" lon="4.53842">
        <ele>137</ele>
        <time>2021-11-11T10:34:51Z</time>
      </trkpt>
      <trkpt lat="50.43814" lon="4.53839">
        <ele>137</ele>
        <time>2021-11-11T10:34:53Z</time>
      </trkpt>
      <trkpt lat="50.4381" lon="4.53833">
        <ele>137</ele>
        <time>2021-11-11T10:34:55Z</time>
      </trkpt>
      <trkpt lat="50.43805" lon="4.53829">
        <ele>137</ele>
        <time>2021-11-11T10:34:57Z</time>
      </trkpt>
      <trkpt lat="50.438" lon="4.53828">
        <ele>137</ele>
        <time>2021-11-11T10:34:59Z</time>
      </trkpt>
      <trkpt lat="50.43795" lon="4.53826">
        <ele>137</ele>
        <time>2021-11-11T10:35:01Z</time>
      </trkpt>
      <trkpt lat="50.43791" lon="4.53823">
        <ele>137</ele>
        <time>2021-11-11T10:35:03Z</time>
      </trkpt>
      <trkpt lat="50.43786" lon="4.53821">
        <ele>137</ele>
        <time>2021-11-11T10:35:05Z</time>
      </trkpt>
      <trkpt lat="50.43778" lon="4.53822">
        <ele>137</ele>
        <time>2021-11-11T10:35:07Z</time>
      </trkpt>
      <trkpt lat="50.43773" lon="4.53821">
        <ele>137</ele>
        <time>2021-11-11T10:35:09Z</time>
      </trkpt>
      <trkpt lat="50.43767" lon="4.5382">
        <ele>137</ele>
        <time>2021-11-11T10:35:11Z</time>
      </trkpt>
      <trkpt lat="50.43762" lon="4.53819">
        <ele>140</ele>
        <time>2021-11-11T10:35:13Z</time>
      </trkpt>
      <trkpt lat="50.43755" lon="4.53816">
        <ele>140</ele>
        <time>2021-11-11T10:35:15Z</time>
      </trkpt>
      <trkpt lat="50.43751" lon="4.53817">
        <ele>140</ele>
        <time>2021-11-11T10:35:17Z</time>
      </trkpt>
      <trkpt lat="50.43747" lon="4.53817">
        <ele>140</ele>
        <time>2021-11-11T10:35:19Z</time>
      </trkpt>
      <trkpt lat="50.43742" lon="4.53815">
        <ele>140</ele>
        <time>2021-11-11T10:35:21Z</time>
      </trkpt>
      <trkpt lat="50.43736" lon="4.53815">
        <ele>140</ele>
        <time>2021-11-11T10:35:23Z</time>
      </trkpt>
      <trkpt lat="50.43733" lon="4.53815">
        <ele>142</ele>
        <time>2021-11-11T10:35:25Z</time>
      </trkpt>
      <trkpt lat="50.43729" lon="4.53814">
        <ele>142</ele>
        <time>2021-11-11T10:35:27Z</time>
      </trkpt>
      <trkpt lat="50.43726" lon="4.5381">
        <ele>142</ele>
        <time>2021-11-11T10:35:29Z</time>
      </trkpt>
      <trkpt lat="50.43723" lon="4.53805">
        <ele>142</ele>
        <time>2021-11-11T10:35:33Z</time>
      </trkpt>
      <trkpt lat="50.4372" lon="4.53803">
        <ele>142</ele>
        <time>2021-11-11T10:35:35Z</time>
      </trkpt>
      <trkpt lat="50.43717" lon="4.53802">
        <ele>142</ele>
        <time>2021-11-11T10:35:37Z</time>
      </trkpt>
      <trkpt lat="50.43713" lon="4.53799">
        <ele>142</ele>
        <time>2021-11-11T10:35:39Z</time>
      </trkpt>
      <trkpt lat="50.43709" lon="4.53798">
        <ele>142</ele>
        <time>2021-11-11T10:35:41Z</time>
      </trkpt>
      <trkpt lat="50.43705" lon="4.53796">
        <ele>144</ele>
        <time>2021-11-11T10:35:43Z</time>
      </trkpt>
      <trkpt lat="50.43701" lon="4.53796">
        <ele>144</ele>
        <time>2021-11-11T10:35:45Z</time>
      </trkpt>
      <trkpt lat="50.43698" lon="4.53796">
        <ele>144</ele>
        <time>2021-11-11T10:35:47Z</time>
      </trkpt>
      <trkpt lat="50.43694" lon="4.53795">
        <ele>144</ele>
        <time>2021-11-11T10:35:50Z</time>
      </trkpt>
      <trkpt lat="50.43689" lon="4.53793">
        <ele>144</ele>
        <time>2021-11-11T10:35:54Z</time>
      </trkpt>
      <trkpt lat="50.43684" lon="4.53791">
        <ele>153</ele>
        <time>2021-11-11T10:35:56Z</time>
      </trkpt>
      <trkpt lat="50.43684" lon="4.53786">
        <ele>153</ele>
        <time>2021-11-11T10:35:58Z</time>
      </trkpt>
      <trkpt lat="50.43684" lon="4.53783">
        <ele>153</ele>
        <time>2021-11-11T10:36:00Z</time>
      </trkpt>
      <trkpt lat="50.43686" lon="4.5378">
        <ele>153</ele>
        <time>2021-11-11T10:36:02Z</time>
      </trkpt>
      <trkpt lat="50.43687" lon="4.53776">
        <ele>153</ele>
        <time>2021-11-11T10:36:04Z</time>
      </trkpt>
      <trkpt lat="50.43687" lon="4.53774">
        <ele>153</ele>
        <time>2021-11-11T10:36:06Z</time>
      </trkpt>
      <trkpt lat="50.43688" lon="4.53771">
        <ele>153</ele>
        <time>2021-11-11T10:36:08Z</time>
      </trkpt>
      <trkpt lat="50.43691" lon="4.53768">
        <ele>153</ele>
        <time>2021-11-11T10:36:10Z</time>
      </trkpt>
      <trkpt lat="50.43693" lon="4.53765">
        <ele>153</ele>
        <time>2021-11-11T10:36:12Z</time>
      </trkpt>
      <trkpt lat="50.43695" lon="4.53758">
        <ele>153</ele>
        <time>2021-11-11T10:36:15Z</time>
      </trkpt>
      <trkpt lat="50.43696" lon="4.53753">
        <ele>153</ele>
        <time>2021-11-11T10:36:18Z</time>
      </trkpt>
      <trkpt lat="50.43697" lon="4.53749">
        <ele>153</ele>
        <time>2021-11-11T10:36:20Z</time>
      </trkpt>
      <trkpt lat="50.43699" lon="4.53745">
        <ele>153</ele>
        <time>2021-11-11T10:36:22Z</time>
      </trkpt>
      <trkpt lat="50.437" lon="4.53741">
        <ele>153</ele>
        <time>2021-11-11T10:36:24Z</time>
      </trkpt>
      <trkpt lat="50.43701" lon="4.53736">
        <ele>153</ele>
        <time>2021-11-11T10:36:26Z</time>
      </trkpt>
      <trkpt lat="50.43702" lon="4.53734">
        <ele>156</ele>
        <time>2021-11-11T10:36:28Z</time>
      </trkpt>
      <trkpt lat="50.43703" lon="4.53731">
        <ele>156</ele>
        <time>2021-11-11T10:36:30Z</time>
      </trkpt>
      <trkpt lat="50.43704" lon="4.53724">
        <ele>156</ele>
        <time>2021-11-11T10:36:32Z</time>
      </trkpt>
      <trkpt lat="50.43704" lon="4.53719">
        <ele>156</ele>
        <time>2021-11-11T10:36:34Z</time>
      </trkpt>
      <trkpt lat="50.43706" lon="4.53714">
        <ele>156</ele>
        <time>2021-11-11T10:36:36Z</time>
      </trkpt>
      <trkpt lat="50.43707" lon="4.53709">
        <ele>156</ele>
        <time>2021-11-11T10:36:38Z</time>
      </trkpt>
      <trkpt lat="50.43708" lon="4.53704">
        <ele>154</ele>
        <time>2021-11-11T10:36:40Z</time>
      </trkpt>
      <trkpt lat="50.4371" lon="4.53698">
        <ele>154</ele>
        <time>2021-11-11T10:36:42Z</time>
      </trkpt>
      <trkpt lat="50.4371" lon="4.53692">
        <ele>154</ele>
        <time>2021-11-11T10:36:44Z</time>
      </trkpt>
      <trkpt lat="50.4371" lon="4.53687">
        <ele>154</ele>
        <time>2021-11-11T10:36:46Z</time>
      </trkpt>
      <trkpt lat="50.4371" lon="4.53683">
        <ele>154</ele>
        <time>2021-11-11T10:36:48Z</time>
      </trkpt>
      <trkpt lat="50.43712" lon="4.53678">
        <ele>156</ele>
        <time>2021-11-11T10:36:50Z</time>
      </trkpt>
      <trkpt lat="50.43713" lon="4.53673">
        <ele>156</ele>
        <time>2021-11-11T10:36:52Z</time>
      </trkpt>
      <trkpt lat="50.43715" lon="4.5367">
        <ele>156</ele>
        <time>2021-11-11T10:36:54Z</time>
      </trkpt>
      <trkpt lat="50.43715" lon="4.53667">
        <ele>156</ele>
        <time>2021-11-11T10:36:56Z</time>
      </trkpt>
      <trkpt lat="50.43715" lon="4.53663">
        <ele>156</ele>
        <time>2021-11-11T10:36:58Z</time>
      </trkpt>
      <trkpt lat="50.43715" lon="4.53659">
        <ele>156</ele>
        <time>2021-11-11T10:37:00Z</time>
      </trkpt>
      <trkpt lat="50.43715" lon="4.53656">
        <ele>156</ele>
        <time>2021-11-11T10:37:02Z</time>
      </trkpt>
      <trkpt lat="50.43714" lon="4.5365">
        <ele>155</ele>
        <time>2021-11-11T10:37:04Z</time>
      </trkpt>
      <trkpt lat="50.43714" lon="4.53644">
        <ele>155</ele>
        <time>2021-11-11T10:37:06Z</time>
      </trkpt>
      <trkpt lat="50.43715" lon="4.53639">
        <ele>155</ele>
        <time>2021-11-11T10:37:08Z</time>
      </trkpt>
      <trkpt lat="50.43716" lon="4.53634">
        <ele>155</ele>
        <time>2021-11-11T10:37:10Z</time>
      </trkpt>
      <trkpt lat="50.43719" lon="4.5363">
        <ele>155</ele>
        <time>2021-11-11T10:37:12Z</time>
      </trkpt>
      <trkpt lat="50.43718" lon="4.53625">
        <ele>157</ele>
        <time>2021-11-11T10:37:14Z</time>
      </trkpt>
      <trkpt lat="50.43718" lon="4.5362">
        <ele>157</ele>
        <time>2021-11-11T10:37:16Z</time>
      </trkpt>
      <trkpt lat="50.43716" lon="4.53616">
        <ele>157</ele>
        <time>2021-11-11T10:37:18Z</time>
      </trkpt>
      <trkpt lat="50.43714" lon="4.53608">
        <ele>157</ele>
        <time>2021-11-11T10:37:20Z</time>
      </trkpt>
      <trkpt lat="50.43712" lon="4.536">
        <ele>157</ele>
        <time>2021-11-11T10:37:22Z</time>
      </trkpt>
      <trkpt lat="50.4371" lon="4.53593">
        <ele>154</ele>
        <time>2021-11-11T10:37:24Z</time>
      </trkpt>
      <trkpt lat="50.43712" lon="4.53588">
        <ele>154</ele>
        <time>2021-11-11T10:37:26Z</time>
      </trkpt>
      <trkpt lat="50.43713" lon="4.53583">
        <ele>154</ele>
        <time>2021-11-11T10:37:28Z</time>
      </trkpt>
      <trkpt lat="50.43716" lon="4.53578">
        <ele>154</ele>
        <time>2021-11-11T10:37:30Z</time>
      </trkpt>
      <trkpt lat="50.43719" lon="4.53575">
        <ele>154</ele>
        <time>2021-11-11T10:37:32Z</time>
      </trkpt>
      <trkpt lat="50.43722" lon="4.53574">
        <ele>154</ele>
        <time>2021-11-11T10:37:34Z</time>
      </trkpt>
      <trkpt lat="50.43725" lon="4.53571">
        <ele>154</ele>
        <time>2021-11-11T10:37:36Z</time>
      </trkpt>
      <trkpt lat="50.43728" lon="4.53566">
        <ele>154</ele>
        <time>2021-11-11T10:37:38Z</time>
      </trkpt>
      <trkpt lat="50.43733" lon="4.53563">
        <ele>154</ele>
        <time>2021-11-11T10:37:40Z</time>
      </trkpt>
      <trkpt lat="50.43736" lon="4.5356">
        <ele>153</ele>
        <time>2021-11-11T10:37:42Z</time>
      </trkpt>
      <trkpt lat="50.43739" lon="4.53557">
        <ele>153</ele>
        <time>2021-11-11T10:37:44Z</time>
      </trkpt>
      <trkpt lat="50.43741" lon="4.53553">
        <ele>153</ele>
        <time>2021-11-11T10:37:46Z</time>
      </trkpt>
      <trkpt lat="50.4374" lon="4.53546">
        <ele>153</ele>
        <time>2021-11-11T10:37:48Z</time>
      </trkpt>
      <trkpt lat="50.43738" lon="4.5354">
        <ele>155</ele>
        <time>2021-11-11T10:37:50Z</time>
      </trkpt>
      <trkpt lat="50.43736" lon="4.53533">
        <ele>154</ele>
        <time>2021-11-11T10:37:52Z</time>
      </trkpt>
      <trkpt lat="50.43733" lon="4.53527">
        <ele>154</ele>
        <time>2021-11-11T10:37:54Z</time>
      </trkpt>
      <trkpt lat="50.43731" lon="4.5352">
        <ele>154</ele>
        <time>2021-11-11T10:37:56Z</time>
      </trkpt>
      <trkpt lat="50.43729" lon="4.53511">
        <ele>157</ele>
        <time>2021-11-11T10:37:58Z</time>
      </trkpt>
      <trkpt lat="50.43726" lon="4.53503">
        <ele>157</ele>
        <time>2021-11-11T10:38:00Z</time>
      </trkpt>
      <trkpt lat="50.43724" lon="4.53495">
        <ele>157</ele>
        <time>2021-11-11T10:38:02Z</time>
      </trkpt>
      <trkpt lat="50.43721" lon="4.53486">
        <ele>157</ele>
        <time>2021-11-11T10:38:04Z</time>
      </trkpt>
      <trkpt lat="50.43717" lon="4.53476">
        <ele>157</ele>
        <time>2021-11-11T10:38:06Z</time>
      </trkpt>
      <trkpt lat="50.43713" lon="4.53467">
        <ele>157</ele>
        <time>2021-11-11T10:38:08Z</time>
      </trkpt>
      <trkpt lat="50.4371" lon="4.53458">
        <ele>160</ele>
        <time>2021-11-11T10:38:10Z</time>
      </trkpt>
      <trkpt lat="50.43708" lon="4.53449">
        <ele>157</ele>
        <time>2021-11-11T10:38:12Z</time>
      </trkpt>
      <trkpt lat="50.43705" lon="4.53441">
        <ele>157</ele>
        <time>2021-11-11T10:38:14Z</time>
      </trkpt>
      <trkpt lat="50.43702" lon="4.53433">
        <ele>157</ele>
        <time>2021-11-11T10:38:16Z</time>
      </trkpt>
      <trkpt lat="50.437" lon="4.53426">
        <ele>157</ele>
        <time>2021-11-11T10:38:18Z</time>
      </trkpt>
      <trkpt lat="50.43698" lon="4.53418">
        <ele>157</ele>
        <time>2021-11-11T10:38:20Z</time>
      </trkpt>
      <trkpt lat="50.43698" lon="4.53409">
        <ele>157</ele>
        <time>2021-11-11T10:38:22Z</time>
      </trkpt>
      <trkpt lat="50.43697" lon="4.53399">
        <ele>157</ele>
        <time>2021-11-11T10:38:24Z</time>
      </trkpt>
      <trkpt lat="50.43696" lon="4.53387">
        <ele>157</ele>
        <time>2021-11-11T10:38:26Z</time>
      </trkpt>
      <trkpt lat="50.43696" lon="4.53374">
        <ele>159</ele>
        <time>2021-11-11T10:38:28Z</time>
      </trkpt>
      <trkpt lat="50.43696" lon="4.5336">
        <ele>159</ele>
        <time>2021-11-11T10:38:30Z</time>
      </trkpt>
      <trkpt lat="50.43694" lon="4.5334">
        <ele>158</ele>
        <time>2021-11-11T10:38:33Z</time>
      </trkpt>
      <trkpt lat="50.43689" lon="4.53329">
        <ele>158</ele>
        <time>2021-11-11T10:38:35Z</time>
      </trkpt>
      <trkpt lat="50.43683" lon="4.53318">
        <ele>160</ele>
        <time>2021-11-11T10:38:37Z</time>
      </trkpt>
      <trkpt lat="50.43675" lon="4.53308">
        <ele>158</ele>
        <time>2021-11-11T10:38:39Z</time>
      </trkpt>
      <trkpt lat="50.43664" lon="4.5329">
        <ele>157</ele>
        <time>2021-11-11T10:38:42Z</time>
      </trkpt>
      <trkpt lat="50.43658" lon="4.53279">
        <ele>157</ele>
        <time>2021-11-11T10:38:44Z</time>
      </trkpt>
      <trkpt lat="50.43652" lon="4.53268">
        <ele>156</ele>
        <time>2021-11-11T10:38:46Z</time>
      </trkpt>
      <trkpt lat="50.43646" lon="4.53257">
        <ele>158</ele>
        <time>2021-11-11T10:38:48Z</time>
      </trkpt>
      <trkpt lat="50.4364" lon="4.53247">
        <ele>158</ele>
        <time>2021-11-11T10:38:50Z</time>
      </trkpt>
      <trkpt lat="50.43634" lon="4.53236">
        <ele>158</ele>
        <time>2021-11-11T10:38:52Z</time>
      </trkpt>
      <trkpt lat="50.43628" lon="4.53226">
        <ele>160</ele>
        <time>2021-11-11T10:38:54Z</time>
      </trkpt>
      <trkpt lat="50.43623" lon="4.53216">
        <ele>159</ele>
        <time>2021-11-11T10:38:56Z</time>
      </trkpt>
      <trkpt lat="50.43617" lon="4.53206">
        <ele>160</ele>
        <time>2021-11-11T10:38:58Z</time>
      </trkpt>
      <trkpt lat="50.43611" lon="4.53196">
        <ele>160</ele>
        <time>2021-11-11T10:39:00Z</time>
      </trkpt>
      <trkpt lat="50.43605" lon="4.53186">
        <ele>160</ele>
        <time>2021-11-11T10:39:02Z</time>
      </trkpt>
      <trkpt lat="50.43599" lon="4.53177">
        <ele>162</ele>
        <time>2021-11-11T10:39:04Z</time>
      </trkpt>
      <trkpt lat="50.43594" lon="4.53167">
        <ele>160</ele>
        <time>2021-11-11T10:39:06Z</time>
      </trkpt>
      <trkpt lat="50.43589" lon="4.53157">
        <ele>160</ele>
        <time>2021-11-11T10:39:08Z</time>
      </trkpt>
      <trkpt lat="50.43584" lon="4.53149">
        <ele>163</ele>
        <time>2021-11-11T10:39:10Z</time>
      </trkpt>
      <trkpt lat="50.4358" lon="4.53143">
        <ele>163</ele>
        <time>2021-11-11T10:39:12Z</time>
      </trkpt>
      <trkpt lat="50.43577" lon="4.53138">
        <ele>163</ele>
        <time>2021-11-11T10:39:14Z</time>
      </trkpt>
      <trkpt lat="50.43573" lon="4.53133">
        <ele>163</ele>
        <time>2021-11-11T10:39:16Z</time>
      </trkpt>
      <trkpt lat="50.43569" lon="4.53128">
        <ele>162</ele>
        <time>2021-11-11T10:39:18Z</time>
      </trkpt>
      <trkpt lat="50.43564" lon="4.53122">
        <ele>163</ele>
        <time>2021-11-11T10:39:20Z</time>
      </trkpt>
      <trkpt lat="50.43557" lon="4.53116">
        <ele>163</ele>
        <time>2021-11-11T10:39:22Z</time>
      </trkpt>
      <trkpt lat="50.43551" lon="4.5311">
        <ele>163</ele>
        <time>2021-11-11T10:39:24Z</time>
      </trkpt>
      <trkpt lat="50.43544" lon="4.53106">
        <ele>163</ele>
        <time>2021-11-11T10:39:26Z</time>
      </trkpt>
      <trkpt lat="50.43536" lon="4.53101">
        <ele>161</ele>
        <time>2021-11-11T10:39:28Z</time>
      </trkpt>
      <trkpt lat="50.43529" lon="4.53097">
        <ele>164</ele>
        <time>2021-11-11T10:39:30Z</time>
      </trkpt>
      <trkpt lat="50.43522" lon="4.53093">
        <ele>164</ele>
        <time>2021-11-11T10:39:32Z</time>
      </trkpt>
      <trkpt lat="50.43514" lon="4.53089">
        <ele>164</ele>
        <time>2021-11-11T10:39:34Z</time>
      </trkpt>
      <trkpt lat="50.43506" lon="4.53086">
        <ele>163</ele>
        <time>2021-11-11T10:39:36Z</time>
      </trkpt>
      <trkpt lat="50.43498" lon="4.53085">
        <ele>163</ele>
        <time>2021-11-11T10:39:38Z</time>
      </trkpt>
      <trkpt lat="50.4349" lon="4.53084">
        <ele>163</ele>
        <time>2021-11-11T10:39:40Z</time>
      </trkpt>
      <trkpt lat="50.43481" lon="4.53083">
        <ele>163</ele>
        <time>2021-11-11T10:39:42Z</time>
      </trkpt>
      <trkpt lat="50.43473" lon="4.53083">
        <ele>163</ele>
        <time>2021-11-11T10:39:44Z</time>
      </trkpt>
      <trkpt lat="50.43464" lon="4.53085">
        <ele>163</ele>
        <time>2021-11-11T10:39:46Z</time>
      </trkpt>
      <trkpt lat="50.43455" lon="4.53087">
        <ele>164</ele>
        <time>2021-11-11T10:39:48Z</time>
      </trkpt>
      <trkpt lat="50.43446" lon="4.53091">
        <ele>164</ele>
        <time>2021-11-11T10:39:50Z</time>
      </trkpt>
      <trkpt lat="50.43436" lon="4.53093">
        <ele>164</ele>
        <time>2021-11-11T10:39:52Z</time>
      </trkpt>
      <trkpt lat="50.43426" lon="4.53096">
        <ele>164</ele>
        <time>2021-11-11T10:39:54Z</time>
      </trkpt>
      <trkpt lat="50.43416" lon="4.53097">
        <ele>164</ele>
        <time>2021-11-11T10:39:56Z</time>
      </trkpt>
      <trkpt lat="50.43404" lon="4.53099">
        <ele>162</ele>
        <time>2021-11-11T10:39:58Z</time>
      </trkpt>
      <trkpt lat="50.43391" lon="4.531">
        <ele>161</ele>
        <time>2021-11-11T10:40:00Z</time>
      </trkpt>
      <trkpt lat="50.43378" lon="4.53103">
        <ele>161</ele>
        <time>2021-11-11T10:40:02Z</time>
      </trkpt>
      <trkpt lat="50.43364" lon="4.53107">
        <ele>158</ele>
        <time>2021-11-11T10:40:04Z</time>
      </trkpt>
      <trkpt lat="50.4335" lon="4.5311">
        <ele>158</ele>
        <time>2021-11-11T10:40:06Z</time>
      </trkpt>
      <trkpt lat="50.43335" lon="4.53111">
        <ele>156</ele>
        <time>2021-11-11T10:40:08Z</time>
      </trkpt>
      <trkpt lat="50.43321" lon="4.53115">
        <ele>156</ele>
        <time>2021-11-11T10:40:10Z</time>
      </trkpt>
      <trkpt lat="50.43305" lon="4.53116">
        <ele>156</ele>
        <time>2021-11-11T10:40:12Z</time>
      </trkpt>
      <trkpt lat="50.43289" lon="4.53114">
        <ele>154</ele>
        <time>2021-11-11T10:40:14Z</time>
      </trkpt>
      <trkpt lat="50.43273" lon="4.53107">
        <ele>154</ele>
        <time>2021-11-11T10:40:16Z</time>
      </trkpt>
      <trkpt lat="50.43258" lon="4.53098">
        <ele>151</ele>
        <time>2021-11-11T10:40:18Z</time>
      </trkpt>
      <trkpt lat="50.43245" lon="4.53086">
        <ele>153</ele>
        <time>2021-11-11T10:40:20Z</time>
      </trkpt>
      <trkpt lat="50.43233" lon="4.53071">
        <ele>155</ele>
        <time>2021-11-11T10:40:22Z</time>
      </trkpt>
      <trkpt lat="50.43223" lon="4.53055">
        <ele>154</ele>
        <time>2021-11-11T10:40:24Z</time>
      </trkpt>
      <trkpt lat="50.43214" lon="4.5304">
        <ele>157</ele>
        <time>2021-11-11T10:40:26Z</time>
      </trkpt>
      <trkpt lat="50.43208" lon="4.53025">
        <ele>158</ele>
        <time>2021-11-11T10:40:28Z</time>
      </trkpt>
      <trkpt lat="50.43204" lon="4.53011">
        <ele>158</ele>
        <time>2021-11-11T10:40:30Z</time>
      </trkpt>
      <trkpt lat="50.432" lon="4.53">
        <ele>158</ele>
        <time>2021-11-11T10:40:32Z</time>
      </trkpt>
      <trkpt lat="50.43196" lon="4.52991">
        <ele>158</ele>
        <time>2021-11-11T10:40:34Z</time>
      </trkpt>
      <trkpt lat="50.43191" lon="4.52987">
        <ele>158</ele>
        <time>2021-11-11T10:40:36Z</time>
      </trkpt>
      <trkpt lat="50.43187" lon="4.5299">
        <ele>158</ele>
        <time>2021-11-11T10:40:38Z</time>
      </trkpt>
      <trkpt lat="50.43186" lon="4.52994">
        <ele>158</ele>
        <time>2021-11-11T10:40:40Z</time>
      </trkpt>
      <trkpt lat="50.43186" lon="4.53">
        <ele>158</ele>
        <time>2021-11-11T10:40:42Z</time>
      </trkpt>
      <trkpt lat="50.43186" lon="4.53005">
        <ele>158</ele>
        <time>2021-11-11T10:40:44Z</time>
      </trkpt>
      <trkpt lat="50.43185" lon="4.53012">
        <ele>158</ele>
        <time>2021-11-11T10:40:46Z</time>
      </trkpt>
      <trkpt lat="50.43184" lon="4.53018">
        <ele>158</ele>
        <time>2021-11-11T10:40:48Z</time>
      </trkpt>
      <trkpt lat="50.43183" lon="4.53025">
        <ele>158</ele>
        <time>2021-11-11T10:40:51Z</time>
      </trkpt>
      <trkpt lat="50.43182" lon="4.53029">
        <ele>158</ele>
        <time>2021-11-11T10:40:53Z</time>
      </trkpt>
      <trkpt lat="50.43181" lon="4.53034">
        <ele>160</ele>
        <time>2021-11-11T10:40:55Z</time>
      </trkpt>
      <trkpt lat="50.43176" lon="4.53039">
        <ele>160</ele>
        <time>2021-11-11T10:40:57Z</time>
      </trkpt>
      <trkpt lat="50.43173" lon="4.53036">
        <ele>160</ele>
        <time>2021-11-11T10:41:00Z</time>
      </trkpt>
      <trkpt lat="50.4317" lon="4.53029">
        <ele>160</ele>
        <time>2021-11-11T10:41:03Z</time>
      </trkpt>
      <trkpt lat="50.4317" lon="4.53023">
        <ele>160</ele>
        <time>2021-11-11T10:41:05Z</time>
      </trkpt>
      <trkpt lat="50.43167" lon="4.53018">
        <ele>160</ele>
        <time>2021-11-11T10:41:07Z</time>
      </trkpt>
      <trkpt lat="50.43163" lon="4.53013">
        <ele>159</ele>
        <time>2021-11-11T10:41:09Z</time>
      </trkpt>
      <trkpt lat="50.4316" lon="4.53007">
        <ele>159</ele>
        <time>2021-11-11T10:41:11Z</time>
      </trkpt>
      <trkpt lat="50.43156" lon="4.53003">
        <ele>159</ele>
        <time>2021-11-11T10:41:13Z</time>
      </trkpt>
      <trkpt lat="50.43156" lon="4.52996">
        <ele>159</ele>
        <time>2021-11-11T10:41:15Z</time>
      </trkpt>
      <trkpt lat="50.43156" lon="4.5299">
        <ele>159</ele>
        <time>2021-11-11T10:41:17Z</time>
      </trkpt>
      <trkpt lat="50.43156" lon="4.52979">
        <ele>161</ele>
        <time>2021-11-11T10:41:19Z</time>
      </trkpt>
      <trkpt lat="50.43157" lon="4.52969">
        <ele>161</ele>
        <time>2021-11-11T10:41:21Z</time>
      </trkpt>
      <trkpt lat="50.43156" lon="4.52959">
        <ele>161</ele>
        <time>2021-11-11T10:41:23Z</time>
      </trkpt>
      <trkpt lat="50.43156" lon="4.52948">
        <ele>163</ele>
        <time>2021-11-11T10:41:25Z</time>
      </trkpt>
      <trkpt lat="50.43154" lon="4.52936">
        <ele>163</ele>
        <time>2021-11-11T10:41:27Z</time>
      </trkpt>
      <trkpt lat="50.43155" lon="4.52928">
        <ele>164</ele>
        <time>2021-11-11T10:41:29Z</time>
      </trkpt>
      <trkpt lat="50.43154" lon="4.52918">
        <ele>164</ele>
        <time>2021-11-11T10:41:31Z</time>
      </trkpt>
      <trkpt lat="50.43154" lon="4.52905">
        <ele>164</ele>
        <time>2021-11-11T10:41:34Z</time>
      </trkpt>
      <trkpt lat="50.43156" lon="4.52894">
        <ele>167</ele>
        <time>2021-11-11T10:41:36Z</time>
      </trkpt>
      <trkpt lat="50.43156" lon="4.52884">
        <ele>167</ele>
        <time>2021-11-11T10:41:38Z</time>
      </trkpt>
      <trkpt lat="50.43157" lon="4.52873">
        <ele>166</ele>
        <time>2021-11-11T10:41:40Z</time>
      </trkpt>
      <trkpt lat="50.43159" lon="4.52863">
        <ele>166</ele>
        <time>2021-11-11T10:41:42Z</time>
      </trkpt>
      <trkpt lat="50.43161" lon="4.52852">
        <ele>166</ele>
        <time>2021-11-11T10:41:44Z</time>
      </trkpt>
      <trkpt lat="50.4316" lon="4.52843">
        <ele>167</ele>
        <time>2021-11-11T10:41:46Z</time>
      </trkpt>
      <trkpt lat="50.43158" lon="4.52835">
        <ele>167</ele>
        <time>2021-11-11T10:41:48Z</time>
      </trkpt>
      <trkpt lat="50.43156" lon="4.52829">
        <ele>167</ele>
        <time>2021-11-11T10:41:50Z</time>
      </trkpt>
      <trkpt lat="50.43152" lon="4.52821">
        <ele>168</ele>
        <time>2021-11-11T10:41:52Z</time>
      </trkpt>
      <trkpt lat="50.43147" lon="4.52809">
        <ele>169</ele>
        <time>2021-11-11T10:41:54Z</time>
      </trkpt>
      <trkpt lat="50.43143" lon="4.52795">
        <ele>169</ele>
        <time>2021-11-11T10:41:56Z</time>
      </trkpt>
      <trkpt lat="50.4314" lon="4.52785">
        <ele>172</ele>
        <time>2021-11-11T10:41:59Z</time>
      </trkpt>
      <trkpt lat="50.43136" lon="4.52779">
        <ele>172</ele>
        <time>2021-11-11T10:42:01Z</time>
      </trkpt>
      <trkpt lat="50.43132" lon="4.52775">
        <ele>172</ele>
        <time>2021-11-11T10:42:03Z</time>
      </trkpt>
      <trkpt lat="50.43127" lon="4.5277">
        <ele>172</ele>
        <time>2021-11-11T10:42:05Z</time>
      </trkpt>
      <trkpt lat="50.43124" lon="4.52766">
        <ele>173</ele>
        <time>2021-11-11T10:42:07Z</time>
      </trkpt>
      <trkpt lat="50.4312" lon="4.52758">
        <ele>173</ele>
        <time>2021-11-11T10:42:09Z</time>
      </trkpt>
      <trkpt lat="50.4312" lon="4.52744">
        <ele>173</ele>
        <time>2021-11-11T10:42:12Z</time>
      </trkpt>
      <trkpt lat="50.43121" lon="4.52733">
        <ele>174</ele>
        <time>2021-11-11T10:42:14Z</time>
      </trkpt>
      <trkpt lat="50.43118" lon="4.52727">
        <ele>174</ele>
        <time>2021-11-11T10:42:18Z</time>
      </trkpt>
      <trkpt lat="50.43113" lon="4.52722">
        <ele>174</ele>
        <time>2021-11-11T10:42:20Z</time>
      </trkpt>
      <trkpt lat="50.43109" lon="4.52717">
        <ele>174</ele>
        <time>2021-11-11T10:42:22Z</time>
      </trkpt>
      <trkpt lat="50.43107" lon="4.52712">
        <ele>174</ele>
        <time>2021-11-11T10:42:24Z</time>
      </trkpt>
      <trkpt lat="50.43108" lon="4.52704">
        <ele>174</ele>
        <time>2021-11-11T10:42:26Z</time>
      </trkpt>
      <trkpt lat="50.43108" lon="4.52695">
        <ele>174</ele>
        <time>2021-11-11T10:42:28Z</time>
      </trkpt>
      <trkpt lat="50.43108" lon="4.52685">
        <ele>174</ele>
        <time>2021-11-11T10:42:30Z</time>
      </trkpt>
      <trkpt lat="50.43107" lon="4.52674">
        <ele>175</ele>
        <time>2021-11-11T10:42:32Z</time>
      </trkpt>
      <trkpt lat="50.43105" lon="4.52663">
        <ele>175</ele>
        <time>2021-11-11T10:42:34Z</time>
      </trkpt>
      <trkpt lat="50.43106" lon="4.52653">
        <ele>175</ele>
        <time>2021-11-11T10:42:36Z</time>
      </trkpt>
      <trkpt lat="50.43106" lon="4.52644">
        <ele>173</ele>
        <time>2021-11-11T10:42:38Z</time>
      </trkpt>
      <trkpt lat="50.43107" lon="4.52632">
        <ele>173</ele>
        <time>2021-11-11T10:42:40Z</time>
      </trkpt>
      <trkpt lat="50.43103" lon="4.52619">
        <ele>174</ele>
        <time>2021-11-11T10:42:43Z</time>
      </trkpt>
      <trkpt lat="50.43099" lon="4.52611">
        <ele>174</ele>
        <time>2021-11-11T10:42:45Z</time>
      </trkpt>
      <trkpt lat="50.43097" lon="4.52605">
        <ele>176</ele>
        <time>2021-11-11T10:42:47Z</time>
      </trkpt>
      <trkpt lat="50.43097" lon="4.52597">
        <ele>172</ele>
        <time>2021-11-11T10:42:49Z</time>
      </trkpt>
      <trkpt lat="50.43099" lon="4.5258">
        <ele>171</ele>
        <time>2021-11-11T10:42:52Z</time>
      </trkpt>
      <trkpt lat="50.43102" lon="4.5257">
        <ele>171</ele>
        <time>2021-11-11T10:42:54Z</time>
      </trkpt>
      <trkpt lat="50.43105" lon="4.52562">
        <ele>169</ele>
        <time>2021-11-11T10:42:56Z</time>
      </trkpt>
      <trkpt lat="50.43105" lon="4.52557">
        <ele>169</ele>
        <time>2021-11-11T10:42:58Z</time>
      </trkpt>
      <trkpt lat="50.43106" lon="4.52549">
        <ele>169</ele>
        <time>2021-11-11T10:43:00Z</time>
      </trkpt>
      <trkpt lat="50.43104" lon="4.52542">
        <ele>169</ele>
        <time>2021-11-11T10:43:10Z</time>
      </trkpt>
      <trkpt lat="50.431" lon="4.52527">
        <ele>170</ele>
        <time>2021-11-11T10:43:12Z</time>
      </trkpt>
      <trkpt lat="50.43097" lon="4.52518">
        <ele>169</ele>
        <time>2021-11-11T10:43:14Z</time>
      </trkpt>
      <trkpt lat="50.43094" lon="4.52507">
        <ele>167</ele>
        <time>2021-11-11T10:43:16Z</time>
      </trkpt>
      <trkpt lat="50.43089" lon="4.52498">
        <ele>167</ele>
        <time>2021-11-11T10:43:18Z</time>
      </trkpt>
      <trkpt lat="50.43084" lon="4.52488">
        <ele>167</ele>
        <time>2021-11-11T10:43:20Z</time>
      </trkpt>
      <trkpt lat="50.43081" lon="4.52476">
        <ele>168</ele>
        <time>2021-11-11T10:43:22Z</time>
      </trkpt>
      <trkpt lat="50.43077" lon="4.52464">
        <ele>168</ele>
        <time>2021-11-11T10:43:24Z</time>
      </trkpt>
      <trkpt lat="50.43073" lon="4.52453">
        <ele>167</ele>
        <time>2021-11-11T10:43:26Z</time>
      </trkpt>
      <trkpt lat="50.43068" lon="4.52442">
        <ele>167</ele>
        <time>2021-11-11T10:43:28Z</time>
      </trkpt>
      <trkpt lat="50.43064" lon="4.52431">
        <ele>167</ele>
        <time>2021-11-11T10:43:30Z</time>
      </trkpt>
      <trkpt lat="50.4306" lon="4.52421">
        <ele>167</ele>
        <time>2021-11-11T10:43:32Z</time>
      </trkpt>
      <trkpt lat="50.43058" lon="4.52411">
        <ele>167</ele>
        <time>2021-11-11T10:43:34Z</time>
      </trkpt>
      <trkpt lat="50.4306" lon="4.52399">
        <ele>169</ele>
        <time>2021-11-11T10:43:36Z</time>
      </trkpt>
      <trkpt lat="50.43066" lon="4.5239">
        <ele>169</ele>
        <time>2021-11-11T10:43:38Z</time>
      </trkpt>
      <trkpt lat="50.43071" lon="4.52385">
        <ele>171</ele>
        <time>2021-11-11T10:43:40Z</time>
      </trkpt>
      <trkpt lat="50.43078" lon="4.5238">
        <ele>171</ele>
        <time>2021-11-11T10:43:42Z</time>
      </trkpt>
      <trkpt lat="50.43083" lon="4.52374">
        <ele>170</ele>
        <time>2021-11-11T10:43:44Z</time>
      </trkpt>
      <trkpt lat="50.43088" lon="4.52367">
        <ele>170</ele>
        <time>2021-11-11T10:43:46Z</time>
      </trkpt>
      <trkpt lat="50.43094" lon="4.52361">
        <ele>170</ele>
        <time>2021-11-11T10:43:48Z</time>
      </trkpt>
      <trkpt lat="50.43098" lon="4.52355">
        <ele>172</ele>
        <time>2021-11-11T10:43:50Z</time>
      </trkpt>
      <trkpt lat="50.43104" lon="4.52348">
        <ele>172</ele>
        <time>2021-11-11T10:43:52Z</time>
      </trkpt>
      <trkpt lat="50.43109" lon="4.52342">
        <ele>173</ele>
        <time>2021-11-11T10:43:54Z</time>
      </trkpt>
      <trkpt lat="50.43114" lon="4.52335">
        <ele>173</ele>
        <time>2021-11-11T10:43:56Z</time>
      </trkpt>
      <trkpt lat="50.43119" lon="4.52329">
        <ele>173</ele>
        <time>2021-11-11T10:43:58Z</time>
      </trkpt>
      <trkpt lat="50.43124" lon="4.52323">
        <ele>173</ele>
        <time>2021-11-11T10:44:00Z</time>
      </trkpt>
      <trkpt lat="50.4313" lon="4.52318">
        <ele>175</ele>
        <time>2021-11-11T10:44:02Z</time>
      </trkpt>
      <trkpt lat="50.43135" lon="4.52312">
        <ele>175</ele>
        <time>2021-11-11T10:44:04Z</time>
      </trkpt>
      <trkpt lat="50.4314" lon="4.52305">
        <ele>175</ele>
        <time>2021-11-11T10:44:06Z</time>
      </trkpt>
      <trkpt lat="50.43144" lon="4.52298">
        <ele>175</ele>
        <time>2021-11-11T10:44:08Z</time>
      </trkpt>
      <trkpt lat="50.43149" lon="4.52291">
        <ele>175</ele>
        <time>2021-11-11T10:44:10Z</time>
      </trkpt>
      <trkpt lat="50.43154" lon="4.52283">
        <ele>178</ele>
        <time>2021-11-11T10:44:12Z</time>
      </trkpt>
      <trkpt lat="50.43159" lon="4.52276">
        <ele>178</ele>
        <time>2021-11-11T10:44:14Z</time>
      </trkpt>
      <trkpt lat="50.43164" lon="4.5227">
        <ele>178</ele>
        <time>2021-11-11T10:44:16Z</time>
      </trkpt>
      <trkpt lat="50.43169" lon="4.52264">
        <ele>178</ele>
        <time>2021-11-11T10:44:18Z</time>
      </trkpt>
      <trkpt lat="50.43174" lon="4.52259">
        <ele>179</ele>
        <time>2021-11-11T10:44:20Z</time>
      </trkpt>
      <trkpt lat="50.43179" lon="4.52254">
        <ele>179</ele>
        <time>2021-11-11T10:44:22Z</time>
      </trkpt>
      <trkpt lat="50.43184" lon="4.52249">
        <ele>181</ele>
        <time>2021-11-11T10:44:24Z</time>
      </trkpt>
      <trkpt lat="50.43188" lon="4.52243">
        <ele>181</ele>
        <time>2021-11-11T10:44:26Z</time>
      </trkpt>
      <trkpt lat="50.43192" lon="4.52238">
        <ele>181</ele>
        <time>2021-11-11T10:44:28Z</time>
      </trkpt>
      <trkpt lat="50.43198" lon="4.52231">
        <ele>182</ele>
        <time>2021-11-11T10:44:30Z</time>
      </trkpt>
      <trkpt lat="50.43202" lon="4.52225">
        <ele>182</ele>
        <time>2021-11-11T10:44:32Z</time>
      </trkpt>
      <trkpt lat="50.43206" lon="4.52218">
        <ele>182</ele>
        <time>2021-11-11T10:44:34Z</time>
      </trkpt>
      <trkpt lat="50.4321" lon="4.52211">
        <ele>182</ele>
        <time>2021-11-11T10:44:36Z</time>
      </trkpt>
      <trkpt lat="50.4321" lon="4.52204">
        <ele>183</ele>
        <time>2021-11-11T10:44:38Z</time>
      </trkpt>
      <trkpt lat="50.43214" lon="4.52198">
        <ele>183</ele>
        <time>2021-11-11T10:44:40Z</time>
      </trkpt>
      <trkpt lat="50.43217" lon="4.52194">
        <ele>183</ele>
        <time>2021-11-11T10:44:42Z</time>
      </trkpt>
      <trkpt lat="50.43221" lon="4.52185">
        <ele>183</ele>
        <time>2021-11-11T10:44:44Z</time>
      </trkpt>
      <trkpt lat="50.43226" lon="4.52188">
        <ele>183</ele>
        <time>2021-11-11T10:44:48Z</time>
      </trkpt>
      <trkpt lat="50.43231" lon="4.52186">
        <ele>183</ele>
        <time>2021-11-11T10:44:50Z</time>
      </trkpt>
      <trkpt lat="50.4323" lon="4.52183">
        <ele>183</ele>
        <time>2021-11-11T10:44:52Z</time>
      </trkpt>
      <trkpt lat="50.43231" lon="4.52176">
        <ele>183</ele>
        <time>2021-11-11T10:44:54Z</time>
      </trkpt>
      <trkpt lat="50.4323" lon="4.5217">
        <ele>183</ele>
        <time>2021-11-11T10:44:56Z</time>
      </trkpt>
      <trkpt lat="50.43231" lon="4.52166">
        <ele>183</ele>
        <time>2021-11-11T10:44:58Z</time>
      </trkpt>
      <trkpt lat="50.43233" lon="4.52164">
        <ele>183</ele>
        <time>2021-11-11T10:45:06Z</time>
      </trkpt>
      <trkpt lat="50.43235" lon="4.52158">
        <ele>183</ele>
        <time>2021-11-11T10:45:08Z</time>
      </trkpt>
      <trkpt lat="50.43233" lon="4.52149">
        <ele>182</ele>
        <time>2021-11-11T10:45:10Z</time>
      </trkpt>
      <trkpt lat="50.43228" lon="4.52141">
        <ele>182</ele>
        <time>2021-11-11T10:45:12Z</time>
      </trkpt>
      <trkpt lat="50.43222" lon="4.52133">
        <ele>182</ele>
        <time>2021-11-11T10:45:14Z</time>
      </trkpt>
      <trkpt lat="50.43216" lon="4.52125">
        <ele>182</ele>
        <time>2021-11-11T10:45:16Z</time>
      </trkpt>
      <trkpt lat="50.4321" lon="4.52115">
        <ele>182</ele>
        <time>2021-11-11T10:45:18Z</time>
      </trkpt>
      <trkpt lat="50.43204" lon="4.52105">
        <ele>181</ele>
        <time>2021-11-11T10:45:20Z</time>
      </trkpt>
      <trkpt lat="50.43198" lon="4.52095">
        <ele>180</ele>
        <time>2021-11-11T10:45:22Z</time>
      </trkpt>
      <trkpt lat="50.43194" lon="4.52083">
        <ele>180</ele>
        <time>2021-11-11T10:45:24Z</time>
      </trkpt>
      <trkpt lat="50.43198" lon="4.52069">
        <ele>179</ele>
        <time>2021-11-11T10:45:26Z</time>
      </trkpt>
      <trkpt lat="50.43206" lon="4.52061">
        <ele>179</ele>
        <time>2021-11-11T10:45:28Z</time>
      </trkpt>
      <trkpt lat="50.43213" lon="4.52052">
        <ele>180</ele>
        <time>2021-11-11T10:45:30Z</time>
      </trkpt>
      <trkpt lat="50.43219" lon="4.52044">
        <ele>180</ele>
        <time>2021-11-11T10:45:32Z</time>
      </trkpt>
      <trkpt lat="50.43227" lon="4.52037">
        <ele>179</ele>
        <time>2021-11-11T10:45:34Z</time>
      </trkpt>
      <trkpt lat="50.43234" lon="4.52029">
        <ele>179</ele>
        <time>2021-11-11T10:45:36Z</time>
      </trkpt>
      <trkpt lat="50.43241" lon="4.52021">
        <ele>180</ele>
        <time>2021-11-11T10:45:38Z</time>
      </trkpt>
      <trkpt lat="50.43248" lon="4.52014">
        <ele>179</ele>
        <time>2021-11-11T10:45:40Z</time>
      </trkpt>
      <trkpt lat="50.43256" lon="4.52006">
        <ele>179</ele>
        <time>2021-11-11T10:45:42Z</time>
      </trkpt>
      <trkpt lat="50.43265" lon="4.51997">
        <ele>178</ele>
        <time>2021-11-11T10:45:44Z</time>
      </trkpt>
      <trkpt lat="50.43274" lon="4.51988">
        <ele>178</ele>
        <time>2021-11-11T10:45:46Z</time>
      </trkpt>
      <trkpt lat="50.43284" lon="4.51979">
        <ele>178</ele>
        <time>2021-11-11T10:45:48Z</time>
      </trkpt>
      <trkpt lat="50.43293" lon="4.5197">
        <ele>177</ele>
        <time>2021-11-11T10:45:50Z</time>
      </trkpt>
      <trkpt lat="50.43304" lon="4.51959">
        <ele>177</ele>
        <time>2021-11-11T10:45:52Z</time>
      </trkpt>
      <trkpt lat="50.43316" lon="4.51947">
        <ele>176</ele>
        <time>2021-11-11T10:45:54Z</time>
      </trkpt>
      <trkpt lat="50.43327" lon="4.51936">
        <ele>176</ele>
        <time>2021-11-11T10:45:56Z</time>
      </trkpt>
      <trkpt lat="50.43339" lon="4.51923">
        <ele>175</ele>
        <time>2021-11-11T10:45:58Z</time>
      </trkpt>
      <trkpt lat="50.43352" lon="4.51911">
        <ele>174</ele>
        <time>2021-11-11T10:46:00Z</time>
      </trkpt>
      <trkpt lat="50.43366" lon="4.51899">
        <ele>173</ele>
        <time>2021-11-11T10:46:02Z</time>
      </trkpt>
      <trkpt lat="50.43379" lon="4.51886">
        <ele>172</ele>
        <time>2021-11-11T10:46:04Z</time>
      </trkpt>
      <trkpt lat="50.43393" lon="4.51873">
        <ele>170</ele>
        <time>2021-11-11T10:46:06Z</time>
      </trkpt>
      <trkpt lat="50.43407" lon="4.5186">
        <ele>170</ele>
        <time>2021-11-11T10:46:08Z</time>
      </trkpt>
      <trkpt lat="50.43422" lon="4.51846">
        <ele>169</ele>
        <time>2021-11-11T10:46:10Z</time>
      </trkpt>
      <trkpt lat="50.43437" lon="4.51831">
        <ele>169</ele>
        <time>2021-11-11T10:46:12Z</time>
      </trkpt>
      <trkpt lat="50.43453" lon="4.51816">
        <ele>168</ele>
        <time>2021-11-11T10:46:14Z</time>
      </trkpt>
      <trkpt lat="50.43468" lon="4.51802">
        <ele>167</ele>
        <time>2021-11-11T10:46:16Z</time>
      </trkpt>
      <trkpt lat="50.43484" lon="4.51786">
        <ele>165</ele>
        <time>2021-11-11T10:46:18Z</time>
      </trkpt>
      <trkpt lat="50.435" lon="4.51769">
        <ele>165</ele>
        <time>2021-11-11T10:46:20Z</time>
      </trkpt>
      <trkpt lat="50.43516" lon="4.51751">
        <ele>162</ele>
        <time>2021-11-11T10:46:22Z</time>
      </trkpt>
      <trkpt lat="50.43533" lon="4.51735">
        <ele>161</ele>
        <time>2021-11-11T10:46:24Z</time>
      </trkpt>
      <trkpt lat="50.4355" lon="4.51719">
        <ele>159</ele>
        <time>2021-11-11T10:46:26Z</time>
      </trkpt>
      <trkpt lat="50.43568" lon="4.51702">
        <ele>160</ele>
        <time>2021-11-11T10:46:28Z</time>
      </trkpt>
      <trkpt lat="50.43585" lon="4.51685">
        <ele>159</ele>
        <time>2021-11-11T10:46:30Z</time>
      </trkpt>
      <trkpt lat="50.43601" lon="4.5167">
        <ele>160</ele>
        <time>2021-11-11T10:46:32Z</time>
      </trkpt>
      <trkpt lat="50.43615" lon="4.51658">
        <ele>160</ele>
        <time>2021-11-11T10:46:34Z</time>
      </trkpt>
      <trkpt lat="50.43627" lon="4.51644">
        <ele>157</ele>
        <time>2021-11-11T10:46:36Z</time>
      </trkpt>
      <trkpt lat="50.43639" lon="4.5163">
        <ele>157</ele>
        <time>2021-11-11T10:46:38Z</time>
      </trkpt>
      <trkpt lat="50.43651" lon="4.51618">
        <ele>157</ele>
        <time>2021-11-11T10:46:40Z</time>
      </trkpt>
      <trkpt lat="50.43664" lon="4.51607">
        <ele>155</ele>
        <time>2021-11-11T10:46:42Z</time>
      </trkpt>
      <trkpt lat="50.43676" lon="4.51594">
        <ele>155</ele>
        <time>2021-11-11T10:46:44Z</time>
      </trkpt>
      <trkpt lat="50.4369" lon="4.51579">
        <ele>155</ele>
        <time>2021-11-11T10:46:46Z</time>
      </trkpt>
      <trkpt lat="50.43705" lon="4.51565">
        <ele>156</ele>
        <time>2021-11-11T10:46:48Z</time>
      </trkpt>
      <trkpt lat="50.4372" lon="4.51549">
        <ele>155</ele>
        <time>2021-11-11T10:46:50Z</time>
      </trkpt>
      <trkpt lat="50.43737" lon="4.51533">
        <ele>152</ele>
        <time>2021-11-11T10:46:52Z</time>
      </trkpt>
      <trkpt lat="50.43754" lon="4.51516">
        <ele>152</ele>
        <time>2021-11-11T10:46:54Z</time>
      </trkpt>
      <trkpt lat="50.43771" lon="4.51498">
        <ele>149</ele>
        <time>2021-11-11T10:46:56Z</time>
      </trkpt>
      <trkpt lat="50.43789" lon="4.5148">
        <ele>149</ele>
        <time>2021-11-11T10:46:58Z</time>
      </trkpt>
      <trkpt lat="50.43805" lon="4.51462">
        <ele>148</ele>
        <time>2021-11-11T10:47:00Z</time>
      </trkpt>
      <trkpt lat="50.43823" lon="4.51445">
        <ele>147</ele>
        <time>2021-11-11T10:47:02Z</time>
      </trkpt>
      <trkpt lat="50.4384" lon="4.5143">
        <ele>146</ele>
        <time>2021-11-11T10:47:04Z</time>
      </trkpt>
      <trkpt lat="50.43857" lon="4.51414">
        <ele>143</ele>
        <time>2021-11-11T10:47:06Z</time>
      </trkpt>
      <trkpt lat="50.43874" lon="4.51397">
        <ele>140</ele>
        <time>2021-11-11T10:47:08Z</time>
      </trkpt>
      <trkpt lat="50.43892" lon="4.5138">
        <ele>135</ele>
        <time>2021-11-11T10:47:10Z</time>
      </trkpt>
      <trkpt lat="50.43909" lon="4.51362">
        <ele>135</ele>
        <time>2021-11-11T10:47:12Z</time>
      </trkpt>
      <trkpt lat="50.43926" lon="4.51345">
        <ele>135</ele>
        <time>2021-11-11T10:47:14Z</time>
      </trkpt>
      <trkpt lat="50.43941" lon="4.51331">
        <ele>133</ele>
        <time>2021-11-11T10:47:16Z</time>
      </trkpt>
      <trkpt lat="50.43953" lon="4.51319">
        <ele>133</ele>
        <time>2021-11-11T10:47:18Z</time>
      </trkpt>
      <trkpt lat="50.43962" lon="4.51308">
        <ele>131</ele>
        <time>2021-11-11T10:47:20Z</time>
      </trkpt>
      <trkpt lat="50.43968" lon="4.51301">
        <ele>131</ele>
        <time>2021-11-11T10:47:22Z</time>
      </trkpt>
      <trkpt lat="50.43972" lon="4.51298">
        <ele>131</ele>
        <time>2021-11-11T10:47:24Z</time>
      </trkpt>
      <trkpt lat="50.43975" lon="4.51294">
        <ele>131</ele>
        <time>2021-11-11T10:47:32Z</time>
      </trkpt>
      <trkpt lat="50.43974" lon="4.51287">
        <ele>131</ele>
        <time>2021-11-11T10:47:34Z</time>
      </trkpt>
      <trkpt lat="50.43969" lon="4.51278">
        <ele>131</ele>
        <time>2021-11-11T10:47:36Z</time>
      </trkpt>
      <trkpt lat="50.43962" lon="4.5127">
        <ele>131</ele>
        <time>2021-11-11T10:47:38Z</time>
      </trkpt>
      <trkpt lat="50.43955" lon="4.51265">
        <ele>133</ele>
        <time>2021-11-11T10:47:40Z</time>
      </trkpt>
      <trkpt lat="50.43949" lon="4.51258">
        <ele>133</ele>
        <time>2021-11-11T10:47:42Z</time>
      </trkpt>
      <trkpt lat="50.43942" lon="4.51251">
        <ele>133</ele>
        <time>2021-11-11T10:47:44Z</time>
      </trkpt>
      <trkpt lat="50.43935" lon="4.51245">
        <ele>133</ele>
        <time>2021-11-11T10:47:46Z</time>
      </trkpt>
      <trkpt lat="50.43927" lon="4.51238">
        <ele>135</ele>
        <time>2021-11-11T10:47:48Z</time>
      </trkpt>
      <trkpt lat="50.43919" lon="4.51231">
        <ele>134</ele>
        <time>2021-11-11T10:47:50Z</time>
      </trkpt>
      <trkpt lat="50.43912" lon="4.51224">
        <ele>134</ele>
        <time>2021-11-11T10:47:52Z</time>
      </trkpt>
      <trkpt lat="50.43904" lon="4.51217">
        <ele>134</ele>
        <time>2021-11-11T10:47:54Z</time>
      </trkpt>
      <trkpt lat="50.43897" lon="4.5121">
        <ele>135</ele>
        <time>2021-11-11T10:47:56Z</time>
      </trkpt>
      <trkpt lat="50.43889" lon="4.51203">
        <ele>135</ele>
        <time>2021-11-11T10:47:58Z</time>
      </trkpt>
      <trkpt lat="50.43881" lon="4.51196">
        <ele>135</ele>
        <time>2021-11-11T10:48:00Z</time>
      </trkpt>
      <trkpt lat="50.43874" lon="4.51189">
        <ele>137</ele>
        <time>2021-11-11T10:48:02Z</time>
      </trkpt>
      <trkpt lat="50.43866" lon="4.51181">
        <ele>137</ele>
        <time>2021-11-11T10:48:04Z</time>
      </trkpt>
      <trkpt lat="50.4386" lon="4.51174">
        <ele>135</ele>
        <time>2021-11-11T10:48:06Z</time>
      </trkpt>
      <trkpt lat="50.43855" lon="4.5117">
        <ele>135</ele>
        <time>2021-11-11T10:48:08Z</time>
      </trkpt>
      <trkpt lat="50.43853" lon="4.51164">
        <ele>135</ele>
        <time>2021-11-11T10:48:10Z</time>
      </trkpt>
      <trkpt lat="50.43853" lon="4.51157">
        <ele>135</ele>
        <time>2021-11-11T10:48:14Z</time>
      </trkpt>
      <trkpt lat="50.43856" lon="4.5115">
        <ele>136</ele>
        <time>2021-11-11T10:48:16Z</time>
      </trkpt>
      <trkpt lat="50.43858" lon="4.51143">
        <ele>136</ele>
        <time>2021-11-11T10:48:18Z</time>
      </trkpt>
      <trkpt lat="50.43864" lon="4.51133">
        <ele>136</ele>
        <time>2021-11-11T10:48:20Z</time>
      </trkpt>
      <trkpt lat="50.43869" lon="4.51123">
        <ele>135</ele>
        <time>2021-11-11T10:48:22Z</time>
      </trkpt>
      <trkpt lat="50.43873" lon="4.51112">
        <ele>135</ele>
        <time>2021-11-11T10:48:24Z</time>
      </trkpt>
      <trkpt lat="50.43878" lon="4.511">
        <ele>133</ele>
        <time>2021-11-11T10:48:26Z</time>
      </trkpt>
      <trkpt lat="50.43882" lon="4.51088">
        <ele>135</ele>
        <time>2021-11-11T10:48:28Z</time>
      </trkpt>
      <trkpt lat="50.43885" lon="4.51078">
        <ele>135</ele>
        <time>2021-11-11T10:48:30Z</time>
      </trkpt>
      <trkpt lat="50.43888" lon="4.51066">
        <ele>136</ele>
        <time>2021-11-11T10:48:32Z</time>
      </trkpt>
      <trkpt lat="50.43891" lon="4.51054">
        <ele>136</ele>
        <time>2021-11-11T10:48:34Z</time>
      </trkpt>
      <trkpt lat="50.43896" lon="4.51043">
        <ele>136</ele>
        <time>2021-11-11T10:48:36Z</time>
      </trkpt>
      <trkpt lat="50.439" lon="4.51033">
        <ele>134</ele>
        <time>2021-11-11T10:48:38Z</time>
      </trkpt>
      <trkpt lat="50.43905" lon="4.51023">
        <ele>134</ele>
        <time>2021-11-11T10:48:40Z</time>
      </trkpt>
      <trkpt lat="50.4391" lon="4.51016">
        <ele>134</ele>
        <time>2021-11-11T10:48:42Z</time>
      </trkpt>
      <trkpt lat="50.43915" lon="4.51008">
        <ele>134</ele>
        <time>2021-11-11T10:48:44Z</time>
      </trkpt>
      <trkpt lat="50.43919" lon="4.50998">
        <ele>134</ele>
        <time>2021-11-11T10:48:46Z</time>
      </trkpt>
      <trkpt lat="50.43925" lon="4.50989">
        <ele>134</ele>
        <time>2021-11-11T10:48:48Z</time>
      </trkpt>
      <trkpt lat="50.43931" lon="4.50978">
        <ele>132</ele>
        <time>2021-11-11T10:48:50Z</time>
      </trkpt>
      <trkpt lat="50.43938" lon="4.50967">
        <ele>132</ele>
        <time>2021-11-11T10:48:52Z</time>
      </trkpt>
      <trkpt lat="50.43944" lon="4.50957">
        <ele>135</ele>
        <time>2021-11-11T10:48:54Z</time>
      </trkpt>
      <trkpt lat="50.4395" lon="4.50947">
        <ele>135</ele>
        <time>2021-11-11T10:48:56Z</time>
      </trkpt>
      <trkpt lat="50.43956" lon="4.50938">
        <ele>135</ele>
        <time>2021-11-11T10:48:58Z</time>
      </trkpt>
      <trkpt lat="50.43963" lon="4.5093">
        <ele>135</ele>
        <time>2021-11-11T10:49:00Z</time>
      </trkpt>
      <trkpt lat="50.43969" lon="4.50922">
        <ele>135</ele>
        <time>2021-11-11T10:49:02Z</time>
      </trkpt>
      <trkpt lat="50.43976" lon="4.50913">
        <ele>135</ele>
        <time>2021-11-11T10:49:04Z</time>
      </trkpt>
      <trkpt lat="50.43982" lon="4.50905">
        <ele>135</ele>
        <time>2021-11-11T10:49:06Z</time>
      </trkpt>
      <trkpt lat="50.43989" lon="4.50895">
        <ele>137</ele>
        <time>2021-11-11T10:49:08Z</time>
      </trkpt>
      <trkpt lat="50.43998" lon="4.50888">
        <ele>137</ele>
        <time>2021-11-11T10:49:10Z</time>
      </trkpt>
      <trkpt lat="50.44007" lon="4.5088">
        <ele>137</ele>
        <time>2021-11-11T10:49:12Z</time>
      </trkpt>
      <trkpt lat="50.44016" lon="4.50873">
        <ele>137</ele>
        <time>2021-11-11T10:49:14Z</time>
      </trkpt>
      <trkpt lat="50.44022" lon="4.50865">
        <ele>137</ele>
        <time>2021-11-11T10:49:16Z</time>
      </trkpt>
      <trkpt lat="50.44029" lon="4.50857">
        <ele>137</ele>
        <time>2021-11-11T10:49:18Z</time>
      </trkpt>
      <trkpt lat="50.44038" lon="4.50849">
        <ele>137</ele>
        <time>2021-11-11T10:49:20Z</time>
      </trkpt>
      <trkpt lat="50.44045" lon="4.50842">
        <ele>143</ele>
        <time>2021-11-11T10:49:22Z</time>
      </trkpt>
      <trkpt lat="50.44054" lon="4.50834">
        <ele>143</ele>
        <time>2021-11-11T10:49:24Z</time>
      </trkpt>
      <trkpt lat="50.44061" lon="4.50828">
        <ele>143</ele>
        <time>2021-11-11T10:49:26Z</time>
      </trkpt>
      <trkpt lat="50.44067" lon="4.50823">
        <ele>143</ele>
        <time>2021-11-11T10:49:28Z</time>
      </trkpt>
      <trkpt lat="50.44075" lon="4.50816">
        <ele>143</ele>
        <time>2021-11-11T10:49:30Z</time>
      </trkpt>
      <trkpt lat="50.44083" lon="4.50809">
        <ele>143</ele>
        <time>2021-11-11T10:49:32Z</time>
      </trkpt>
      <trkpt lat="50.44091" lon="4.50802">
        <ele>143</ele>
        <time>2021-11-11T10:49:34Z</time>
      </trkpt>
      <trkpt lat="50.44098" lon="4.50797">
        <ele>146</ele>
        <time>2021-11-11T10:49:36Z</time>
      </trkpt>
      <trkpt lat="50.44106" lon="4.50794">
        <ele>146</ele>
        <time>2021-11-11T10:49:38Z</time>
      </trkpt>
      <trkpt lat="50.44112" lon="4.50794">
        <ele>146</ele>
        <time>2021-11-11T10:49:40Z</time>
      </trkpt>
      <trkpt lat="50.44124" lon="4.50802">
        <ele>146</ele>
        <time>2021-11-11T10:49:43Z</time>
      </trkpt>
      <trkpt lat="50.44132" lon="4.50807">
        <ele>148</ele>
        <time>2021-11-11T10:49:45Z</time>
      </trkpt>
      <trkpt lat="50.44142" lon="4.50811">
        <ele>148</ele>
        <time>2021-11-11T10:49:47Z</time>
      </trkpt>
      <trkpt lat="50.4415" lon="4.50815">
        <ele>148</ele>
        <time>2021-11-11T10:49:49Z</time>
      </trkpt>
      <trkpt lat="50.44158" lon="4.50821">
        <ele>149</ele>
        <time>2021-11-11T10:49:51Z</time>
      </trkpt>
      <trkpt lat="50.44165" lon="4.50827">
        <ele>149</ele>
        <time>2021-11-11T10:49:53Z</time>
      </trkpt>
      <trkpt lat="50.44172" lon="4.50836">
        <ele>149</ele>
        <time>2021-11-11T10:49:55Z</time>
      </trkpt>
      <trkpt lat="50.44179" lon="4.50842">
        <ele>149</ele>
        <time>2021-11-11T10:49:57Z</time>
      </trkpt>
      <trkpt lat="50.44186" lon="4.50849">
        <ele>149</ele>
        <time>2021-11-11T10:49:59Z</time>
      </trkpt>
      <trkpt lat="50.44192" lon="4.50854">
        <ele>149</ele>
        <time>2021-11-11T10:50:01Z</time>
      </trkpt>
      <trkpt lat="50.44194" lon="4.50859">
        <ele>149</ele>
        <time>2021-11-11T10:50:03Z</time>
      </trkpt>
      <trkpt lat="50.44194" lon="4.50863">
        <ele>149</ele>
        <time>2021-11-11T10:50:05Z</time>
      </trkpt>
      <trkpt lat="50.44194" lon="4.50868">
        <ele>149</ele>
        <time>2021-11-11T10:50:07Z</time>
      </trkpt>
      <trkpt lat="50.44196" lon="4.50876">
        <ele>148</ele>
        <time>2021-11-11T10:50:09Z</time>
      </trkpt>
      <trkpt lat="50.44196" lon="4.50884">
        <ele>148</ele>
        <time>2021-11-11T10:50:11Z</time>
      </trkpt>
      <trkpt lat="50.44196" lon="4.5089">
        <ele>148</ele>
        <time>2021-11-11T10:50:13Z</time>
      </trkpt>
      <trkpt lat="50.44194" lon="4.50894">
        <ele>148</ele>
        <time>2021-11-11T10:50:15Z</time>
      </trkpt>
      <trkpt lat="50.44193" lon="4.50898">
        <ele>148</ele>
        <time>2021-11-11T10:50:17Z</time>
      </trkpt>
      <trkpt lat="50.44191" lon="4.50902">
        <ele>148</ele>
        <time>2021-11-11T10:50:19Z</time>
      </trkpt>
      <trkpt lat="50.44189" lon="4.50905">
        <ele>149</ele>
        <time>2021-11-11T10:50:21Z</time>
      </trkpt>
      <trkpt lat="50.44188" lon="4.50908">
        <ele>149</ele>
        <time>2021-11-11T10:50:23Z</time>
      </trkpt>
      <trkpt lat="50.44186" lon="4.50915">
        <ele>149</ele>
        <time>2021-11-11T10:50:27Z</time>
      </trkpt>
      <trkpt lat="50.44184" lon="4.50919">
        <ele>149</ele>
        <time>2021-11-11T10:50:29Z</time>
      </trkpt>
      <trkpt lat="50.44182" lon="4.50925">
        <ele>149</ele>
        <time>2021-11-11T10:50:31Z</time>
      </trkpt>
      <trkpt lat="50.4418" lon="4.50933">
        <ele>147</ele>
        <time>2021-11-11T10:50:34Z</time>
      </trkpt>
      <trkpt lat="50.44178" lon="4.50939">
        <ele>147</ele>
        <time>2021-11-11T10:50:36Z</time>
      </trkpt>
      <trkpt lat="50.44176" lon="4.50948">
        <ele>147</ele>
        <time>2021-11-11T10:50:38Z</time>
      </trkpt>
      <trkpt lat="50.44176" lon="4.50958">
        <ele>147</ele>
        <time>2021-11-11T10:50:40Z</time>
      </trkpt>
      <trkpt lat="50.44176" lon="4.50967">
        <ele>145</ele>
        <time>2021-11-11T10:50:42Z</time>
      </trkpt>
      <trkpt lat="50.44177" lon="4.50977">
        <ele>145</ele>
        <time>2021-11-11T10:50:44Z</time>
      </trkpt>
      <trkpt lat="50.44178" lon="4.50985">
        <ele>145</ele>
        <time>2021-11-11T10:50:46Z</time>
      </trkpt>
      <trkpt lat="50.44177" lon="4.50992">
        <ele>143</ele>
        <time>2021-11-11T10:50:48Z</time>
      </trkpt>
      <trkpt lat="50.4418" lon="4.51001">
        <ele>143</ele>
        <time>2021-11-11T10:50:50Z</time>
      </trkpt>
      <trkpt lat="50.44182" lon="4.51009">
        <ele>146</ele>
        <time>2021-11-11T10:50:52Z</time>
      </trkpt>
      <trkpt lat="50.44183" lon="4.51015">
        <ele>145</ele>
        <time>2021-11-11T10:50:54Z</time>
      </trkpt>
      <trkpt lat="50.44182" lon="4.5102">
        <ele>145</ele>
        <time>2021-11-11T10:50:56Z</time>
      </trkpt>
      <trkpt lat="50.44183" lon="4.51027">
        <ele>145</ele>
        <time>2021-11-11T10:50:58Z</time>
      </trkpt>
      <trkpt lat="50.44183" lon="4.51036">
        <ele>145</ele>
        <time>2021-11-11T10:51:00Z</time>
      </trkpt>
      <trkpt lat="50.44182" lon="4.51042">
        <ele>143</ele>
        <time>2021-11-11T10:51:02Z</time>
      </trkpt>
      <trkpt lat="50.44181" lon="4.51049">
        <ele>143</ele>
        <time>2021-11-11T10:51:04Z</time>
      </trkpt>
      <trkpt lat="50.4418" lon="4.51055">
        <ele>138</ele>
        <time>2021-11-11T10:51:06Z</time>
      </trkpt>
      <trkpt lat="50.44183" lon="4.51065">
        <ele>143</ele>
        <time>2021-11-11T10:51:09Z</time>
      </trkpt>
      <trkpt lat="50.44185" lon="4.51071">
        <ele>141</ele>
        <time>2021-11-11T10:51:11Z</time>
      </trkpt>
      <trkpt lat="50.44187" lon="4.51073">
        <ele>141</ele>
        <time>2021-11-11T10:51:13Z</time>
      </trkpt>
      <trkpt lat="50.44191" lon="4.51084">
        <ele>141</ele>
        <time>2021-11-11T10:51:31Z</time>
      </trkpt>
      <trkpt lat="50.44193" lon="4.51087">
        <ele>141</ele>
        <time>2021-11-11T10:51:33Z</time>
      </trkpt>
      <trkpt lat="50.44196" lon="4.51091">
        <ele>141</ele>
        <time>2021-11-11T10:51:35Z</time>
      </trkpt>
      <trkpt lat="50.442" lon="4.51094">
        <ele>141</ele>
        <time>2021-11-11T10:51:37Z</time>
      </trkpt>
      <trkpt lat="50.44208" lon="4.51099">
        <ele>137</ele>
        <time>2021-11-11T10:51:39Z</time>
      </trkpt>
      <trkpt lat="50.44212" lon="4.51103">
        <ele>142</ele>
        <time>2021-11-11T10:51:41Z</time>
      </trkpt>
      <trkpt lat="50.44214" lon="4.51106">
        <ele>142</ele>
        <time>2021-11-11T10:51:43Z</time>
      </trkpt>
      <trkpt lat="50.44216" lon="4.51115">
        <ele>142</ele>
        <time>2021-11-11T10:51:45Z</time>
      </trkpt>
      <trkpt lat="50.44219" lon="4.51123">
        <ele>142</ele>
        <time>2021-11-11T10:51:47Z</time>
      </trkpt>
      <trkpt lat="50.44221" lon="4.51127">
        <ele>140</ele>
        <time>2021-11-11T10:51:49Z</time>
      </trkpt>
      <trkpt lat="50.44224" lon="4.5113">
        <ele>140</ele>
        <time>2021-11-11T10:51:51Z</time>
      </trkpt>
      <trkpt lat="50.44227" lon="4.51135">
        <ele>140</ele>
        <time>2021-11-11T10:51:53Z</time>
      </trkpt>
      <trkpt lat="50.44228" lon="4.51139">
        <ele>140</ele>
        <time>2021-11-11T10:51:55Z</time>
      </trkpt>
      <trkpt lat="50.44229" lon="4.51141">
        <ele>140</ele>
        <time>2021-11-11T10:51:57Z</time>
      </trkpt>
      <trkpt lat="50.44231" lon="4.51142">
        <ele>140</ele>
        <time>2021-11-11T10:51:59Z</time>
      </trkpt>
      <trkpt lat="50.44234" lon="4.51147">
        <ele>140</ele>
        <time>2021-11-11T10:52:01Z</time>
      </trkpt>
      <trkpt lat="50.44237" lon="4.51151">
        <ele>144</ele>
        <time>2021-11-11T10:52:03Z</time>
      </trkpt>
      <trkpt lat="50.44241" lon="4.51157">
        <ele>143</ele>
        <time>2021-11-11T10:52:05Z</time>
      </trkpt>
      <trkpt lat="50.44246" lon="4.5116">
        <ele>143</ele>
        <time>2021-11-11T10:52:07Z</time>
      </trkpt>
      <trkpt lat="50.4425" lon="4.51161">
        <ele>143</ele>
        <time>2021-11-11T10:52:09Z</time>
      </trkpt>
      <trkpt lat="50.44257" lon="4.51162">
        <ele>143</ele>
        <time>2021-11-11T10:52:12Z</time>
      </trkpt>
      <trkpt lat="50.44261" lon="4.51164">
        <ele>143</ele>
        <time>2021-11-11T10:52:14Z</time>
      </trkpt>
      <trkpt lat="50.44265" lon="4.51171">
        <ele>148</ele>
        <time>2021-11-11T10:52:16Z</time>
      </trkpt>
      <trkpt lat="50.4427" lon="4.51181">
        <ele>147</ele>
        <time>2021-11-11T10:52:18Z</time>
      </trkpt>
      <trkpt lat="50.44276" lon="4.5119">
        <ele>147</ele>
        <time>2021-11-11T10:52:20Z</time>
      </trkpt>
      <trkpt lat="50.44284" lon="4.51204">
        <ele>147</ele>
        <time>2021-11-11T10:52:22Z</time>
      </trkpt>
      <trkpt lat="50.44289" lon="4.51216">
        <ele>146</ele>
        <time>2021-11-11T10:52:24Z</time>
      </trkpt>
      <trkpt lat="50.44293" lon="4.51226">
        <ele>150</ele>
        <time>2021-11-11T10:52:26Z</time>
      </trkpt>
      <trkpt lat="50.44297" lon="4.51236">
        <ele>150</ele>
        <time>2021-11-11T10:52:28Z</time>
      </trkpt>
      <trkpt lat="50.44302" lon="4.51246">
        <ele>150</ele>
        <time>2021-11-11T10:52:30Z</time>
      </trkpt>
      <trkpt lat="50.44304" lon="4.51254">
        <ele>150</ele>
        <time>2021-11-11T10:52:32Z</time>
      </trkpt>
      <trkpt lat="50.44307" lon="4.51261">
        <ele>150</ele>
        <time>2021-11-11T10:52:34Z</time>
      </trkpt>
      <trkpt lat="50.44309" lon="4.51269">
        <ele>150</ele>
        <time>2021-11-11T10:52:36Z</time>
      </trkpt>
      <trkpt lat="50.44312" lon="4.51276">
        <ele>150</ele>
        <time>2021-11-11T10:52:38Z</time>
      </trkpt>
      <trkpt lat="50.44314" lon="4.51279">
        <ele>150</ele>
        <time>2021-11-11T10:52:40Z</time>
      </trkpt>
      <trkpt lat="50.44316" lon="4.51282">
        <ele>150</ele>
        <time>2021-11-11T10:52:42Z</time>
      </trkpt>
      <trkpt lat="50.44317" lon="4.51285">
        <ele>150</ele>
        <time>2021-11-11T10:52:44Z</time>
      </trkpt>
      <trkpt lat="50.44319" lon="4.51289">
        <ele>150</ele>
        <time>2021-11-11T10:52:46Z</time>
      </trkpt>
      <trkpt lat="50.44322" lon="4.51296">
        <ele>155</ele>
        <time>2021-11-11T10:52:48Z</time>
      </trkpt>
      <trkpt lat="50.44325" lon="4.51305">
        <ele>155</ele>
        <time>2021-11-11T10:52:50Z</time>
      </trkpt>
      <trkpt lat="50.44328" lon="4.51308">
        <ele>155</ele>
        <time>2021-11-11T10:52:52Z</time>
      </trkpt>
      <trkpt lat="50.44331" lon="4.51312">
        <ele>155</ele>
        <time>2021-11-11T10:52:54Z</time>
      </trkpt>
      <trkpt lat="50.44334" lon="4.51319">
        <ele>155</ele>
        <time>2021-11-11T10:52:56Z</time>
      </trkpt>
      <trkpt lat="50.44338" lon="4.51325">
        <ele>155</ele>
        <time>2021-11-11T10:52:58Z</time>
      </trkpt>
      <trkpt lat="50.44341" lon="4.51328">
        <ele>155</ele>
        <time>2021-11-11T10:53:00Z</time>
      </trkpt>
      <trkpt lat="50.44345" lon="4.51327">
        <ele>155</ele>
        <time>2021-11-11T10:53:02Z</time>
      </trkpt>
      <trkpt lat="50.44349" lon="4.51327">
        <ele>157</ele>
        <time>2021-11-11T10:53:04Z</time>
      </trkpt>
      <trkpt lat="50.44351" lon="4.51332">
        <ele>157</ele>
        <time>2021-11-11T10:53:06Z</time>
      </trkpt>
      <trkpt lat="50.44353" lon="4.51338">
        <ele>157</ele>
        <time>2021-11-11T10:53:08Z</time>
      </trkpt>
      <trkpt lat="50.44356" lon="4.51343">
        <ele>157</ele>
        <time>2021-11-11T10:53:10Z</time>
      </trkpt>
      <trkpt lat="50.44356" lon="4.5135">
        <ele>155</ele>
        <time>2021-11-11T10:53:12Z</time>
      </trkpt>
      <trkpt lat="50.44355" lon="4.51357">
        <ele>155</ele>
        <time>2021-11-11T10:53:14Z</time>
      </trkpt>
      <trkpt lat="50.44353" lon="4.51367">
        <ele>155</ele>
        <time>2021-11-11T10:53:16Z</time>
      </trkpt>
      <trkpt lat="50.44352" lon="4.51378">
        <ele>155</ele>
        <time>2021-11-11T10:53:19Z</time>
      </trkpt>
      <trkpt lat="50.44353" lon="4.51383">
        <ele>155</ele>
        <time>2021-11-11T10:53:21Z</time>
      </trkpt>
      <trkpt lat="50.44356" lon="4.51385">
        <ele>155</ele>
        <time>2021-11-11T10:53:23Z</time>
      </trkpt>
      <trkpt lat="50.44359" lon="4.5139">
        <ele>155</ele>
        <time>2021-11-11T10:53:25Z</time>
      </trkpt>
      <trkpt lat="50.44365" lon="4.51395">
        <ele>155</ele>
        <time>2021-11-11T10:53:27Z</time>
      </trkpt>
      <trkpt lat="50.44368" lon="4.51404">
        <ele>152</ele>
        <time>2021-11-11T10:53:29Z</time>
      </trkpt>
      <trkpt lat="50.4437" lon="4.51413">
        <ele>152</ele>
        <time>2021-11-11T10:53:31Z</time>
      </trkpt>
      <trkpt lat="50.44371" lon="4.5142">
        <ele>152</ele>
        <time>2021-11-11T10:53:33Z</time>
      </trkpt>
      <trkpt lat="50.44369" lon="4.5143">
        <ele>152</ele>
        <time>2021-11-11T10:53:35Z</time>
      </trkpt>
      <trkpt lat="50.44367" lon="4.5144">
        <ele>150</ele>
        <time>2021-11-11T10:53:37Z</time>
      </trkpt>
      <trkpt lat="50.44367" lon="4.51448">
        <ele>150</ele>
        <time>2021-11-11T10:53:39Z</time>
      </trkpt>
      <trkpt lat="50.44368" lon="4.51461">
        <ele>147</ele>
        <time>2021-11-11T10:53:41Z</time>
      </trkpt>
      <trkpt lat="50.4437" lon="4.51469">
        <ele>147</ele>
        <time>2021-11-11T10:53:43Z</time>
      </trkpt>
      <trkpt lat="50.4437" lon="4.51479">
        <ele>147</ele>
        <time>2021-11-11T10:53:45Z</time>
      </trkpt>
      <trkpt lat="50.44371" lon="4.51486">
        <ele>147</ele>
        <time>2021-11-11T10:53:47Z</time>
      </trkpt>
      <trkpt lat="50.44376" lon="4.51492">
        <ele>147</ele>
        <time>2021-11-11T10:53:49Z</time>
      </trkpt>
      <trkpt lat="50.44379" lon="4.51499">
        <ele>147</ele>
        <time>2021-11-11T10:53:51Z</time>
      </trkpt>
      <trkpt lat="50.44381" lon="4.51503">
        <ele>147</ele>
        <time>2021-11-11T10:53:53Z</time>
      </trkpt>
      <trkpt lat="50.44385" lon="4.51509">
        <ele>147</ele>
        <time>2021-11-11T10:53:55Z</time>
      </trkpt>
      <trkpt lat="50.44389" lon="4.51515">
        <ele>145</ele>
        <time>2021-11-11T10:53:57Z</time>
      </trkpt>
      <trkpt lat="50.44393" lon="4.51521">
        <ele>145</ele>
        <time>2021-11-11T10:53:59Z</time>
      </trkpt>
      <trkpt lat="50.44397" lon="4.51528">
        <ele>145</ele>
        <time>2021-11-11T10:54:01Z</time>
      </trkpt>
      <trkpt lat="50.44399" lon="4.51537">
        <ele>145</ele>
        <time>2021-11-11T10:54:03Z</time>
      </trkpt>
      <trkpt lat="50.44397" lon="4.51547">
        <ele>145</ele>
        <time>2021-11-11T10:54:05Z</time>
      </trkpt>
      <trkpt lat="50.44399" lon="4.51554">
        <ele>145</ele>
        <time>2021-11-11T10:54:07Z</time>
      </trkpt>
      <trkpt lat="50.44401" lon="4.51557">
        <ele>145</ele>
        <time>2021-11-11T10:54:09Z</time>
      </trkpt>
      <trkpt lat="50.44403" lon="4.5156">
        <ele>147</ele>
        <time>2021-11-11T10:54:11Z</time>
      </trkpt>
      <trkpt lat="50.44407" lon="4.51564">
        <ele>147</ele>
        <time>2021-11-11T10:54:13Z</time>
      </trkpt>
      <trkpt lat="50.4441" lon="4.51567">
        <ele>147</ele>
        <time>2021-11-11T10:54:15Z</time>
      </trkpt>
      <trkpt lat="50.44414" lon="4.51569">
        <ele>147</ele>
        <time>2021-11-11T10:54:17Z</time>
      </trkpt>
      <trkpt lat="50.4442" lon="4.51567">
        <ele>147</ele>
        <time>2021-11-11T10:54:19Z</time>
      </trkpt>
      <trkpt lat="50.44426" lon="4.51564">
        <ele>147</ele>
        <time>2021-11-11T10:54:21Z</time>
      </trkpt>
      <trkpt lat="50.44429" lon="4.51559">
        <ele>147</ele>
        <time>2021-11-11T10:54:23Z</time>
      </trkpt>
      <trkpt lat="50.44433" lon="4.51556">
        <ele>150</ele>
        <time>2021-11-11T10:54:25Z</time>
      </trkpt>
      <trkpt lat="50.44438" lon="4.51558">
        <ele>150</ele>
        <time>2021-11-11T10:54:27Z</time>
      </trkpt>
      <trkpt lat="50.44438" lon="4.51562">
        <ele>150</ele>
        <time>2021-11-11T10:54:29Z</time>
      </trkpt>
      <trkpt lat="50.44441" lon="4.51566">
        <ele>150</ele>
        <time>2021-11-11T10:54:31Z</time>
      </trkpt>
      <trkpt lat="50.44447" lon="4.51567">
        <ele>150</ele>
        <time>2021-11-11T10:54:33Z</time>
      </trkpt>
      <trkpt lat="50.44452" lon="4.5157">
        <ele>147</ele>
        <time>2021-11-11T10:54:35Z</time>
      </trkpt>
      <trkpt lat="50.44457" lon="4.51575">
        <ele>147</ele>
        <time>2021-11-11T10:54:37Z</time>
      </trkpt>
      <trkpt lat="50.44462" lon="4.51579">
        <ele>148</ele>
        <time>2021-11-11T10:54:39Z</time>
      </trkpt>
      <trkpt lat="50.44467" lon="4.51579">
        <ele>148</ele>
        <time>2021-11-11T10:54:41Z</time>
      </trkpt>
      <trkpt lat="50.44471" lon="4.5158">
        <ele>148</ele>
        <time>2021-11-11T10:54:43Z</time>
      </trkpt>
      <trkpt lat="50.44475" lon="4.5158">
        <ele>148</ele>
        <time>2021-11-11T10:54:45Z</time>
      </trkpt>
      <trkpt lat="50.44478" lon="4.51582">
        <ele>148</ele>
        <time>2021-11-11T10:54:47Z</time>
      </trkpt>
      <trkpt lat="50.44481" lon="4.51586">
        <ele>148</ele>
        <time>2021-11-11T10:54:49Z</time>
      </trkpt>
      <trkpt lat="50.44485" lon="4.51592">
        <ele>148</ele>
        <time>2021-11-11T10:54:51Z</time>
      </trkpt>
      <trkpt lat="50.44488" lon="4.51599">
        <ele>148</ele>
        <time>2021-11-11T10:54:53Z</time>
      </trkpt>
      <trkpt lat="50.44491" lon="4.51606">
        <ele>148</ele>
        <time>2021-11-11T10:54:55Z</time>
      </trkpt>
      <trkpt lat="50.44495" lon="4.51608">
        <ele>148</ele>
        <time>2021-11-11T10:54:57Z</time>
      </trkpt>
      <trkpt lat="50.445" lon="4.51606">
        <ele>148</ele>
        <time>2021-11-11T10:54:59Z</time>
      </trkpt>
      <trkpt lat="50.44505" lon="4.51607">
        <ele>148</ele>
        <time>2021-11-11T10:55:01Z</time>
      </trkpt>
      <trkpt lat="50.4451" lon="4.51608">
        <ele>148</ele>
        <time>2021-11-11T10:55:03Z</time>
      </trkpt>
      <trkpt lat="50.44515" lon="4.51612">
        <ele>149</ele>
        <time>2021-11-11T10:55:05Z</time>
      </trkpt>
      <trkpt lat="50.44521" lon="4.51617">
        <ele>149</ele>
        <time>2021-11-11T10:55:07Z</time>
      </trkpt>
      <trkpt lat="50.44526" lon="4.5162">
        <ele>149</ele>
        <time>2021-11-11T10:55:09Z</time>
      </trkpt>
      <trkpt lat="50.44531" lon="4.51622">
        <ele>149</ele>
        <time>2021-11-11T10:55:11Z</time>
      </trkpt>
      <trkpt lat="50.44536" lon="4.51623">
        <ele>149</ele>
        <time>2021-11-11T10:55:13Z</time>
      </trkpt>
      <trkpt lat="50.44542" lon="4.51622">
        <ele>156</ele>
        <time>2021-11-11T10:55:15Z</time>
      </trkpt>
      <trkpt lat="50.44548" lon="4.51623">
        <ele>156</ele>
        <time>2021-11-11T10:55:17Z</time>
      </trkpt>
      <trkpt lat="50.44552" lon="4.5162">
        <ele>156</ele>
        <time>2021-11-11T10:55:19Z</time>
      </trkpt>
      <trkpt lat="50.44558" lon="4.51621">
        <ele>156</ele>
        <time>2021-11-11T10:55:21Z</time>
      </trkpt>
      <trkpt lat="50.44562" lon="4.51621">
        <ele>156</ele>
        <time>2021-11-11T10:55:23Z</time>
      </trkpt>
      <trkpt lat="50.44566" lon="4.51622">
        <ele>156</ele>
        <time>2021-11-11T10:55:25Z</time>
      </trkpt>
      <trkpt lat="50.44572" lon="4.5162">
        <ele>160</ele>
        <time>2021-11-11T10:55:27Z</time>
      </trkpt>
      <trkpt lat="50.44575" lon="4.5162">
        <ele>160</ele>
        <time>2021-11-11T10:55:29Z</time>
      </trkpt>
      <trkpt lat="50.44577" lon="4.51619">
        <ele>160</ele>
        <time>2021-11-11T10:55:31Z</time>
      </trkpt>
      <trkpt lat="50.4458" lon="4.51616">
        <ele>160</ele>
        <time>2021-11-11T10:55:33Z</time>
      </trkpt>
      <trkpt lat="50.44586" lon="4.51614">
        <ele>160</ele>
        <time>2021-11-11T10:55:35Z</time>
      </trkpt>
      <trkpt lat="50.44591" lon="4.51612">
        <ele>160</ele>
        <time>2021-11-11T10:55:37Z</time>
      </trkpt>
      <trkpt lat="50.44597" lon="4.51612">
        <ele>160</ele>
        <time>2021-11-11T10:55:39Z</time>
      </trkpt>
      <trkpt lat="50.44601" lon="4.51612">
        <ele>164</ele>
        <time>2021-11-11T10:55:41Z</time>
      </trkpt>
      <trkpt lat="50.44604" lon="4.51611">
        <ele>164</ele>
        <time>2021-11-11T10:55:43Z</time>
      </trkpt>
      <trkpt lat="50.44609" lon="4.51612">
        <ele>164</ele>
        <time>2021-11-11T10:55:45Z</time>
      </trkpt>
      <trkpt lat="50.44613" lon="4.51612">
        <ele>164</ele>
        <time>2021-11-11T10:55:47Z</time>
      </trkpt>
      <trkpt lat="50.44616" lon="4.51613">
        <ele>164</ele>
        <time>2021-11-11T10:55:49Z</time>
      </trkpt>
      <trkpt lat="50.44621" lon="4.51613">
        <ele>164</ele>
        <time>2021-11-11T10:55:51Z</time>
      </trkpt>
      <trkpt lat="50.44624" lon="4.51612">
        <ele>164</ele>
        <time>2021-11-11T10:55:53Z</time>
      </trkpt>
      <trkpt lat="50.4463" lon="4.51611">
        <ele>168</ele>
        <time>2021-11-11T10:55:55Z</time>
      </trkpt>
      <trkpt lat="50.44634" lon="4.51611">
        <ele>168</ele>
        <time>2021-11-11T10:55:57Z</time>
      </trkpt>
      <trkpt lat="50.4464" lon="4.51609">
        <ele>168</ele>
        <time>2021-11-11T10:55:59Z</time>
      </trkpt>
      <trkpt lat="50.44645" lon="4.51606">
        <ele>168</ele>
        <time>2021-11-11T10:56:01Z</time>
      </trkpt>
      <trkpt lat="50.44651" lon="4.51605">
        <ele>168</ele>
        <time>2021-11-11T10:56:03Z</time>
      </trkpt>
      <trkpt lat="50.44654" lon="4.51606">
        <ele>167</ele>
        <time>2021-11-11T10:56:05Z</time>
      </trkpt>
      <trkpt lat="50.44657" lon="4.51608">
        <ele>167</ele>
        <time>2021-11-11T10:56:07Z</time>
      </trkpt>
      <trkpt lat="50.44661" lon="4.51607">
        <ele>167</ele>
        <time>2021-11-11T10:56:09Z</time>
      </trkpt>
      <trkpt lat="50.44664" lon="4.51607">
        <ele>167</ele>
        <time>2021-11-11T10:56:11Z</time>
      </trkpt>
      <trkpt lat="50.44668" lon="4.51607">
        <ele>167</ele>
        <time>2021-11-11T10:56:13Z</time>
      </trkpt>
      <trkpt lat="50.44674" lon="4.51607">
        <ele>167</ele>
        <time>2021-11-11T10:56:15Z</time>
      </trkpt>
      <trkpt lat="50.44679" lon="4.51607">
        <ele>167</ele>
        <time>2021-11-11T10:56:17Z</time>
      </trkpt>
      <trkpt lat="50.44685" lon="4.51606">
        <ele>167</ele>
        <time>2021-11-11T10:56:19Z</time>
      </trkpt>
      <trkpt lat="50.44688" lon="4.51605">
        <ele>167</ele>
        <time>2021-11-11T10:56:21Z</time>
      </trkpt>
      <trkpt lat="50.44692" lon="4.51605">
        <ele>167</ele>
        <time>2021-11-11T10:56:23Z</time>
      </trkpt>
      <trkpt lat="50.44696" lon="4.51606">
        <ele>167</ele>
        <time>2021-11-11T10:56:25Z</time>
      </trkpt>
      <trkpt lat="50.44702" lon="4.51608">
        <ele>167</ele>
        <time>2021-11-11T10:56:28Z</time>
      </trkpt>
      <trkpt lat="50.44707" lon="4.51611">
        <ele>167</ele>
        <time>2021-11-11T10:56:30Z</time>
      </trkpt>
      <trkpt lat="50.44711" lon="4.51615">
        <ele>170</ele>
        <time>2021-11-11T10:56:32Z</time>
      </trkpt>
      <trkpt lat="50.44717" lon="4.51623">
        <ele>170</ele>
        <time>2021-11-11T10:56:34Z</time>
      </trkpt>
      <trkpt lat="50.44722" lon="4.51628">
        <ele>168</ele>
        <time>2021-11-11T10:56:36Z</time>
      </trkpt>
      <trkpt lat="50.44727" lon="4.51634">
        <ele>168</ele>
        <time>2021-11-11T10:56:38Z</time>
      </trkpt>
      <trkpt lat="50.44731" lon="4.5164">
        <ele>168</ele>
        <time>2021-11-11T10:56:40Z</time>
      </trkpt>
      <trkpt lat="50.44736" lon="4.51644">
        <ele>168</ele>
        <time>2021-11-11T10:56:42Z</time>
      </trkpt>
      <trkpt lat="50.4474" lon="4.51648">
        <ele>169</ele>
        <time>2021-11-11T10:56:44Z</time>
      </trkpt>
      <trkpt lat="50.44746" lon="4.51654">
        <ele>170</ele>
        <time>2021-11-11T10:56:46Z</time>
      </trkpt>
      <trkpt lat="50.4475" lon="4.51661">
        <ele>170</ele>
        <time>2021-11-11T10:56:48Z</time>
      </trkpt>
      <trkpt lat="50.44755" lon="4.51668">
        <ele>170</ele>
        <time>2021-11-11T10:56:50Z</time>
      </trkpt>
      <trkpt lat="50.44759" lon="4.51674">
        <ele>170</ele>
        <time>2021-11-11T10:56:52Z</time>
      </trkpt>
      <trkpt lat="50.44763" lon="4.51679">
        <ele>170</ele>
        <time>2021-11-11T10:56:54Z</time>
      </trkpt>
      <trkpt lat="50.44767" lon="4.51685">
        <ele>166</ele>
        <time>2021-11-11T10:56:56Z</time>
      </trkpt>
      <trkpt lat="50.44772" lon="4.5169">
        <ele>166</ele>
        <time>2021-11-11T10:56:58Z</time>
      </trkpt>
      <trkpt lat="50.44778" lon="4.51695">
        <ele>166</ele>
        <time>2021-11-11T10:57:00Z</time>
      </trkpt>
      <trkpt lat="50.44783" lon="4.51702">
        <ele>166</ele>
        <time>2021-11-11T10:57:02Z</time>
      </trkpt>
      <trkpt lat="50.44787" lon="4.51707">
        <ele>166</ele>
        <time>2021-11-11T10:57:04Z</time>
      </trkpt>
      <trkpt lat="50.44792" lon="4.51713">
        <ele>159</ele>
        <time>2021-11-11T10:57:06Z</time>
      </trkpt>
      <trkpt lat="50.44796" lon="4.51717">
        <ele>159</ele>
        <time>2021-11-11T10:57:08Z</time>
      </trkpt>
      <trkpt lat="50.448" lon="4.51722">
        <ele>159</ele>
        <time>2021-11-11T10:57:10Z</time>
      </trkpt>
      <trkpt lat="50.44805" lon="4.51729">
        <ele>159</ele>
        <time>2021-11-11T10:57:12Z</time>
      </trkpt>
      <trkpt lat="50.44811" lon="4.51734">
        <ele>159</ele>
        <time>2021-11-11T10:57:14Z</time>
      </trkpt>
      <trkpt lat="50.44815" lon="4.5174">
        <ele>159</ele>
        <time>2021-11-11T10:57:16Z</time>
      </trkpt>
      <trkpt lat="50.44822" lon="4.51747">
        <ele>161</ele>
        <time>2021-11-11T10:57:18Z</time>
      </trkpt>
      <trkpt lat="50.44828" lon="4.51755">
        <ele>161</ele>
        <time>2021-11-11T10:57:20Z</time>
      </trkpt>
      <trkpt lat="50.44835" lon="4.51763">
        <ele>161</ele>
        <time>2021-11-11T10:57:22Z</time>
      </trkpt>
      <trkpt lat="50.44843" lon="4.51772">
        <ele>158</ele>
        <time>2021-11-11T10:57:24Z</time>
      </trkpt>
      <trkpt lat="50.4485" lon="4.51781">
        <ele>161</ele>
        <time>2021-11-11T10:57:26Z</time>
      </trkpt>
      <trkpt lat="50.44856" lon="4.51789">
        <ele>161</ele>
        <time>2021-11-11T10:57:28Z</time>
      </trkpt>
      <trkpt lat="50.44864" lon="4.51796">
        <ele>161</ele>
        <time>2021-11-11T10:57:30Z</time>
      </trkpt>
      <trkpt lat="50.4487" lon="4.51804">
        <ele>161</ele>
        <time>2021-11-11T10:57:32Z</time>
      </trkpt>
      <trkpt lat="50.44877" lon="4.51812">
        <ele>165</ele>
        <time>2021-11-11T10:57:34Z</time>
      </trkpt>
      <trkpt lat="50.44883" lon="4.51822">
        <ele>165</ele>
        <time>2021-11-11T10:57:36Z</time>
      </trkpt>
      <trkpt lat="50.4489" lon="4.51831">
        <ele>165</ele>
        <time>2021-11-11T10:57:38Z</time>
      </trkpt>
      <trkpt lat="50.44896" lon="4.51839">
        <ele>165</ele>
        <time>2021-11-11T10:57:40Z</time>
      </trkpt>
      <trkpt lat="50.44902" lon="4.51847">
        <ele>165</ele>
        <time>2021-11-11T10:57:42Z</time>
      </trkpt>
      <trkpt lat="50.44909" lon="4.51856">
        <ele>168</ele>
        <time>2021-11-11T10:57:44Z</time>
      </trkpt>
      <trkpt lat="50.44916" lon="4.51865">
        <ele>168</ele>
        <time>2021-11-11T10:57:46Z</time>
      </trkpt>
      <trkpt lat="50.44922" lon="4.51874">
        <ele>168</ele>
        <time>2021-11-11T10:57:48Z</time>
      </trkpt>
      <trkpt lat="50.44929" lon="4.51882">
        <ele>169</ele>
        <time>2021-11-11T10:57:50Z</time>
      </trkpt>
      <trkpt lat="50.44934" lon="4.5189">
        <ele>171</ele>
        <time>2021-11-11T10:57:52Z</time>
      </trkpt>
      <trkpt lat="50.4494" lon="4.51899">
        <ele>171</ele>
        <time>2021-11-11T10:57:54Z</time>
      </trkpt>
      <trkpt lat="50.44945" lon="4.51908">
        <ele>171</ele>
        <time>2021-11-11T10:57:56Z</time>
      </trkpt>
      <trkpt lat="50.44954" lon="4.51913">
        <ele>171</ele>
        <time>2021-11-11T10:57:58Z</time>
      </trkpt>
      <trkpt lat="50.44963" lon="4.51915">
        <ele>173</ele>
        <time>2021-11-11T10:58:00Z</time>
      </trkpt>
      <trkpt lat="50.44971" lon="4.51919">
        <ele>173</ele>
        <time>2021-11-11T10:58:02Z</time>
      </trkpt>
      <trkpt lat="50.44977" lon="4.51924">
        <ele>173</ele>
        <time>2021-11-11T10:58:04Z</time>
      </trkpt>
      <trkpt lat="50.44983" lon="4.51934">
        <ele>171</ele>
        <time>2021-11-11T10:58:06Z</time>
      </trkpt>
      <trkpt lat="50.44988" lon="4.51942">
        <ele>173</ele>
        <time>2021-11-11T10:58:08Z</time>
      </trkpt>
      <trkpt lat="50.44993" lon="4.5195">
        <ele>173</ele>
        <time>2021-11-11T10:58:10Z</time>
      </trkpt>
      <trkpt lat="50.44997" lon="4.51958">
        <ele>173</ele>
        <time>2021-11-11T10:58:12Z</time>
      </trkpt>
      <trkpt lat="50.45006" lon="4.51973">
        <ele>172</ele>
        <time>2021-11-11T10:58:15Z</time>
      </trkpt>
      <trkpt lat="50.45012" lon="4.51984">
        <ele>172</ele>
        <time>2021-11-11T10:58:17Z</time>
      </trkpt>
      <trkpt lat="50.4502" lon="4.51994">
        <ele>174</ele>
        <time>2021-11-11T10:58:19Z</time>
      </trkpt>
      <trkpt lat="50.45026" lon="4.52002">
        <ele>174</ele>
        <time>2021-11-11T10:58:21Z</time>
      </trkpt>
      <trkpt lat="50.45033" lon="4.52012">
        <ele>174</ele>
        <time>2021-11-11T10:58:23Z</time>
      </trkpt>
      <trkpt lat="50.4504" lon="4.52023">
        <ele>172</ele>
        <time>2021-11-11T10:58:25Z</time>
      </trkpt>
      <trkpt lat="50.4505" lon="4.52034">
        <ele>174</ele>
        <time>2021-11-11T10:58:27Z</time>
      </trkpt>
      <trkpt lat="50.45059" lon="4.52045">
        <ele>173</ele>
        <time>2021-11-11T10:58:29Z</time>
      </trkpt>
      <trkpt lat="50.45067" lon="4.52053">
        <ele>173</ele>
        <time>2021-11-11T10:58:31Z</time>
      </trkpt>
      <trkpt lat="50.45076" lon="4.52063">
        <ele>174</ele>
        <time>2021-11-11T10:58:33Z</time>
      </trkpt>
      <trkpt lat="50.45083" lon="4.5207">
        <ele>174</ele>
        <time>2021-11-11T10:58:35Z</time>
      </trkpt>
      <trkpt lat="50.45091" lon="4.52078">
        <ele>174</ele>
        <time>2021-11-11T10:58:37Z</time>
      </trkpt>
      <trkpt lat="50.45099" lon="4.5209">
        <ele>176</ele>
        <time>2021-11-11T10:58:39Z</time>
      </trkpt>
      <trkpt lat="50.45107" lon="4.52101">
        <ele>174</ele>
        <time>2021-11-11T10:58:41Z</time>
      </trkpt>
      <trkpt lat="50.45114" lon="4.52111">
        <ele>174</ele>
        <time>2021-11-11T10:58:43Z</time>
      </trkpt>
      <trkpt lat="50.45122" lon="4.52121">
        <ele>174</ele>
        <time>2021-11-11T10:58:45Z</time>
      </trkpt>
      <trkpt lat="50.4513" lon="4.5213">
        <ele>176</ele>
        <time>2021-11-11T10:58:47Z</time>
      </trkpt>
      <trkpt lat="50.45137" lon="4.52139">
        <ele>176</ele>
        <time>2021-11-11T10:58:49Z</time>
      </trkpt>
      <trkpt lat="50.45146" lon="4.52147">
        <ele>176</ele>
        <time>2021-11-11T10:58:51Z</time>
      </trkpt>
      <trkpt lat="50.45154" lon="4.52156">
        <ele>177</ele>
        <time>2021-11-11T10:58:53Z</time>
      </trkpt>
      <trkpt lat="50.45161" lon="4.52164">
        <ele>177</ele>
        <time>2021-11-11T10:58:55Z</time>
      </trkpt>
      <trkpt lat="50.45166" lon="4.52171">
        <ele>177</ele>
        <time>2021-11-11T10:58:57Z</time>
      </trkpt>
      <trkpt lat="50.45171" lon="4.52178">
        <ele>177</ele>
        <time>2021-11-11T10:58:59Z</time>
      </trkpt>
      <trkpt lat="50.45175" lon="4.52181">
        <ele>177</ele>
        <time>2021-11-11T10:59:01Z</time>
      </trkpt>
      <trkpt lat="50.45181" lon="4.52191">
        <ele>177</ele>
        <time>2021-11-11T10:59:03Z</time>
      </trkpt>
      <trkpt lat="50.45186" lon="4.52199">
        <ele>177</ele>
        <time>2021-11-11T10:59:05Z</time>
      </trkpt>
      <trkpt lat="50.45191" lon="4.52205">
        <ele>177</ele>
        <time>2021-11-11T10:59:07Z</time>
      </trkpt>
      <trkpt lat="50.45197" lon="4.52211">
        <ele>177</ele>
        <time>2021-11-11T10:59:09Z</time>
      </trkpt>
      <trkpt lat="50.45204" lon="4.52218">
        <ele>177</ele>
        <time>2021-11-11T10:59:11Z</time>
      </trkpt>
      <trkpt lat="50.45211" lon="4.52222">
        <ele>179</ele>
        <time>2021-11-11T10:59:13Z</time>
      </trkpt>
      <trkpt lat="50.45218" lon="4.52227">
        <ele>179</ele>
        <time>2021-11-11T10:59:15Z</time>
      </trkpt>
      <trkpt lat="50.45223" lon="4.5223">
        <ele>179</ele>
        <time>2021-11-11T10:59:17Z</time>
      </trkpt>
      <trkpt lat="50.45228" lon="4.52233">
        <ele>179</ele>
        <time>2021-11-11T10:59:19Z</time>
      </trkpt>
      <trkpt lat="50.45232" lon="4.52228">
        <ele>179</ele>
        <time>2021-11-11T10:59:21Z</time>
      </trkpt>
      <trkpt lat="50.45235" lon="4.52222">
        <ele>179</ele>
        <time>2021-11-11T10:59:23Z</time>
      </trkpt>
      <trkpt lat="50.45239" lon="4.5222">
        <ele>178</ele>
        <time>2021-11-11T10:59:25Z</time>
      </trkpt>
      <trkpt lat="50.45243" lon="4.52221">
        <ele>178</ele>
        <time>2021-11-11T10:59:27Z</time>
      </trkpt>
      <trkpt lat="50.45246" lon="4.52222">
        <ele>178</ele>
        <time>2021-11-11T10:59:29Z</time>
      </trkpt>
      <trkpt lat="50.45248" lon="4.52225">
        <ele>178</ele>
        <time>2021-11-11T10:59:31Z</time>
      </trkpt>
      <trkpt lat="50.45258" lon="4.5223">
        <ele>178</ele>
        <time>2021-11-11T11:05:34Z</time>
      </trkpt>
      <trkpt lat="50.45263" lon="4.52226">
        <ele>178</ele>
        <time>2021-11-11T11:05:36Z</time>
      </trkpt>
      <trkpt lat="50.45273" lon="4.52219">
        <ele>175</ele>
        <time>2021-11-11T11:05:38Z</time>
      </trkpt>
      <trkpt lat="50.45275" lon="4.52214">
        <ele>175</ele>
        <time>2021-11-11T11:05:40Z</time>
      </trkpt>
      <trkpt lat="50.45278" lon="4.52209">
        <ele>175</ele>
        <time>2021-11-11T11:05:42Z</time>
      </trkpt>
      <trkpt lat="50.45282" lon="4.52205">
        <ele>176</ele>
        <time>2021-11-11T11:05:44Z</time>
      </trkpt>
      <trkpt lat="50.45285" lon="4.52199">
        <ele>176</ele>
        <time>2021-11-11T11:05:46Z</time>
      </trkpt>
      <trkpt lat="50.45288" lon="4.52191">
        <ele>176</ele>
        <time>2021-11-11T11:05:48Z</time>
      </trkpt>
      <trkpt lat="50.45291" lon="4.52185">
        <ele>176</ele>
        <time>2021-11-11T11:05:50Z</time>
      </trkpt>
      <trkpt lat="50.45295" lon="4.52173">
        <ele>174</ele>
        <time>2021-11-11T11:05:52Z</time>
      </trkpt>
      <trkpt lat="50.453" lon="4.52161">
        <ele>174</ele>
        <time>2021-11-11T11:05:54Z</time>
      </trkpt>
      <trkpt lat="50.45308" lon="4.52146">
        <ele>174</ele>
        <time>2021-11-11T11:05:56Z</time>
      </trkpt>
      <trkpt lat="50.45314" lon="4.52133">
        <ele>174</ele>
        <time>2021-11-11T11:05:58Z</time>
      </trkpt>
      <trkpt lat="50.45319" lon="4.52121">
        <ele>174</ele>
        <time>2021-11-11T11:06:00Z</time>
      </trkpt>
      <trkpt lat="50.45324" lon="4.52115">
        <ele>174</ele>
        <time>2021-11-11T11:06:02Z</time>
      </trkpt>
      <trkpt lat="50.45328" lon="4.52108">
        <ele>174</ele>
        <time>2021-11-11T11:06:04Z</time>
      </trkpt>
      <trkpt lat="50.45334" lon="4.52101">
        <ele>174</ele>
        <time>2021-11-11T11:06:06Z</time>
      </trkpt>
      <trkpt lat="50.45338" lon="4.52093">
        <ele>174</ele>
        <time>2021-11-11T11:06:08Z</time>
      </trkpt>
      <trkpt lat="50.45343" lon="4.52088">
        <ele>174</ele>
        <time>2021-11-11T11:06:10Z</time>
      </trkpt>
      <trkpt lat="50.45348" lon="4.5208">
        <ele>174</ele>
        <time>2021-11-11T11:06:12Z</time>
      </trkpt>
      <trkpt lat="50.45353" lon="4.52068">
        <ele>173</ele>
        <time>2021-11-11T11:06:14Z</time>
      </trkpt>
      <trkpt lat="50.45358" lon="4.52055">
        <ele>173</ele>
        <time>2021-11-11T11:06:16Z</time>
      </trkpt>
      <trkpt lat="50.4536" lon="4.52041">
        <ele>171</ele>
        <time>2021-11-11T11:06:18Z</time>
      </trkpt>
      <trkpt lat="50.4536" lon="4.5203">
        <ele>171</ele>
        <time>2021-11-11T11:06:20Z</time>
      </trkpt>
      <trkpt lat="50.4536" lon="4.5202">
        <ele>171</ele>
        <time>2021-11-11T11:06:22Z</time>
      </trkpt>
      <trkpt lat="50.45363" lon="4.52007">
        <ele>171</ele>
        <time>2021-11-11T11:06:24Z</time>
      </trkpt>
      <trkpt lat="50.45365" lon="4.51993">
        <ele>171</ele>
        <time>2021-11-11T11:06:26Z</time>
      </trkpt>
      <trkpt lat="50.45368" lon="4.51977">
        <ele>169</ele>
        <time>2021-11-11T11:06:28Z</time>
      </trkpt>
      <trkpt lat="50.45368" lon="4.51963">
        <ele>169</ele>
        <time>2021-11-11T11:06:30Z</time>
      </trkpt>
      <trkpt lat="50.45367" lon="4.51954">
        <ele>170</ele>
        <time>2021-11-11T11:06:32Z</time>
      </trkpt>
      <trkpt lat="50.45368" lon="4.51945">
        <ele>170</ele>
        <time>2021-11-11T11:06:34Z</time>
      </trkpt>
      <trkpt lat="50.4537" lon="4.51937">
        <ele>170</ele>
        <time>2021-11-11T11:06:36Z</time>
      </trkpt>
      <trkpt lat="50.45372" lon="4.5193">
        <ele>169</ele>
        <time>2021-11-11T11:06:38Z</time>
      </trkpt>
      <trkpt lat="50.45374" lon="4.51923">
        <ele>169</ele>
        <time>2021-11-11T11:06:40Z</time>
      </trkpt>
      <trkpt lat="50.45376" lon="4.51918">
        <ele>169</ele>
        <time>2021-11-11T11:06:42Z</time>
      </trkpt>
      <trkpt lat="50.45377" lon="4.51912">
        <ele>169</ele>
        <time>2021-11-11T11:06:44Z</time>
      </trkpt>
      <trkpt lat="50.45379" lon="4.51907">
        <ele>169</ele>
        <time>2021-11-11T11:06:46Z</time>
      </trkpt>
      <trkpt lat="50.45379" lon="4.51902">
        <ele>168</ele>
        <time>2021-11-11T11:06:48Z</time>
      </trkpt>
      <trkpt lat="50.45381" lon="4.519">
        <ele>168</ele>
        <time>2021-11-11T11:06:50Z</time>
      </trkpt>
      <trkpt lat="50.45386" lon="4.51902">
        <ele>168</ele>
        <time>2021-11-11T11:06:56Z</time>
      </trkpt>
      <trkpt lat="50.45387" lon="4.51903">
        <ele>168</ele>
        <time>2021-11-11T11:06:58Z</time>
      </trkpt>
      <trkpt lat="50.4539" lon="4.51902">
        <ele>168</ele>
        <time>2021-11-11T11:07:00Z</time>
      </trkpt>
      <trkpt lat="50.45394" lon="4.51903">
        <ele>169</ele>
        <time>2021-11-11T11:07:02Z</time>
      </trkpt>
      <trkpt lat="50.45398" lon="4.51907">
        <ele>169</ele>
        <time>2021-11-11T11:07:04Z</time>
      </trkpt>
      <trkpt lat="50.454" lon="4.51913">
        <ele>169</ele>
        <time>2021-11-11T11:07:06Z</time>
      </trkpt>
      <trkpt lat="50.45404" lon="4.51917">
        <ele>171</ele>
        <time>2021-11-11T11:07:08Z</time>
      </trkpt>
      <trkpt lat="50.45408" lon="4.5192">
        <ele>171</ele>
        <time>2021-11-11T11:07:10Z</time>
      </trkpt>
      <trkpt lat="50.4541" lon="4.5192">
        <ele>171</ele>
        <time>2021-11-11T11:07:12Z</time>
      </trkpt>
      <trkpt lat="50.45412" lon="4.51922">
        <ele>171</ele>
        <time>2021-11-11T11:07:14Z</time>
      </trkpt>
      <trkpt lat="50.45414" lon="4.51926">
        <ele>171</ele>
        <time>2021-11-11T11:07:16Z</time>
      </trkpt>
      <trkpt lat="50.45417" lon="4.51932">
        <ele>170</ele>
        <time>2021-11-11T11:07:18Z</time>
      </trkpt>
      <trkpt lat="50.45421" lon="4.51939">
        <ele>170</ele>
        <time>2021-11-11T11:07:20Z</time>
      </trkpt>
      <trkpt lat="50.45425" lon="4.51946">
        <ele>170</ele>
        <time>2021-11-11T11:07:22Z</time>
      </trkpt>
      <trkpt lat="50.45429" lon="4.51952">
        <ele>170</ele>
        <time>2021-11-11T11:07:24Z</time>
      </trkpt>
      <trkpt lat="50.45432" lon="4.51956">
        <ele>174</ele>
        <time>2021-11-11T11:07:26Z</time>
      </trkpt>
      <trkpt lat="50.45438" lon="4.51961">
        <ele>173</ele>
        <time>2021-11-11T11:07:28Z</time>
      </trkpt>
      <trkpt lat="50.45443" lon="4.51962">
        <ele>173</ele>
        <time>2021-11-11T11:07:30Z</time>
      </trkpt>
      <trkpt lat="50.45448" lon="4.51962">
        <ele>173</ele>
        <time>2021-11-11T11:07:32Z</time>
      </trkpt>
      <trkpt lat="50.45452" lon="4.5196">
        <ele>173</ele>
        <time>2021-11-11T11:07:34Z</time>
      </trkpt>
      <trkpt lat="50.45456" lon="4.51959">
        <ele>173</ele>
        <time>2021-11-11T11:07:36Z</time>
      </trkpt>
      <trkpt lat="50.4546" lon="4.51958">
        <ele>178</ele>
        <time>2021-11-11T11:07:38Z</time>
      </trkpt>
      <trkpt lat="50.45464" lon="4.51955">
        <ele>178</ele>
        <time>2021-11-11T11:07:40Z</time>
      </trkpt>
      <trkpt lat="50.45468" lon="4.51953">
        <ele>178</ele>
        <time>2021-11-11T11:07:42Z</time>
      </trkpt>
      <trkpt lat="50.45472" lon="4.5195">
        <ele>178</ele>
        <time>2021-11-11T11:07:44Z</time>
      </trkpt>
      <trkpt lat="50.45475" lon="4.51947">
        <ele>178</ele>
        <time>2021-11-11T11:07:46Z</time>
      </trkpt>
      <trkpt lat="50.45478" lon="4.51944">
        <ele>178</ele>
        <time>2021-11-11T11:07:48Z</time>
      </trkpt>
      <trkpt lat="50.45482" lon="4.5194">
        <ele>178</ele>
        <time>2021-11-11T11:07:50Z</time>
      </trkpt>
      <trkpt lat="50.45487" lon="4.51935">
        <ele>178</ele>
        <time>2021-11-11T11:07:52Z</time>
      </trkpt>
      <trkpt lat="50.45491" lon="4.51929">
        <ele>179</ele>
        <time>2021-11-11T11:07:54Z</time>
      </trkpt>
      <trkpt lat="50.45496" lon="4.51925">
        <ele>179</ele>
        <time>2021-11-11T11:07:56Z</time>
      </trkpt>
      <trkpt lat="50.45501" lon="4.51921">
        <ele>179</ele>
        <time>2021-11-11T11:07:58Z</time>
      </trkpt>
      <trkpt lat="50.45506" lon="4.51917">
        <ele>179</ele>
        <time>2021-11-11T11:08:00Z</time>
      </trkpt>
      <trkpt lat="50.45511" lon="4.51913">
        <ele>179</ele>
        <time>2021-11-11T11:08:02Z</time>
      </trkpt>
      <trkpt lat="50.45515" lon="4.5191">
        <ele>180</ele>
        <time>2021-11-11T11:08:04Z</time>
      </trkpt>
      <trkpt lat="50.45519" lon="4.51906">
        <ele>180</ele>
        <time>2021-11-11T11:08:06Z</time>
      </trkpt>
      <trkpt lat="50.45522" lon="4.51903">
        <ele>179</ele>
        <time>2021-11-11T11:08:08Z</time>
      </trkpt>
      <trkpt lat="50.45524" lon="4.51896">
        <ele>179</ele>
        <time>2021-11-11T11:08:10Z</time>
      </trkpt>
      <trkpt lat="50.45529" lon="4.51892">
        <ele>179</ele>
        <time>2021-11-11T11:08:12Z</time>
      </trkpt>
      <trkpt lat="50.45533" lon="4.5189">
        <ele>179</ele>
        <time>2021-11-11T11:08:14Z</time>
      </trkpt>
      <trkpt lat="50.45539" lon="4.51885">
        <ele>179</ele>
        <time>2021-11-11T11:08:16Z</time>
      </trkpt>
      <trkpt lat="50.45543" lon="4.51881">
        <ele>180</ele>
        <time>2021-11-11T11:08:18Z</time>
      </trkpt>
      <trkpt lat="50.45548" lon="4.51875">
        <ele>180</ele>
        <time>2021-11-11T11:08:20Z</time>
      </trkpt>
      <trkpt lat="50.45554" lon="4.5187">
        <ele>181</ele>
        <time>2021-11-11T11:08:22Z</time>
      </trkpt>
      <trkpt lat="50.45558" lon="4.51866">
        <ele>181</ele>
        <time>2021-11-11T11:08:24Z</time>
      </trkpt>
      <trkpt lat="50.45562" lon="4.51865">
        <ele>181</ele>
        <time>2021-11-11T11:08:26Z</time>
      </trkpt>
      <trkpt lat="50.45569" lon="4.51864">
        <ele>181</ele>
        <time>2021-11-11T11:08:28Z</time>
      </trkpt>
      <trkpt lat="50.45573" lon="4.51863">
        <ele>179</ele>
        <time>2021-11-11T11:08:30Z</time>
      </trkpt>
      <trkpt lat="50.45579" lon="4.51863">
        <ele>179</ele>
        <time>2021-11-11T11:08:32Z</time>
      </trkpt>
      <trkpt lat="50.45586" lon="4.51863">
        <ele>179</ele>
        <time>2021-11-11T11:08:34Z</time>
      </trkpt>
      <trkpt lat="50.45593" lon="4.51864">
        <ele>179</ele>
        <time>2021-11-11T11:08:36Z</time>
      </trkpt>
      <trkpt lat="50.456" lon="4.51863">
        <ele>178</ele>
        <time>2021-11-11T11:08:38Z</time>
      </trkpt>
      <trkpt lat="50.45606" lon="4.51861">
        <ele>178</ele>
        <time>2021-11-11T11:08:40Z</time>
      </trkpt>
      <trkpt lat="50.45612" lon="4.5186">
        <ele>178</ele>
        <time>2021-11-11T11:08:42Z</time>
      </trkpt>
      <trkpt lat="50.45617" lon="4.51863">
        <ele>178</ele>
        <time>2021-11-11T11:08:44Z</time>
      </trkpt>
      <trkpt lat="50.4562" lon="4.51873">
        <ele>178</ele>
        <time>2021-11-11T11:08:46Z</time>
      </trkpt>
      <trkpt lat="50.45623" lon="4.51882">
        <ele>177</ele>
        <time>2021-11-11T11:08:48Z</time>
      </trkpt>
      <trkpt lat="50.45625" lon="4.51892">
        <ele>175</ele>
        <time>2021-11-11T11:08:50Z</time>
      </trkpt>
      <trkpt lat="50.45628" lon="4.51898">
        <ele>175</ele>
        <time>2021-11-11T11:08:52Z</time>
      </trkpt>
      <trkpt lat="50.45631" lon="4.51898">
        <ele>175</ele>
        <time>2021-11-11T11:08:54Z</time>
      </trkpt>
      <trkpt lat="50.45635" lon="4.51898">
        <ele>175</ele>
        <time>2021-11-11T11:08:56Z</time>
      </trkpt>
      <trkpt lat="50.45641" lon="4.51898">
        <ele>175</ele>
        <time>2021-11-11T11:08:58Z</time>
      </trkpt>
      <trkpt lat="50.45646" lon="4.51898">
        <ele>175</ele>
        <time>2021-11-11T11:09:00Z</time>
      </trkpt>
      <trkpt lat="50.45652" lon="4.51898">
        <ele>175</ele>
        <time>2021-11-11T11:09:02Z</time>
      </trkpt>
      <trkpt lat="50.45659" lon="4.51896">
        <ele>175</ele>
        <time>2021-11-11T11:09:04Z</time>
      </trkpt>
      <trkpt lat="50.45663" lon="4.51893">
        <ele>175</ele>
        <time>2021-11-11T11:09:06Z</time>
      </trkpt>
      <trkpt lat="50.45665" lon="4.51893">
        <ele>175</ele>
        <time>2021-11-11T11:09:08Z</time>
      </trkpt>
      <trkpt lat="50.45667" lon="4.51898">
        <ele>175</ele>
        <time>2021-11-11T11:09:10Z</time>
      </trkpt>
      <trkpt lat="50.45669" lon="4.51904">
        <ele>176</ele>
        <time>2021-11-11T11:09:12Z</time>
      </trkpt>
      <trkpt lat="50.45669" lon="4.51911">
        <ele>176</ele>
        <time>2021-11-11T11:09:14Z</time>
      </trkpt>
      <trkpt lat="50.45669" lon="4.51916">
        <ele>176</ele>
        <time>2021-11-11T11:09:16Z</time>
      </trkpt>
      <trkpt lat="50.4567" lon="4.51926">
        <ele>176</ele>
        <time>2021-11-11T11:09:18Z</time>
      </trkpt>
      <trkpt lat="50.45672" lon="4.51937">
        <ele>176</ele>
        <time>2021-11-11T11:09:20Z</time>
      </trkpt>
      <trkpt lat="50.45673" lon="4.51947">
        <ele>176</ele>
        <time>2021-11-11T11:09:22Z</time>
      </trkpt>
      <trkpt lat="50.45674" lon="4.51959">
        <ele>175</ele>
        <time>2021-11-11T11:09:24Z</time>
      </trkpt>
      <trkpt lat="50.45676" lon="4.5197">
        <ele>175</ele>
        <time>2021-11-11T11:09:26Z</time>
      </trkpt>
      <trkpt lat="50.45679" lon="4.5198">
        <ele>175</ele>
        <time>2021-11-11T11:09:28Z</time>
      </trkpt>
      <trkpt lat="50.45681" lon="4.51989">
        <ele>174</ele>
        <time>2021-11-11T11:09:30Z</time>
      </trkpt>
      <trkpt lat="50.45684" lon="4.51997">
        <ele>174</ele>
        <time>2021-11-11T11:09:32Z</time>
      </trkpt>
      <trkpt lat="50.45688" lon="4.52005">
        <ele>174</ele>
        <time>2021-11-11T11:09:34Z</time>
      </trkpt>
      <trkpt lat="50.45693" lon="4.52012">
        <ele>174</ele>
        <time>2021-11-11T11:09:36Z</time>
      </trkpt>
      <trkpt lat="50.45701" lon="4.5202">
        <ele>177</ele>
        <time>2021-11-11T11:09:39Z</time>
      </trkpt>
      <trkpt lat="50.45704" lon="4.52024">
        <ele>177</ele>
        <time>2021-11-11T11:09:41Z</time>
      </trkpt>
      <trkpt lat="50.45708" lon="4.5203">
        <ele>177</ele>
        <time>2021-11-11T11:09:43Z</time>
      </trkpt>
      <trkpt lat="50.45712" lon="4.52036">
        <ele>181</ele>
        <time>2021-11-11T11:09:45Z</time>
      </trkpt>
      <trkpt lat="50.45717" lon="4.52041">
        <ele>181</ele>
        <time>2021-11-11T11:09:47Z</time>
      </trkpt>
      <trkpt lat="50.45722" lon="4.52044">
        <ele>178</ele>
        <time>2021-11-11T11:09:49Z</time>
      </trkpt>
      <trkpt lat="50.45727" lon="4.5205">
        <ele>178</ele>
        <time>2021-11-11T11:09:51Z</time>
      </trkpt>
      <trkpt lat="50.45733" lon="4.52055">
        <ele>178</ele>
        <time>2021-11-11T11:09:53Z</time>
      </trkpt>
      <trkpt lat="50.45738" lon="4.5206">
        <ele>182</ele>
        <time>2021-11-11T11:09:55Z</time>
      </trkpt>
      <trkpt lat="50.45746" lon="4.52062">
        <ele>182</ele>
        <time>2021-11-11T11:09:58Z</time>
      </trkpt>
      <trkpt lat="50.45753" lon="4.52063">
        <ele>182</ele>
        <time>2021-11-11T11:10:00Z</time>
      </trkpt>
      <trkpt lat="50.45759" lon="4.52063">
        <ele>182</ele>
        <time>2021-11-11T11:10:02Z</time>
      </trkpt>
      <trkpt lat="50.45766" lon="4.52063">
        <ele>186</ele>
        <time>2021-11-11T11:10:04Z</time>
      </trkpt>
      <trkpt lat="50.45772" lon="4.52064">
        <ele>186</ele>
        <time>2021-11-11T11:10:06Z</time>
      </trkpt>
      <trkpt lat="50.45778" lon="4.52065">
        <ele>186</ele>
        <time>2021-11-11T11:10:08Z</time>
      </trkpt>
      <trkpt lat="50.45785" lon="4.52065">
        <ele>186</ele>
        <time>2021-11-11T11:10:10Z</time>
      </trkpt>
      <trkpt lat="50.45791" lon="4.52065">
        <ele>186</ele>
        <time>2021-11-11T11:10:12Z</time>
      </trkpt>
      <trkpt lat="50.45798" lon="4.52066">
        <ele>185</ele>
        <time>2021-11-11T11:10:14Z</time>
      </trkpt>
      <trkpt lat="50.45804" lon="4.52069">
        <ele>185</ele>
        <time>2021-11-11T11:10:16Z</time>
      </trkpt>
      <trkpt lat="50.45812" lon="4.52074">
        <ele>179</ele>
        <time>2021-11-11T11:10:18Z</time>
      </trkpt>
      <trkpt lat="50.45816" lon="4.52083">
        <ele>179</ele>
        <time>2021-11-11T11:10:20Z</time>
      </trkpt>
      <trkpt lat="50.4582" lon="4.52092">
        <ele>178</ele>
        <time>2021-11-11T11:10:22Z</time>
      </trkpt>
      <trkpt lat="50.45821" lon="4.52102">
        <ele>174</ele>
        <time>2021-11-11T11:10:24Z</time>
      </trkpt>
      <trkpt lat="50.45822" lon="4.52112">
        <ele>174</ele>
        <time>2021-11-11T11:10:26Z</time>
      </trkpt>
      <trkpt lat="50.45826" lon="4.5212">
        <ele>174</ele>
        <time>2021-11-11T11:10:28Z</time>
      </trkpt>
      <trkpt lat="50.45832" lon="4.52125">
        <ele>174</ele>
        <time>2021-11-11T11:10:30Z</time>
      </trkpt>
      <trkpt lat="50.45839" lon="4.52123">
        <ele>174</ele>
        <time>2021-11-11T11:10:32Z</time>
      </trkpt>
      <trkpt lat="50.45847" lon="4.52118">
        <ele>174</ele>
        <time>2021-11-11T11:10:34Z</time>
      </trkpt>
      <trkpt lat="50.45855" lon="4.52115">
        <ele>175</ele>
        <time>2021-11-11T11:10:36Z</time>
      </trkpt>
      <trkpt lat="50.45864" lon="4.52114">
        <ele>175</ele>
        <time>2021-11-11T11:10:38Z</time>
      </trkpt>
      <trkpt lat="50.45872" lon="4.52114">
        <ele>175</ele>
        <time>2021-11-11T11:10:40Z</time>
      </trkpt>
      <trkpt lat="50.45879" lon="4.5211">
        <ele>174</ele>
        <time>2021-11-11T11:10:42Z</time>
      </trkpt>
      <trkpt lat="50.45886" lon="4.52101">
        <ele>174</ele>
        <time>2021-11-11T11:10:44Z</time>
      </trkpt>
      <trkpt lat="50.45893" lon="4.52091">
        <ele>176</ele>
        <time>2021-11-11T11:10:46Z</time>
      </trkpt>
      <trkpt lat="50.459" lon="4.52083">
        <ele>176</ele>
        <time>2021-11-11T11:10:48Z</time>
      </trkpt>
      <trkpt lat="50.45907" lon="4.52074">
        <ele>176</ele>
        <time>2021-11-11T11:10:50Z</time>
      </trkpt>
      <trkpt lat="50.45915" lon="4.52067">
        <ele>176</ele>
        <time>2021-11-11T11:10:52Z</time>
      </trkpt>
      <trkpt lat="50.45922" lon="4.52059">
        <ele>176</ele>
        <time>2021-11-11T11:10:54Z</time>
      </trkpt>
      <trkpt lat="50.45929" lon="4.52051">
        <ele>176</ele>
        <time>2021-11-11T11:10:56Z</time>
      </trkpt>
      <trkpt lat="50.45935" lon="4.52042">
        <ele>178</ele>
        <time>2021-11-11T11:10:58Z</time>
      </trkpt>
      <trkpt lat="50.45942" lon="4.52033">
        <ele>177</ele>
        <time>2021-11-11T11:11:00Z</time>
      </trkpt>
      <trkpt lat="50.45948" lon="4.52024">
        <ele>177</ele>
        <time>2021-11-11T11:11:02Z</time>
      </trkpt>
      <trkpt lat="50.45953" lon="4.52015">
        <ele>177</ele>
        <time>2021-11-11T11:11:04Z</time>
      </trkpt>
      <trkpt lat="50.4596" lon="4.52008">
        <ele>178</ele>
        <time>2021-11-11T11:11:06Z</time>
      </trkpt>
      <trkpt lat="50.45965" lon="4.51999">
        <ele>178</ele>
        <time>2021-11-11T11:11:08Z</time>
      </trkpt>
      <trkpt lat="50.45971" lon="4.51988">
        <ele>178</ele>
        <time>2021-11-11T11:11:10Z</time>
      </trkpt>
      <trkpt lat="50.45977" lon="4.51979">
        <ele>177</ele>
        <time>2021-11-11T11:11:12Z</time>
      </trkpt>
      <trkpt lat="50.45985" lon="4.51971">
        <ele>177</ele>
        <time>2021-11-11T11:11:14Z</time>
      </trkpt>
      <trkpt lat="50.45993" lon="4.51964">
        <ele>177</ele>
        <time>2021-11-11T11:11:16Z</time>
      </trkpt>
      <trkpt lat="50.46001" lon="4.51956">
        <ele>177</ele>
        <time>2021-11-11T11:11:18Z</time>
      </trkpt>
      <trkpt lat="50.46009" lon="4.51947">
        <ele>177</ele>
        <time>2021-11-11T11:11:20Z</time>
      </trkpt>
      <trkpt lat="50.46016" lon="4.51936">
        <ele>177</ele>
        <time>2021-11-11T11:11:22Z</time>
      </trkpt>
      <trkpt lat="50.46029" lon="4.51917">
        <ele>177</ele>
        <time>2021-11-11T11:11:25Z</time>
      </trkpt>
      <trkpt lat="50.46038" lon="4.51907">
        <ele>177</ele>
        <time>2021-11-11T11:11:27Z</time>
      </trkpt>
      <trkpt lat="50.46046" lon="4.51897">
        <ele>178</ele>
        <time>2021-11-11T11:11:29Z</time>
      </trkpt>
      <trkpt lat="50.46053" lon="4.51886">
        <ele>178</ele>
        <time>2021-11-11T11:11:31Z</time>
      </trkpt>
      <trkpt lat="50.46062" lon="4.51876">
        <ele>178</ele>
        <time>2021-11-11T11:11:33Z</time>
      </trkpt>
      <trkpt lat="50.46071" lon="4.5187">
        <ele>180</ele>
        <time>2021-11-11T11:11:35Z</time>
      </trkpt>
      <trkpt lat="50.46079" lon="4.51862">
        <ele>180</ele>
        <time>2021-11-11T11:11:37Z</time>
      </trkpt>
      <trkpt lat="50.46087" lon="4.5185">
        <ele>180</ele>
        <time>2021-11-11T11:11:39Z</time>
      </trkpt>
      <trkpt lat="50.46096" lon="4.5184">
        <ele>183</ele>
        <time>2021-11-11T11:11:41Z</time>
      </trkpt>
      <trkpt lat="50.46105" lon="4.5183">
        <ele>182</ele>
        <time>2021-11-11T11:11:43Z</time>
      </trkpt>
      <trkpt lat="50.46114" lon="4.51819">
        <ele>182</ele>
        <time>2021-11-11T11:11:45Z</time>
      </trkpt>
      <trkpt lat="50.46122" lon="4.51808">
        <ele>182</ele>
        <time>2021-11-11T11:11:47Z</time>
      </trkpt>
      <trkpt lat="50.4613" lon="4.51799">
        <ele>181</ele>
        <time>2021-11-11T11:11:49Z</time>
      </trkpt>
      <trkpt lat="50.46137" lon="4.51789">
        <ele>182</ele>
        <time>2021-11-11T11:11:51Z</time>
      </trkpt>
      <trkpt lat="50.46145" lon="4.51782">
        <ele>182</ele>
        <time>2021-11-11T11:11:53Z</time>
      </trkpt>
      <trkpt lat="50.46151" lon="4.51774">
        <ele>182</ele>
        <time>2021-11-11T11:11:55Z</time>
      </trkpt>
      <trkpt lat="50.46159" lon="4.51765">
        <ele>182</ele>
        <time>2021-11-11T11:11:57Z</time>
      </trkpt>
      <trkpt lat="50.46168" lon="4.51755">
        <ele>182</ele>
        <time>2021-11-11T11:11:59Z</time>
      </trkpt>
      <trkpt lat="50.46176" lon="4.51747">
        <ele>182</ele>
        <time>2021-11-11T11:12:01Z</time>
      </trkpt>
      <trkpt lat="50.46181" lon="4.5174">
        <ele>180</ele>
        <time>2021-11-11T11:12:03Z</time>
      </trkpt>
      <trkpt lat="50.46187" lon="4.51735">
        <ele>181</ele>
        <time>2021-11-11T11:12:05Z</time>
      </trkpt>
      <trkpt lat="50.46192" lon="4.51727">
        <ele>181</ele>
        <time>2021-11-11T11:12:07Z</time>
      </trkpt>
      <trkpt lat="50.46194" lon="4.51718">
        <ele>181</ele>
        <time>2021-11-11T11:12:09Z</time>
      </trkpt>
      <trkpt lat="50.46192" lon="4.51711">
        <ele>181</ele>
        <time>2021-11-11T11:12:11Z</time>
      </trkpt>
      <trkpt lat="50.4619" lon="4.517">
        <ele>180</ele>
        <time>2021-11-11T11:12:13Z</time>
      </trkpt>
      <trkpt lat="50.46188" lon="4.51689">
        <ele>180</ele>
        <time>2021-11-11T11:12:15Z</time>
      </trkpt>
      <trkpt lat="50.46188" lon="4.51679">
        <ele>179</ele>
        <time>2021-11-11T11:12:17Z</time>
      </trkpt>
      <trkpt lat="50.46193" lon="4.51668">
        <ele>179</ele>
        <time>2021-11-11T11:12:19Z</time>
      </trkpt>
      <trkpt lat="50.46199" lon="4.51659">
        <ele>179</ele>
        <time>2021-11-11T11:12:21Z</time>
      </trkpt>
      <trkpt lat="50.46207" lon="4.51653">
        <ele>179</ele>
        <time>2021-11-11T11:12:23Z</time>
      </trkpt>
      <trkpt lat="50.46215" lon="4.5165">
        <ele>179</ele>
        <time>2021-11-11T11:12:25Z</time>
      </trkpt>
      <trkpt lat="50.46222" lon="4.51645">
        <ele>179</ele>
        <time>2021-11-11T11:12:27Z</time>
      </trkpt>
      <trkpt lat="50.46229" lon="4.5164">
        <ele>179</ele>
        <time>2021-11-11T11:12:29Z</time>
      </trkpt>
      <trkpt lat="50.46236" lon="4.51634">
        <ele>179</ele>
        <time>2021-11-11T11:12:31Z</time>
      </trkpt>
      <trkpt lat="50.46244" lon="4.51627">
        <ele>179</ele>
        <time>2021-11-11T11:12:33Z</time>
      </trkpt>
      <trkpt lat="50.46251" lon="4.5162">
        <ele>179</ele>
        <time>2021-11-11T11:12:35Z</time>
      </trkpt>
      <trkpt lat="50.46257" lon="4.51611">
        <ele>179</ele>
        <time>2021-11-11T11:12:37Z</time>
      </trkpt>
      <trkpt lat="50.46265" lon="4.51602">
        <ele>180</ele>
        <time>2021-11-11T11:12:39Z</time>
      </trkpt>
      <trkpt lat="50.46272" lon="4.51591">
        <ele>177</ele>
        <time>2021-11-11T11:12:41Z</time>
      </trkpt>
      <trkpt lat="50.46278" lon="4.5158">
        <ele>177</ele>
        <time>2021-11-11T11:12:43Z</time>
      </trkpt>
      <trkpt lat="50.46284" lon="4.51567">
        <ele>179</ele>
        <time>2021-11-11T11:12:45Z</time>
      </trkpt>
      <trkpt lat="50.46289" lon="4.51553">
        <ele>179</ele>
        <time>2021-11-11T11:12:47Z</time>
      </trkpt>
      <trkpt lat="50.46293" lon="4.5154">
        <ele>176</ele>
        <time>2021-11-11T11:12:49Z</time>
      </trkpt>
      <trkpt lat="50.46298" lon="4.51528">
        <ele>176</ele>
        <time>2021-11-11T11:12:51Z</time>
      </trkpt>
      <trkpt lat="50.46304" lon="4.51517">
        <ele>176</ele>
        <time>2021-11-11T11:12:53Z</time>
      </trkpt>
      <trkpt lat="50.46308" lon="4.51507">
        <ele>178</ele>
        <time>2021-11-11T11:12:55Z</time>
      </trkpt>
      <trkpt lat="50.4631" lon="4.51498">
        <ele>178</ele>
        <time>2021-11-11T11:12:57Z</time>
      </trkpt>
      <trkpt lat="50.4631" lon="4.51485">
        <ele>175</ele>
        <time>2021-11-11T11:12:59Z</time>
      </trkpt>
      <trkpt lat="50.46309" lon="4.51471">
        <ele>175</ele>
        <time>2021-11-11T11:13:01Z</time>
      </trkpt>
      <trkpt lat="50.46306" lon="4.51458">
        <ele>176</ele>
        <time>2021-11-11T11:13:03Z</time>
      </trkpt>
      <trkpt lat="50.46303" lon="4.51445">
        <ele>176</ele>
        <time>2021-11-11T11:13:05Z</time>
      </trkpt>
      <trkpt lat="50.463" lon="4.51433">
        <ele>176</ele>
        <time>2021-11-11T11:13:07Z</time>
      </trkpt>
      <trkpt lat="50.46298" lon="4.51421">
        <ele>174</ele>
        <time>2021-11-11T11:13:09Z</time>
      </trkpt>
      <trkpt lat="50.46295" lon="4.51408">
        <ele>174</ele>
        <time>2021-11-11T11:13:11Z</time>
      </trkpt>
      <trkpt lat="50.46292" lon="4.51395">
        <ele>174</ele>
        <time>2021-11-11T11:13:13Z</time>
      </trkpt>
      <trkpt lat="50.46289" lon="4.51382">
        <ele>173</ele>
        <time>2021-11-11T11:13:15Z</time>
      </trkpt>
      <trkpt lat="50.46285" lon="4.51369">
        <ele>173</ele>
        <time>2021-11-11T11:13:17Z</time>
      </trkpt>
      <trkpt lat="50.46283" lon="4.51356">
        <ele>173</ele>
        <time>2021-11-11T11:13:19Z</time>
      </trkpt>
      <trkpt lat="50.4628" lon="4.51342">
        <ele>172</ele>
        <time>2021-11-11T11:13:21Z</time>
      </trkpt>
      <trkpt lat="50.46277" lon="4.51329">
        <ele>172</ele>
        <time>2021-11-11T11:13:23Z</time>
      </trkpt>
      <trkpt lat="50.46274" lon="4.51315">
        <ele>173</ele>
        <time>2021-11-11T11:13:25Z</time>
      </trkpt>
      <trkpt lat="50.4627" lon="4.51302">
        <ele>173</ele>
        <time>2021-11-11T11:13:27Z</time>
      </trkpt>
      <trkpt lat="50.46267" lon="4.51288">
        <ele>173</ele>
        <time>2021-11-11T11:13:29Z</time>
      </trkpt>
      <trkpt lat="50.46265" lon="4.51276">
        <ele>173</ele>
        <time>2021-11-11T11:13:31Z</time>
      </trkpt>
      <trkpt lat="50.46262" lon="4.51263">
        <ele>173</ele>
        <time>2021-11-11T11:13:33Z</time>
      </trkpt>
      <trkpt lat="50.46259" lon="4.51251">
        <ele>173</ele>
        <time>2021-11-11T11:13:35Z</time>
      </trkpt>
      <trkpt lat="50.46256" lon="4.51239">
        <ele>173</ele>
        <time>2021-11-11T11:13:37Z</time>
      </trkpt>
      <trkpt lat="50.46254" lon="4.51227">
        <ele>173</ele>
        <time>2021-11-11T11:13:39Z</time>
      </trkpt>
      <trkpt lat="50.4625" lon="4.51216">
        <ele>173</ele>
        <time>2021-11-11T11:13:41Z</time>
      </trkpt>
      <trkpt lat="50.46246" lon="4.512">
        <ele>172</ele>
        <time>2021-11-11T11:13:44Z</time>
      </trkpt>
      <trkpt lat="50.46248" lon="4.51189">
        <ele>172</ele>
        <time>2021-11-11T11:13:46Z</time>
      </trkpt>
      <trkpt lat="50.46252" lon="4.51183">
        <ele>172</ele>
        <time>2021-11-11T11:13:48Z</time>
      </trkpt>
      <trkpt lat="50.46258" lon="4.5118">
        <ele>172</ele>
        <time>2021-11-11T11:13:50Z</time>
      </trkpt>
      <trkpt lat="50.46265" lon="4.51177">
        <ele>172</ele>
        <time>2021-11-11T11:13:52Z</time>
      </trkpt>
      <trkpt lat="50.46272" lon="4.51173">
        <ele>172</ele>
        <time>2021-11-11T11:13:54Z</time>
      </trkpt>
      <trkpt lat="50.46281" lon="4.51169">
        <ele>172</ele>
        <time>2021-11-11T11:13:56Z</time>
      </trkpt>
      <trkpt lat="50.46288" lon="4.51167">
        <ele>172</ele>
        <time>2021-11-11T11:13:58Z</time>
      </trkpt>
      <trkpt lat="50.46295" lon="4.51164">
        <ele>173</ele>
        <time>2021-11-11T11:14:00Z</time>
      </trkpt>
      <trkpt lat="50.46303" lon="4.5116">
        <ele>173</ele>
        <time>2021-11-11T11:14:02Z</time>
      </trkpt>
      <trkpt lat="50.46311" lon="4.51156">
        <ele>173</ele>
        <time>2021-11-11T11:14:04Z</time>
      </trkpt>
      <trkpt lat="50.46319" lon="4.51152">
        <ele>172</ele>
        <time>2021-11-11T11:14:06Z</time>
      </trkpt>
      <trkpt lat="50.46327" lon="4.51146">
        <ele>173</ele>
        <time>2021-11-11T11:14:08Z</time>
      </trkpt>
      <trkpt lat="50.46335" lon="4.51139">
        <ele>173</ele>
        <time>2021-11-11T11:14:10Z</time>
      </trkpt>
      <trkpt lat="50.46343" lon="4.51131">
        <ele>173</ele>
        <time>2021-11-11T11:14:12Z</time>
      </trkpt>
      <trkpt lat="50.46351" lon="4.51122">
        <ele>173</ele>
        <time>2021-11-11T11:14:14Z</time>
      </trkpt>
      <trkpt lat="50.46359" lon="4.51112">
        <ele>173</ele>
        <time>2021-11-11T11:14:16Z</time>
      </trkpt>
      <trkpt lat="50.46366" lon="4.51103">
        <ele>173</ele>
        <time>2021-11-11T11:14:18Z</time>
      </trkpt>
      <trkpt lat="50.46374" lon="4.51095">
        <ele>173</ele>
        <time>2021-11-11T11:14:20Z</time>
      </trkpt>
      <trkpt lat="50.46382" lon="4.51085">
        <ele>173</ele>
        <time>2021-11-11T11:14:22Z</time>
      </trkpt>
      <trkpt lat="50.46389" lon="4.51074">
        <ele>173</ele>
        <time>2021-11-11T11:14:24Z</time>
      </trkpt>
      <trkpt lat="50.46397" lon="4.51063">
        <ele>173</ele>
        <time>2021-11-11T11:14:26Z</time>
      </trkpt>
      <trkpt lat="50.46405" lon="4.51052">
        <ele>172</ele>
        <time>2021-11-11T11:14:28Z</time>
      </trkpt>
      <trkpt lat="50.46413" lon="4.51042">
        <ele>172</ele>
        <time>2021-11-11T11:14:30Z</time>
      </trkpt>
      <trkpt lat="50.4642" lon="4.51031">
        <ele>172</ele>
        <time>2021-11-11T11:14:32Z</time>
      </trkpt>
      <trkpt lat="50.46428" lon="4.5102">
        <ele>172</ele>
        <time>2021-11-11T11:14:34Z</time>
      </trkpt>
      <trkpt lat="50.46436" lon="4.5101">
        <ele>170</ele>
        <time>2021-11-11T11:14:36Z</time>
      </trkpt>
      <trkpt lat="50.46444" lon="4.50999">
        <ele>170</ele>
        <time>2021-11-11T11:14:38Z</time>
      </trkpt>
      <trkpt lat="50.46453" lon="4.50988">
        <ele>170</ele>
        <time>2021-11-11T11:14:40Z</time>
      </trkpt>
      <trkpt lat="50.46462" lon="4.50977">
        <ele>170</ele>
        <time>2021-11-11T11:14:42Z</time>
      </trkpt>
      <trkpt lat="50.4647" lon="4.50966">
        <ele>170</ele>
        <time>2021-11-11T11:14:44Z</time>
      </trkpt>
      <trkpt lat="50.46477" lon="4.50958">
        <ele>170</ele>
        <time>2021-11-11T11:14:46Z</time>
      </trkpt>
      <trkpt lat="50.46485" lon="4.50955">
        <ele>170</ele>
        <time>2021-11-11T11:14:48Z</time>
      </trkpt>
      <trkpt lat="50.46494" lon="4.50956">
        <ele>170</ele>
        <time>2021-11-11T11:14:50Z</time>
      </trkpt>
      <trkpt lat="50.46501" lon="4.5096">
        <ele>170</ele>
        <time>2021-11-11T11:14:52Z</time>
      </trkpt>
      <trkpt lat="50.46509" lon="4.50964">
        <ele>170</ele>
        <time>2021-11-11T11:14:54Z</time>
      </trkpt>
      <trkpt lat="50.46516" lon="4.5097">
        <ele>168</ele>
        <time>2021-11-11T11:14:56Z</time>
      </trkpt>
      <trkpt lat="50.46523" lon="4.50977">
        <ele>168</ele>
        <time>2021-11-11T11:14:58Z</time>
      </trkpt>
      <trkpt lat="50.46529" lon="4.50986">
        <ele>168</ele>
        <time>2021-11-11T11:15:00Z</time>
      </trkpt>
      <trkpt lat="50.46534" lon="4.50995">
        <ele>171</ele>
        <time>2021-11-11T11:15:02Z</time>
      </trkpt>
      <trkpt lat="50.46539" lon="4.50995">
        <ele>171</ele>
        <time>2021-11-11T11:15:04Z</time>
      </trkpt>
      <trkpt lat="50.46544" lon="4.50991">
        <ele>169</ele>
        <time>2021-11-11T11:15:06Z</time>
      </trkpt>
      <trkpt lat="50.46548" lon="4.50988">
        <ele>169</ele>
        <time>2021-11-11T11:15:08Z</time>
      </trkpt>
      <trkpt lat="50.46551" lon="4.50979">
        <ele>167</ele>
        <time>2021-11-11T11:15:10Z</time>
      </trkpt>
      <trkpt lat="50.46553" lon="4.50966">
        <ele>167</ele>
        <time>2021-11-11T11:15:12Z</time>
      </trkpt>
      <trkpt lat="50.46555" lon="4.50953">
        <ele>165</ele>
        <time>2021-11-11T11:15:14Z</time>
      </trkpt>
      <trkpt lat="50.46557" lon="4.5094">
        <ele>165</ele>
        <time>2021-11-11T11:15:16Z</time>
      </trkpt>
      <trkpt lat="50.46558" lon="4.50926">
        <ele>165</ele>
        <time>2021-11-11T11:15:18Z</time>
      </trkpt>
      <trkpt lat="50.4656" lon="4.50912">
        <ele>165</ele>
        <time>2021-11-11T11:15:20Z</time>
      </trkpt>
      <trkpt lat="50.46562" lon="4.50897">
        <ele>164</ele>
        <time>2021-11-11T11:15:22Z</time>
      </trkpt>
      <trkpt lat="50.46564" lon="4.50883">
        <ele>164</ele>
        <time>2021-11-11T11:15:24Z</time>
      </trkpt>
      <trkpt lat="50.46565" lon="4.50868">
        <ele>167</ele>
        <time>2021-11-11T11:15:26Z</time>
      </trkpt>
      <trkpt lat="50.46565" lon="4.50852">
        <ele>167</ele>
        <time>2021-11-11T11:15:28Z</time>
      </trkpt>
      <trkpt lat="50.46566" lon="4.50836">
        <ele>168</ele>
        <time>2021-11-11T11:15:30Z</time>
      </trkpt>
      <trkpt lat="50.46567" lon="4.5082">
        <ele>168</ele>
        <time>2021-11-11T11:15:32Z</time>
      </trkpt>
      <trkpt lat="50.46568" lon="4.50804">
        <ele>168</ele>
        <time>2021-11-11T11:15:34Z</time>
      </trkpt>
      <trkpt lat="50.46569" lon="4.50787">
        <ele>169</ele>
        <time>2021-11-11T11:15:36Z</time>
      </trkpt>
      <trkpt lat="50.4657" lon="4.50771">
        <ele>168</ele>
        <time>2021-11-11T11:15:38Z</time>
      </trkpt>
      <trkpt lat="50.46571" lon="4.50754">
        <ele>169</ele>
        <time>2021-11-11T11:15:40Z</time>
      </trkpt>
      <trkpt lat="50.46571" lon="4.50737">
        <ele>169</ele>
        <time>2021-11-11T11:15:42Z</time>
      </trkpt>
      <trkpt lat="50.46573" lon="4.50721">
        <ele>168</ele>
        <time>2021-11-11T11:15:44Z</time>
      </trkpt>
      <trkpt lat="50.46573" lon="4.50704">
        <ele>168</ele>
        <time>2021-11-11T11:15:46Z</time>
      </trkpt>
      <trkpt lat="50.46574" lon="4.50687">
        <ele>168</ele>
        <time>2021-11-11T11:15:48Z</time>
      </trkpt>
      <trkpt lat="50.46574" lon="4.5067">
        <ele>167</ele>
        <time>2021-11-11T11:15:50Z</time>
      </trkpt>
      <trkpt lat="50.46576" lon="4.50653">
        <ele>167</ele>
        <time>2021-11-11T11:15:52Z</time>
      </trkpt>
      <trkpt lat="50.46576" lon="4.50636">
        <ele>168</ele>
        <time>2021-11-11T11:15:54Z</time>
      </trkpt>
      <trkpt lat="50.46578" lon="4.50618">
        <ele>168</ele>
        <time>2021-11-11T11:15:56Z</time>
      </trkpt>
      <trkpt lat="50.46578" lon="4.506">
        <ele>168</ele>
        <time>2021-11-11T11:15:58Z</time>
      </trkpt>
      <trkpt lat="50.46579" lon="4.50583">
        <ele>169</ele>
        <time>2021-11-11T11:16:00Z</time>
      </trkpt>
      <trkpt lat="50.4658" lon="4.50565">
        <ele>170</ele>
        <time>2021-11-11T11:16:02Z</time>
      </trkpt>
      <trkpt lat="50.46581" lon="4.50547">
        <ele>170</ele>
        <time>2021-11-11T11:16:04Z</time>
      </trkpt>
      <trkpt lat="50.46582" lon="4.50529">
        <ele>170</ele>
        <time>2021-11-11T11:16:06Z</time>
      </trkpt>
      <trkpt lat="50.46582" lon="4.50511">
        <ele>171</ele>
        <time>2021-11-11T11:16:08Z</time>
      </trkpt>
      <trkpt lat="50.46583" lon="4.50493">
        <ele>171</ele>
        <time>2021-11-11T11:16:10Z</time>
      </trkpt>
      <trkpt lat="50.46584" lon="4.50476">
        <ele>169</ele>
        <time>2021-11-11T11:16:12Z</time>
      </trkpt>
      <trkpt lat="50.46584" lon="4.50458">
        <ele>168</ele>
        <time>2021-11-11T11:16:14Z</time>
      </trkpt>
      <trkpt lat="50.46585" lon="4.5044">
        <ele>168</ele>
        <time>2021-11-11T11:16:16Z</time>
      </trkpt>
      <trkpt lat="50.46586" lon="4.50422">
        <ele>168</ele>
        <time>2021-11-11T11:16:18Z</time>
      </trkpt>
      <trkpt lat="50.46587" lon="4.50404">
        <ele>168</ele>
        <time>2021-11-11T11:16:20Z</time>
      </trkpt>
      <trkpt lat="50.46587" lon="4.50386">
        <ele>169</ele>
        <time>2021-11-11T11:16:22Z</time>
      </trkpt>
      <trkpt lat="50.46588" lon="4.50368">
        <ele>169</ele>
        <time>2021-11-11T11:16:24Z</time>
      </trkpt>
      <trkpt lat="50.46587" lon="4.50351">
        <ele>169</ele>
        <time>2021-11-11T11:16:26Z</time>
      </trkpt>
      <trkpt lat="50.46584" lon="4.50335">
        <ele>171</ele>
        <time>2021-11-11T11:16:28Z</time>
      </trkpt>
      <trkpt lat="50.46578" lon="4.50319">
        <ele>170</ele>
        <time>2021-11-11T11:16:30Z</time>
      </trkpt>
      <trkpt lat="50.46577" lon="4.50301">
        <ele>170</ele>
        <time>2021-11-11T11:16:32Z</time>
      </trkpt>
      <trkpt lat="50.4658" lon="4.50285">
        <ele>171</ele>
        <time>2021-11-11T11:16:34Z</time>
      </trkpt>
      <trkpt lat="50.46586" lon="4.50272">
        <ele>171</ele>
        <time>2021-11-11T11:16:36Z</time>
      </trkpt>
      <trkpt lat="50.46592" lon="4.5026">
        <ele>170</ele>
        <time>2021-11-11T11:16:38Z</time>
      </trkpt>
      <trkpt lat="50.46595" lon="4.50244">
        <ele>170</ele>
        <time>2021-11-11T11:16:40Z</time>
      </trkpt>
      <trkpt lat="50.46595" lon="4.50227">
        <ele>171</ele>
        <time>2021-11-11T11:16:42Z</time>
      </trkpt>
      <trkpt lat="50.46596" lon="4.50208">
        <ele>169</ele>
        <time>2021-11-11T11:16:44Z</time>
      </trkpt>
      <trkpt lat="50.46597" lon="4.5019">
        <ele>169</ele>
        <time>2021-11-11T11:16:46Z</time>
      </trkpt>
      <trkpt lat="50.46598" lon="4.50172">
        <ele>169</ele>
        <time>2021-11-11T11:16:48Z</time>
      </trkpt>
      <trkpt lat="50.46599" lon="4.50154">
        <ele>169</ele>
        <time>2021-11-11T11:16:50Z</time>
      </trkpt>
      <trkpt lat="50.466" lon="4.50135">
        <ele>168</ele>
        <time>2021-11-11T11:16:52Z</time>
      </trkpt>
      <trkpt lat="50.466" lon="4.50117">
        <ele>168</ele>
        <time>2021-11-11T11:16:54Z</time>
      </trkpt>
      <trkpt lat="50.46601" lon="4.50098">
        <ele>168</ele>
        <time>2021-11-11T11:16:56Z</time>
      </trkpt>
      <trkpt lat="50.46602" lon="4.50079">
        <ele>166</ele>
        <time>2021-11-11T11:16:58Z</time>
      </trkpt>
      <trkpt lat="50.46603" lon="4.5006">
        <ele>165</ele>
        <time>2021-11-11T11:17:00Z</time>
      </trkpt>
      <trkpt lat="50.46604" lon="4.50041">
        <ele>163</ele>
        <time>2021-11-11T11:17:02Z</time>
      </trkpt>
      <trkpt lat="50.46605" lon="4.50021">
        <ele>163</ele>
        <time>2021-11-11T11:17:04Z</time>
      </trkpt>
      <trkpt lat="50.46606" lon="4.50002">
        <ele>161</ele>
        <time>2021-11-11T11:17:06Z</time>
      </trkpt>
      <trkpt lat="50.46607" lon="4.49982">
        <ele>163</ele>
        <time>2021-11-11T11:17:08Z</time>
      </trkpt>
      <trkpt lat="50.46608" lon="4.49962">
        <ele>163</ele>
        <time>2021-11-11T11:17:10Z</time>
      </trkpt>
      <trkpt lat="50.46609" lon="4.49943">
        <ele>165</ele>
        <time>2021-11-11T11:17:12Z</time>
      </trkpt>
      <trkpt lat="50.4661" lon="4.49922">
        <ele>168</ele>
        <time>2021-11-11T11:17:14Z</time>
      </trkpt>
      <trkpt lat="50.4661" lon="4.49902">
        <ele>171</ele>
        <time>2021-11-11T11:17:16Z</time>
      </trkpt>
      <trkpt lat="50.46611" lon="4.49881">
        <ele>171</ele>
        <time>2021-11-11T11:17:18Z</time>
      </trkpt>
      <trkpt lat="50.46611" lon="4.49861">
        <ele>171</ele>
        <time>2021-11-11T11:17:20Z</time>
      </trkpt>
      <trkpt lat="50.46611" lon="4.49841">
        <ele>172</ele>
        <time>2021-11-11T11:17:22Z</time>
      </trkpt>
      <trkpt lat="50.46612" lon="4.49821">
        <ele>172</ele>
        <time>2021-11-11T11:17:24Z</time>
      </trkpt>
      <trkpt lat="50.46613" lon="4.49801">
        <ele>173</ele>
        <time>2021-11-11T11:17:26Z</time>
      </trkpt>
      <trkpt lat="50.46613" lon="4.49781">
        <ele>171</ele>
        <time>2021-11-11T11:17:28Z</time>
      </trkpt>
      <trkpt lat="50.46615" lon="4.49762">
        <ele>172</ele>
        <time>2021-11-11T11:17:30Z</time>
      </trkpt>
      <trkpt lat="50.46615" lon="4.49741">
        <ele>172</ele>
        <time>2021-11-11T11:17:32Z</time>
      </trkpt>
      <trkpt lat="50.46616" lon="4.49721">
        <ele>172</ele>
        <time>2021-11-11T11:17:34Z</time>
      </trkpt>
      <trkpt lat="50.46616" lon="4.49701">
        <ele>173</ele>
        <time>2021-11-11T11:17:36Z</time>
      </trkpt>
      <trkpt lat="50.46617" lon="4.49681">
        <ele>173</ele>
        <time>2021-11-11T11:17:38Z</time>
      </trkpt>
      <trkpt lat="50.46618" lon="4.49661">
        <ele>174</ele>
        <time>2021-11-11T11:17:40Z</time>
      </trkpt>
      <trkpt lat="50.46619" lon="4.49641">
        <ele>174</ele>
        <time>2021-11-11T11:17:42Z</time>
      </trkpt>
      <trkpt lat="50.46619" lon="4.4962">
        <ele>176</ele>
        <time>2021-11-11T11:17:44Z</time>
      </trkpt>
      <trkpt lat="50.46621" lon="4.496">
        <ele>176</ele>
        <time>2021-11-11T11:17:46Z</time>
      </trkpt>
      <trkpt lat="50.46621" lon="4.49579">
        <ele>173</ele>
        <time>2021-11-11T11:17:48Z</time>
      </trkpt>
      <trkpt lat="50.46622" lon="4.49558">
        <ele>174</ele>
        <time>2021-11-11T11:17:50Z</time>
      </trkpt>
      <trkpt lat="50.46623" lon="4.49538">
        <ele>171</ele>
        <time>2021-11-11T11:17:52Z</time>
      </trkpt>
      <trkpt lat="50.46624" lon="4.49518">
        <ele>171</ele>
        <time>2021-11-11T11:17:54Z</time>
      </trkpt>
      <trkpt lat="50.46624" lon="4.49498">
        <ele>169</ele>
        <time>2021-11-11T11:17:56Z</time>
      </trkpt>
      <trkpt lat="50.46626" lon="4.49478">
        <ele>170</ele>
        <time>2021-11-11T11:17:58Z</time>
      </trkpt>
      <trkpt lat="50.46626" lon="4.49459">
        <ele>170</ele>
        <time>2021-11-11T11:18:00Z</time>
      </trkpt>
      <trkpt lat="50.46627" lon="4.49439">
        <ele>170</ele>
        <time>2021-11-11T11:18:02Z</time>
      </trkpt>
      <trkpt lat="50.46628" lon="4.49419">
        <ele>170</ele>
        <time>2021-11-11T11:18:04Z</time>
      </trkpt>
      <trkpt lat="50.46629" lon="4.49399">
        <ele>171</ele>
        <time>2021-11-11T11:18:06Z</time>
      </trkpt>
      <trkpt lat="50.46631" lon="4.49379">
        <ele>171</ele>
        <time>2021-11-11T11:18:08Z</time>
      </trkpt>
      <trkpt lat="50.46632" lon="4.49359">
        <ele>170</ele>
        <time>2021-11-11T11:18:10Z</time>
      </trkpt>
      <trkpt lat="50.46633" lon="4.49339">
        <ele>169</ele>
        <time>2021-11-11T11:18:12Z</time>
      </trkpt>
      <trkpt lat="50.46634" lon="4.49319">
        <ele>169</ele>
        <time>2021-11-11T11:18:14Z</time>
      </trkpt>
      <trkpt lat="50.46634" lon="4.493">
        <ele>169</ele>
        <time>2021-11-11T11:18:16Z</time>
      </trkpt>
      <trkpt lat="50.46635" lon="4.4928">
        <ele>167</ele>
        <time>2021-11-11T11:18:18Z</time>
      </trkpt>
      <trkpt lat="50.46636" lon="4.49261">
        <ele>168</ele>
        <time>2021-11-11T11:18:20Z</time>
      </trkpt>
      <trkpt lat="50.46637" lon="4.49241">
        <ele>168</ele>
        <time>2021-11-11T11:18:22Z</time>
      </trkpt>
      <trkpt lat="50.46637" lon="4.49222">
        <ele>168</ele>
        <time>2021-11-11T11:18:24Z</time>
      </trkpt>
      <trkpt lat="50.46639" lon="4.49203">
        <ele>169</ele>
        <time>2021-11-11T11:18:26Z</time>
      </trkpt>
      <trkpt lat="50.46639" lon="4.49184">
        <ele>169</ele>
        <time>2021-11-11T11:18:28Z</time>
      </trkpt>
      <trkpt lat="50.46637" lon="4.49166">
        <ele>169</ele>
        <time>2021-11-11T11:18:30Z</time>
      </trkpt>
      <trkpt lat="50.46634" lon="4.4915">
        <ele>170</ele>
        <time>2021-11-11T11:18:32Z</time>
      </trkpt>
      <trkpt lat="50.46631" lon="4.49135">
        <ele>170</ele>
        <time>2021-11-11T11:18:34Z</time>
      </trkpt>
      <trkpt lat="50.46627" lon="4.49119">
        <ele>170</ele>
        <time>2021-11-11T11:18:36Z</time>
      </trkpt>
      <trkpt lat="50.46623" lon="4.49103">
        <ele>170</ele>
        <time>2021-11-11T11:18:38Z</time>
      </trkpt>
      <trkpt lat="50.46619" lon="4.49088">
        <ele>170</ele>
        <time>2021-11-11T11:18:40Z</time>
      </trkpt>
      <trkpt lat="50.46614" lon="4.49072">
        <ele>170</ele>
        <time>2021-11-11T11:18:42Z</time>
      </trkpt>
      <trkpt lat="50.4661" lon="4.49055">
        <ele>170</ele>
        <time>2021-11-11T11:18:44Z</time>
      </trkpt>
      <trkpt lat="50.46606" lon="4.49039">
        <ele>171</ele>
        <time>2021-11-11T11:18:46Z</time>
      </trkpt>
      <trkpt lat="50.46601" lon="4.49023">
        <ele>171</ele>
        <time>2021-11-11T11:18:48Z</time>
      </trkpt>
      <trkpt lat="50.46597" lon="4.49006">
        <ele>171</ele>
        <time>2021-11-11T11:18:50Z</time>
      </trkpt>
      <trkpt lat="50.46593" lon="4.4899">
        <ele>171</ele>
        <time>2021-11-11T11:18:52Z</time>
      </trkpt>
      <trkpt lat="50.46588" lon="4.48974">
        <ele>172</ele>
        <time>2021-11-11T11:18:54Z</time>
      </trkpt>
      <trkpt lat="50.46584" lon="4.48958">
        <ele>172</ele>
        <time>2021-11-11T11:18:56Z</time>
      </trkpt>
      <trkpt lat="50.46579" lon="4.48941">
        <ele>172</ele>
        <time>2021-11-11T11:18:58Z</time>
      </trkpt>
      <trkpt lat="50.46575" lon="4.48926">
        <ele>172</ele>
        <time>2021-11-11T11:19:00Z</time>
      </trkpt>
      <trkpt lat="50.46571" lon="4.48909">
        <ele>172</ele>
        <time>2021-11-11T11:19:02Z</time>
      </trkpt>
      <trkpt lat="50.46566" lon="4.48893">
        <ele>172</ele>
        <time>2021-11-11T11:19:04Z</time>
      </trkpt>
      <trkpt lat="50.46562" lon="4.48877">
        <ele>172</ele>
        <time>2021-11-11T11:19:06Z</time>
      </trkpt>
      <trkpt lat="50.46558" lon="4.48861">
        <ele>171</ele>
        <time>2021-11-11T11:19:08Z</time>
      </trkpt>
      <trkpt lat="50.46553" lon="4.48845">
        <ele>171</ele>
        <time>2021-11-11T11:19:10Z</time>
      </trkpt>
      <trkpt lat="50.4655" lon="4.4883">
        <ele>171</ele>
        <time>2021-11-11T11:19:12Z</time>
      </trkpt>
      <trkpt lat="50.46546" lon="4.48814">
        <ele>171</ele>
        <time>2021-11-11T11:19:14Z</time>
      </trkpt>
      <trkpt lat="50.46542" lon="4.48799">
        <ele>173</ele>
        <time>2021-11-11T11:19:16Z</time>
      </trkpt>
      <trkpt lat="50.46537" lon="4.48783">
        <ele>171</ele>
        <time>2021-11-11T11:19:18Z</time>
      </trkpt>
      <trkpt lat="50.46533" lon="4.48768">
        <ele>171</ele>
        <time>2021-11-11T11:19:20Z</time>
      </trkpt>
      <trkpt lat="50.46529" lon="4.48753">
        <ele>173</ele>
        <time>2021-11-11T11:19:22Z</time>
      </trkpt>
      <trkpt lat="50.46525" lon="4.48737">
        <ele>173</ele>
        <time>2021-11-11T11:19:24Z</time>
      </trkpt>
      <trkpt lat="50.46521" lon="4.48722">
        <ele>174</ele>
        <time>2021-11-11T11:19:26Z</time>
      </trkpt>
      <trkpt lat="50.46517" lon="4.48706">
        <ele>173</ele>
        <time>2021-11-11T11:19:28Z</time>
      </trkpt>
      <trkpt lat="50.46513" lon="4.48691">
        <ele>174</ele>
        <time>2021-11-11T11:19:30Z</time>
      </trkpt>
      <trkpt lat="50.46509" lon="4.48675">
        <ele>175</ele>
        <time>2021-11-11T11:19:32Z</time>
      </trkpt>
      <trkpt lat="50.46505" lon="4.4866">
        <ele>175</ele>
        <time>2021-11-11T11:19:34Z</time>
      </trkpt>
      <trkpt lat="50.465" lon="4.48646">
        <ele>175</ele>
        <time>2021-11-11T11:19:36Z</time>
      </trkpt>
      <trkpt lat="50.46496" lon="4.48632">
        <ele>175</ele>
        <time>2021-11-11T11:19:38Z</time>
      </trkpt>
      <trkpt lat="50.46492" lon="4.48617">
        <ele>177</ele>
        <time>2021-11-11T11:19:40Z</time>
      </trkpt>
      <trkpt lat="50.46488" lon="4.48602">
        <ele>177</ele>
        <time>2021-11-11T11:19:42Z</time>
      </trkpt>
      <trkpt lat="50.46484" lon="4.48587">
        <ele>177</ele>
        <time>2021-11-11T11:19:44Z</time>
      </trkpt>
      <trkpt lat="50.4648" lon="4.48572">
        <ele>177</ele>
        <time>2021-11-11T11:19:46Z</time>
      </trkpt>
      <trkpt lat="50.46476" lon="4.48556">
        <ele>175</ele>
        <time>2021-11-11T11:19:48Z</time>
      </trkpt>
      <trkpt lat="50.46472" lon="4.48541">
        <ele>176</ele>
        <time>2021-11-11T11:19:50Z</time>
      </trkpt>
      <trkpt lat="50.46468" lon="4.48526">
        <ele>176</ele>
        <time>2021-11-11T11:19:52Z</time>
      </trkpt>
      <trkpt lat="50.46463" lon="4.48511">
        <ele>175</ele>
        <time>2021-11-11T11:19:54Z</time>
      </trkpt>
      <trkpt lat="50.46459" lon="4.48496">
        <ele>175</ele>
        <time>2021-11-11T11:19:56Z</time>
      </trkpt>
      <trkpt lat="50.46455" lon="4.4848">
        <ele>177</ele>
        <time>2021-11-11T11:19:58Z</time>
      </trkpt>
      <trkpt lat="50.46452" lon="4.48466">
        <ele>177</ele>
        <time>2021-11-11T11:20:00Z</time>
      </trkpt>
      <trkpt lat="50.46448" lon="4.4845">
        <ele>177</ele>
        <time>2021-11-11T11:20:02Z</time>
      </trkpt>
      <trkpt lat="50.46444" lon="4.48435">
        <ele>177</ele>
        <time>2021-11-11T11:20:04Z</time>
      </trkpt>
      <trkpt lat="50.46439" lon="4.48419">
        <ele>178</ele>
        <time>2021-11-11T11:20:06Z</time>
      </trkpt>
      <trkpt lat="50.46435" lon="4.48404">
        <ele>178</ele>
        <time>2021-11-11T11:20:08Z</time>
      </trkpt>
      <trkpt lat="50.46431" lon="4.48389">
        <ele>176</ele>
        <time>2021-11-11T11:20:10Z</time>
      </trkpt>
      <trkpt lat="50.46427" lon="4.48375">
        <ele>177</ele>
        <time>2021-11-11T11:20:12Z</time>
      </trkpt>
      <trkpt lat="50.46423" lon="4.48361">
        <ele>177</ele>
        <time>2021-11-11T11:20:14Z</time>
      </trkpt>
      <trkpt lat="50.4642" lon="4.48348">
        <ele>177</ele>
        <time>2021-11-11T11:20:16Z</time>
      </trkpt>
      <trkpt lat="50.46416" lon="4.48336">
        <ele>176</ele>
        <time>2021-11-11T11:20:18Z</time>
      </trkpt>
      <trkpt lat="50.46412" lon="4.48325">
        <ele>176</ele>
        <time>2021-11-11T11:20:20Z</time>
      </trkpt>
      <trkpt lat="50.46409" lon="4.48314">
        <ele>177</ele>
        <time>2021-11-11T11:20:22Z</time>
      </trkpt>
      <trkpt lat="50.46406" lon="4.48303">
        <ele>177</ele>
        <time>2021-11-11T11:20:24Z</time>
      </trkpt>
      <trkpt lat="50.46404" lon="4.48291">
        <ele>176</ele>
        <time>2021-11-11T11:20:26Z</time>
      </trkpt>
      <trkpt lat="50.46399" lon="4.48274">
        <ele>178</ele>
        <time>2021-11-11T11:20:29Z</time>
      </trkpt>
      <trkpt lat="50.46396" lon="4.48265">
        <ele>178</ele>
        <time>2021-11-11T11:20:31Z</time>
      </trkpt>
      <trkpt lat="50.46393" lon="4.48258">
        <ele>178</ele>
        <time>2021-11-11T11:20:33Z</time>
      </trkpt>
      <trkpt lat="50.46388" lon="4.48255">
        <ele>178</ele>
        <time>2021-11-11T11:20:35Z</time>
      </trkpt>
      <trkpt lat="50.46383" lon="4.48258">
        <ele>178</ele>
        <time>2021-11-11T11:20:37Z</time>
      </trkpt>
      <trkpt lat="50.46375" lon="4.48259">
        <ele>178</ele>
        <time>2021-11-11T11:20:39Z</time>
      </trkpt>
      <trkpt lat="50.46366" lon="4.4826">
        <ele>178</ele>
        <time>2021-11-11T11:20:41Z</time>
      </trkpt>
      <trkpt lat="50.46357" lon="4.48259">
        <ele>178</ele>
        <time>2021-11-11T11:20:43Z</time>
      </trkpt>
      <trkpt lat="50.46347" lon="4.48258">
        <ele>178</ele>
        <time>2021-11-11T11:20:45Z</time>
      </trkpt>
      <trkpt lat="50.46337" lon="4.48259">
        <ele>178</ele>
        <time>2021-11-11T11:20:47Z</time>
      </trkpt>
      <trkpt lat="50.46327" lon="4.48258">
        <ele>178</ele>
        <time>2021-11-11T11:20:49Z</time>
      </trkpt>
      <trkpt lat="50.46317" lon="4.48258">
        <ele>178</ele>
        <time>2021-11-11T11:20:51Z</time>
      </trkpt>
      <trkpt lat="50.46307" lon="4.48255">
        <ele>178</ele>
        <time>2021-11-11T11:20:53Z</time>
      </trkpt>
      <trkpt lat="50.46297" lon="4.48251">
        <ele>178</ele>
        <time>2021-11-11T11:20:55Z</time>
      </trkpt>
      <trkpt lat="50.46286" lon="4.48249">
        <ele>177</ele>
        <time>2021-11-11T11:20:57Z</time>
      </trkpt>
      <trkpt lat="50.46277" lon="4.48246">
        <ele>177</ele>
        <time>2021-11-11T11:20:59Z</time>
      </trkpt>
      <trkpt lat="50.46266" lon="4.48244">
        <ele>177</ele>
        <time>2021-11-11T11:21:01Z</time>
      </trkpt>
      <trkpt lat="50.46257" lon="4.48242">
        <ele>176</ele>
        <time>2021-11-11T11:21:03Z</time>
      </trkpt>
      <trkpt lat="50.46248" lon="4.48241">
        <ele>176</ele>
        <time>2021-11-11T11:21:05Z</time>
      </trkpt>
      <trkpt lat="50.46238" lon="4.4824">
        <ele>176</ele>
        <time>2021-11-11T11:21:07Z</time>
      </trkpt>
      <trkpt lat="50.46229" lon="4.48239">
        <ele>175</ele>
        <time>2021-11-11T11:21:09Z</time>
      </trkpt>
      <trkpt lat="50.4622" lon="4.48238">
        <ele>175</ele>
        <time>2021-11-11T11:21:11Z</time>
      </trkpt>
      <trkpt lat="50.46211" lon="4.4824">
        <ele>175</ele>
        <time>2021-11-11T11:21:13Z</time>
      </trkpt>
      <trkpt lat="50.46203" lon="4.48245">
        <ele>174</ele>
        <time>2021-11-11T11:21:15Z</time>
      </trkpt>
      <trkpt lat="50.46197" lon="4.48254">
        <ele>174</ele>
        <time>2021-11-11T11:21:17Z</time>
      </trkpt>
    </trkseg>
  </trk>
</gpx>